<?xml version="1.0" encoding="UTF-8" standalone="no" ?>
<gpx xmlns="http://www.topografix.com/GPX/1/1" xmlns:xsi="http://www.w3.org/2001/XMLSchema-instance" xsi:schemaLocation="http://www.topografix.com/GPX/1/1 http://www.topografix.com/GPX/1/1/gpx.xsd" version="1.1" creator="VisuGPX - https://www.visugpx.com">
  <metadata>
    <name>Pornichet 19/09/2021</name>
    <desc><![CDATA[Sortie VTT dimanche 19 septembre 2021]]></desc>
  </metadata>
  <trk>
    <name><![CDATA[Pornichet Cyclisme]]></name>
    <trkseg>
      <trkpt lat="47.2642" lon="-2.31549">
        <ele>13.199999809265</ele>
        <time>2021-09-19T06:54:46.000Z</time>
      </trkpt>
      <trkpt lat="47.2642" lon="-2.31549">
        <ele>13.199999809265</ele>
        <time>2021-09-19T06:54:47.000Z</time>
      </trkpt>
      <trkpt lat="47.2642" lon="-2.31549">
        <ele>12.800000190735</ele>
        <time>2021-09-19T06:54:50.000Z</time>
      </trkpt>
      <trkpt lat="47.26415" lon="-2.3155">
        <ele>12.800000190735</ele>
        <time>2021-09-19T06:54:52.000Z</time>
      </trkpt>
      <trkpt lat="47.2641" lon="-2.31562">
        <ele>12.800000190735</ele>
        <time>2021-09-19T06:54:56.000Z</time>
      </trkpt>
      <trkpt lat="47.2641" lon="-2.3159">
        <ele>12.800000190735</ele>
        <time>2021-09-19T06:55:02.000Z</time>
      </trkpt>
      <trkpt lat="47.2641" lon="-2.31596">
        <ele>12.800000190735</ele>
        <time>2021-09-19T06:55:03.000Z</time>
      </trkpt>
      <trkpt lat="47.26411" lon="-2.31641">
        <ele>12.800000190735</ele>
        <time>2021-09-19T06:55:11.000Z</time>
      </trkpt>
      <trkpt lat="47.26411" lon="-2.31664">
        <ele>12.800000190735</ele>
        <time>2021-09-19T06:55:16.000Z</time>
      </trkpt>
      <trkpt lat="47.26409" lon="-2.31667">
        <ele>12.800000190735</ele>
        <time>2021-09-19T06:55:17.000Z</time>
      </trkpt>
      <trkpt lat="47.26404" lon="-2.31672">
        <ele>12.800000190735</ele>
        <time>2021-09-19T06:55:19.000Z</time>
      </trkpt>
      <trkpt lat="47.264" lon="-2.31674">
        <ele>12.39999961853</ele>
        <time>2021-09-19T06:55:20.000Z</time>
      </trkpt>
      <trkpt lat="47.26396" lon="-2.31676">
        <ele>12</ele>
        <time>2021-09-19T06:55:21.000Z</time>
      </trkpt>
      <trkpt lat="47.26392" lon="-2.31679">
        <ele>11.60000038147</ele>
        <time>2021-09-19T06:55:22.000Z</time>
      </trkpt>
      <trkpt lat="47.26388" lon="-2.31683">
        <ele>11.199999809265</ele>
        <time>2021-09-19T06:55:23.000Z</time>
      </trkpt>
      <trkpt lat="47.26383" lon="-2.31686">
        <ele>10.800000190735</ele>
        <time>2021-09-19T06:55:24.000Z</time>
      </trkpt>
      <trkpt lat="47.26357" lon="-2.31702">
        <ele>10.800000190735</ele>
        <time>2021-09-19T06:55:30.000Z</time>
      </trkpt>
      <trkpt lat="47.2632" lon="-2.31721">
        <ele>10.199999809265</ele>
        <time>2021-09-19T06:55:37.000Z</time>
      </trkpt>
      <trkpt lat="47.26315" lon="-2.31723">
        <ele>9.8000001907349</ele>
        <time>2021-09-19T06:55:38.000Z</time>
      </trkpt>
      <trkpt lat="47.26311" lon="-2.31728">
        <ele>9</ele>
        <time>2021-09-19T06:55:39.000Z</time>
      </trkpt>
      <trkpt lat="47.26308" lon="-2.31733">
        <ele>8.6000003814697</ele>
        <time>2021-09-19T06:55:40.000Z</time>
      </trkpt>
      <trkpt lat="47.26305" lon="-2.31743">
        <ele>8.6000003814697</ele>
        <time>2021-09-19T06:55:42.000Z</time>
      </trkpt>
      <trkpt lat="47.26305" lon="-2.31749">
        <ele>8.6000003814697</ele>
        <time>2021-09-19T06:55:43.000Z</time>
      </trkpt>
      <trkpt lat="47.26308" lon="-2.31784">
        <ele>8.6000003814697</ele>
        <time>2021-09-19T06:55:49.000Z</time>
      </trkpt>
      <trkpt lat="47.26306" lon="-2.3182">
        <ele>8.6000003814697</ele>
        <time>2021-09-19T06:55:55.000Z</time>
      </trkpt>
      <trkpt lat="47.26303" lon="-2.31858">
        <ele>8.6000003814697</ele>
        <time>2021-09-19T06:56:01.000Z</time>
      </trkpt>
      <trkpt lat="47.26303" lon="-2.31865">
        <ele>8.6000003814697</ele>
        <time>2021-09-19T06:56:02.000Z</time>
      </trkpt>
      <trkpt lat="47.26304" lon="-2.31871">
        <ele>8.1999998092651</ele>
        <time>2021-09-19T06:56:03.000Z</time>
      </trkpt>
      <trkpt lat="47.26304" lon="-2.31877">
        <ele>7.8000001907349</ele>
        <time>2021-09-19T06:56:04.000Z</time>
      </trkpt>
      <trkpt lat="47.26303" lon="-2.31882">
        <ele>7.4000000953674</ele>
        <time>2021-09-19T06:56:05.000Z</time>
      </trkpt>
      <trkpt lat="47.26302" lon="-2.31886">
        <ele>7</ele>
        <time>2021-09-19T06:56:06.000Z</time>
      </trkpt>
      <trkpt lat="47.26301" lon="-2.3189">
        <ele>6.5999999046326</ele>
        <time>2021-09-19T06:56:07.000Z</time>
      </trkpt>
      <trkpt lat="47.26292" lon="-2.31897">
        <ele>6.5999999046326</ele>
        <time>2021-09-19T06:56:09.000Z</time>
      </trkpt>
      <trkpt lat="47.26287" lon="-2.319">
        <ele>6.5999999046326</ele>
        <time>2021-09-19T06:56:10.000Z</time>
      </trkpt>
      <trkpt lat="47.26268" lon="-2.31927">
        <ele>6.5999999046326</ele>
        <time>2021-09-19T06:56:16.000Z</time>
      </trkpt>
      <trkpt lat="47.26254" lon="-2.31955">
        <ele>6.5999999046326</ele>
        <time>2021-09-19T06:56:22.000Z</time>
      </trkpt>
      <trkpt lat="47.26247" lon="-2.31973">
        <ele>6.5999999046326</ele>
        <time>2021-09-19T06:56:26.000Z</time>
      </trkpt>
      <trkpt lat="47.26245" lon="-2.31976">
        <ele>6.5999999046326</ele>
        <time>2021-09-19T06:56:27.000Z</time>
      </trkpt>
      <trkpt lat="47.26236" lon="-2.31982">
        <ele>6.5999999046326</ele>
        <time>2021-09-19T06:56:30.000Z</time>
      </trkpt>
      <trkpt lat="47.26233" lon="-2.31986">
        <ele>6.5999999046326</ele>
        <time>2021-09-19T06:56:31.000Z</time>
      </trkpt>
      <trkpt lat="47.26219" lon="-2.32">
        <ele>6.5999999046326</ele>
        <time>2021-09-19T06:56:36.000Z</time>
      </trkpt>
      <trkpt lat="47.26209" lon="-2.32009">
        <ele>6.5999999046326</ele>
        <time>2021-09-19T06:56:40.000Z</time>
      </trkpt>
      <trkpt lat="47.26207" lon="-2.32013">
        <ele>6.5999999046326</ele>
        <time>2021-09-19T06:56:41.000Z</time>
      </trkpt>
      <trkpt lat="47.26203" lon="-2.32019">
        <ele>6.5999999046326</ele>
        <time>2021-09-19T06:56:43.000Z</time>
      </trkpt>
      <trkpt lat="47.26198" lon="-2.32021">
        <ele>6.5999999046326</ele>
        <time>2021-09-19T06:56:45.000Z</time>
      </trkpt>
      <trkpt lat="47.26185" lon="-2.32022">
        <ele>6.5999999046326</ele>
        <time>2021-09-19T06:56:49.000Z</time>
      </trkpt>
      <trkpt lat="47.26182" lon="-2.32023">
        <ele>6.5999999046326</ele>
        <time>2021-09-19T06:56:50.000Z</time>
      </trkpt>
      <trkpt lat="47.26161" lon="-2.32036">
        <ele>6.5999999046326</ele>
        <time>2021-09-19T06:56:56.000Z</time>
      </trkpt>
      <trkpt lat="47.26153" lon="-2.3205">
        <ele>6.5999999046326</ele>
        <time>2021-09-19T06:56:59.000Z</time>
      </trkpt>
      <trkpt lat="47.2615" lon="-2.32062">
        <ele>6.5999999046326</ele>
        <time>2021-09-19T06:57:01.000Z</time>
      </trkpt>
      <trkpt lat="47.26149" lon="-2.32068">
        <ele>6.5999999046326</ele>
        <time>2021-09-19T06:57:02.000Z</time>
      </trkpt>
      <trkpt lat="47.26138" lon="-2.32101">
        <ele>6.5999999046326</ele>
        <time>2021-09-19T06:57:08.000Z</time>
      </trkpt>
      <trkpt lat="47.2613" lon="-2.3213">
        <ele>6.5999999046326</ele>
        <time>2021-09-19T06:57:14.000Z</time>
      </trkpt>
      <trkpt lat="47.26122" lon="-2.32161">
        <ele>6.5999999046326</ele>
        <time>2021-09-19T06:57:20.000Z</time>
      </trkpt>
      <trkpt lat="47.26109" lon="-2.3219">
        <ele>6.5999999046326</ele>
        <time>2021-09-19T06:57:26.000Z</time>
      </trkpt>
      <trkpt lat="47.26094" lon="-2.32218">
        <ele>6.5999999046326</ele>
        <time>2021-09-19T06:57:32.000Z</time>
      </trkpt>
      <trkpt lat="47.26071" lon="-2.32246">
        <ele>6.5999999046326</ele>
        <time>2021-09-19T06:57:38.000Z</time>
      </trkpt>
      <trkpt lat="47.26042" lon="-2.32276">
        <ele>6.5999999046326</ele>
        <time>2021-09-19T06:57:45.000Z</time>
      </trkpt>
      <trkpt lat="47.26031" lon="-2.3229">
        <ele>6.5999999046326</ele>
        <time>2021-09-19T06:57:48.000Z</time>
      </trkpt>
      <trkpt lat="47.26018" lon="-2.32302">
        <ele>6.5999999046326</ele>
        <time>2021-09-19T06:57:51.000Z</time>
      </trkpt>
      <trkpt lat="47.25988" lon="-2.32339">
        <ele>6.5999999046326</ele>
        <time>2021-09-19T06:57:59.000Z</time>
      </trkpt>
      <trkpt lat="47.25981" lon="-2.32349">
        <ele>6.5999999046326</ele>
        <time>2021-09-19T06:58:01.000Z</time>
      </trkpt>
      <trkpt lat="47.25967" lon="-2.32366">
        <ele>6.5999999046326</ele>
        <time>2021-09-19T06:58:05.000Z</time>
      </trkpt>
      <trkpt lat="47.25936" lon="-2.32406">
        <ele>6.5999999046326</ele>
        <time>2021-09-19T06:58:14.000Z</time>
      </trkpt>
      <trkpt lat="47.25912" lon="-2.32438">
        <ele>6.5999999046326</ele>
        <time>2021-09-19T06:58:21.000Z</time>
      </trkpt>
      <trkpt lat="47.25886" lon="-2.32467">
        <ele>6.5999999046326</ele>
        <time>2021-09-19T06:58:29.000Z</time>
      </trkpt>
      <trkpt lat="47.2586" lon="-2.32475">
        <ele>6.5999999046326</ele>
        <time>2021-09-19T06:58:35.000Z</time>
      </trkpt>
      <trkpt lat="47.25838" lon="-2.32472">
        <ele>6.5999999046326</ele>
        <time>2021-09-19T06:58:40.000Z</time>
      </trkpt>
      <trkpt lat="47.25834" lon="-2.32471">
        <ele>6.5999999046326</ele>
        <time>2021-09-19T06:58:41.000Z</time>
      </trkpt>
      <trkpt lat="47.25809" lon="-2.32458">
        <ele>6.5999999046326</ele>
        <time>2021-09-19T06:58:47.000Z</time>
      </trkpt>
      <trkpt lat="47.25805" lon="-2.32457">
        <ele>6.5999999046326</ele>
        <time>2021-09-19T06:58:48.000Z</time>
      </trkpt>
      <trkpt lat="47.25793" lon="-2.32458">
        <ele>6.5999999046326</ele>
        <time>2021-09-19T06:58:51.000Z</time>
      </trkpt>
      <trkpt lat="47.25786" lon="-2.32457">
        <ele>6.5999999046326</ele>
        <time>2021-09-19T06:58:53.000Z</time>
      </trkpt>
      <trkpt lat="47.25779" lon="-2.32453">
        <ele>6.5999999046326</ele>
        <time>2021-09-19T06:58:55.000Z</time>
      </trkpt>
      <trkpt lat="47.25773" lon="-2.32444">
        <ele>6.5999999046326</ele>
        <time>2021-09-19T06:58:57.000Z</time>
      </trkpt>
      <trkpt lat="47.25761" lon="-2.32428">
        <ele>6.5999999046326</ele>
        <time>2021-09-19T06:59:01.000Z</time>
      </trkpt>
      <trkpt lat="47.25747" lon="-2.32426">
        <ele>6.5999999046326</ele>
        <time>2021-09-19T06:59:04.000Z</time>
      </trkpt>
      <trkpt lat="47.25742" lon="-2.32426">
        <ele>6.5999999046326</ele>
        <time>2021-09-19T06:59:05.000Z</time>
      </trkpt>
      <trkpt lat="47.25706" lon="-2.32425">
        <ele>6.5999999046326</ele>
        <time>2021-09-19T06:59:12.000Z</time>
      </trkpt>
      <trkpt lat="47.25674" lon="-2.32422">
        <ele>6.5999999046326</ele>
        <time>2021-09-19T06:59:19.000Z</time>
      </trkpt>
      <trkpt lat="47.2567" lon="-2.32422">
        <ele>6.5999999046326</ele>
        <time>2021-09-19T06:59:20.000Z</time>
      </trkpt>
      <trkpt lat="47.25662" lon="-2.32431">
        <ele>6.5999999046326</ele>
        <time>2021-09-19T06:59:23.000Z</time>
      </trkpt>
      <trkpt lat="47.25663" lon="-2.32453">
        <ele>6.5999999046326</ele>
        <time>2021-09-19T06:59:27.000Z</time>
      </trkpt>
      <trkpt lat="47.25664" lon="-2.32459">
        <ele>6.5999999046326</ele>
        <time>2021-09-19T06:59:28.000Z</time>
      </trkpt>
      <trkpt lat="47.25675" lon="-2.32489">
        <ele>6.5999999046326</ele>
        <time>2021-09-19T06:59:34.000Z</time>
      </trkpt>
      <trkpt lat="47.2568" lon="-2.32505">
        <ele>7</ele>
        <time>2021-09-19T06:59:37.000Z</time>
      </trkpt>
      <trkpt lat="47.25682" lon="-2.3251">
        <ele>7.4000000953674</ele>
        <time>2021-09-19T06:59:38.000Z</time>
      </trkpt>
      <trkpt lat="47.25683" lon="-2.32516">
        <ele>8</ele>
        <time>2021-09-19T06:59:39.000Z</time>
      </trkpt>
      <trkpt lat="47.25685" lon="-2.32521">
        <ele>8.3999996185303</ele>
        <time>2021-09-19T06:59:40.000Z</time>
      </trkpt>
      <trkpt lat="47.25687" lon="-2.32526">
        <ele>8.8000001907349</ele>
        <time>2021-09-19T06:59:41.000Z</time>
      </trkpt>
      <trkpt lat="47.25689" lon="-2.3253">
        <ele>8.8000001907349</ele>
        <time>2021-09-19T06:59:42.000Z</time>
      </trkpt>
      <trkpt lat="47.25696" lon="-2.32555">
        <ele>8.8000001907349</ele>
        <time>2021-09-19T06:59:47.000Z</time>
      </trkpt>
      <trkpt lat="47.25702" lon="-2.32575">
        <ele>9.1999998092651</ele>
        <time>2021-09-19T06:59:51.000Z</time>
      </trkpt>
      <trkpt lat="47.25704" lon="-2.3258">
        <ele>9.6000003814697</ele>
        <time>2021-09-19T06:59:52.000Z</time>
      </trkpt>
      <trkpt lat="47.25705" lon="-2.32585">
        <ele>10</ele>
        <time>2021-09-19T06:59:53.000Z</time>
      </trkpt>
      <trkpt lat="47.25707" lon="-2.3259">
        <ele>10.39999961853</ele>
        <time>2021-09-19T06:59:54.000Z</time>
      </trkpt>
      <trkpt lat="47.25708" lon="-2.32596">
        <ele>11</ele>
        <time>2021-09-19T06:59:55.000Z</time>
      </trkpt>
      <trkpt lat="47.25711" lon="-2.32617">
        <ele>11</ele>
        <time>2021-09-19T06:59:59.000Z</time>
      </trkpt>
      <trkpt lat="47.25709" lon="-2.32621">
        <ele>11</ele>
        <time>2021-09-19T07:00:00.000Z</time>
      </trkpt>
      <trkpt lat="47.25703" lon="-2.32626">
        <ele>11</ele>
        <time>2021-09-19T07:00:02.000Z</time>
      </trkpt>
      <trkpt lat="47.25682" lon="-2.32635">
        <ele>11</ele>
        <time>2021-09-19T07:00:08.000Z</time>
      </trkpt>
      <trkpt lat="47.25653" lon="-2.32646">
        <ele>11</ele>
        <time>2021-09-19T07:00:16.000Z</time>
      </trkpt>
      <trkpt lat="47.25646" lon="-2.3265">
        <ele>11.39999961853</ele>
        <time>2021-09-19T07:00:18.000Z</time>
      </trkpt>
      <trkpt lat="47.25642" lon="-2.32651">
        <ele>11.800000190735</ele>
        <time>2021-09-19T07:00:19.000Z</time>
      </trkpt>
      <trkpt lat="47.25638" lon="-2.32653">
        <ele>12.199999809265</ele>
        <time>2021-09-19T07:00:20.000Z</time>
      </trkpt>
      <trkpt lat="47.25635" lon="-2.32654">
        <ele>12.60000038147</ele>
        <time>2021-09-19T07:00:21.000Z</time>
      </trkpt>
      <trkpt lat="47.25631" lon="-2.32656">
        <ele>13</ele>
        <time>2021-09-19T07:00:22.000Z</time>
      </trkpt>
      <trkpt lat="47.25628" lon="-2.32658">
        <ele>13</ele>
        <time>2021-09-19T07:00:23.000Z</time>
      </trkpt>
      <trkpt lat="47.25606" lon="-2.32667">
        <ele>13</ele>
        <time>2021-09-19T07:00:29.000Z</time>
      </trkpt>
      <trkpt lat="47.2558" lon="-2.32679">
        <ele>13</ele>
        <time>2021-09-19T07:00:36.000Z</time>
      </trkpt>
      <trkpt lat="47.25546" lon="-2.32693">
        <ele>13</ele>
        <time>2021-09-19T07:00:44.000Z</time>
      </trkpt>
      <trkpt lat="47.25507" lon="-2.32701">
        <ele>13</ele>
        <time>2021-09-19T07:00:53.000Z</time>
      </trkpt>
      <trkpt lat="47.25486" lon="-2.32706">
        <ele>13</ele>
        <time>2021-09-19T07:00:58.000Z</time>
      </trkpt>
      <trkpt lat="47.25478" lon="-2.32712">
        <ele>13</ele>
        <time>2021-09-19T07:01:00.000Z</time>
      </trkpt>
      <trkpt lat="47.25471" lon="-2.3272">
        <ele>13</ele>
        <time>2021-09-19T07:01:02.000Z</time>
      </trkpt>
      <trkpt lat="47.25451" lon="-2.32749">
        <ele>13</ele>
        <time>2021-09-19T07:01:08.000Z</time>
      </trkpt>
      <trkpt lat="47.25439" lon="-2.32767">
        <ele>13</ele>
        <time>2021-09-19T07:01:12.000Z</time>
      </trkpt>
      <trkpt lat="47.25435" lon="-2.32778">
        <ele>13</ele>
        <time>2021-09-19T07:01:14.000Z</time>
      </trkpt>
      <trkpt lat="47.25431" lon="-2.32788">
        <ele>13</ele>
        <time>2021-09-19T07:01:16.000Z</time>
      </trkpt>
      <trkpt lat="47.25425" lon="-2.32796">
        <ele>13</ele>
        <time>2021-09-19T07:01:18.000Z</time>
      </trkpt>
      <trkpt lat="47.25399" lon="-2.32831">
        <ele>13</ele>
        <time>2021-09-19T07:01:25.000Z</time>
      </trkpt>
      <trkpt lat="47.25365" lon="-2.3287">
        <ele>12.60000038147</ele>
        <time>2021-09-19T07:01:34.000Z</time>
      </trkpt>
      <trkpt lat="47.25361" lon="-2.32873">
        <ele>12.199999809265</ele>
        <time>2021-09-19T07:01:35.000Z</time>
      </trkpt>
      <trkpt lat="47.25357" lon="-2.32877">
        <ele>11.800000190735</ele>
        <time>2021-09-19T07:01:36.000Z</time>
      </trkpt>
      <trkpt lat="47.25353" lon="-2.3288">
        <ele>11.39999961853</ele>
        <time>2021-09-19T07:01:37.000Z</time>
      </trkpt>
      <trkpt lat="47.25349" lon="-2.32884">
        <ele>11</ele>
        <time>2021-09-19T07:01:38.000Z</time>
      </trkpt>
      <trkpt lat="47.25333" lon="-2.329">
        <ele>11</ele>
        <time>2021-09-19T07:01:42.000Z</time>
      </trkpt>
      <trkpt lat="47.25322" lon="-2.32912">
        <ele>11</ele>
        <time>2021-09-19T07:01:45.000Z</time>
      </trkpt>
      <trkpt lat="47.25311" lon="-2.32923">
        <ele>11</ele>
        <time>2021-09-19T07:01:48.000Z</time>
      </trkpt>
      <trkpt lat="47.25308" lon="-2.32943">
        <ele>11</ele>
        <time>2021-09-19T07:01:51.000Z</time>
      </trkpt>
      <trkpt lat="47.25315" lon="-2.32967">
        <ele>11</ele>
        <time>2021-09-19T07:01:55.000Z</time>
      </trkpt>
      <trkpt lat="47.25326" lon="-2.32992">
        <ele>11</ele>
        <time>2021-09-19T07:01:59.000Z</time>
      </trkpt>
      <trkpt lat="47.25331" lon="-2.33005">
        <ele>11</ele>
        <time>2021-09-19T07:02:01.000Z</time>
      </trkpt>
      <trkpt lat="47.25352" lon="-2.33062">
        <ele>11</ele>
        <time>2021-09-19T07:02:10.000Z</time>
      </trkpt>
      <trkpt lat="47.25363" lon="-2.3309">
        <ele>11</ele>
        <time>2021-09-19T07:02:15.000Z</time>
      </trkpt>
      <trkpt lat="47.25366" lon="-2.33098">
        <ele>11</ele>
        <time>2021-09-19T07:02:17.000Z</time>
      </trkpt>
      <trkpt lat="47.25367" lon="-2.33101">
        <ele>11</ele>
        <time>2021-09-19T07:02:19.000Z</time>
      </trkpt>
      <trkpt lat="47.25373" lon="-2.33108">
        <ele>9</ele>
        <time>2021-09-19T07:07:10.000Z</time>
      </trkpt>
      <trkpt lat="47.25374" lon="-2.3311">
        <ele>9</ele>
        <time>2021-09-19T07:07:11.000Z</time>
      </trkpt>
      <trkpt lat="47.25379" lon="-2.33128">
        <ele>9</ele>
        <time>2021-09-19T07:07:17.000Z</time>
      </trkpt>
      <trkpt lat="47.25385" lon="-2.33136">
        <ele>9</ele>
        <time>2021-09-19T07:07:20.000Z</time>
      </trkpt>
      <trkpt lat="47.25388" lon="-2.33135">
        <ele>9</ele>
        <time>2021-09-19T07:07:21.000Z</time>
      </trkpt>
      <trkpt lat="47.25401" lon="-2.33128">
        <ele>9</ele>
        <time>2021-09-19T07:07:25.000Z</time>
      </trkpt>
      <trkpt lat="47.25423" lon="-2.33118">
        <ele>9</ele>
        <time>2021-09-19T07:07:31.000Z</time>
      </trkpt>
      <trkpt lat="47.25459" lon="-2.33103">
        <ele>9</ele>
        <time>2021-09-19T07:07:39.000Z</time>
      </trkpt>
      <trkpt lat="47.25487" lon="-2.33085">
        <ele>9</ele>
        <time>2021-09-19T07:07:46.000Z</time>
      </trkpt>
      <trkpt lat="47.25494" lon="-2.33077">
        <ele>9</ele>
        <time>2021-09-19T07:07:50.000Z</time>
      </trkpt>
      <trkpt lat="47.2551" lon="-2.33059">
        <ele>9</ele>
        <time>2021-09-19T07:07:55.000Z</time>
      </trkpt>
      <trkpt lat="47.2552" lon="-2.33049">
        <ele>9</ele>
        <time>2021-09-19T07:07:58.000Z</time>
      </trkpt>
      <trkpt lat="47.25529" lon="-2.33045">
        <ele>9</ele>
        <time>2021-09-19T07:08:00.000Z</time>
      </trkpt>
      <trkpt lat="47.25553" lon="-2.33038">
        <ele>9</ele>
        <time>2021-09-19T07:08:06.000Z</time>
      </trkpt>
      <trkpt lat="47.25586" lon="-2.33029">
        <ele>9</ele>
        <time>2021-09-19T07:08:15.000Z</time>
      </trkpt>
      <trkpt lat="47.25605" lon="-2.33026">
        <ele>9</ele>
        <time>2021-09-19T07:08:21.000Z</time>
      </trkpt>
      <trkpt lat="47.25614" lon="-2.33014">
        <ele>9</ele>
        <time>2021-09-19T07:08:26.000Z</time>
      </trkpt>
      <trkpt lat="47.25615" lon="-2.33007">
        <ele>9.3999996185303</ele>
        <time>2021-09-19T07:08:28.000Z</time>
      </trkpt>
      <trkpt lat="47.25615" lon="-2.33003">
        <ele>9.8000001907349</ele>
        <time>2021-09-19T07:08:29.000Z</time>
      </trkpt>
      <trkpt lat="47.25614" lon="-2.32999">
        <ele>10.199999809265</ele>
        <time>2021-09-19T07:08:30.000Z</time>
      </trkpt>
      <trkpt lat="47.25613" lon="-2.32995">
        <ele>10.60000038147</ele>
        <time>2021-09-19T07:08:31.000Z</time>
      </trkpt>
      <trkpt lat="47.25613" lon="-2.32992">
        <ele>11</ele>
        <time>2021-09-19T07:08:32.000Z</time>
      </trkpt>
      <trkpt lat="47.25608" lon="-2.32964">
        <ele>11</ele>
        <time>2021-09-19T07:08:39.000Z</time>
      </trkpt>
      <trkpt lat="47.25603" lon="-2.3293">
        <ele>11</ele>
        <time>2021-09-19T07:08:47.000Z</time>
      </trkpt>
      <trkpt lat="47.256" lon="-2.3291">
        <ele>11</ele>
        <time>2021-09-19T07:08:52.000Z</time>
      </trkpt>
      <trkpt lat="47.25594" lon="-2.32878">
        <ele>11</ele>
        <time>2021-09-19T07:08:59.000Z</time>
      </trkpt>
      <trkpt lat="47.25589" lon="-2.32831">
        <ele>11</ele>
        <time>2021-09-19T07:09:07.000Z</time>
      </trkpt>
      <trkpt lat="47.2559" lon="-2.32824">
        <ele>11</ele>
        <time>2021-09-19T07:09:08.000Z</time>
      </trkpt>
      <trkpt lat="47.25594" lon="-2.32799">
        <ele>11</ele>
        <time>2021-09-19T07:09:12.000Z</time>
      </trkpt>
      <trkpt lat="47.25597" lon="-2.32787">
        <ele>11.39999961853</ele>
        <time>2021-09-19T07:09:14.000Z</time>
      </trkpt>
      <trkpt lat="47.25597" lon="-2.3278">
        <ele>11.800000190735</ele>
        <time>2021-09-19T07:09:15.000Z</time>
      </trkpt>
      <trkpt lat="47.25598" lon="-2.32774">
        <ele>12.199999809265</ele>
        <time>2021-09-19T07:09:16.000Z</time>
      </trkpt>
      <trkpt lat="47.25599" lon="-2.32768">
        <ele>12.60000038147</ele>
        <time>2021-09-19T07:09:17.000Z</time>
      </trkpt>
      <trkpt lat="47.25599" lon="-2.32761">
        <ele>13</ele>
        <time>2021-09-19T07:09:18.000Z</time>
      </trkpt>
      <trkpt lat="47.256" lon="-2.32755">
        <ele>13</ele>
        <time>2021-09-19T07:09:19.000Z</time>
      </trkpt>
      <trkpt lat="47.25601" lon="-2.32723">
        <ele>13</ele>
        <time>2021-09-19T07:09:24.000Z</time>
      </trkpt>
      <trkpt lat="47.25602" lon="-2.3271">
        <ele>13</ele>
        <time>2021-09-19T07:09:26.000Z</time>
      </trkpt>
      <trkpt lat="47.25604" lon="-2.32677">
        <ele>13</ele>
        <time>2021-09-19T07:09:31.000Z</time>
      </trkpt>
      <trkpt lat="47.25606" lon="-2.32667">
        <ele>13</ele>
        <time>2021-09-19T07:09:33.000Z</time>
      </trkpt>
      <trkpt lat="47.25617" lon="-2.32659">
        <ele>13</ele>
        <time>2021-09-19T07:09:36.000Z</time>
      </trkpt>
      <trkpt lat="47.25622" lon="-2.32657">
        <ele>13</ele>
        <time>2021-09-19T07:09:37.000Z</time>
      </trkpt>
      <trkpt lat="47.25652" lon="-2.32646">
        <ele>13</ele>
        <time>2021-09-19T07:09:43.000Z</time>
      </trkpt>
      <trkpt lat="47.25694" lon="-2.32626">
        <ele>13</ele>
        <time>2021-09-19T07:09:51.000Z</time>
      </trkpt>
      <trkpt lat="47.25704" lon="-2.3262">
        <ele>13</ele>
        <time>2021-09-19T07:09:53.000Z</time>
      </trkpt>
      <trkpt lat="47.25707" lon="-2.32615">
        <ele>12.39999961853</ele>
        <time>2021-09-19T07:09:54.000Z</time>
      </trkpt>
      <trkpt lat="47.25709" lon="-2.32609">
        <ele>12</ele>
        <time>2021-09-19T07:09:55.000Z</time>
      </trkpt>
      <trkpt lat="47.2571" lon="-2.32601">
        <ele>11.60000038147</ele>
        <time>2021-09-19T07:09:56.000Z</time>
      </trkpt>
      <trkpt lat="47.25709" lon="-2.32594">
        <ele>11.199999809265</ele>
        <time>2021-09-19T07:09:57.000Z</time>
      </trkpt>
      <trkpt lat="47.25708" lon="-2.32587">
        <ele>10.60000038147</ele>
        <time>2021-09-19T07:09:58.000Z</time>
      </trkpt>
      <trkpt lat="47.25701" lon="-2.32566">
        <ele>10.60000038147</ele>
        <time>2021-09-19T07:10:01.000Z</time>
      </trkpt>
      <trkpt lat="47.25693" lon="-2.32543">
        <ele>10.60000038147</ele>
        <time>2021-09-19T07:10:04.000Z</time>
      </trkpt>
      <trkpt lat="47.25683" lon="-2.3251">
        <ele>10.199999809265</ele>
        <time>2021-09-19T07:10:08.000Z</time>
      </trkpt>
      <trkpt lat="47.25682" lon="-2.32502">
        <ele>9.8000001907349</ele>
        <time>2021-09-19T07:10:09.000Z</time>
      </trkpt>
      <trkpt lat="47.25679" lon="-2.32494">
        <ele>9.3999996185303</ele>
        <time>2021-09-19T07:10:10.000Z</time>
      </trkpt>
      <trkpt lat="47.25677" lon="-2.32485">
        <ele>9</ele>
        <time>2021-09-19T07:10:11.000Z</time>
      </trkpt>
      <trkpt lat="47.25674" lon="-2.32477">
        <ele>8.6000003814697</ele>
        <time>2021-09-19T07:10:12.000Z</time>
      </trkpt>
      <trkpt lat="47.25672" lon="-2.32468">
        <ele>8.6000003814697</ele>
        <time>2021-09-19T07:10:13.000Z</time>
      </trkpt>
      <trkpt lat="47.25661" lon="-2.3242">
        <ele>8.1999998092651</ele>
        <time>2021-09-19T07:10:19.000Z</time>
      </trkpt>
      <trkpt lat="47.25663" lon="-2.32416">
        <ele>7.5999999046326</ele>
        <time>2021-09-19T07:10:20.000Z</time>
      </trkpt>
      <trkpt lat="47.25667" lon="-2.32415">
        <ele>7.1999998092651</ele>
        <time>2021-09-19T07:10:21.000Z</time>
      </trkpt>
      <trkpt lat="47.25671" lon="-2.32413">
        <ele>6.8000001907349</ele>
        <time>2021-09-19T07:10:22.000Z</time>
      </trkpt>
      <trkpt lat="47.25675" lon="-2.32415">
        <ele>6.4000000953674</ele>
        <time>2021-09-19T07:10:23.000Z</time>
      </trkpt>
      <trkpt lat="47.25684" lon="-2.32417">
        <ele>6.4000000953674</ele>
        <time>2021-09-19T07:10:25.000Z</time>
      </trkpt>
      <trkpt lat="47.25694" lon="-2.32418">
        <ele>6.4000000953674</ele>
        <time>2021-09-19T07:10:27.000Z</time>
      </trkpt>
      <trkpt lat="47.25711" lon="-2.32419">
        <ele>6.4000000953674</ele>
        <time>2021-09-19T07:10:30.000Z</time>
      </trkpt>
      <trkpt lat="47.25755" lon="-2.32418">
        <ele>6.4000000953674</ele>
        <time>2021-09-19T07:10:38.000Z</time>
      </trkpt>
      <trkpt lat="47.25782" lon="-2.32412">
        <ele>6.4000000953674</ele>
        <time>2021-09-19T07:10:42.000Z</time>
      </trkpt>
      <trkpt lat="47.25788" lon="-2.32421">
        <ele>6.4000000953674</ele>
        <time>2021-09-19T07:10:46.000Z</time>
      </trkpt>
      <trkpt lat="47.25792" lon="-2.32429">
        <ele>6.4000000953674</ele>
        <time>2021-09-19T07:10:47.000Z</time>
      </trkpt>
      <trkpt lat="47.25799" lon="-2.32443">
        <ele>6.4000000953674</ele>
        <time>2021-09-19T07:10:49.000Z</time>
      </trkpt>
      <trkpt lat="47.25809" lon="-2.32452">
        <ele>6.4000000953674</ele>
        <time>2021-09-19T07:10:51.000Z</time>
      </trkpt>
      <trkpt lat="47.25844" lon="-2.3247">
        <ele>6.4000000953674</ele>
        <time>2021-09-19T07:10:57.000Z</time>
      </trkpt>
      <trkpt lat="47.25855" lon="-2.32471">
        <ele>6.4000000953674</ele>
        <time>2021-09-19T07:10:59.000Z</time>
      </trkpt>
      <trkpt lat="47.25866" lon="-2.32471">
        <ele>6.4000000953674</ele>
        <time>2021-09-19T07:11:01.000Z</time>
      </trkpt>
      <trkpt lat="47.25872" lon="-2.32471">
        <ele>6.4000000953674</ele>
        <time>2021-09-19T07:11:02.000Z</time>
      </trkpt>
      <trkpt lat="47.25894" lon="-2.32464">
        <ele>6.4000000953674</ele>
        <time>2021-09-19T07:11:06.000Z</time>
      </trkpt>
      <trkpt lat="47.25898" lon="-2.32459">
        <ele>6.4000000953674</ele>
        <time>2021-09-19T07:11:07.000Z</time>
      </trkpt>
      <trkpt lat="47.25912" lon="-2.32443">
        <ele>6.4000000953674</ele>
        <time>2021-09-19T07:11:10.000Z</time>
      </trkpt>
      <trkpt lat="47.25926" lon="-2.32427">
        <ele>6.4000000953674</ele>
        <time>2021-09-19T07:11:13.000Z</time>
      </trkpt>
      <trkpt lat="47.25931" lon="-2.32421">
        <ele>6.4000000953674</ele>
        <time>2021-09-19T07:11:14.000Z</time>
      </trkpt>
      <trkpt lat="47.25952" lon="-2.32391">
        <ele>6.4000000953674</ele>
        <time>2021-09-19T07:11:19.000Z</time>
      </trkpt>
      <trkpt lat="47.25986" lon="-2.32346">
        <ele>6.4000000953674</ele>
        <time>2021-09-19T07:11:27.000Z</time>
      </trkpt>
      <trkpt lat="47.25994" lon="-2.32335">
        <ele>6</ele>
        <time>2021-09-19T07:11:29.000Z</time>
      </trkpt>
      <trkpt lat="47.25999" lon="-2.3233">
        <ele>5.5999999046326</ele>
        <time>2021-09-19T07:11:30.000Z</time>
      </trkpt>
      <trkpt lat="47.26003" lon="-2.32324">
        <ele>5.1999998092651</ele>
        <time>2021-09-19T07:11:31.000Z</time>
      </trkpt>
      <trkpt lat="47.26007" lon="-2.32319">
        <ele>4.8000001907349</ele>
        <time>2021-09-19T07:11:32.000Z</time>
      </trkpt>
      <trkpt lat="47.26011" lon="-2.32313">
        <ele>4.4000000953674</ele>
        <time>2021-09-19T07:11:33.000Z</time>
      </trkpt>
      <trkpt lat="47.2602" lon="-2.32303">
        <ele>4.4000000953674</ele>
        <time>2021-09-19T07:11:35.000Z</time>
      </trkpt>
      <trkpt lat="47.26052" lon="-2.32266">
        <ele>4.4000000953674</ele>
        <time>2021-09-19T07:11:42.000Z</time>
      </trkpt>
      <trkpt lat="47.26082" lon="-2.32229">
        <ele>4.4000000953674</ele>
        <time>2021-09-19T07:11:49.000Z</time>
      </trkpt>
      <trkpt lat="47.26098" lon="-2.32208">
        <ele>4.4000000953674</ele>
        <time>2021-09-19T07:11:53.000Z</time>
      </trkpt>
      <trkpt lat="47.26101" lon="-2.32201">
        <ele>4.4000000953674</ele>
        <time>2021-09-19T07:11:54.000Z</time>
      </trkpt>
      <trkpt lat="47.26104" lon="-2.32194">
        <ele>4.4000000953674</ele>
        <time>2021-09-19T07:11:55.000Z</time>
      </trkpt>
      <trkpt lat="47.26126" lon="-2.32138">
        <ele>4.4000000953674</ele>
        <time>2021-09-19T07:12:03.000Z</time>
      </trkpt>
      <trkpt lat="47.26136" lon="-2.32102">
        <ele>4.4000000953674</ele>
        <time>2021-09-19T07:12:08.000Z</time>
      </trkpt>
      <trkpt lat="47.26152" lon="-2.32051">
        <ele>4.4000000953674</ele>
        <time>2021-09-19T07:12:15.000Z</time>
      </trkpt>
      <trkpt lat="47.26159" lon="-2.3203">
        <ele>4.4000000953674</ele>
        <time>2021-09-19T07:12:18.000Z</time>
      </trkpt>
      <trkpt lat="47.26165" lon="-2.32021">
        <ele>4.4000000953674</ele>
        <time>2021-09-19T07:12:20.000Z</time>
      </trkpt>
      <trkpt lat="47.26175" lon="-2.3202">
        <ele>4.4000000953674</ele>
        <time>2021-09-19T07:12:23.000Z</time>
      </trkpt>
      <trkpt lat="47.26178" lon="-2.3202">
        <ele>4.4000000953674</ele>
        <time>2021-09-19T07:12:24.000Z</time>
      </trkpt>
      <trkpt lat="47.26191" lon="-2.32024">
        <ele>4.4000000953674</ele>
        <time>2021-09-19T07:12:29.000Z</time>
      </trkpt>
      <trkpt lat="47.26194" lon="-2.32022">
        <ele>4.4000000953674</ele>
        <time>2021-09-19T07:12:31.000Z</time>
      </trkpt>
      <trkpt lat="47.26197" lon="-2.32014">
        <ele>4.4000000953674</ele>
        <time>2021-09-19T07:12:33.000Z</time>
      </trkpt>
      <trkpt lat="47.26205" lon="-2.32002">
        <ele>4.4000000953674</ele>
        <time>2021-09-19T07:12:37.000Z</time>
      </trkpt>
      <trkpt lat="47.2622" lon="-2.31982">
        <ele>4.4000000953674</ele>
        <time>2021-09-19T07:12:43.000Z</time>
      </trkpt>
      <trkpt lat="47.26231" lon="-2.3197">
        <ele>4.4000000953674</ele>
        <time>2021-09-19T07:12:46.000Z</time>
      </trkpt>
      <trkpt lat="47.26234" lon="-2.31967">
        <ele>4.4000000953674</ele>
        <time>2021-09-19T07:12:47.000Z</time>
      </trkpt>
      <trkpt lat="47.26244" lon="-2.31948">
        <ele>4.4000000953674</ele>
        <time>2021-09-19T07:12:51.000Z</time>
      </trkpt>
      <trkpt lat="47.26247" lon="-2.31943">
        <ele>4.4000000953674</ele>
        <time>2021-09-19T07:12:52.000Z</time>
      </trkpt>
      <trkpt lat="47.26262" lon="-2.31919">
        <ele>4.4000000953674</ele>
        <time>2021-09-19T07:12:58.000Z</time>
      </trkpt>
      <trkpt lat="47.2628" lon="-2.31901">
        <ele>4.4000000953674</ele>
        <time>2021-09-19T07:13:03.000Z</time>
      </trkpt>
      <trkpt lat="47.2629" lon="-2.31899">
        <ele>4.4000000953674</ele>
        <time>2021-09-19T07:13:06.000Z</time>
      </trkpt>
      <trkpt lat="47.26292" lon="-2.31903">
        <ele>4.4000000953674</ele>
        <time>2021-09-19T07:13:07.000Z</time>
      </trkpt>
      <trkpt lat="47.26295" lon="-2.31916">
        <ele>4.4000000953674</ele>
        <time>2021-09-19T07:13:10.000Z</time>
      </trkpt>
      <trkpt lat="47.26298" lon="-2.31925">
        <ele>4.4000000953674</ele>
        <time>2021-09-19T07:13:12.000Z</time>
      </trkpt>
      <trkpt lat="47.26301" lon="-2.31927">
        <ele>4.4000000953674</ele>
        <time>2021-09-19T07:13:13.000Z</time>
      </trkpt>
      <trkpt lat="47.26306" lon="-2.31928">
        <ele>4.4000000953674</ele>
        <time>2021-09-19T07:13:15.000Z</time>
      </trkpt>
      <trkpt lat="47.26316" lon="-2.31926">
        <ele>4.4000000953674</ele>
        <time>2021-09-19T07:13:18.000Z</time>
      </trkpt>
      <trkpt lat="47.26329" lon="-2.31928">
        <ele>4.4000000953674</ele>
        <time>2021-09-19T07:13:21.000Z</time>
      </trkpt>
      <trkpt lat="47.26337" lon="-2.31934">
        <ele>4.4000000953674</ele>
        <time>2021-09-19T07:13:22.000Z</time>
      </trkpt>
      <trkpt lat="47.26345" lon="-2.31945">
        <ele>4.4000000953674</ele>
        <time>2021-09-19T07:13:24.000Z</time>
      </trkpt>
      <trkpt lat="47.26362" lon="-2.31979">
        <ele>4.4000000953674</ele>
        <time>2021-09-19T07:13:31.000Z</time>
      </trkpt>
      <trkpt lat="47.26367" lon="-2.31983">
        <ele>4.8000001907349</ele>
        <time>2021-09-19T07:13:33.000Z</time>
      </trkpt>
      <trkpt lat="47.2637" lon="-2.31983">
        <ele>5.1999998092651</ele>
        <time>2021-09-19T07:13:34.000Z</time>
      </trkpt>
      <trkpt lat="47.26374" lon="-2.31983">
        <ele>5.5999999046326</ele>
        <time>2021-09-19T07:13:35.000Z</time>
      </trkpt>
      <trkpt lat="47.26377" lon="-2.31984">
        <ele>6.1999998092651</ele>
        <time>2021-09-19T07:13:36.000Z</time>
      </trkpt>
      <trkpt lat="47.26381" lon="-2.31984">
        <ele>6.5999999046326</ele>
        <time>2021-09-19T07:13:37.000Z</time>
      </trkpt>
      <trkpt lat="47.26394" lon="-2.31989">
        <ele>6.5999999046326</ele>
        <time>2021-09-19T07:13:41.000Z</time>
      </trkpt>
      <trkpt lat="47.264" lon="-2.3199">
        <ele>7</ele>
        <time>2021-09-19T07:13:43.000Z</time>
      </trkpt>
      <trkpt lat="47.26404" lon="-2.31991">
        <ele>7.4000000953674</ele>
        <time>2021-09-19T07:13:44.000Z</time>
      </trkpt>
      <trkpt lat="47.26407" lon="-2.31991">
        <ele>7.8000001907349</ele>
        <time>2021-09-19T07:13:45.000Z</time>
      </trkpt>
      <trkpt lat="47.2641" lon="-2.31992">
        <ele>8.1999998092651</ele>
        <time>2021-09-19T07:13:46.000Z</time>
      </trkpt>
      <trkpt lat="47.26413" lon="-2.31993">
        <ele>8.6000003814697</ele>
        <time>2021-09-19T07:13:47.000Z</time>
      </trkpt>
      <trkpt lat="47.2643" lon="-2.31993">
        <ele>9</ele>
        <time>2021-09-19T07:13:52.000Z</time>
      </trkpt>
      <trkpt lat="47.26433" lon="-2.31993">
        <ele>9.3999996185303</ele>
        <time>2021-09-19T07:13:53.000Z</time>
      </trkpt>
      <trkpt lat="47.26436" lon="-2.31994">
        <ele>9.8000001907349</ele>
        <time>2021-09-19T07:13:54.000Z</time>
      </trkpt>
      <trkpt lat="47.2644" lon="-2.31994">
        <ele>10.199999809265</ele>
        <time>2021-09-19T07:13:55.000Z</time>
      </trkpt>
      <trkpt lat="47.26443" lon="-2.31994">
        <ele>10.60000038147</ele>
        <time>2021-09-19T07:13:56.000Z</time>
      </trkpt>
      <trkpt lat="47.26452" lon="-2.31995">
        <ele>10.60000038147</ele>
        <time>2021-09-19T07:13:59.000Z</time>
      </trkpt>
      <trkpt lat="47.26459" lon="-2.31994">
        <ele>11</ele>
        <time>2021-09-19T07:14:01.000Z</time>
      </trkpt>
      <trkpt lat="47.26464" lon="-2.31994">
        <ele>11.39999961853</ele>
        <time>2021-09-19T07:14:02.000Z</time>
      </trkpt>
      <trkpt lat="47.26467" lon="-2.31994">
        <ele>11.800000190735</ele>
        <time>2021-09-19T07:14:03.000Z</time>
      </trkpt>
      <trkpt lat="47.26471" lon="-2.31995">
        <ele>12.199999809265</ele>
        <time>2021-09-19T07:14:04.000Z</time>
      </trkpt>
      <trkpt lat="47.26474" lon="-2.31995">
        <ele>12.60000038147</ele>
        <time>2021-09-19T07:14:05.000Z</time>
      </trkpt>
      <trkpt lat="47.26497" lon="-2.31995">
        <ele>12.60000038147</ele>
        <time>2021-09-19T07:14:11.000Z</time>
      </trkpt>
      <trkpt lat="47.26501" lon="-2.31995">
        <ele>13</ele>
        <time>2021-09-19T07:14:12.000Z</time>
      </trkpt>
      <trkpt lat="47.26504" lon="-2.31994">
        <ele>13.39999961853</ele>
        <time>2021-09-19T07:14:13.000Z</time>
      </trkpt>
      <trkpt lat="47.26507" lon="-2.31994">
        <ele>13.800000190735</ele>
        <time>2021-09-19T07:14:14.000Z</time>
      </trkpt>
      <trkpt lat="47.2651" lon="-2.31994">
        <ele>14.39999961853</ele>
        <time>2021-09-19T07:14:15.000Z</time>
      </trkpt>
      <trkpt lat="47.26513" lon="-2.31994">
        <ele>14.800000190735</ele>
        <time>2021-09-19T07:14:16.000Z</time>
      </trkpt>
      <trkpt lat="47.2652" lon="-2.31997">
        <ele>15.199999809265</ele>
        <time>2021-09-19T07:14:18.000Z</time>
      </trkpt>
      <trkpt lat="47.26522" lon="-2.31999">
        <ele>15.60000038147</ele>
        <time>2021-09-19T07:14:19.000Z</time>
      </trkpt>
      <trkpt lat="47.26525" lon="-2.32001">
        <ele>16</ele>
        <time>2021-09-19T07:14:20.000Z</time>
      </trkpt>
      <trkpt lat="47.26527" lon="-2.32003">
        <ele>16.39999961853</ele>
        <time>2021-09-19T07:14:21.000Z</time>
      </trkpt>
      <trkpt lat="47.2653" lon="-2.32006">
        <ele>17</ele>
        <time>2021-09-19T07:14:22.000Z</time>
      </trkpt>
      <trkpt lat="47.26535" lon="-2.32012">
        <ele>17</ele>
        <time>2021-09-19T07:14:24.000Z</time>
      </trkpt>
      <trkpt lat="47.26537" lon="-2.32015">
        <ele>17</ele>
        <time>2021-09-19T07:14:25.000Z</time>
      </trkpt>
      <trkpt lat="47.26544" lon="-2.32032">
        <ele>17</ele>
        <time>2021-09-19T07:14:30.000Z</time>
      </trkpt>
      <trkpt lat="47.26546" lon="-2.32034">
        <ele>17</ele>
        <time>2021-09-19T07:14:31.000Z</time>
      </trkpt>
      <trkpt lat="47.26547" lon="-2.32036">
        <ele>17.39999961853</ele>
        <time>2021-09-19T07:14:32.000Z</time>
      </trkpt>
      <trkpt lat="47.2655" lon="-2.32036">
        <ele>18.200000762939</ele>
        <time>2021-09-19T07:14:33.000Z</time>
      </trkpt>
      <trkpt lat="47.26553" lon="-2.32035">
        <ele>18.60000038147</ele>
        <time>2021-09-19T07:14:34.000Z</time>
      </trkpt>
      <trkpt lat="47.26556" lon="-2.32034">
        <ele>19</ele>
        <time>2021-09-19T07:14:35.000Z</time>
      </trkpt>
      <trkpt lat="47.26571" lon="-2.32029">
        <ele>19</ele>
        <time>2021-09-19T07:14:40.000Z</time>
      </trkpt>
      <trkpt lat="47.2659" lon="-2.32023">
        <ele>19.39999961853</ele>
        <time>2021-09-19T07:14:46.000Z</time>
      </trkpt>
      <trkpt lat="47.26593" lon="-2.32022">
        <ele>19.799999237061</ele>
        <time>2021-09-19T07:14:47.000Z</time>
      </trkpt>
      <trkpt lat="47.26597" lon="-2.3202">
        <ele>20.200000762939</ele>
        <time>2021-09-19T07:14:48.000Z</time>
      </trkpt>
      <trkpt lat="47.26601" lon="-2.32019">
        <ele>20.60000038147</ele>
        <time>2021-09-19T07:14:49.000Z</time>
      </trkpt>
      <trkpt lat="47.26604" lon="-2.32018">
        <ele>21</ele>
        <time>2021-09-19T07:14:50.000Z</time>
      </trkpt>
      <trkpt lat="47.26614" lon="-2.32016">
        <ele>21</ele>
        <time>2021-09-19T07:14:53.000Z</time>
      </trkpt>
      <trkpt lat="47.26637" lon="-2.32008">
        <ele>21</ele>
        <time>2021-09-19T07:15:01.000Z</time>
      </trkpt>
      <trkpt lat="47.26642" lon="-2.32006">
        <ele>21</ele>
        <time>2021-09-19T07:15:06.000Z</time>
      </trkpt>
      <trkpt lat="47.26644" lon="-2.32008">
        <ele>21</ele>
        <time>2021-09-19T07:15:40.000Z</time>
      </trkpt>
      <trkpt lat="47.26647" lon="-2.32015">
        <ele>21</ele>
        <time>2021-09-19T07:15:42.000Z</time>
      </trkpt>
      <trkpt lat="47.26655" lon="-2.32047">
        <ele>21</ele>
        <time>2021-09-19T07:15:49.000Z</time>
      </trkpt>
      <trkpt lat="47.26667" lon="-2.3209">
        <ele>21</ele>
        <time>2021-09-19T07:15:56.000Z</time>
      </trkpt>
      <trkpt lat="47.26676" lon="-2.32124">
        <ele>21</ele>
        <time>2021-09-19T07:16:02.000Z</time>
      </trkpt>
      <trkpt lat="47.26679" lon="-2.32124">
        <ele>21</ele>
        <time>2021-09-19T07:16:03.000Z</time>
      </trkpt>
      <trkpt lat="47.26685" lon="-2.32113">
        <ele>21</ele>
        <time>2021-09-19T07:16:06.000Z</time>
      </trkpt>
      <trkpt lat="47.26687" lon="-2.32091">
        <ele>21</ele>
        <time>2021-09-19T07:16:10.000Z</time>
      </trkpt>
      <trkpt lat="47.26687" lon="-2.32085">
        <ele>21</ele>
        <time>2021-09-19T07:16:11.000Z</time>
      </trkpt>
      <trkpt lat="47.26689" lon="-2.3204">
        <ele>21</ele>
        <time>2021-09-19T07:16:19.000Z</time>
      </trkpt>
      <trkpt lat="47.26697" lon="-2.32022">
        <ele>21</ele>
        <time>2021-09-19T07:16:23.000Z</time>
      </trkpt>
      <trkpt lat="47.26705" lon="-2.32008">
        <ele>21</ele>
        <time>2021-09-19T07:16:26.000Z</time>
      </trkpt>
      <trkpt lat="47.26714" lon="-2.32001">
        <ele>21</ele>
        <time>2021-09-19T07:16:28.000Z</time>
      </trkpt>
      <trkpt lat="47.26739" lon="-2.31982">
        <ele>21</ele>
        <time>2021-09-19T07:16:33.000Z</time>
      </trkpt>
      <trkpt lat="47.26749" lon="-2.31972">
        <ele>21</ele>
        <time>2021-09-19T07:16:35.000Z</time>
      </trkpt>
      <trkpt lat="47.26759" lon="-2.31956">
        <ele>21</ele>
        <time>2021-09-19T07:16:38.000Z</time>
      </trkpt>
      <trkpt lat="47.26762" lon="-2.3195">
        <ele>21</ele>
        <time>2021-09-19T07:16:39.000Z</time>
      </trkpt>
      <trkpt lat="47.26764" lon="-2.31947">
        <ele>20.60000038147</ele>
        <time>2021-09-19T07:16:40.000Z</time>
      </trkpt>
      <trkpt lat="47.26765" lon="-2.31943">
        <ele>20.200000762939</ele>
        <time>2021-09-19T07:16:41.000Z</time>
      </trkpt>
      <trkpt lat="47.26765" lon="-2.31938">
        <ele>19.799999237061</ele>
        <time>2021-09-19T07:16:42.000Z</time>
      </trkpt>
      <trkpt lat="47.26763" lon="-2.31934">
        <ele>19.200000762939</ele>
        <time>2021-09-19T07:16:43.000Z</time>
      </trkpt>
      <trkpt lat="47.26761" lon="-2.3193">
        <ele>18.799999237061</ele>
        <time>2021-09-19T07:16:44.000Z</time>
      </trkpt>
      <trkpt lat="47.26758" lon="-2.31926">
        <ele>18.799999237061</ele>
        <time>2021-09-19T07:16:45.000Z</time>
      </trkpt>
      <trkpt lat="47.26747" lon="-2.319">
        <ele>18.799999237061</ele>
        <time>2021-09-19T07:16:50.000Z</time>
      </trkpt>
      <trkpt lat="47.2674" lon="-2.31885">
        <ele>19.200000762939</ele>
        <time>2021-09-19T07:16:53.000Z</time>
      </trkpt>
      <trkpt lat="47.26738" lon="-2.3188">
        <ele>19.60000038147</ele>
        <time>2021-09-19T07:16:54.000Z</time>
      </trkpt>
      <trkpt lat="47.26736" lon="-2.31875">
        <ele>20</ele>
        <time>2021-09-19T07:16:55.000Z</time>
      </trkpt>
      <trkpt lat="47.26735" lon="-2.3187">
        <ele>20.39999961853</ele>
        <time>2021-09-19T07:16:56.000Z</time>
      </trkpt>
      <trkpt lat="47.26735" lon="-2.31865">
        <ele>20.799999237061</ele>
        <time>2021-09-19T07:16:57.000Z</time>
      </trkpt>
      <trkpt lat="47.26737" lon="-2.31862">
        <ele>20.799999237061</ele>
        <time>2021-09-19T07:16:58.000Z</time>
      </trkpt>
      <trkpt lat="47.2674" lon="-2.31855">
        <ele>20.799999237061</ele>
        <time>2021-09-19T07:17:00.000Z</time>
      </trkpt>
      <trkpt lat="47.26752" lon="-2.31842">
        <ele>20.799999237061</ele>
        <time>2021-09-19T07:17:04.000Z</time>
      </trkpt>
      <trkpt lat="47.26781" lon="-2.31821">
        <ele>20.799999237061</ele>
        <time>2021-09-19T07:17:11.000Z</time>
      </trkpt>
      <trkpt lat="47.26786" lon="-2.31819">
        <ele>20.799999237061</ele>
        <time>2021-09-19T07:17:12.000Z</time>
      </trkpt>
      <trkpt lat="47.26809" lon="-2.31808">
        <ele>20.799999237061</ele>
        <time>2021-09-19T07:17:17.000Z</time>
      </trkpt>
      <trkpt lat="47.26816" lon="-2.31807">
        <ele>20.799999237061</ele>
        <time>2021-09-19T07:17:19.000Z</time>
      </trkpt>
      <trkpt lat="47.26818" lon="-2.31809">
        <ele>20.799999237061</ele>
        <time>2021-09-19T07:17:20.000Z</time>
      </trkpt>
      <trkpt lat="47.26819" lon="-2.31822">
        <ele>20.799999237061</ele>
        <time>2021-09-19T07:17:23.000Z</time>
      </trkpt>
      <trkpt lat="47.26821" lon="-2.31834">
        <ele>20.799999237061</ele>
        <time>2021-09-19T07:17:25.000Z</time>
      </trkpt>
      <trkpt lat="47.26824" lon="-2.31847">
        <ele>20.799999237061</ele>
        <time>2021-09-19T07:17:27.000Z</time>
      </trkpt>
      <trkpt lat="47.2684" lon="-2.31884">
        <ele>20.799999237061</ele>
        <time>2021-09-19T07:17:32.000Z</time>
      </trkpt>
      <trkpt lat="47.26844" lon="-2.31889">
        <ele>20.39999961853</ele>
        <time>2021-09-19T07:17:33.000Z</time>
      </trkpt>
      <trkpt lat="47.26849" lon="-2.31893">
        <ele>20</ele>
        <time>2021-09-19T07:17:34.000Z</time>
      </trkpt>
      <trkpt lat="47.26856" lon="-2.31894">
        <ele>19.60000038147</ele>
        <time>2021-09-19T07:17:35.000Z</time>
      </trkpt>
      <trkpt lat="47.26862" lon="-2.31895">
        <ele>19.200000762939</ele>
        <time>2021-09-19T07:17:36.000Z</time>
      </trkpt>
      <trkpt lat="47.26868" lon="-2.31896">
        <ele>18.799999237061</ele>
        <time>2021-09-19T07:17:37.000Z</time>
      </trkpt>
      <trkpt lat="47.26879" lon="-2.31903">
        <ele>18.799999237061</ele>
        <time>2021-09-19T07:17:39.000Z</time>
      </trkpt>
      <trkpt lat="47.26889" lon="-2.31915">
        <ele>18.39999961853</ele>
        <time>2021-09-19T07:17:41.000Z</time>
      </trkpt>
      <trkpt lat="47.26893" lon="-2.31922">
        <ele>18</ele>
        <time>2021-09-19T07:17:42.000Z</time>
      </trkpt>
      <trkpt lat="47.26897" lon="-2.3193">
        <ele>17.60000038147</ele>
        <time>2021-09-19T07:17:43.000Z</time>
      </trkpt>
      <trkpt lat="47.26902" lon="-2.31938">
        <ele>17.200000762939</ele>
        <time>2021-09-19T07:17:44.000Z</time>
      </trkpt>
      <trkpt lat="47.26907" lon="-2.31945">
        <ele>16.799999237061</ele>
        <time>2021-09-19T07:17:45.000Z</time>
      </trkpt>
      <trkpt lat="47.26913" lon="-2.31952">
        <ele>16.799999237061</ele>
        <time>2021-09-19T07:17:46.000Z</time>
      </trkpt>
      <trkpt lat="47.26918" lon="-2.31957">
        <ele>16.799999237061</ele>
        <time>2021-09-19T07:17:47.000Z</time>
      </trkpt>
      <trkpt lat="47.26924" lon="-2.31963">
        <ele>16.200000762939</ele>
        <time>2021-09-19T07:17:48.000Z</time>
      </trkpt>
      <trkpt lat="47.26929" lon="-2.31971">
        <ele>15.800000190735</ele>
        <time>2021-09-19T07:17:49.000Z</time>
      </trkpt>
      <trkpt lat="47.26934" lon="-2.31979">
        <ele>15.199999809265</ele>
        <time>2021-09-19T07:17:50.000Z</time>
      </trkpt>
      <trkpt lat="47.26939" lon="-2.31986">
        <ele>14.199999809265</ele>
        <time>2021-09-19T07:17:51.000Z</time>
      </trkpt>
      <trkpt lat="47.26944" lon="-2.31993">
        <ele>14.199999809265</ele>
        <time>2021-09-19T07:17:52.000Z</time>
      </trkpt>
      <trkpt lat="47.26948" lon="-2.31998">
        <ele>13.800000190735</ele>
        <time>2021-09-19T07:17:53.000Z</time>
      </trkpt>
      <trkpt lat="47.26952" lon="-2.32002">
        <ele>13.39999961853</ele>
        <time>2021-09-19T07:17:54.000Z</time>
      </trkpt>
      <trkpt lat="47.26957" lon="-2.32004">
        <ele>12.800000190735</ele>
        <time>2021-09-19T07:17:55.000Z</time>
      </trkpt>
      <trkpt lat="47.26961" lon="-2.32003">
        <ele>12.39999961853</ele>
        <time>2021-09-19T07:17:56.000Z</time>
      </trkpt>
      <trkpt lat="47.26966" lon="-2.32001">
        <ele>12</ele>
        <time>2021-09-19T07:17:57.000Z</time>
      </trkpt>
      <trkpt lat="47.26976" lon="-2.31997">
        <ele>12</ele>
        <time>2021-09-19T07:17:59.000Z</time>
      </trkpt>
      <trkpt lat="47.26981" lon="-2.31994">
        <ele>12</ele>
        <time>2021-09-19T07:18:00.000Z</time>
      </trkpt>
      <trkpt lat="47.26991" lon="-2.31989">
        <ele>11.60000038147</ele>
        <time>2021-09-19T07:18:02.000Z</time>
      </trkpt>
      <trkpt lat="47.26996" lon="-2.31986">
        <ele>11</ele>
        <time>2021-09-19T07:18:03.000Z</time>
      </trkpt>
      <trkpt lat="47.27001" lon="-2.31982">
        <ele>10.60000038147</ele>
        <time>2021-09-19T07:18:04.000Z</time>
      </trkpt>
      <trkpt lat="47.27005" lon="-2.31978">
        <ele>10.199999809265</ele>
        <time>2021-09-19T07:18:05.000Z</time>
      </trkpt>
      <trkpt lat="47.27009" lon="-2.31975">
        <ele>9.8000001907349</ele>
        <time>2021-09-19T07:18:06.000Z</time>
      </trkpt>
      <trkpt lat="47.27017" lon="-2.3197">
        <ele>9.8000001907349</ele>
        <time>2021-09-19T07:18:08.000Z</time>
      </trkpt>
      <trkpt lat="47.27026" lon="-2.31967">
        <ele>9.8000001907349</ele>
        <time>2021-09-19T07:18:11.000Z</time>
      </trkpt>
      <trkpt lat="47.27027" lon="-2.31966">
        <ele>9.8000001907349</ele>
        <time>2021-09-19T07:18:13.000Z</time>
      </trkpt>
      <trkpt lat="47.27029" lon="-2.31964">
        <ele>9.8000001907349</ele>
        <time>2021-09-19T07:18:38.000Z</time>
      </trkpt>
      <trkpt lat="47.27031" lon="-2.31962">
        <ele>9.8000001907349</ele>
        <time>2021-09-19T07:18:39.000Z</time>
      </trkpt>
      <trkpt lat="47.27046" lon="-2.31956">
        <ele>9.8000001907349</ele>
        <time>2021-09-19T07:18:44.000Z</time>
      </trkpt>
      <trkpt lat="47.27068" lon="-2.31956">
        <ele>9.8000001907349</ele>
        <time>2021-09-19T07:18:49.000Z</time>
      </trkpt>
      <trkpt lat="47.27096" lon="-2.31957">
        <ele>9.3999996185303</ele>
        <time>2021-09-19T07:18:54.000Z</time>
      </trkpt>
      <trkpt lat="47.27101" lon="-2.31959">
        <ele>9</ele>
        <time>2021-09-19T07:18:55.000Z</time>
      </trkpt>
      <trkpt lat="47.27107" lon="-2.31961">
        <ele>8.6000003814697</ele>
        <time>2021-09-19T07:18:56.000Z</time>
      </trkpt>
      <trkpt lat="47.27113" lon="-2.31962">
        <ele>8.1999998092651</ele>
        <time>2021-09-19T07:18:57.000Z</time>
      </trkpt>
      <trkpt lat="47.27118" lon="-2.31965">
        <ele>7.8000001907349</ele>
        <time>2021-09-19T07:18:58.000Z</time>
      </trkpt>
      <trkpt lat="47.27123" lon="-2.31969">
        <ele>7.8000001907349</ele>
        <time>2021-09-19T07:18:59.000Z</time>
      </trkpt>
      <trkpt lat="47.27138" lon="-2.3198">
        <ele>7.8000001907349</ele>
        <time>2021-09-19T07:19:02.000Z</time>
      </trkpt>
      <trkpt lat="47.27157" lon="-2.31991">
        <ele>7.8000001907349</ele>
        <time>2021-09-19T07:19:06.000Z</time>
      </trkpt>
      <trkpt lat="47.27161" lon="-2.3199">
        <ele>7.8000001907349</ele>
        <time>2021-09-19T07:19:07.000Z</time>
      </trkpt>
      <trkpt lat="47.27171" lon="-2.31979">
        <ele>7.8000001907349</ele>
        <time>2021-09-19T07:19:10.000Z</time>
      </trkpt>
      <trkpt lat="47.27175" lon="-2.31968">
        <ele>7.8000001907349</ele>
        <time>2021-09-19T07:19:12.000Z</time>
      </trkpt>
      <trkpt lat="47.27183" lon="-2.31961">
        <ele>7.8000001907349</ele>
        <time>2021-09-19T07:19:14.000Z</time>
      </trkpt>
      <trkpt lat="47.27187" lon="-2.31957">
        <ele>7.8000001907349</ele>
        <time>2021-09-19T07:19:15.000Z</time>
      </trkpt>
      <trkpt lat="47.27195" lon="-2.31949">
        <ele>7.8000001907349</ele>
        <time>2021-09-19T07:19:17.000Z</time>
      </trkpt>
      <trkpt lat="47.27204" lon="-2.31938">
        <ele>7.8000001907349</ele>
        <time>2021-09-19T07:19:20.000Z</time>
      </trkpt>
      <trkpt lat="47.27218" lon="-2.31921">
        <ele>7.8000001907349</ele>
        <time>2021-09-19T07:19:25.000Z</time>
      </trkpt>
      <trkpt lat="47.27226" lon="-2.31915">
        <ele>7.8000001907349</ele>
        <time>2021-09-19T07:19:30.000Z</time>
      </trkpt>
      <trkpt lat="47.27227" lon="-2.31915">
        <ele>7.8000001907349</ele>
        <time>2021-09-19T07:19:32.000Z</time>
      </trkpt>
      <trkpt lat="47.27237" lon="-2.31919">
        <ele>7.8000001907349</ele>
        <time>2021-09-19T07:20:22.000Z</time>
      </trkpt>
      <trkpt lat="47.2724" lon="-2.31921">
        <ele>7.8000001907349</ele>
        <time>2021-09-19T07:20:25.000Z</time>
      </trkpt>
      <trkpt lat="47.27252" lon="-2.31926">
        <ele>7.8000001907349</ele>
        <time>2021-09-19T07:20:33.000Z</time>
      </trkpt>
      <trkpt lat="47.27265" lon="-2.3193">
        <ele>7.8000001907349</ele>
        <time>2021-09-19T07:20:39.000Z</time>
      </trkpt>
      <trkpt lat="47.27283" lon="-2.31937">
        <ele>7.8000001907349</ele>
        <time>2021-09-19T07:20:45.000Z</time>
      </trkpt>
      <trkpt lat="47.27312" lon="-2.31959">
        <ele>7.8000001907349</ele>
        <time>2021-09-19T07:20:54.000Z</time>
      </trkpt>
      <trkpt lat="47.27328" lon="-2.31971">
        <ele>7.8000001907349</ele>
        <time>2021-09-19T07:21:01.000Z</time>
      </trkpt>
      <trkpt lat="47.27335" lon="-2.31977">
        <ele>7.8000001907349</ele>
        <time>2021-09-19T07:21:07.000Z</time>
      </trkpt>
      <trkpt lat="47.27336" lon="-2.31979">
        <ele>7.8000001907349</ele>
        <time>2021-09-19T07:21:10.000Z</time>
      </trkpt>
      <trkpt lat="47.27337" lon="-2.31982">
        <ele>7.8000001907349</ele>
        <time>2021-09-19T07:21:19.000Z</time>
      </trkpt>
      <trkpt lat="47.27339" lon="-2.31984">
        <ele>7.8000001907349</ele>
        <time>2021-09-19T07:21:20.000Z</time>
      </trkpt>
      <trkpt lat="47.27351" lon="-2.32">
        <ele>7.8000001907349</ele>
        <time>2021-09-19T07:21:24.000Z</time>
      </trkpt>
      <trkpt lat="47.27373" lon="-2.32022">
        <ele>7.8000001907349</ele>
        <time>2021-09-19T07:21:29.000Z</time>
      </trkpt>
      <trkpt lat="47.27378" lon="-2.32026">
        <ele>7.8000001907349</ele>
        <time>2021-09-19T07:21:30.000Z</time>
      </trkpt>
      <trkpt lat="47.27401" lon="-2.3205">
        <ele>7.8000001907349</ele>
        <time>2021-09-19T07:21:36.000Z</time>
      </trkpt>
      <trkpt lat="47.27419" lon="-2.32069">
        <ele>8.1999998092651</ele>
        <time>2021-09-19T07:21:41.000Z</time>
      </trkpt>
      <trkpt lat="47.27422" lon="-2.32072">
        <ele>8.8000001907349</ele>
        <time>2021-09-19T07:21:42.000Z</time>
      </trkpt>
      <trkpt lat="47.27426" lon="-2.32076">
        <ele>9.1999998092651</ele>
        <time>2021-09-19T07:21:43.000Z</time>
      </trkpt>
      <trkpt lat="47.27429" lon="-2.3208">
        <ele>9.6000003814697</ele>
        <time>2021-09-19T07:21:44.000Z</time>
      </trkpt>
      <trkpt lat="47.27432" lon="-2.32083">
        <ele>10</ele>
        <time>2021-09-19T07:21:45.000Z</time>
      </trkpt>
      <trkpt lat="47.27443" lon="-2.32096">
        <ele>10</ele>
        <time>2021-09-19T07:21:48.000Z</time>
      </trkpt>
      <trkpt lat="47.27453" lon="-2.3211">
        <ele>10</ele>
        <time>2021-09-19T07:21:51.000Z</time>
      </trkpt>
      <trkpt lat="47.27481" lon="-2.32148">
        <ele>10</ele>
        <time>2021-09-19T07:21:59.000Z</time>
      </trkpt>
      <trkpt lat="47.275" lon="-2.32171">
        <ele>10.39999961853</ele>
        <time>2021-09-19T07:22:04.000Z</time>
      </trkpt>
      <trkpt lat="47.27504" lon="-2.32176">
        <ele>10.800000190735</ele>
        <time>2021-09-19T07:22:05.000Z</time>
      </trkpt>
      <trkpt lat="47.27508" lon="-2.32181">
        <ele>11.39999961853</ele>
        <time>2021-09-19T07:22:06.000Z</time>
      </trkpt>
      <trkpt lat="47.27511" lon="-2.32185">
        <ele>11.800000190735</ele>
        <time>2021-09-19T07:22:07.000Z</time>
      </trkpt>
      <trkpt lat="47.27514" lon="-2.32189">
        <ele>12.199999809265</ele>
        <time>2021-09-19T07:22:08.000Z</time>
      </trkpt>
      <trkpt lat="47.2753" lon="-2.32208">
        <ele>12.199999809265</ele>
        <time>2021-09-19T07:22:13.000Z</time>
      </trkpt>
      <trkpt lat="47.27536" lon="-2.32215">
        <ele>12.60000038147</ele>
        <time>2021-09-19T07:22:15.000Z</time>
      </trkpt>
      <trkpt lat="47.27539" lon="-2.32218">
        <ele>13</ele>
        <time>2021-09-19T07:22:16.000Z</time>
      </trkpt>
      <trkpt lat="47.27542" lon="-2.32221">
        <ele>13.39999961853</ele>
        <time>2021-09-19T07:22:17.000Z</time>
      </trkpt>
      <trkpt lat="47.27546" lon="-2.32223">
        <ele>13.800000190735</ele>
        <time>2021-09-19T07:22:18.000Z</time>
      </trkpt>
      <trkpt lat="47.27549" lon="-2.32226">
        <ele>14.199999809265</ele>
        <time>2021-09-19T07:22:19.000Z</time>
      </trkpt>
      <trkpt lat="47.27552" lon="-2.32229">
        <ele>14.199999809265</ele>
        <time>2021-09-19T07:22:20.000Z</time>
      </trkpt>
      <trkpt lat="47.27562" lon="-2.32238">
        <ele>14.60000038147</ele>
        <time>2021-09-19T07:22:23.000Z</time>
      </trkpt>
      <trkpt lat="47.27566" lon="-2.32241">
        <ele>15</ele>
        <time>2021-09-19T07:22:24.000Z</time>
      </trkpt>
      <trkpt lat="47.27569" lon="-2.32244">
        <ele>15.39999961853</ele>
        <time>2021-09-19T07:22:25.000Z</time>
      </trkpt>
      <trkpt lat="47.27572" lon="-2.32247">
        <ele>15.800000190735</ele>
        <time>2021-09-19T07:22:26.000Z</time>
      </trkpt>
      <trkpt lat="47.27575" lon="-2.3225">
        <ele>16.200000762939</ele>
        <time>2021-09-19T07:22:27.000Z</time>
      </trkpt>
      <trkpt lat="47.27585" lon="-2.32258">
        <ele>16.200000762939</ele>
        <time>2021-09-19T07:22:30.000Z</time>
      </trkpt>
      <trkpt lat="47.27597" lon="-2.32268">
        <ele>16.60000038147</ele>
        <time>2021-09-19T07:22:34.000Z</time>
      </trkpt>
      <trkpt lat="47.27599" lon="-2.3227">
        <ele>17</ele>
        <time>2021-09-19T07:22:35.000Z</time>
      </trkpt>
      <trkpt lat="47.27602" lon="-2.32273">
        <ele>17.39999961853</ele>
        <time>2021-09-19T07:22:36.000Z</time>
      </trkpt>
      <trkpt lat="47.27605" lon="-2.32274">
        <ele>17.799999237061</ele>
        <time>2021-09-19T07:22:37.000Z</time>
      </trkpt>
      <trkpt lat="47.27607" lon="-2.32276">
        <ele>18.200000762939</ele>
        <time>2021-09-19T07:22:38.000Z</time>
      </trkpt>
      <trkpt lat="47.27616" lon="-2.32286">
        <ele>18.200000762939</ele>
        <time>2021-09-19T07:22:43.000Z</time>
      </trkpt>
      <trkpt lat="47.27629" lon="-2.32302">
        <ele>18.200000762939</ele>
        <time>2021-09-19T07:22:49.000Z</time>
      </trkpt>
      <trkpt lat="47.27641" lon="-2.32308">
        <ele>18.60000038147</ele>
        <time>2021-09-19T07:22:54.000Z</time>
      </trkpt>
      <trkpt lat="47.27644" lon="-2.32309">
        <ele>19</ele>
        <time>2021-09-19T07:22:55.000Z</time>
      </trkpt>
      <trkpt lat="47.27646" lon="-2.32309">
        <ele>19.39999961853</ele>
        <time>2021-09-19T07:22:56.000Z</time>
      </trkpt>
      <trkpt lat="47.27648" lon="-2.3231">
        <ele>19.799999237061</ele>
        <time>2021-09-19T07:22:57.000Z</time>
      </trkpt>
      <trkpt lat="47.2765" lon="-2.32311">
        <ele>20.200000762939</ele>
        <time>2021-09-19T07:22:58.000Z</time>
      </trkpt>
      <trkpt lat="47.27669" lon="-2.32316">
        <ele>20.200000762939</ele>
        <time>2021-09-19T07:23:05.000Z</time>
      </trkpt>
      <trkpt lat="47.27693" lon="-2.32325">
        <ele>20.200000762939</ele>
        <time>2021-09-19T07:23:11.000Z</time>
      </trkpt>
      <trkpt lat="47.27714" lon="-2.32338">
        <ele>20.200000762939</ele>
        <time>2021-09-19T07:23:17.000Z</time>
      </trkpt>
      <trkpt lat="47.27735" lon="-2.32354">
        <ele>20.200000762939</ele>
        <time>2021-09-19T07:23:23.000Z</time>
      </trkpt>
      <trkpt lat="47.27754" lon="-2.32364">
        <ele>20.200000762939</ele>
        <time>2021-09-19T07:23:28.000Z</time>
      </trkpt>
      <trkpt lat="47.2777" lon="-2.32381">
        <ele>20.200000762939</ele>
        <time>2021-09-19T07:23:33.000Z</time>
      </trkpt>
      <trkpt lat="47.27776" lon="-2.32382">
        <ele>20.200000762939</ele>
        <time>2021-09-19T07:23:35.000Z</time>
      </trkpt>
      <trkpt lat="47.27783" lon="-2.32381">
        <ele>20.200000762939</ele>
        <time>2021-09-19T07:23:37.000Z</time>
      </trkpt>
      <trkpt lat="47.27797" lon="-2.32379">
        <ele>20.200000762939</ele>
        <time>2021-09-19T07:23:41.000Z</time>
      </trkpt>
      <trkpt lat="47.27817" lon="-2.32375">
        <ele>20.200000762939</ele>
        <time>2021-09-19T07:23:47.000Z</time>
      </trkpt>
      <trkpt lat="47.27843" lon="-2.32374">
        <ele>20.200000762939</ele>
        <time>2021-09-19T07:23:53.000Z</time>
      </trkpt>
      <trkpt lat="47.27865" lon="-2.32384">
        <ele>20.200000762939</ele>
        <time>2021-09-19T07:23:58.000Z</time>
      </trkpt>
      <trkpt lat="47.27881" lon="-2.32383">
        <ele>20.200000762939</ele>
        <time>2021-09-19T07:24:02.000Z</time>
      </trkpt>
      <trkpt lat="47.27898" lon="-2.32383">
        <ele>20.200000762939</ele>
        <time>2021-09-19T07:24:07.000Z</time>
      </trkpt>
      <trkpt lat="47.27917" lon="-2.32392">
        <ele>20.200000762939</ele>
        <time>2021-09-19T07:24:12.000Z</time>
      </trkpt>
      <trkpt lat="47.27927" lon="-2.32396">
        <ele>20.200000762939</ele>
        <time>2021-09-19T07:24:16.000Z</time>
      </trkpt>
      <trkpt lat="47.27952" lon="-2.32401">
        <ele>20.200000762939</ele>
        <time>2021-09-19T07:24:23.000Z</time>
      </trkpt>
      <trkpt lat="47.27979" lon="-2.32411">
        <ele>20.200000762939</ele>
        <time>2021-09-19T07:24:27.000Z</time>
      </trkpt>
      <trkpt lat="47.28008" lon="-2.32419">
        <ele>20.200000762939</ele>
        <time>2021-09-19T07:24:32.000Z</time>
      </trkpt>
      <trkpt lat="47.28013" lon="-2.3242">
        <ele>20.200000762939</ele>
        <time>2021-09-19T07:24:33.000Z</time>
      </trkpt>
      <trkpt lat="47.28024" lon="-2.32423">
        <ele>20.200000762939</ele>
        <time>2021-09-19T07:24:35.000Z</time>
      </trkpt>
      <trkpt lat="47.28038" lon="-2.32424">
        <ele>20.200000762939</ele>
        <time>2021-09-19T07:24:38.000Z</time>
      </trkpt>
      <trkpt lat="47.28041" lon="-2.32426">
        <ele>20.200000762939</ele>
        <time>2021-09-19T07:24:40.000Z</time>
      </trkpt>
      <trkpt lat="47.28043" lon="-2.32426">
        <ele>19.799999237061</ele>
        <time>2021-09-19T07:24:41.000Z</time>
      </trkpt>
      <trkpt lat="47.28044" lon="-2.32428">
        <ele>19.39999961853</ele>
        <time>2021-09-19T07:24:42.000Z</time>
      </trkpt>
      <trkpt lat="47.28044" lon="-2.32428">
        <ele>19</ele>
        <time>2021-09-19T07:24:43.000Z</time>
      </trkpt>
      <trkpt lat="47.2804" lon="-2.3243">
        <ele>18.200000762939</ele>
        <time>2021-09-19T07:24:48.000Z</time>
      </trkpt>
      <trkpt lat="47.28038" lon="-2.32429">
        <ele>18.200000762939</ele>
        <time>2021-09-19T07:24:49.000Z</time>
      </trkpt>
      <trkpt lat="47.28031" lon="-2.32428">
        <ele>18.200000762939</ele>
        <time>2021-09-19T07:24:52.000Z</time>
      </trkpt>
      <trkpt lat="47.28023" lon="-2.32426">
        <ele>18.200000762939</ele>
        <time>2021-09-19T07:24:54.000Z</time>
      </trkpt>
      <trkpt lat="47.28" lon="-2.32421">
        <ele>18.200000762939</ele>
        <time>2021-09-19T07:25:00.000Z</time>
      </trkpt>
      <trkpt lat="47.27982" lon="-2.32416">
        <ele>18.200000762939</ele>
        <time>2021-09-19T07:25:06.000Z</time>
      </trkpt>
      <trkpt lat="47.27969" lon="-2.32413">
        <ele>18.200000762939</ele>
        <time>2021-09-19T07:25:13.000Z</time>
      </trkpt>
      <trkpt lat="47.27967" lon="-2.3241">
        <ele>18.200000762939</ele>
        <time>2021-09-19T07:25:16.000Z</time>
      </trkpt>
      <trkpt lat="47.2797" lon="-2.32409">
        <ele>18.200000762939</ele>
        <time>2021-09-19T07:25:18.000Z</time>
      </trkpt>
      <trkpt lat="47.2798" lon="-2.32414">
        <ele>18.200000762939</ele>
        <time>2021-09-19T07:25:22.000Z</time>
      </trkpt>
      <trkpt lat="47.28005" lon="-2.32423">
        <ele>18.200000762939</ele>
        <time>2021-09-19T07:25:28.000Z</time>
      </trkpt>
      <trkpt lat="47.28031" lon="-2.32427">
        <ele>18.200000762939</ele>
        <time>2021-09-19T07:25:33.000Z</time>
      </trkpt>
      <trkpt lat="47.2806" lon="-2.32429">
        <ele>18.200000762939</ele>
        <time>2021-09-19T07:25:39.000Z</time>
      </trkpt>
      <trkpt lat="47.28091" lon="-2.32432">
        <ele>18.200000762939</ele>
        <time>2021-09-19T07:25:46.000Z</time>
      </trkpt>
      <trkpt lat="47.28104" lon="-2.32444">
        <ele>18.200000762939</ele>
        <time>2021-09-19T07:25:50.000Z</time>
      </trkpt>
      <trkpt lat="47.28116" lon="-2.32449">
        <ele>18.200000762939</ele>
        <time>2021-09-19T07:25:53.000Z</time>
      </trkpt>
      <trkpt lat="47.28127" lon="-2.32452">
        <ele>18.200000762939</ele>
        <time>2021-09-19T07:25:55.000Z</time>
      </trkpt>
      <trkpt lat="47.28142" lon="-2.32451">
        <ele>18.200000762939</ele>
        <time>2021-09-19T07:25:58.000Z</time>
      </trkpt>
      <trkpt lat="47.28159" lon="-2.32448">
        <ele>18.200000762939</ele>
        <time>2021-09-19T07:26:01.000Z</time>
      </trkpt>
      <trkpt lat="47.28193" lon="-2.32449">
        <ele>18.200000762939</ele>
        <time>2021-09-19T07:26:07.000Z</time>
      </trkpt>
      <trkpt lat="47.28206" lon="-2.32453">
        <ele>18.200000762939</ele>
        <time>2021-09-19T07:26:09.000Z</time>
      </trkpt>
      <trkpt lat="47.28224" lon="-2.32465">
        <ele>18.200000762939</ele>
        <time>2021-09-19T07:26:12.000Z</time>
      </trkpt>
      <trkpt lat="47.28229" lon="-2.3247">
        <ele>18.200000762939</ele>
        <time>2021-09-19T07:26:13.000Z</time>
      </trkpt>
      <trkpt lat="47.2824" lon="-2.32482">
        <ele>18.200000762939</ele>
        <time>2021-09-19T07:26:15.000Z</time>
      </trkpt>
      <trkpt lat="47.28249" lon="-2.32496">
        <ele>18.200000762939</ele>
        <time>2021-09-19T07:26:17.000Z</time>
      </trkpt>
      <trkpt lat="47.28258" lon="-2.32508">
        <ele>18.200000762939</ele>
        <time>2021-09-19T07:26:19.000Z</time>
      </trkpt>
      <trkpt lat="47.28271" lon="-2.32513">
        <ele>18.200000762939</ele>
        <time>2021-09-19T07:26:21.000Z</time>
      </trkpt>
      <trkpt lat="47.28295" lon="-2.32516">
        <ele>18.200000762939</ele>
        <time>2021-09-19T07:26:25.000Z</time>
      </trkpt>
      <trkpt lat="47.28301" lon="-2.32516">
        <ele>18.200000762939</ele>
        <time>2021-09-19T07:26:26.000Z</time>
      </trkpt>
      <trkpt lat="47.28344" lon="-2.32518">
        <ele>18.200000762939</ele>
        <time>2021-09-19T07:26:34.000Z</time>
      </trkpt>
      <trkpt lat="47.28362" lon="-2.32529">
        <ele>18.200000762939</ele>
        <time>2021-09-19T07:26:39.000Z</time>
      </trkpt>
      <trkpt lat="47.28366" lon="-2.32557">
        <ele>18.200000762939</ele>
        <time>2021-09-19T07:26:44.000Z</time>
      </trkpt>
      <trkpt lat="47.28368" lon="-2.32569">
        <ele>18.200000762939</ele>
        <time>2021-09-19T07:26:46.000Z</time>
      </trkpt>
      <trkpt lat="47.28371" lon="-2.32573">
        <ele>18.200000762939</ele>
        <time>2021-09-19T07:26:47.000Z</time>
      </trkpt>
      <trkpt lat="47.28377" lon="-2.32576">
        <ele>18.200000762939</ele>
        <time>2021-09-19T07:26:49.000Z</time>
      </trkpt>
      <trkpt lat="47.28385" lon="-2.32573">
        <ele>18.200000762939</ele>
        <time>2021-09-19T07:26:51.000Z</time>
      </trkpt>
      <trkpt lat="47.28388" lon="-2.32575">
        <ele>18.200000762939</ele>
        <time>2021-09-19T07:26:52.000Z</time>
      </trkpt>
      <trkpt lat="47.28396" lon="-2.32581">
        <ele>18.200000762939</ele>
        <time>2021-09-19T07:26:54.000Z</time>
      </trkpt>
      <trkpt lat="47.28402" lon="-2.32595">
        <ele>17.799999237061</ele>
        <time>2021-09-19T07:26:57.000Z</time>
      </trkpt>
      <trkpt lat="47.28405" lon="-2.32598">
        <ele>17.39999961853</ele>
        <time>2021-09-19T07:26:58.000Z</time>
      </trkpt>
      <trkpt lat="47.28407" lon="-2.32601">
        <ele>17</ele>
        <time>2021-09-19T07:26:59.000Z</time>
      </trkpt>
      <trkpt lat="47.28409" lon="-2.32606">
        <ele>16.60000038147</ele>
        <time>2021-09-19T07:27:00.000Z</time>
      </trkpt>
      <trkpt lat="47.28409" lon="-2.32613">
        <ele>16.200000762939</ele>
        <time>2021-09-19T07:27:01.000Z</time>
      </trkpt>
      <trkpt lat="47.28408" lon="-2.3262">
        <ele>16.200000762939</ele>
        <time>2021-09-19T07:27:02.000Z</time>
      </trkpt>
      <trkpt lat="47.284" lon="-2.32657">
        <ele>16.200000762939</ele>
        <time>2021-09-19T07:27:07.000Z</time>
      </trkpt>
      <trkpt lat="47.28389" lon="-2.32712">
        <ele>16.200000762939</ele>
        <time>2021-09-19T07:27:14.000Z</time>
      </trkpt>
      <trkpt lat="47.28376" lon="-2.32765">
        <ele>16.200000762939</ele>
        <time>2021-09-19T07:27:21.000Z</time>
      </trkpt>
      <trkpt lat="47.28365" lon="-2.32811">
        <ele>16.200000762939</ele>
        <time>2021-09-19T07:27:28.000Z</time>
      </trkpt>
      <trkpt lat="47.28364" lon="-2.32833">
        <ele>16.200000762939</ele>
        <time>2021-09-19T07:27:31.000Z</time>
      </trkpt>
      <trkpt lat="47.28364" lon="-2.32847">
        <ele>16.200000762939</ele>
        <time>2021-09-19T07:27:33.000Z</time>
      </trkpt>
      <trkpt lat="47.28365" lon="-2.32861">
        <ele>16.200000762939</ele>
        <time>2021-09-19T07:27:35.000Z</time>
      </trkpt>
      <trkpt lat="47.28366" lon="-2.32898">
        <ele>16.200000762939</ele>
        <time>2021-09-19T07:27:40.000Z</time>
      </trkpt>
      <trkpt lat="47.28366" lon="-2.32912">
        <ele>15.800000190735</ele>
        <time>2021-09-19T07:27:42.000Z</time>
      </trkpt>
      <trkpt lat="47.28365" lon="-2.32918">
        <ele>15.39999961853</ele>
        <time>2021-09-19T07:27:43.000Z</time>
      </trkpt>
      <trkpt lat="47.28364" lon="-2.32923">
        <ele>15</ele>
        <time>2021-09-19T07:27:44.000Z</time>
      </trkpt>
      <trkpt lat="47.28363" lon="-2.32929">
        <ele>14.60000038147</ele>
        <time>2021-09-19T07:27:45.000Z</time>
      </trkpt>
      <trkpt lat="47.28359" lon="-2.32935">
        <ele>14.199999809265</ele>
        <time>2021-09-19T07:27:46.000Z</time>
      </trkpt>
      <trkpt lat="47.28352" lon="-2.32944">
        <ele>14.199999809265</ele>
        <time>2021-09-19T07:27:48.000Z</time>
      </trkpt>
      <trkpt lat="47.28336" lon="-2.32956">
        <ele>14.199999809265</ele>
        <time>2021-09-19T07:27:51.000Z</time>
      </trkpt>
      <trkpt lat="47.28321" lon="-2.32968">
        <ele>14.199999809265</ele>
        <time>2021-09-19T07:27:54.000Z</time>
      </trkpt>
      <trkpt lat="47.28288" lon="-2.32992">
        <ele>14.199999809265</ele>
        <time>2021-09-19T07:28:01.000Z</time>
      </trkpt>
      <trkpt lat="47.28284" lon="-2.32996">
        <ele>14.199999809265</ele>
        <time>2021-09-19T07:28:02.000Z</time>
      </trkpt>
      <trkpt lat="47.2825" lon="-2.33022">
        <ele>14.199999809265</ele>
        <time>2021-09-19T07:28:10.000Z</time>
      </trkpt>
      <trkpt lat="47.28234" lon="-2.33036">
        <ele>14.199999809265</ele>
        <time>2021-09-19T07:28:15.000Z</time>
      </trkpt>
      <trkpt lat="47.2822" lon="-2.33056">
        <ele>14.199999809265</ele>
        <time>2021-09-19T07:28:20.000Z</time>
      </trkpt>
      <trkpt lat="47.28205" lon="-2.33083">
        <ele>14.199999809265</ele>
        <time>2021-09-19T07:28:25.000Z</time>
      </trkpt>
      <trkpt lat="47.28203" lon="-2.33088">
        <ele>14.199999809265</ele>
        <time>2021-09-19T07:28:26.000Z</time>
      </trkpt>
      <trkpt lat="47.28196" lon="-2.33111">
        <ele>14.199999809265</ele>
        <time>2021-09-19T07:28:30.000Z</time>
      </trkpt>
      <trkpt lat="47.28194" lon="-2.33123">
        <ele>14.199999809265</ele>
        <time>2021-09-19T07:28:32.000Z</time>
      </trkpt>
      <trkpt lat="47.28191" lon="-2.33174">
        <ele>14.199999809265</ele>
        <time>2021-09-19T07:28:39.000Z</time>
      </trkpt>
      <trkpt lat="47.2819" lon="-2.33213">
        <ele>14.199999809265</ele>
        <time>2021-09-19T07:28:45.000Z</time>
      </trkpt>
      <trkpt lat="47.28185" lon="-2.33242">
        <ele>14.199999809265</ele>
        <time>2021-09-19T07:28:51.000Z</time>
      </trkpt>
      <trkpt lat="47.28182" lon="-2.33262">
        <ele>14.199999809265</ele>
        <time>2021-09-19T07:28:59.000Z</time>
      </trkpt>
      <trkpt lat="47.28181" lon="-2.33265">
        <ele>14.199999809265</ele>
        <time>2021-09-19T07:29:02.000Z</time>
      </trkpt>
      <trkpt lat="47.28181" lon="-2.33269">
        <ele>14.199999809265</ele>
        <time>2021-09-19T07:29:14.000Z</time>
      </trkpt>
      <trkpt lat="47.28181" lon="-2.33272">
        <ele>14.199999809265</ele>
        <time>2021-09-19T07:29:15.000Z</time>
      </trkpt>
      <trkpt lat="47.28175" lon="-2.33298">
        <ele>14.199999809265</ele>
        <time>2021-09-19T07:29:22.000Z</time>
      </trkpt>
      <trkpt lat="47.28166" lon="-2.33328">
        <ele>14.199999809265</ele>
        <time>2021-09-19T07:29:28.000Z</time>
      </trkpt>
      <trkpt lat="47.28154" lon="-2.33354">
        <ele>14.60000038147</ele>
        <time>2021-09-19T07:29:33.000Z</time>
      </trkpt>
      <trkpt lat="47.28152" lon="-2.33359">
        <ele>15</ele>
        <time>2021-09-19T07:29:34.000Z</time>
      </trkpt>
      <trkpt lat="47.2815" lon="-2.33364">
        <ele>15.39999961853</ele>
        <time>2021-09-19T07:29:35.000Z</time>
      </trkpt>
      <trkpt lat="47.28148" lon="-2.3337">
        <ele>15.800000190735</ele>
        <time>2021-09-19T07:29:36.000Z</time>
      </trkpt>
      <trkpt lat="47.28146" lon="-2.33375">
        <ele>16.200000762939</ele>
        <time>2021-09-19T07:29:37.000Z</time>
      </trkpt>
      <trkpt lat="47.28127" lon="-2.33415">
        <ele>16.200000762939</ele>
        <time>2021-09-19T07:29:44.000Z</time>
      </trkpt>
      <trkpt lat="47.28108" lon="-2.33458">
        <ele>16.200000762939</ele>
        <time>2021-09-19T07:29:52.000Z</time>
      </trkpt>
      <trkpt lat="47.28092" lon="-2.33493">
        <ele>16.60000038147</ele>
        <time>2021-09-19T07:29:59.000Z</time>
      </trkpt>
      <trkpt lat="47.28089" lon="-2.33498">
        <ele>17</ele>
        <time>2021-09-19T07:30:00.000Z</time>
      </trkpt>
      <trkpt lat="47.28086" lon="-2.33502">
        <ele>17.39999961853</ele>
        <time>2021-09-19T07:30:01.000Z</time>
      </trkpt>
      <trkpt lat="47.28083" lon="-2.33507">
        <ele>17.799999237061</ele>
        <time>2021-09-19T07:30:02.000Z</time>
      </trkpt>
      <trkpt lat="47.28079" lon="-2.33511">
        <ele>18.200000762939</ele>
        <time>2021-09-19T07:30:03.000Z</time>
      </trkpt>
      <trkpt lat="47.28077" lon="-2.33515">
        <ele>18.200000762939</ele>
        <time>2021-09-19T07:30:04.000Z</time>
      </trkpt>
      <trkpt lat="47.28075" lon="-2.33522">
        <ele>18.200000762939</ele>
        <time>2021-09-19T07:30:05.000Z</time>
      </trkpt>
      <trkpt lat="47.28074" lon="-2.33541">
        <ele>18.200000762939</ele>
        <time>2021-09-19T07:30:08.000Z</time>
      </trkpt>
      <trkpt lat="47.28075" lon="-2.33547">
        <ele>18.200000762939</ele>
        <time>2021-09-19T07:30:09.000Z</time>
      </trkpt>
      <trkpt lat="47.28083" lon="-2.33589">
        <ele>18.200000762939</ele>
        <time>2021-09-19T07:30:15.000Z</time>
      </trkpt>
      <trkpt lat="47.2809" lon="-2.33636">
        <ele>18.200000762939</ele>
        <time>2021-09-19T07:30:22.000Z</time>
      </trkpt>
      <trkpt lat="47.28096" lon="-2.33653">
        <ele>18.200000762939</ele>
        <time>2021-09-19T07:30:26.000Z</time>
      </trkpt>
      <trkpt lat="47.28114" lon="-2.33682">
        <ele>18.200000762939</ele>
        <time>2021-09-19T07:30:32.000Z</time>
      </trkpt>
      <trkpt lat="47.28125" lon="-2.33695">
        <ele>18.200000762939</ele>
        <time>2021-09-19T07:30:35.000Z</time>
      </trkpt>
      <trkpt lat="47.28132" lon="-2.33706">
        <ele>19</ele>
        <time>2021-09-19T07:30:37.000Z</time>
      </trkpt>
      <trkpt lat="47.28136" lon="-2.33711">
        <ele>19.60000038147</ele>
        <time>2021-09-19T07:30:38.000Z</time>
      </trkpt>
      <trkpt lat="47.2814" lon="-2.33717">
        <ele>20</ele>
        <time>2021-09-19T07:30:39.000Z</time>
      </trkpt>
      <trkpt lat="47.28143" lon="-2.33723">
        <ele>20.39999961853</ele>
        <time>2021-09-19T07:30:40.000Z</time>
      </trkpt>
      <trkpt lat="47.28146" lon="-2.33728">
        <ele>20.39999961853</ele>
        <time>2021-09-19T07:30:41.000Z</time>
      </trkpt>
      <trkpt lat="47.28153" lon="-2.33738">
        <ele>20.39999961853</ele>
        <time>2021-09-19T07:30:43.000Z</time>
      </trkpt>
      <trkpt lat="47.28162" lon="-2.33747">
        <ele>20.39999961853</ele>
        <time>2021-09-19T07:30:45.000Z</time>
      </trkpt>
      <trkpt lat="47.28176" lon="-2.33761">
        <ele>20.39999961853</ele>
        <time>2021-09-19T07:30:48.000Z</time>
      </trkpt>
      <trkpt lat="47.28204" lon="-2.33788">
        <ele>20.39999961853</ele>
        <time>2021-09-19T07:30:54.000Z</time>
      </trkpt>
      <trkpt lat="47.28209" lon="-2.33791">
        <ele>20.39999961853</ele>
        <time>2021-09-19T07:30:55.000Z</time>
      </trkpt>
      <trkpt lat="47.28248" lon="-2.3381">
        <ele>20.39999961853</ele>
        <time>2021-09-19T07:31:02.000Z</time>
      </trkpt>
      <trkpt lat="47.28253" lon="-2.33814">
        <ele>20.39999961853</ele>
        <time>2021-09-19T07:31:03.000Z</time>
      </trkpt>
      <trkpt lat="47.28265" lon="-2.33831">
        <ele>20.39999961853</ele>
        <time>2021-09-19T07:31:06.000Z</time>
      </trkpt>
      <trkpt lat="47.28268" lon="-2.33839">
        <ele>20.799999237061</ele>
        <time>2021-09-19T07:31:07.000Z</time>
      </trkpt>
      <trkpt lat="47.28271" lon="-2.33846">
        <ele>21.200000762939</ele>
        <time>2021-09-19T07:31:08.000Z</time>
      </trkpt>
      <trkpt lat="47.28274" lon="-2.33853">
        <ele>21.60000038147</ele>
        <time>2021-09-19T07:31:09.000Z</time>
      </trkpt>
      <trkpt lat="47.28277" lon="-2.33861">
        <ele>22</ele>
        <time>2021-09-19T07:31:10.000Z</time>
      </trkpt>
      <trkpt lat="47.28281" lon="-2.33868">
        <ele>22.39999961853</ele>
        <time>2021-09-19T07:31:11.000Z</time>
      </trkpt>
      <trkpt lat="47.28287" lon="-2.33882">
        <ele>22.39999961853</ele>
        <time>2021-09-19T07:31:13.000Z</time>
      </trkpt>
      <trkpt lat="47.283" lon="-2.33919">
        <ele>22.39999961853</ele>
        <time>2021-09-19T07:31:19.000Z</time>
      </trkpt>
      <trkpt lat="47.28307" lon="-2.33929">
        <ele>22.39999961853</ele>
        <time>2021-09-19T07:31:22.000Z</time>
      </trkpt>
      <trkpt lat="47.28318" lon="-2.33925">
        <ele>22.39999961853</ele>
        <time>2021-09-19T07:31:25.000Z</time>
      </trkpt>
      <trkpt lat="47.28322" lon="-2.33922">
        <ele>22.39999961853</ele>
        <time>2021-09-19T07:31:26.000Z</time>
      </trkpt>
      <trkpt lat="47.28342" lon="-2.33906">
        <ele>22.39999961853</ele>
        <time>2021-09-19T07:31:31.000Z</time>
      </trkpt>
      <trkpt lat="47.2835" lon="-2.33899">
        <ele>22.799999237061</ele>
        <time>2021-09-19T07:31:33.000Z</time>
      </trkpt>
      <trkpt lat="47.28354" lon="-2.33895">
        <ele>23.200000762939</ele>
        <time>2021-09-19T07:31:34.000Z</time>
      </trkpt>
      <trkpt lat="47.28357" lon="-2.33892">
        <ele>23.60000038147</ele>
        <time>2021-09-19T07:31:35.000Z</time>
      </trkpt>
      <trkpt lat="47.28361" lon="-2.33888">
        <ele>24</ele>
        <time>2021-09-19T07:31:36.000Z</time>
      </trkpt>
      <trkpt lat="47.28365" lon="-2.33885">
        <ele>24.39999961853</ele>
        <time>2021-09-19T07:31:37.000Z</time>
      </trkpt>
      <trkpt lat="47.28377" lon="-2.33875">
        <ele>24.39999961853</ele>
        <time>2021-09-19T07:31:40.000Z</time>
      </trkpt>
      <trkpt lat="47.28404" lon="-2.33849">
        <ele>24.799999237061</ele>
        <time>2021-09-19T07:31:47.000Z</time>
      </trkpt>
      <trkpt lat="47.28407" lon="-2.33845">
        <ele>25.200000762939</ele>
        <time>2021-09-19T07:31:48.000Z</time>
      </trkpt>
      <trkpt lat="47.28411" lon="-2.33841">
        <ele>25.799999237061</ele>
        <time>2021-09-19T07:31:49.000Z</time>
      </trkpt>
      <trkpt lat="47.28415" lon="-2.33838">
        <ele>26.200000762939</ele>
        <time>2021-09-19T07:31:50.000Z</time>
      </trkpt>
      <trkpt lat="47.28419" lon="-2.33833">
        <ele>26.60000038147</ele>
        <time>2021-09-19T07:31:51.000Z</time>
      </trkpt>
      <trkpt lat="47.2844" lon="-2.33812">
        <ele>26.60000038147</ele>
        <time>2021-09-19T07:31:56.000Z</time>
      </trkpt>
      <trkpt lat="47.28481" lon="-2.33764">
        <ele>26.60000038147</ele>
        <time>2021-09-19T07:32:06.000Z</time>
      </trkpt>
      <trkpt lat="47.28509" lon="-2.33735">
        <ele>26.60000038147</ele>
        <time>2021-09-19T07:32:12.000Z</time>
      </trkpt>
      <trkpt lat="47.28513" lon="-2.33732">
        <ele>26.60000038147</ele>
        <time>2021-09-19T07:32:13.000Z</time>
      </trkpt>
      <trkpt lat="47.28528" lon="-2.3373">
        <ele>26.60000038147</ele>
        <time>2021-09-19T07:32:16.000Z</time>
      </trkpt>
      <trkpt lat="47.28537" lon="-2.33729">
        <ele>26.60000038147</ele>
        <time>2021-09-19T07:32:18.000Z</time>
      </trkpt>
      <trkpt lat="47.28565" lon="-2.3373">
        <ele>26.60000038147</ele>
        <time>2021-09-19T07:32:25.000Z</time>
      </trkpt>
      <trkpt lat="47.2858" lon="-2.33733">
        <ele>26.60000038147</ele>
        <time>2021-09-19T07:32:31.000Z</time>
      </trkpt>
      <trkpt lat="47.28583" lon="-2.33735">
        <ele>26.60000038147</ele>
        <time>2021-09-19T07:32:34.000Z</time>
      </trkpt>
      <trkpt lat="47.28587" lon="-2.33732">
        <ele>26.60000038147</ele>
        <time>2021-09-19T07:32:49.000Z</time>
      </trkpt>
      <trkpt lat="47.28594" lon="-2.33726">
        <ele>26.60000038147</ele>
        <time>2021-09-19T07:32:53.000Z</time>
      </trkpt>
      <trkpt lat="47.28597" lon="-2.33724">
        <ele>26.60000038147</ele>
        <time>2021-09-19T07:32:54.000Z</time>
      </trkpt>
      <trkpt lat="47.28616" lon="-2.33717">
        <ele>26.60000038147</ele>
        <time>2021-09-19T07:33:00.000Z</time>
      </trkpt>
      <trkpt lat="47.2862" lon="-2.33716">
        <ele>26.60000038147</ele>
        <time>2021-09-19T07:33:01.000Z</time>
      </trkpt>
      <trkpt lat="47.28635" lon="-2.33711">
        <ele>26.60000038147</ele>
        <time>2021-09-19T07:33:04.000Z</time>
      </trkpt>
      <trkpt lat="47.2868" lon="-2.33694">
        <ele>26.60000038147</ele>
        <time>2021-09-19T07:33:12.000Z</time>
      </trkpt>
      <trkpt lat="47.28702" lon="-2.33689">
        <ele>26.60000038147</ele>
        <time>2021-09-19T07:33:16.000Z</time>
      </trkpt>
      <trkpt lat="47.28713" lon="-2.33691">
        <ele>26.60000038147</ele>
        <time>2021-09-19T07:33:18.000Z</time>
      </trkpt>
      <trkpt lat="47.28738" lon="-2.33709">
        <ele>26.60000038147</ele>
        <time>2021-09-19T07:33:23.000Z</time>
      </trkpt>
      <trkpt lat="47.2875" lon="-2.33732">
        <ele>26.60000038147</ele>
        <time>2021-09-19T07:33:27.000Z</time>
      </trkpt>
      <trkpt lat="47.28752" lon="-2.33739">
        <ele>26.60000038147</ele>
        <time>2021-09-19T07:33:28.000Z</time>
      </trkpt>
      <trkpt lat="47.28759" lon="-2.33757">
        <ele>26.60000038147</ele>
        <time>2021-09-19T07:33:32.000Z</time>
      </trkpt>
      <trkpt lat="47.28764" lon="-2.33751">
        <ele>26.60000038147</ele>
        <time>2021-09-19T07:33:35.000Z</time>
      </trkpt>
      <trkpt lat="47.28763" lon="-2.33735">
        <ele>26.60000038147</ele>
        <time>2021-09-19T07:33:38.000Z</time>
      </trkpt>
      <trkpt lat="47.28763" lon="-2.33728">
        <ele>26.60000038147</ele>
        <time>2021-09-19T07:33:39.000Z</time>
      </trkpt>
      <trkpt lat="47.2876" lon="-2.33684">
        <ele>26.60000038147</ele>
        <time>2021-09-19T07:33:45.000Z</time>
      </trkpt>
      <trkpt lat="47.28753" lon="-2.33617">
        <ele>26.60000038147</ele>
        <time>2021-09-19T07:33:53.000Z</time>
      </trkpt>
      <trkpt lat="47.28736" lon="-2.33552">
        <ele>26.60000038147</ele>
        <time>2021-09-19T07:34:01.000Z</time>
      </trkpt>
      <trkpt lat="47.28718" lon="-2.33512">
        <ele>26.200000762939</ele>
        <time>2021-09-19T07:34:07.000Z</time>
      </trkpt>
      <trkpt lat="47.28716" lon="-2.33508">
        <ele>25.60000038147</ele>
        <time>2021-09-19T07:34:08.000Z</time>
      </trkpt>
      <trkpt lat="47.28714" lon="-2.33505">
        <ele>25.200000762939</ele>
        <time>2021-09-19T07:34:09.000Z</time>
      </trkpt>
      <trkpt lat="47.28713" lon="-2.33501">
        <ele>24.799999237061</ele>
        <time>2021-09-19T07:34:10.000Z</time>
      </trkpt>
      <trkpt lat="47.28713" lon="-2.33498">
        <ele>24.39999961853</ele>
        <time>2021-09-19T07:34:11.000Z</time>
      </trkpt>
      <trkpt lat="47.28718" lon="-2.33491">
        <ele>24.39999961853</ele>
        <time>2021-09-19T07:34:14.000Z</time>
      </trkpt>
      <trkpt lat="47.28728" lon="-2.3349">
        <ele>24.39999961853</ele>
        <time>2021-09-19T07:34:17.000Z</time>
      </trkpt>
      <trkpt lat="47.28732" lon="-2.3349">
        <ele>24.39999961853</ele>
        <time>2021-09-19T07:34:18.000Z</time>
      </trkpt>
      <trkpt lat="47.28763" lon="-2.33485">
        <ele>24.39999961853</ele>
        <time>2021-09-19T07:34:24.000Z</time>
      </trkpt>
      <trkpt lat="47.28803" lon="-2.33477">
        <ele>24.39999961853</ele>
        <time>2021-09-19T07:34:31.000Z</time>
      </trkpt>
      <trkpt lat="47.28849" lon="-2.33467">
        <ele>24.39999961853</ele>
        <time>2021-09-19T07:34:39.000Z</time>
      </trkpt>
      <trkpt lat="47.28876" lon="-2.33456">
        <ele>24.39999961853</ele>
        <time>2021-09-19T07:34:44.000Z</time>
      </trkpt>
      <trkpt lat="47.28881" lon="-2.33452">
        <ele>24.39999961853</ele>
        <time>2021-09-19T07:34:45.000Z</time>
      </trkpt>
      <trkpt lat="47.28897" lon="-2.33429">
        <ele>24.39999961853</ele>
        <time>2021-09-19T07:34:49.000Z</time>
      </trkpt>
      <trkpt lat="47.289" lon="-2.33422">
        <ele>24.39999961853</ele>
        <time>2021-09-19T07:34:50.000Z</time>
      </trkpt>
      <trkpt lat="47.28909" lon="-2.33389">
        <ele>24.39999961853</ele>
        <time>2021-09-19T07:34:54.000Z</time>
      </trkpt>
      <trkpt lat="47.28925" lon="-2.33321">
        <ele>24.39999961853</ele>
        <time>2021-09-19T07:35:02.000Z</time>
      </trkpt>
      <trkpt lat="47.28948" lon="-2.3326">
        <ele>24.39999961853</ele>
        <time>2021-09-19T07:35:10.000Z</time>
      </trkpt>
      <trkpt lat="47.28968" lon="-2.33221">
        <ele>24.39999961853</ele>
        <time>2021-09-19T07:35:15.000Z</time>
      </trkpt>
      <trkpt lat="47.28978" lon="-2.33209">
        <ele>24.39999961853</ele>
        <time>2021-09-19T07:35:17.000Z</time>
      </trkpt>
      <trkpt lat="47.28992" lon="-2.33193">
        <ele>24.39999961853</ele>
        <time>2021-09-19T07:35:20.000Z</time>
      </trkpt>
      <trkpt lat="47.29007" lon="-2.33179">
        <ele>24.39999961853</ele>
        <time>2021-09-19T07:35:23.000Z</time>
      </trkpt>
      <trkpt lat="47.29055" lon="-2.33141">
        <ele>24.39999961853</ele>
        <time>2021-09-19T07:35:31.000Z</time>
      </trkpt>
      <trkpt lat="47.29099" lon="-2.33099">
        <ele>24.39999961853</ele>
        <time>2021-09-19T07:35:39.000Z</time>
      </trkpt>
      <trkpt lat="47.29137" lon="-2.33044">
        <ele>24.39999961853</ele>
        <time>2021-09-19T07:35:47.000Z</time>
      </trkpt>
      <trkpt lat="47.29169" lon="-2.32991">
        <ele>24.39999961853</ele>
        <time>2021-09-19T07:35:54.000Z</time>
      </trkpt>
      <trkpt lat="47.29177" lon="-2.32975">
        <ele>24</ele>
        <time>2021-09-19T07:35:56.000Z</time>
      </trkpt>
      <trkpt lat="47.29181" lon="-2.32966">
        <ele>23.60000038147</ele>
        <time>2021-09-19T07:35:57.000Z</time>
      </trkpt>
      <trkpt lat="47.29184" lon="-2.32958">
        <ele>23.200000762939</ele>
        <time>2021-09-19T07:35:58.000Z</time>
      </trkpt>
      <trkpt lat="47.29187" lon="-2.32949">
        <ele>22.200000762939</ele>
        <time>2021-09-19T07:35:59.000Z</time>
      </trkpt>
      <trkpt lat="47.2919" lon="-2.3294">
        <ele>22.200000762939</ele>
        <time>2021-09-19T07:36:00.000Z</time>
      </trkpt>
      <trkpt lat="47.29211" lon="-2.32878">
        <ele>22.200000762939</ele>
        <time>2021-09-19T07:36:07.000Z</time>
      </trkpt>
      <trkpt lat="47.29221" lon="-2.32853">
        <ele>22.200000762939</ele>
        <time>2021-09-19T07:36:10.000Z</time>
      </trkpt>
      <trkpt lat="47.29233" lon="-2.3283">
        <ele>22.200000762939</ele>
        <time>2021-09-19T07:36:13.000Z</time>
      </trkpt>
      <trkpt lat="47.29237" lon="-2.32823">
        <ele>22.200000762939</ele>
        <time>2021-09-19T07:36:14.000Z</time>
      </trkpt>
      <trkpt lat="47.29267" lon="-2.32791">
        <ele>22.200000762939</ele>
        <time>2021-09-19T07:36:20.000Z</time>
      </trkpt>
      <trkpt lat="47.29277" lon="-2.3279">
        <ele>21.39999961853</ele>
        <time>2021-09-19T07:36:23.000Z</time>
      </trkpt>
      <trkpt lat="47.29278" lon="-2.32792">
        <ele>21</ele>
        <time>2021-09-19T07:36:24.000Z</time>
      </trkpt>
      <trkpt lat="47.29279" lon="-2.32795">
        <ele>20.60000038147</ele>
        <time>2021-09-19T07:36:25.000Z</time>
      </trkpt>
      <trkpt lat="47.2928" lon="-2.32798">
        <ele>20.200000762939</ele>
        <time>2021-09-19T07:36:26.000Z</time>
      </trkpt>
      <trkpt lat="47.29286" lon="-2.32822">
        <ele>20.200000762939</ele>
        <time>2021-09-19T07:36:31.000Z</time>
      </trkpt>
      <trkpt lat="47.29297" lon="-2.3287">
        <ele>20.200000762939</ele>
        <time>2021-09-19T07:36:38.000Z</time>
      </trkpt>
      <trkpt lat="47.29302" lon="-2.329">
        <ele>20.200000762939</ele>
        <time>2021-09-19T07:36:42.000Z</time>
      </trkpt>
      <trkpt lat="47.29304" lon="-2.32907">
        <ele>20.60000038147</ele>
        <time>2021-09-19T07:36:43.000Z</time>
      </trkpt>
      <trkpt lat="47.29305" lon="-2.32914">
        <ele>21</ele>
        <time>2021-09-19T07:36:44.000Z</time>
      </trkpt>
      <trkpt lat="47.29307" lon="-2.32921">
        <ele>21.39999961853</ele>
        <time>2021-09-19T07:36:45.000Z</time>
      </trkpt>
      <trkpt lat="47.29308" lon="-2.32928">
        <ele>21.799999237061</ele>
        <time>2021-09-19T07:36:46.000Z</time>
      </trkpt>
      <trkpt lat="47.29309" lon="-2.32935">
        <ele>22.200000762939</ele>
        <time>2021-09-19T07:36:47.000Z</time>
      </trkpt>
      <trkpt lat="47.29319" lon="-2.32978">
        <ele>22.200000762939</ele>
        <time>2021-09-19T07:36:53.000Z</time>
      </trkpt>
      <trkpt lat="47.29324" lon="-2.32999">
        <ele>22.60000038147</ele>
        <time>2021-09-19T07:36:56.000Z</time>
      </trkpt>
      <trkpt lat="47.29325" lon="-2.33006">
        <ele>23.200000762939</ele>
        <time>2021-09-19T07:36:57.000Z</time>
      </trkpt>
      <trkpt lat="47.29327" lon="-2.33013">
        <ele>23.60000038147</ele>
        <time>2021-09-19T07:36:58.000Z</time>
      </trkpt>
      <trkpt lat="47.29329" lon="-2.3302">
        <ele>24</ele>
        <time>2021-09-19T07:36:59.000Z</time>
      </trkpt>
      <trkpt lat="47.29331" lon="-2.33027">
        <ele>24.39999961853</ele>
        <time>2021-09-19T07:37:00.000Z</time>
      </trkpt>
      <trkpt lat="47.29333" lon="-2.33034">
        <ele>24.39999961853</ele>
        <time>2021-09-19T07:37:01.000Z</time>
      </trkpt>
      <trkpt lat="47.29349" lon="-2.3308">
        <ele>24.39999961853</ele>
        <time>2021-09-19T07:37:08.000Z</time>
      </trkpt>
      <trkpt lat="47.29361" lon="-2.33105">
        <ele>24.39999961853</ele>
        <time>2021-09-19T07:37:12.000Z</time>
      </trkpt>
      <trkpt lat="47.29369" lon="-2.33115">
        <ele>24.39999961853</ele>
        <time>2021-09-19T07:37:14.000Z</time>
      </trkpt>
      <trkpt lat="47.29398" lon="-2.33155">
        <ele>24.39999961853</ele>
        <time>2021-09-19T07:37:21.000Z</time>
      </trkpt>
      <trkpt lat="47.29402" lon="-2.33162">
        <ele>24.39999961853</ele>
        <time>2021-09-19T07:37:22.000Z</time>
      </trkpt>
      <trkpt lat="47.29412" lon="-2.33194">
        <ele>24.39999961853</ele>
        <time>2021-09-19T07:37:26.000Z</time>
      </trkpt>
      <trkpt lat="47.29426" lon="-2.33256">
        <ele>24.39999961853</ele>
        <time>2021-09-19T07:37:33.000Z</time>
      </trkpt>
      <trkpt lat="47.29433" lon="-2.33316">
        <ele>24.39999961853</ele>
        <time>2021-09-19T07:37:40.000Z</time>
      </trkpt>
      <trkpt lat="47.29434" lon="-2.33341">
        <ele>24.39999961853</ele>
        <time>2021-09-19T07:37:43.000Z</time>
      </trkpt>
      <trkpt lat="47.29433" lon="-2.33367">
        <ele>24.39999961853</ele>
        <time>2021-09-19T07:37:46.000Z</time>
      </trkpt>
      <trkpt lat="47.29433" lon="-2.33375">
        <ele>24.39999961853</ele>
        <time>2021-09-19T07:37:47.000Z</time>
      </trkpt>
      <trkpt lat="47.29438" lon="-2.33398">
        <ele>24.39999961853</ele>
        <time>2021-09-19T07:37:50.000Z</time>
      </trkpt>
      <trkpt lat="47.29446" lon="-2.33419">
        <ele>24.39999961853</ele>
        <time>2021-09-19T07:37:53.000Z</time>
      </trkpt>
      <trkpt lat="47.29453" lon="-2.33432">
        <ele>24.39999961853</ele>
        <time>2021-09-19T07:37:55.000Z</time>
      </trkpt>
      <trkpt lat="47.29459" lon="-2.33444">
        <ele>24.39999961853</ele>
        <time>2021-09-19T07:37:57.000Z</time>
      </trkpt>
      <trkpt lat="47.29471" lon="-2.33472">
        <ele>24.39999961853</ele>
        <time>2021-09-19T07:38:01.000Z</time>
      </trkpt>
      <trkpt lat="47.295" lon="-2.33534">
        <ele>24.39999961853</ele>
        <time>2021-09-19T07:38:10.000Z</time>
      </trkpt>
      <trkpt lat="47.29523" lon="-2.33595">
        <ele>24.39999961853</ele>
        <time>2021-09-19T07:38:18.000Z</time>
      </trkpt>
      <trkpt lat="47.29543" lon="-2.3367">
        <ele>24.39999961853</ele>
        <time>2021-09-19T07:38:27.000Z</time>
      </trkpt>
      <trkpt lat="47.29549" lon="-2.33687">
        <ele>24.39999961853</ele>
        <time>2021-09-19T07:38:29.000Z</time>
      </trkpt>
      <trkpt lat="47.29552" lon="-2.33694">
        <ele>24</ele>
        <time>2021-09-19T07:38:30.000Z</time>
      </trkpt>
      <trkpt lat="47.29556" lon="-2.337">
        <ele>23.60000038147</ele>
        <time>2021-09-19T07:38:31.000Z</time>
      </trkpt>
      <trkpt lat="47.2956" lon="-2.33706">
        <ele>23.200000762939</ele>
        <time>2021-09-19T07:38:32.000Z</time>
      </trkpt>
      <trkpt lat="47.29564" lon="-2.33712">
        <ele>22.799999237061</ele>
        <time>2021-09-19T07:38:33.000Z</time>
      </trkpt>
      <trkpt lat="47.29568" lon="-2.33718">
        <ele>22.200000762939</ele>
        <time>2021-09-19T07:38:34.000Z</time>
      </trkpt>
      <trkpt lat="47.29586" lon="-2.3374">
        <ele>22.200000762939</ele>
        <time>2021-09-19T07:38:38.000Z</time>
      </trkpt>
      <trkpt lat="47.29612" lon="-2.33785">
        <ele>22.200000762939</ele>
        <time>2021-09-19T07:38:45.000Z</time>
      </trkpt>
      <trkpt lat="47.29642" lon="-2.3384">
        <ele>22.200000762939</ele>
        <time>2021-09-19T07:38:54.000Z</time>
      </trkpt>
      <trkpt lat="47.2966" lon="-2.33847">
        <ele>22.200000762939</ele>
        <time>2021-09-19T07:38:58.000Z</time>
      </trkpt>
      <trkpt lat="47.29664" lon="-2.33843">
        <ele>22.60000038147</ele>
        <time>2021-09-19T07:38:59.000Z</time>
      </trkpt>
      <trkpt lat="47.29668" lon="-2.33839">
        <ele>23.200000762939</ele>
        <time>2021-09-19T07:39:00.000Z</time>
      </trkpt>
      <trkpt lat="47.29671" lon="-2.33834">
        <ele>23.60000038147</ele>
        <time>2021-09-19T07:39:01.000Z</time>
      </trkpt>
      <trkpt lat="47.29675" lon="-2.3383">
        <ele>24</ele>
        <time>2021-09-19T07:39:02.000Z</time>
      </trkpt>
      <trkpt lat="47.29679" lon="-2.33825">
        <ele>24.39999961853</ele>
        <time>2021-09-19T07:39:03.000Z</time>
      </trkpt>
      <trkpt lat="47.29692" lon="-2.3381">
        <ele>24.39999961853</ele>
        <time>2021-09-19T07:39:07.000Z</time>
      </trkpt>
      <trkpt lat="47.29709" lon="-2.33789">
        <ele>24.39999961853</ele>
        <time>2021-09-19T07:39:13.000Z</time>
      </trkpt>
      <trkpt lat="47.2972" lon="-2.3377">
        <ele>24.799999237061</ele>
        <time>2021-09-19T07:39:17.000Z</time>
      </trkpt>
      <trkpt lat="47.29722" lon="-2.33764">
        <ele>25.200000762939</ele>
        <time>2021-09-19T07:39:18.000Z</time>
      </trkpt>
      <trkpt lat="47.29724" lon="-2.33758">
        <ele>25.60000038147</ele>
        <time>2021-09-19T07:39:19.000Z</time>
      </trkpt>
      <trkpt lat="47.29727" lon="-2.33753">
        <ele>26</ele>
        <time>2021-09-19T07:39:20.000Z</time>
      </trkpt>
      <trkpt lat="47.2973" lon="-2.33748">
        <ele>26.39999961853</ele>
        <time>2021-09-19T07:39:21.000Z</time>
      </trkpt>
      <trkpt lat="47.29739" lon="-2.33731">
        <ele>26.39999961853</ele>
        <time>2021-09-19T07:39:24.000Z</time>
      </trkpt>
      <trkpt lat="47.29762" lon="-2.33692">
        <ele>26.39999961853</ele>
        <time>2021-09-19T07:39:31.000Z</time>
      </trkpt>
      <trkpt lat="47.29796" lon="-2.33634">
        <ele>26.39999961853</ele>
        <time>2021-09-19T07:39:40.000Z</time>
      </trkpt>
      <trkpt lat="47.2982" lon="-2.33594">
        <ele>26.39999961853</ele>
        <time>2021-09-19T07:39:46.000Z</time>
      </trkpt>
      <trkpt lat="47.29847" lon="-2.33545">
        <ele>26</ele>
        <time>2021-09-19T07:39:53.000Z</time>
      </trkpt>
      <trkpt lat="47.29851" lon="-2.33538">
        <ele>25.60000038147</ele>
        <time>2021-09-19T07:39:54.000Z</time>
      </trkpt>
      <trkpt lat="47.29855" lon="-2.33531">
        <ele>25.200000762939</ele>
        <time>2021-09-19T07:39:55.000Z</time>
      </trkpt>
      <trkpt lat="47.29859" lon="-2.33524">
        <ele>24.799999237061</ele>
        <time>2021-09-19T07:39:56.000Z</time>
      </trkpt>
      <trkpt lat="47.29863" lon="-2.33516">
        <ele>24.39999961853</ele>
        <time>2021-09-19T07:39:57.000Z</time>
      </trkpt>
      <trkpt lat="47.29881" lon="-2.33487">
        <ele>24.39999961853</ele>
        <time>2021-09-19T07:40:01.000Z</time>
      </trkpt>
      <trkpt lat="47.29918" lon="-2.33443">
        <ele>24.39999961853</ele>
        <time>2021-09-19T07:40:09.000Z</time>
      </trkpt>
      <trkpt lat="47.2993" lon="-2.33447">
        <ele>24.39999961853</ele>
        <time>2021-09-19T07:40:12.000Z</time>
      </trkpt>
      <trkpt lat="47.29935" lon="-2.33452">
        <ele>24</ele>
        <time>2021-09-19T07:40:13.000Z</time>
      </trkpt>
      <trkpt lat="47.29939" lon="-2.33457">
        <ele>23.60000038147</ele>
        <time>2021-09-19T07:40:14.000Z</time>
      </trkpt>
      <trkpt lat="47.29943" lon="-2.33463">
        <ele>23.200000762939</ele>
        <time>2021-09-19T07:40:15.000Z</time>
      </trkpt>
      <trkpt lat="47.29948" lon="-2.33469">
        <ele>22.799999237061</ele>
        <time>2021-09-19T07:40:16.000Z</time>
      </trkpt>
      <trkpt lat="47.29952" lon="-2.33475">
        <ele>22.200000762939</ele>
        <time>2021-09-19T07:40:17.000Z</time>
      </trkpt>
      <trkpt lat="47.29981" lon="-2.33504">
        <ele>22.200000762939</ele>
        <time>2021-09-19T07:40:23.000Z</time>
      </trkpt>
      <trkpt lat="47.30015" lon="-2.33529">
        <ele>22.200000762939</ele>
        <time>2021-09-19T07:40:30.000Z</time>
      </trkpt>
      <trkpt lat="47.3002" lon="-2.33531">
        <ele>22.200000762939</ele>
        <time>2021-09-19T07:40:31.000Z</time>
      </trkpt>
      <trkpt lat="47.30035" lon="-2.33531">
        <ele>22.200000762939</ele>
        <time>2021-09-19T07:40:34.000Z</time>
      </trkpt>
      <trkpt lat="47.30049" lon="-2.33522">
        <ele>22.200000762939</ele>
        <time>2021-09-19T07:40:37.000Z</time>
      </trkpt>
      <trkpt lat="47.30053" lon="-2.33519">
        <ele>22.200000762939</ele>
        <time>2021-09-19T07:40:38.000Z</time>
      </trkpt>
      <trkpt lat="47.30068" lon="-2.33515">
        <ele>22.799999237061</ele>
        <time>2021-09-19T07:40:41.000Z</time>
      </trkpt>
      <trkpt lat="47.30073" lon="-2.33515">
        <ele>23.200000762939</ele>
        <time>2021-09-19T07:40:42.000Z</time>
      </trkpt>
      <trkpt lat="47.30078" lon="-2.33516">
        <ele>23.60000038147</ele>
        <time>2021-09-19T07:40:43.000Z</time>
      </trkpt>
      <trkpt lat="47.30083" lon="-2.33517">
        <ele>24</ele>
        <time>2021-09-19T07:40:44.000Z</time>
      </trkpt>
      <trkpt lat="47.30088" lon="-2.33518">
        <ele>24.39999961853</ele>
        <time>2021-09-19T07:40:45.000Z</time>
      </trkpt>
      <trkpt lat="47.30103" lon="-2.33521">
        <ele>24.39999961853</ele>
        <time>2021-09-19T07:40:48.000Z</time>
      </trkpt>
      <trkpt lat="47.30138" lon="-2.33533">
        <ele>24.39999961853</ele>
        <time>2021-09-19T07:40:55.000Z</time>
      </trkpt>
      <trkpt lat="47.30157" lon="-2.3354">
        <ele>24.799999237061</ele>
        <time>2021-09-19T07:40:59.000Z</time>
      </trkpt>
      <trkpt lat="47.30161" lon="-2.33542">
        <ele>25.200000762939</ele>
        <time>2021-09-19T07:41:00.000Z</time>
      </trkpt>
      <trkpt lat="47.30166" lon="-2.33544">
        <ele>25.60000038147</ele>
        <time>2021-09-19T07:41:01.000Z</time>
      </trkpt>
      <trkpt lat="47.3017" lon="-2.33546">
        <ele>26</ele>
        <time>2021-09-19T07:41:02.000Z</time>
      </trkpt>
      <trkpt lat="47.30175" lon="-2.33547">
        <ele>26.60000038147</ele>
        <time>2021-09-19T07:41:03.000Z</time>
      </trkpt>
      <trkpt lat="47.3018" lon="-2.33549">
        <ele>26.60000038147</ele>
        <time>2021-09-19T07:41:04.000Z</time>
      </trkpt>
      <trkpt lat="47.30209" lon="-2.33558">
        <ele>26.60000038147</ele>
        <time>2021-09-19T07:41:10.000Z</time>
      </trkpt>
      <trkpt lat="47.30219" lon="-2.33561">
        <ele>26.60000038147</ele>
        <time>2021-09-19T07:41:12.000Z</time>
      </trkpt>
      <trkpt lat="47.30249" lon="-2.33571">
        <ele>27</ele>
        <time>2021-09-19T07:41:18.000Z</time>
      </trkpt>
      <trkpt lat="47.30253" lon="-2.33573">
        <ele>27.799999237061</ele>
        <time>2021-09-19T07:41:19.000Z</time>
      </trkpt>
      <trkpt lat="47.30258" lon="-2.33574">
        <ele>28.200000762939</ele>
        <time>2021-09-19T07:41:20.000Z</time>
      </trkpt>
      <trkpt lat="47.30261" lon="-2.33575">
        <ele>28.60000038147</ele>
        <time>2021-09-19T07:41:21.000Z</time>
      </trkpt>
      <trkpt lat="47.30271" lon="-2.33579">
        <ele>28.60000038147</ele>
        <time>2021-09-19T07:41:24.000Z</time>
      </trkpt>
      <trkpt lat="47.30282" lon="-2.33584">
        <ele>29</ele>
        <time>2021-09-19T07:41:28.000Z</time>
      </trkpt>
      <trkpt lat="47.30286" lon="-2.33585">
        <ele>29.39999961853</ele>
        <time>2021-09-19T07:41:29.000Z</time>
      </trkpt>
      <trkpt lat="47.30289" lon="-2.33587">
        <ele>29.799999237061</ele>
        <time>2021-09-19T07:41:30.000Z</time>
      </trkpt>
      <trkpt lat="47.30292" lon="-2.33588">
        <ele>30.200000762939</ele>
        <time>2021-09-19T07:41:31.000Z</time>
      </trkpt>
      <trkpt lat="47.30296" lon="-2.33588">
        <ele>30.60000038147</ele>
        <time>2021-09-19T07:41:32.000Z</time>
      </trkpt>
      <trkpt lat="47.30309" lon="-2.33586">
        <ele>30.60000038147</ele>
        <time>2021-09-19T07:41:35.000Z</time>
      </trkpt>
      <trkpt lat="47.30335" lon="-2.3358">
        <ele>30.60000038147</ele>
        <time>2021-09-19T07:41:41.000Z</time>
      </trkpt>
      <trkpt lat="47.30351" lon="-2.33594">
        <ele>30.60000038147</ele>
        <time>2021-09-19T07:41:45.000Z</time>
      </trkpt>
      <trkpt lat="47.30358" lon="-2.33619">
        <ele>30.60000038147</ele>
        <time>2021-09-19T07:41:49.000Z</time>
      </trkpt>
      <trkpt lat="47.30359" lon="-2.33626">
        <ele>30.60000038147</ele>
        <time>2021-09-19T07:41:50.000Z</time>
      </trkpt>
      <trkpt lat="47.30364" lon="-2.33658">
        <ele>30.60000038147</ele>
        <time>2021-09-19T07:41:55.000Z</time>
      </trkpt>
      <trkpt lat="47.30369" lon="-2.33669">
        <ele>30.60000038147</ele>
        <time>2021-09-19T07:41:57.000Z</time>
      </trkpt>
      <trkpt lat="47.30383" lon="-2.33682">
        <ele>30.60000038147</ele>
        <time>2021-09-19T07:42:01.000Z</time>
      </trkpt>
      <trkpt lat="47.30392" lon="-2.33686">
        <ele>31</ele>
        <time>2021-09-19T07:42:03.000Z</time>
      </trkpt>
      <trkpt lat="47.30396" lon="-2.33687">
        <ele>31.39999961853</ele>
        <time>2021-09-19T07:42:04.000Z</time>
      </trkpt>
      <trkpt lat="47.304" lon="-2.33689">
        <ele>31.799999237061</ele>
        <time>2021-09-19T07:42:05.000Z</time>
      </trkpt>
      <trkpt lat="47.30404" lon="-2.33691">
        <ele>32.200000762939</ele>
        <time>2021-09-19T07:42:06.000Z</time>
      </trkpt>
      <trkpt lat="47.30408" lon="-2.33693">
        <ele>32.599998474121</ele>
        <time>2021-09-19T07:42:07.000Z</time>
      </trkpt>
      <trkpt lat="47.30416" lon="-2.33695">
        <ele>32.599998474121</ele>
        <time>2021-09-19T07:42:09.000Z</time>
      </trkpt>
      <trkpt lat="47.30425" lon="-2.33691">
        <ele>32.599998474121</ele>
        <time>2021-09-19T07:42:11.000Z</time>
      </trkpt>
      <trkpt lat="47.30442" lon="-2.33683">
        <ele>32.599998474121</ele>
        <time>2021-09-19T07:42:15.000Z</time>
      </trkpt>
      <trkpt lat="47.30446" lon="-2.33681">
        <ele>32.599998474121</ele>
        <time>2021-09-19T07:42:16.000Z</time>
      </trkpt>
      <trkpt lat="47.30458" lon="-2.33673">
        <ele>32.599998474121</ele>
        <time>2021-09-19T07:42:19.000Z</time>
      </trkpt>
      <trkpt lat="47.30471" lon="-2.33666">
        <ele>32.599998474121</ele>
        <time>2021-09-19T07:42:22.000Z</time>
      </trkpt>
      <trkpt lat="47.3049" lon="-2.33657">
        <ele>32.599998474121</ele>
        <time>2021-09-19T07:42:26.000Z</time>
      </trkpt>
      <trkpt lat="47.305" lon="-2.33654">
        <ele>32.599998474121</ele>
        <time>2021-09-19T07:42:28.000Z</time>
      </trkpt>
      <trkpt lat="47.30518" lon="-2.33649">
        <ele>32.599998474121</ele>
        <time>2021-09-19T07:42:32.000Z</time>
      </trkpt>
      <trkpt lat="47.30522" lon="-2.33649">
        <ele>32.599998474121</ele>
        <time>2021-09-19T07:42:33.000Z</time>
      </trkpt>
      <trkpt lat="47.30535" lon="-2.33647">
        <ele>32.599998474121</ele>
        <time>2021-09-19T07:42:36.000Z</time>
      </trkpt>
      <trkpt lat="47.30543" lon="-2.33647">
        <ele>32.599998474121</ele>
        <time>2021-09-19T07:42:38.000Z</time>
      </trkpt>
      <trkpt lat="47.30552" lon="-2.33657">
        <ele>32.599998474121</ele>
        <time>2021-09-19T07:42:41.000Z</time>
      </trkpt>
      <trkpt lat="47.30555" lon="-2.33662">
        <ele>32.599998474121</ele>
        <time>2021-09-19T07:42:42.000Z</time>
      </trkpt>
      <trkpt lat="47.30564" lon="-2.3369">
        <ele>32.599998474121</ele>
        <time>2021-09-19T07:42:47.000Z</time>
      </trkpt>
      <trkpt lat="47.30567" lon="-2.33704">
        <ele>33</ele>
        <time>2021-09-19T07:42:49.000Z</time>
      </trkpt>
      <trkpt lat="47.30568" lon="-2.33711">
        <ele>33.400001525879</ele>
        <time>2021-09-19T07:42:50.000Z</time>
      </trkpt>
      <trkpt lat="47.3057" lon="-2.33718">
        <ele>33.799999237061</ele>
        <time>2021-09-19T07:42:51.000Z</time>
      </trkpt>
      <trkpt lat="47.30571" lon="-2.33725">
        <ele>34.200000762939</ele>
        <time>2021-09-19T07:42:52.000Z</time>
      </trkpt>
      <trkpt lat="47.30573" lon="-2.33732">
        <ele>34.599998474121</ele>
        <time>2021-09-19T07:42:53.000Z</time>
      </trkpt>
      <trkpt lat="47.30575" lon="-2.3374">
        <ele>34.599998474121</ele>
        <time>2021-09-19T07:42:54.000Z</time>
      </trkpt>
      <trkpt lat="47.30585" lon="-2.33793">
        <ele>34.599998474121</ele>
        <time>2021-09-19T07:43:02.000Z</time>
      </trkpt>
      <trkpt lat="47.30596" lon="-2.33833">
        <ele>34.599998474121</ele>
        <time>2021-09-19T07:43:08.000Z</time>
      </trkpt>
      <trkpt lat="47.306" lon="-2.3385">
        <ele>34.599998474121</ele>
        <time>2021-09-19T07:43:12.000Z</time>
      </trkpt>
      <trkpt lat="47.30601" lon="-2.33872">
        <ele>34.599998474121</ele>
        <time>2021-09-19T07:43:19.000Z</time>
      </trkpt>
      <trkpt lat="47.30601" lon="-2.33903">
        <ele>34.599998474121</ele>
        <time>2021-09-19T07:43:25.000Z</time>
      </trkpt>
      <trkpt lat="47.30608" lon="-2.33937">
        <ele>34.599998474121</ele>
        <time>2021-09-19T07:43:30.000Z</time>
      </trkpt>
      <trkpt lat="47.30611" lon="-2.33944">
        <ele>34.599998474121</ele>
        <time>2021-09-19T07:43:31.000Z</time>
      </trkpt>
      <trkpt lat="47.30628" lon="-2.3396">
        <ele>34.599998474121</ele>
        <time>2021-09-19T07:43:35.000Z</time>
      </trkpt>
      <trkpt lat="47.3065" lon="-2.3398">
        <ele>34.599998474121</ele>
        <time>2021-09-19T07:43:40.000Z</time>
      </trkpt>
      <trkpt lat="47.3066" lon="-2.33984">
        <ele>34.599998474121</ele>
        <time>2021-09-19T07:43:42.000Z</time>
      </trkpt>
      <trkpt lat="47.30665" lon="-2.33985">
        <ele>34.599998474121</ele>
        <time>2021-09-19T07:43:43.000Z</time>
      </trkpt>
      <trkpt lat="47.30684" lon="-2.33986">
        <ele>34.599998474121</ele>
        <time>2021-09-19T07:43:47.000Z</time>
      </trkpt>
      <trkpt lat="47.30689" lon="-2.33986">
        <ele>34.599998474121</ele>
        <time>2021-09-19T07:43:48.000Z</time>
      </trkpt>
      <trkpt lat="47.30704" lon="-2.33985">
        <ele>34.599998474121</ele>
        <time>2021-09-19T07:43:51.000Z</time>
      </trkpt>
      <trkpt lat="47.30714" lon="-2.33984">
        <ele>34.599998474121</ele>
        <time>2021-09-19T07:43:53.000Z</time>
      </trkpt>
      <trkpt lat="47.30736" lon="-2.33978">
        <ele>35.200000762939</ele>
        <time>2021-09-19T07:43:57.000Z</time>
      </trkpt>
      <trkpt lat="47.30742" lon="-2.33977">
        <ele>35.599998474121</ele>
        <time>2021-09-19T07:43:58.000Z</time>
      </trkpt>
      <trkpt lat="47.30747" lon="-2.33975">
        <ele>36</ele>
        <time>2021-09-19T07:43:59.000Z</time>
      </trkpt>
      <trkpt lat="47.30752" lon="-2.33974">
        <ele>36.400001525879</ele>
        <time>2021-09-19T07:44:00.000Z</time>
      </trkpt>
      <trkpt lat="47.30757" lon="-2.33974">
        <ele>36.799999237061</ele>
        <time>2021-09-19T07:44:01.000Z</time>
      </trkpt>
      <trkpt lat="47.30772" lon="-2.33972">
        <ele>36.799999237061</ele>
        <time>2021-09-19T07:44:04.000Z</time>
      </trkpt>
      <trkpt lat="47.30786" lon="-2.33969">
        <ele>36.799999237061</ele>
        <time>2021-09-19T07:44:07.000Z</time>
      </trkpt>
      <trkpt lat="47.30801" lon="-2.33963">
        <ele>36.799999237061</ele>
        <time>2021-09-19T07:44:10.000Z</time>
      </trkpt>
      <trkpt lat="47.30832" lon="-2.33953">
        <ele>36.799999237061</ele>
        <time>2021-09-19T07:44:16.000Z</time>
      </trkpt>
      <trkpt lat="47.30864" lon="-2.33947">
        <ele>36.799999237061</ele>
        <time>2021-09-19T07:44:22.000Z</time>
      </trkpt>
      <trkpt lat="47.30896" lon="-2.33944">
        <ele>36.799999237061</ele>
        <time>2021-09-19T07:44:29.000Z</time>
      </trkpt>
      <trkpt lat="47.30931" lon="-2.33945">
        <ele>36.799999237061</ele>
        <time>2021-09-19T07:44:37.000Z</time>
      </trkpt>
      <trkpt lat="47.30953" lon="-2.33949">
        <ele>36.799999237061</ele>
        <time>2021-09-19T07:44:43.000Z</time>
      </trkpt>
      <trkpt lat="47.30975" lon="-2.33953">
        <ele>36.799999237061</ele>
        <time>2021-09-19T07:44:48.000Z</time>
      </trkpt>
      <trkpt lat="47.30979" lon="-2.33953">
        <ele>36.799999237061</ele>
        <time>2021-09-19T07:44:49.000Z</time>
      </trkpt>
      <trkpt lat="47.31009" lon="-2.33952">
        <ele>36.799999237061</ele>
        <time>2021-09-19T07:44:56.000Z</time>
      </trkpt>
      <trkpt lat="47.31047" lon="-2.33946">
        <ele>36.799999237061</ele>
        <time>2021-09-19T07:45:04.000Z</time>
      </trkpt>
      <trkpt lat="47.31056" lon="-2.33941">
        <ele>36.799999237061</ele>
        <time>2021-09-19T07:45:06.000Z</time>
      </trkpt>
      <trkpt lat="47.31061" lon="-2.3393">
        <ele>36.799999237061</ele>
        <time>2021-09-19T07:45:08.000Z</time>
      </trkpt>
      <trkpt lat="47.31062" lon="-2.33909">
        <ele>36.799999237061</ele>
        <time>2021-09-19T07:45:11.000Z</time>
      </trkpt>
      <trkpt lat="47.31062" lon="-2.33902">
        <ele>36.799999237061</ele>
        <time>2021-09-19T07:45:12.000Z</time>
      </trkpt>
      <trkpt lat="47.31064" lon="-2.33839">
        <ele>36.799999237061</ele>
        <time>2021-09-19T07:45:20.000Z</time>
      </trkpt>
      <trkpt lat="47.31071" lon="-2.33797">
        <ele>36.799999237061</ele>
        <time>2021-09-19T07:45:25.000Z</time>
      </trkpt>
      <trkpt lat="47.31073" lon="-2.33789">
        <ele>36.799999237061</ele>
        <time>2021-09-19T07:45:26.000Z</time>
      </trkpt>
      <trkpt lat="47.31076" lon="-2.33782">
        <ele>36.799999237061</ele>
        <time>2021-09-19T07:45:27.000Z</time>
      </trkpt>
      <trkpt lat="47.31089" lon="-2.33752">
        <ele>36.799999237061</ele>
        <time>2021-09-19T07:45:31.000Z</time>
      </trkpt>
      <trkpt lat="47.31099" lon="-2.33701">
        <ele>36.799999237061</ele>
        <time>2021-09-19T07:45:37.000Z</time>
      </trkpt>
      <trkpt lat="47.31106" lon="-2.33643">
        <ele>36.799999237061</ele>
        <time>2021-09-19T07:45:44.000Z</time>
      </trkpt>
      <trkpt lat="47.31111" lon="-2.33597">
        <ele>36.799999237061</ele>
        <time>2021-09-19T07:45:50.000Z</time>
      </trkpt>
      <trkpt lat="47.31111" lon="-2.33588">
        <ele>36.400001525879</ele>
        <time>2021-09-19T07:45:51.000Z</time>
      </trkpt>
      <trkpt lat="47.31111" lon="-2.3358">
        <ele>36</ele>
        <time>2021-09-19T07:45:52.000Z</time>
      </trkpt>
      <trkpt lat="47.31111" lon="-2.33572">
        <ele>35.599998474121</ele>
        <time>2021-09-19T07:45:53.000Z</time>
      </trkpt>
      <trkpt lat="47.3111" lon="-2.33564">
        <ele>35.200000762939</ele>
        <time>2021-09-19T07:45:54.000Z</time>
      </trkpt>
      <trkpt lat="47.3111" lon="-2.33557">
        <ele>34.799999237061</ele>
        <time>2021-09-19T07:45:55.000Z</time>
      </trkpt>
      <trkpt lat="47.3111" lon="-2.3355">
        <ele>34.799999237061</ele>
        <time>2021-09-19T07:45:56.000Z</time>
      </trkpt>
      <trkpt lat="47.31103" lon="-2.33513">
        <ele>34.799999237061</ele>
        <time>2021-09-19T07:46:01.000Z</time>
      </trkpt>
      <trkpt lat="47.31096" lon="-2.3346">
        <ele>34.799999237061</ele>
        <time>2021-09-19T07:46:07.000Z</time>
      </trkpt>
      <trkpt lat="47.31094" lon="-2.33381">
        <ele>34.799999237061</ele>
        <time>2021-09-19T07:46:16.000Z</time>
      </trkpt>
      <trkpt lat="47.31095" lon="-2.33348">
        <ele>34.400001525879</ele>
        <time>2021-09-19T07:46:20.000Z</time>
      </trkpt>
      <trkpt lat="47.31096" lon="-2.3334">
        <ele>34</ele>
        <time>2021-09-19T07:46:21.000Z</time>
      </trkpt>
      <trkpt lat="47.31096" lon="-2.33331">
        <ele>33.599998474121</ele>
        <time>2021-09-19T07:46:22.000Z</time>
      </trkpt>
      <trkpt lat="47.31096" lon="-2.33323">
        <ele>33.200000762939</ele>
        <time>2021-09-19T07:46:23.000Z</time>
      </trkpt>
      <trkpt lat="47.31096" lon="-2.33315">
        <ele>32.799999237061</ele>
        <time>2021-09-19T07:46:24.000Z</time>
      </trkpt>
      <trkpt lat="47.31101" lon="-2.33254">
        <ele>32.799999237061</ele>
        <time>2021-09-19T07:46:32.000Z</time>
      </trkpt>
      <trkpt lat="47.31104" lon="-2.33226">
        <ele>32.799999237061</ele>
        <time>2021-09-19T07:46:36.000Z</time>
      </trkpt>
      <trkpt lat="47.31109" lon="-2.33212">
        <ele>32.799999237061</ele>
        <time>2021-09-19T07:46:38.000Z</time>
      </trkpt>
      <trkpt lat="47.31124" lon="-2.33199">
        <ele>32.799999237061</ele>
        <time>2021-09-19T07:46:41.000Z</time>
      </trkpt>
      <trkpt lat="47.31163" lon="-2.33173">
        <ele>32.799999237061</ele>
        <time>2021-09-19T07:46:48.000Z</time>
      </trkpt>
      <trkpt lat="47.3118" lon="-2.33161">
        <ele>32.200000762939</ele>
        <time>2021-09-19T07:46:51.000Z</time>
      </trkpt>
      <trkpt lat="47.31185" lon="-2.33158">
        <ele>31.799999237061</ele>
        <time>2021-09-19T07:46:52.000Z</time>
      </trkpt>
      <trkpt lat="47.31191" lon="-2.33154">
        <ele>31.39999961853</ele>
        <time>2021-09-19T07:46:53.000Z</time>
      </trkpt>
      <trkpt lat="47.31196" lon="-2.33151">
        <ele>31</ele>
        <time>2021-09-19T07:46:54.000Z</time>
      </trkpt>
      <trkpt lat="47.31201" lon="-2.33149">
        <ele>30.60000038147</ele>
        <time>2021-09-19T07:46:55.000Z</time>
      </trkpt>
      <trkpt lat="47.31213" lon="-2.33145">
        <ele>30.60000038147</ele>
        <time>2021-09-19T07:46:57.000Z</time>
      </trkpt>
      <trkpt lat="47.31226" lon="-2.33144">
        <ele>30.60000038147</ele>
        <time>2021-09-19T07:46:59.000Z</time>
      </trkpt>
      <trkpt lat="47.31234" lon="-2.33145">
        <ele>30.60000038147</ele>
        <time>2021-09-19T07:47:00.000Z</time>
      </trkpt>
      <trkpt lat="47.31261" lon="-2.33151">
        <ele>30.60000038147</ele>
        <time>2021-09-19T07:47:04.000Z</time>
      </trkpt>
      <trkpt lat="47.31291" lon="-2.33165">
        <ele>30.60000038147</ele>
        <time>2021-09-19T07:47:09.000Z</time>
      </trkpt>
      <trkpt lat="47.31324" lon="-2.33194">
        <ele>30.60000038147</ele>
        <time>2021-09-19T07:47:15.000Z</time>
      </trkpt>
      <trkpt lat="47.31366" lon="-2.33229">
        <ele>30.60000038147</ele>
        <time>2021-09-19T07:47:23.000Z</time>
      </trkpt>
      <trkpt lat="47.31416" lon="-2.33265">
        <ele>30.60000038147</ele>
        <time>2021-09-19T07:47:32.000Z</time>
      </trkpt>
      <trkpt lat="47.31446" lon="-2.33295">
        <ele>30.60000038147</ele>
        <time>2021-09-19T07:47:38.000Z</time>
      </trkpt>
      <trkpt lat="47.31459" lon="-2.33314">
        <ele>30.60000038147</ele>
        <time>2021-09-19T07:47:41.000Z</time>
      </trkpt>
      <trkpt lat="47.31466" lon="-2.33328">
        <ele>30.60000038147</ele>
        <time>2021-09-19T07:47:43.000Z</time>
      </trkpt>
      <trkpt lat="47.31482" lon="-2.33362">
        <ele>30.60000038147</ele>
        <time>2021-09-19T07:47:48.000Z</time>
      </trkpt>
      <trkpt lat="47.31487" lon="-2.33366">
        <ele>30.60000038147</ele>
        <time>2021-09-19T07:47:49.000Z</time>
      </trkpt>
      <trkpt lat="47.31503" lon="-2.33363">
        <ele>31</ele>
        <time>2021-09-19T07:47:52.000Z</time>
      </trkpt>
      <trkpt lat="47.31508" lon="-2.33359">
        <ele>31.39999961853</ele>
        <time>2021-09-19T07:47:53.000Z</time>
      </trkpt>
      <trkpt lat="47.31513" lon="-2.33356">
        <ele>32.200000762939</ele>
        <time>2021-09-19T07:47:54.000Z</time>
      </trkpt>
      <trkpt lat="47.31518" lon="-2.33353">
        <ele>32.599998474121</ele>
        <time>2021-09-19T07:47:55.000Z</time>
      </trkpt>
      <trkpt lat="47.31534" lon="-2.33343">
        <ele>32.599998474121</ele>
        <time>2021-09-19T07:47:58.000Z</time>
      </trkpt>
      <trkpt lat="47.31572" lon="-2.33326">
        <ele>32.599998474121</ele>
        <time>2021-09-19T07:48:05.000Z</time>
      </trkpt>
      <trkpt lat="47.3161" lon="-2.33305">
        <ele>32.599998474121</ele>
        <time>2021-09-19T07:48:12.000Z</time>
      </trkpt>
      <trkpt lat="47.31658" lon="-2.33278">
        <ele>32.599998474121</ele>
        <time>2021-09-19T07:48:21.000Z</time>
      </trkpt>
      <trkpt lat="47.31697" lon="-2.3326">
        <ele>32.599998474121</ele>
        <time>2021-09-19T07:48:28.000Z</time>
      </trkpt>
      <trkpt lat="47.3172" lon="-2.33249">
        <ele>32.200000762939</ele>
        <time>2021-09-19T07:48:32.000Z</time>
      </trkpt>
      <trkpt lat="47.31726" lon="-2.33247">
        <ele>31.799999237061</ele>
        <time>2021-09-19T07:48:33.000Z</time>
      </trkpt>
      <trkpt lat="47.31731" lon="-2.33245">
        <ele>31.39999961853</ele>
        <time>2021-09-19T07:48:34.000Z</time>
      </trkpt>
      <trkpt lat="47.31736" lon="-2.33244">
        <ele>30.799999237061</ele>
        <time>2021-09-19T07:48:35.000Z</time>
      </trkpt>
      <trkpt lat="47.3174" lon="-2.33246">
        <ele>30.39999961853</ele>
        <time>2021-09-19T07:48:36.000Z</time>
      </trkpt>
      <trkpt lat="47.31746" lon="-2.33255">
        <ele>30.39999961853</ele>
        <time>2021-09-19T07:48:38.000Z</time>
      </trkpt>
      <trkpt lat="47.31749" lon="-2.33272">
        <ele>30.39999961853</ele>
        <time>2021-09-19T07:48:41.000Z</time>
      </trkpt>
      <trkpt lat="47.31751" lon="-2.33279">
        <ele>30</ele>
        <time>2021-09-19T07:48:42.000Z</time>
      </trkpt>
      <trkpt lat="47.31752" lon="-2.33286">
        <ele>29.60000038147</ele>
        <time>2021-09-19T07:48:43.000Z</time>
      </trkpt>
      <trkpt lat="47.31754" lon="-2.33292">
        <ele>28.799999237061</ele>
        <time>2021-09-19T07:48:44.000Z</time>
      </trkpt>
      <trkpt lat="47.31755" lon="-2.33298">
        <ele>28.39999961853</ele>
        <time>2021-09-19T07:48:45.000Z</time>
      </trkpt>
      <trkpt lat="47.3176" lon="-2.3331">
        <ele>28.39999961853</ele>
        <time>2021-09-19T07:48:47.000Z</time>
      </trkpt>
      <trkpt lat="47.31763" lon="-2.33315">
        <ele>28.39999961853</ele>
        <time>2021-09-19T07:48:48.000Z</time>
      </trkpt>
      <trkpt lat="47.31779" lon="-2.33321">
        <ele>28.39999961853</ele>
        <time>2021-09-19T07:48:51.000Z</time>
      </trkpt>
      <trkpt lat="47.31789" lon="-2.33314">
        <ele>28</ele>
        <time>2021-09-19T07:48:53.000Z</time>
      </trkpt>
      <trkpt lat="47.31795" lon="-2.3331">
        <ele>27.60000038147</ele>
        <time>2021-09-19T07:48:54.000Z</time>
      </trkpt>
      <trkpt lat="47.318" lon="-2.33306">
        <ele>27.200000762939</ele>
        <time>2021-09-19T07:48:55.000Z</time>
      </trkpt>
      <trkpt lat="47.31805" lon="-2.33301">
        <ele>26.799999237061</ele>
        <time>2021-09-19T07:48:56.000Z</time>
      </trkpt>
      <trkpt lat="47.3181" lon="-2.33296">
        <ele>26.39999961853</ele>
        <time>2021-09-19T07:48:57.000Z</time>
      </trkpt>
      <trkpt lat="47.31815" lon="-2.33292">
        <ele>25.799999237061</ele>
        <time>2021-09-19T07:48:58.000Z</time>
      </trkpt>
      <trkpt lat="47.31821" lon="-2.33288">
        <ele>25.200000762939</ele>
        <time>2021-09-19T07:48:59.000Z</time>
      </trkpt>
      <trkpt lat="47.31826" lon="-2.33283">
        <ele>24.799999237061</ele>
        <time>2021-09-19T07:49:00.000Z</time>
      </trkpt>
      <trkpt lat="47.31831" lon="-2.33278">
        <ele>24.200000762939</ele>
        <time>2021-09-19T07:49:01.000Z</time>
      </trkpt>
      <trkpt lat="47.31835" lon="-2.33271">
        <ele>23.799999237061</ele>
        <time>2021-09-19T07:49:02.000Z</time>
      </trkpt>
      <trkpt lat="47.31847" lon="-2.33249">
        <ele>23.39999961853</ele>
        <time>2021-09-19T07:49:05.000Z</time>
      </trkpt>
      <trkpt lat="47.31851" lon="-2.33241">
        <ele>23</ele>
        <time>2021-09-19T07:49:06.000Z</time>
      </trkpt>
      <trkpt lat="47.31854" lon="-2.33232">
        <ele>22.39999961853</ele>
        <time>2021-09-19T07:49:07.000Z</time>
      </trkpt>
      <trkpt lat="47.31856" lon="-2.33223">
        <ele>22</ele>
        <time>2021-09-19T07:49:08.000Z</time>
      </trkpt>
      <trkpt lat="47.31858" lon="-2.33213">
        <ele>21.60000038147</ele>
        <time>2021-09-19T07:49:09.000Z</time>
      </trkpt>
      <trkpt lat="47.31861" lon="-2.33192">
        <ele>21.60000038147</ele>
        <time>2021-09-19T07:49:11.000Z</time>
      </trkpt>
      <trkpt lat="47.31866" lon="-2.3315">
        <ele>21.60000038147</ele>
        <time>2021-09-19T07:49:15.000Z</time>
      </trkpt>
      <trkpt lat="47.31867" lon="-2.33138">
        <ele>21.200000762939</ele>
        <time>2021-09-19T07:49:16.000Z</time>
      </trkpt>
      <trkpt lat="47.31868" lon="-2.33126">
        <ele>20.799999237061</ele>
        <time>2021-09-19T07:49:17.000Z</time>
      </trkpt>
      <trkpt lat="47.3187" lon="-2.33116">
        <ele>20.200000762939</ele>
        <time>2021-09-19T07:49:18.000Z</time>
      </trkpt>
      <trkpt lat="47.3187" lon="-2.33105">
        <ele>19.799999237061</ele>
        <time>2021-09-19T07:49:19.000Z</time>
      </trkpt>
      <trkpt lat="47.31872" lon="-2.33095">
        <ele>19.39999961853</ele>
        <time>2021-09-19T07:49:20.000Z</time>
      </trkpt>
      <trkpt lat="47.31874" lon="-2.33084">
        <ele>19</ele>
        <time>2021-09-19T07:49:21.000Z</time>
      </trkpt>
      <trkpt lat="47.31877" lon="-2.33073">
        <ele>18.60000038147</ele>
        <time>2021-09-19T07:49:22.000Z</time>
      </trkpt>
      <trkpt lat="47.31878" lon="-2.33061">
        <ele>18.200000762939</ele>
        <time>2021-09-19T07:49:23.000Z</time>
      </trkpt>
      <trkpt lat="47.31879" lon="-2.33048">
        <ele>17.799999237061</ele>
        <time>2021-09-19T07:49:24.000Z</time>
      </trkpt>
      <trkpt lat="47.3188" lon="-2.33037">
        <ele>17.39999961853</ele>
        <time>2021-09-19T07:49:25.000Z</time>
      </trkpt>
      <trkpt lat="47.3188" lon="-2.33026">
        <ele>17.39999961853</ele>
        <time>2021-09-19T07:49:26.000Z</time>
      </trkpt>
      <trkpt lat="47.31881" lon="-2.32968">
        <ele>17.39999961853</ele>
        <time>2021-09-19T07:49:31.000Z</time>
      </trkpt>
      <trkpt lat="47.31884" lon="-2.32939">
        <ele>17.39999961853</ele>
        <time>2021-09-19T07:49:34.000Z</time>
      </trkpt>
      <trkpt lat="47.31885" lon="-2.32922">
        <ele>17.39999961853</ele>
        <time>2021-09-19T07:49:36.000Z</time>
      </trkpt>
      <trkpt lat="47.31886" lon="-2.32897">
        <ele>17.39999961853</ele>
        <time>2021-09-19T07:49:39.000Z</time>
      </trkpt>
      <trkpt lat="47.3189" lon="-2.32869">
        <ele>17.39999961853</ele>
        <time>2021-09-19T07:49:42.000Z</time>
      </trkpt>
      <trkpt lat="47.3189" lon="-2.32811">
        <ele>17.39999961853</ele>
        <time>2021-09-19T07:49:48.000Z</time>
      </trkpt>
      <trkpt lat="47.31887" lon="-2.32769">
        <ele>17.39999961853</ele>
        <time>2021-09-19T07:49:53.000Z</time>
      </trkpt>
      <trkpt lat="47.31885" lon="-2.3276">
        <ele>17.39999961853</ele>
        <time>2021-09-19T07:49:54.000Z</time>
      </trkpt>
      <trkpt lat="47.31871" lon="-2.32715">
        <ele>17.39999961853</ele>
        <time>2021-09-19T07:50:00.000Z</time>
      </trkpt>
      <trkpt lat="47.31863" lon="-2.32694">
        <ele>17.799999237061</ele>
        <time>2021-09-19T07:50:03.000Z</time>
      </trkpt>
      <trkpt lat="47.3186" lon="-2.32688">
        <ele>18.200000762939</ele>
        <time>2021-09-19T07:50:04.000Z</time>
      </trkpt>
      <trkpt lat="47.31857" lon="-2.32681">
        <ele>18.60000038147</ele>
        <time>2021-09-19T07:50:05.000Z</time>
      </trkpt>
      <trkpt lat="47.31854" lon="-2.32675">
        <ele>19</ele>
        <time>2021-09-19T07:50:06.000Z</time>
      </trkpt>
      <trkpt lat="47.3185" lon="-2.32668">
        <ele>19.39999961853</ele>
        <time>2021-09-19T07:50:07.000Z</time>
      </trkpt>
      <trkpt lat="47.31843" lon="-2.32646">
        <ele>19.39999961853</ele>
        <time>2021-09-19T07:50:10.000Z</time>
      </trkpt>
      <trkpt lat="47.3184" lon="-2.32633">
        <ele>19.39999961853</ele>
        <time>2021-09-19T07:50:12.000Z</time>
      </trkpt>
      <trkpt lat="47.31829" lon="-2.32587">
        <ele>19.799999237061</ele>
        <time>2021-09-19T07:50:18.000Z</time>
      </trkpt>
      <trkpt lat="47.31828" lon="-2.3258">
        <ele>20.200000762939</ele>
        <time>2021-09-19T07:50:19.000Z</time>
      </trkpt>
      <trkpt lat="47.31826" lon="-2.32573">
        <ele>20.60000038147</ele>
        <time>2021-09-19T07:50:20.000Z</time>
      </trkpt>
      <trkpt lat="47.31825" lon="-2.32567">
        <ele>21</ele>
        <time>2021-09-19T07:50:21.000Z</time>
      </trkpt>
      <trkpt lat="47.31823" lon="-2.3256">
        <ele>21.39999961853</ele>
        <time>2021-09-19T07:50:22.000Z</time>
      </trkpt>
      <trkpt lat="47.31818" lon="-2.32541">
        <ele>21.39999961853</ele>
        <time>2021-09-19T07:50:25.000Z</time>
      </trkpt>
      <trkpt lat="47.31813" lon="-2.32517">
        <ele>21.39999961853</ele>
        <time>2021-09-19T07:50:29.000Z</time>
      </trkpt>
      <trkpt lat="47.31812" lon="-2.32511">
        <ele>21.799999237061</ele>
        <time>2021-09-19T07:50:30.000Z</time>
      </trkpt>
      <trkpt lat="47.31811" lon="-2.32505">
        <ele>22.200000762939</ele>
        <time>2021-09-19T07:50:31.000Z</time>
      </trkpt>
      <trkpt lat="47.31809" lon="-2.32499">
        <ele>22.60000038147</ele>
        <time>2021-09-19T07:50:32.000Z</time>
      </trkpt>
      <trkpt lat="47.31807" lon="-2.32492">
        <ele>23</ele>
        <time>2021-09-19T07:50:33.000Z</time>
      </trkpt>
      <trkpt lat="47.31806" lon="-2.32486">
        <ele>23.39999961853</ele>
        <time>2021-09-19T07:50:34.000Z</time>
      </trkpt>
      <trkpt lat="47.31799" lon="-2.32465">
        <ele>23.39999961853</ele>
        <time>2021-09-19T07:50:38.000Z</time>
      </trkpt>
      <trkpt lat="47.31797" lon="-2.32461">
        <ele>24</ele>
        <time>2021-09-19T07:50:39.000Z</time>
      </trkpt>
      <trkpt lat="47.31795" lon="-2.32457">
        <ele>24.39999961853</ele>
        <time>2021-09-19T07:50:40.000Z</time>
      </trkpt>
      <trkpt lat="47.31794" lon="-2.32452">
        <ele>25</ele>
        <time>2021-09-19T07:50:41.000Z</time>
      </trkpt>
      <trkpt lat="47.31793" lon="-2.32447">
        <ele>25.39999961853</ele>
        <time>2021-09-19T07:50:42.000Z</time>
      </trkpt>
      <trkpt lat="47.31792" lon="-2.32442">
        <ele>26</ele>
        <time>2021-09-19T07:50:43.000Z</time>
      </trkpt>
      <trkpt lat="47.31784" lon="-2.32406">
        <ele>26.39999961853</ele>
        <time>2021-09-19T07:50:50.000Z</time>
      </trkpt>
      <trkpt lat="47.31784" lon="-2.32401">
        <ele>26.799999237061</ele>
        <time>2021-09-19T07:50:51.000Z</time>
      </trkpt>
      <trkpt lat="47.31783" lon="-2.32396">
        <ele>27.200000762939</ele>
        <time>2021-09-19T07:50:52.000Z</time>
      </trkpt>
      <trkpt lat="47.31782" lon="-2.32391">
        <ele>27.60000038147</ele>
        <time>2021-09-19T07:50:53.000Z</time>
      </trkpt>
      <trkpt lat="47.31781" lon="-2.32386">
        <ele>28</ele>
        <time>2021-09-19T07:50:54.000Z</time>
      </trkpt>
      <trkpt lat="47.31779" lon="-2.32375">
        <ele>28</ele>
        <time>2021-09-19T07:50:56.000Z</time>
      </trkpt>
      <trkpt lat="47.31772" lon="-2.32343">
        <ele>28</ele>
        <time>2021-09-19T07:51:02.000Z</time>
      </trkpt>
      <trkpt lat="47.31771" lon="-2.32337">
        <ele>28.39999961853</ele>
        <time>2021-09-19T07:51:03.000Z</time>
      </trkpt>
      <trkpt lat="47.3177" lon="-2.32332">
        <ele>28.799999237061</ele>
        <time>2021-09-19T07:51:04.000Z</time>
      </trkpt>
      <trkpt lat="47.31768" lon="-2.32327">
        <ele>29.200000762939</ele>
        <time>2021-09-19T07:51:05.000Z</time>
      </trkpt>
      <trkpt lat="47.31765" lon="-2.32311">
        <ele>30</ele>
        <time>2021-09-19T07:51:06.000Z</time>
      </trkpt>
      <trkpt lat="47.31763" lon="-2.323">
        <ele>30</ele>
        <time>2021-09-19T07:51:10.000Z</time>
      </trkpt>
      <trkpt lat="47.31755" lon="-2.32259">
        <ele>30</ele>
        <time>2021-09-19T07:51:18.000Z</time>
      </trkpt>
      <trkpt lat="47.31753" lon="-2.32239">
        <ele>30</ele>
        <time>2021-09-19T07:51:23.000Z</time>
      </trkpt>
      <trkpt lat="47.31765" lon="-2.32232">
        <ele>30</ele>
        <time>2021-09-19T07:51:27.000Z</time>
      </trkpt>
      <trkpt lat="47.31795" lon="-2.32225">
        <ele>30</ele>
        <time>2021-09-19T07:51:34.000Z</time>
      </trkpt>
      <trkpt lat="47.31829" lon="-2.3222">
        <ele>30</ele>
        <time>2021-09-19T07:51:41.000Z</time>
      </trkpt>
      <trkpt lat="47.31861" lon="-2.3221">
        <ele>30</ele>
        <time>2021-09-19T07:51:46.000Z</time>
      </trkpt>
      <trkpt lat="47.31876" lon="-2.32205">
        <ele>29.60000038147</ele>
        <time>2021-09-19T07:51:48.000Z</time>
      </trkpt>
      <trkpt lat="47.31883" lon="-2.32204">
        <ele>29</ele>
        <time>2021-09-19T07:51:49.000Z</time>
      </trkpt>
      <trkpt lat="47.31891" lon="-2.32202">
        <ele>28.60000038147</ele>
        <time>2021-09-19T07:51:50.000Z</time>
      </trkpt>
      <trkpt lat="47.31898" lon="-2.32201">
        <ele>28.200000762939</ele>
        <time>2021-09-19T07:51:51.000Z</time>
      </trkpt>
      <trkpt lat="47.31906" lon="-2.322">
        <ele>27.60000038147</ele>
        <time>2021-09-19T07:51:52.000Z</time>
      </trkpt>
      <trkpt lat="47.31912" lon="-2.32199">
        <ele>27.60000038147</ele>
        <time>2021-09-19T07:51:53.000Z</time>
      </trkpt>
      <trkpt lat="47.31919" lon="-2.322">
        <ele>27.200000762939</ele>
        <time>2021-09-19T07:51:54.000Z</time>
      </trkpt>
      <trkpt lat="47.31925" lon="-2.32202">
        <ele>26.799999237061</ele>
        <time>2021-09-19T07:51:55.000Z</time>
      </trkpt>
      <trkpt lat="47.3193" lon="-2.32204">
        <ele>26.39999961853</ele>
        <time>2021-09-19T07:51:56.000Z</time>
      </trkpt>
      <trkpt lat="47.31934" lon="-2.32206">
        <ele>25.60000038147</ele>
        <time>2021-09-19T07:51:57.000Z</time>
      </trkpt>
      <trkpt lat="47.31938" lon="-2.32207">
        <ele>25</ele>
        <time>2021-09-19T07:51:58.000Z</time>
      </trkpt>
      <trkpt lat="47.31943" lon="-2.32209">
        <ele>24.200000762939</ele>
        <time>2021-09-19T07:51:59.000Z</time>
      </trkpt>
      <trkpt lat="47.31947" lon="-2.32211">
        <ele>23.60000038147</ele>
        <time>2021-09-19T07:52:00.000Z</time>
      </trkpt>
      <trkpt lat="47.31951" lon="-2.32213">
        <ele>23</ele>
        <time>2021-09-19T07:52:01.000Z</time>
      </trkpt>
      <trkpt lat="47.31954" lon="-2.32218">
        <ele>22</ele>
        <time>2021-09-19T07:52:02.000Z</time>
      </trkpt>
      <trkpt lat="47.31957" lon="-2.32222">
        <ele>21.60000038147</ele>
        <time>2021-09-19T07:52:03.000Z</time>
      </trkpt>
      <trkpt lat="47.31958" lon="-2.32227">
        <ele>21.200000762939</ele>
        <time>2021-09-19T07:52:04.000Z</time>
      </trkpt>
      <trkpt lat="47.31957" lon="-2.32232">
        <ele>20.60000038147</ele>
        <time>2021-09-19T07:52:05.000Z</time>
      </trkpt>
      <trkpt lat="47.31955" lon="-2.32237">
        <ele>20.60000038147</ele>
        <time>2021-09-19T07:52:06.000Z</time>
      </trkpt>
      <trkpt lat="47.31953" lon="-2.32262">
        <ele>20.60000038147</ele>
        <time>2021-09-19T07:52:11.000Z</time>
      </trkpt>
      <trkpt lat="47.31957" lon="-2.32262">
        <ele>20.200000762939</ele>
        <time>2021-09-19T07:52:12.000Z</time>
      </trkpt>
      <trkpt lat="47.31961" lon="-2.32258">
        <ele>19.799999237061</ele>
        <time>2021-09-19T07:52:13.000Z</time>
      </trkpt>
      <trkpt lat="47.31964" lon="-2.32252">
        <ele>19.39999961853</ele>
        <time>2021-09-19T07:52:14.000Z</time>
      </trkpt>
      <trkpt lat="47.31968" lon="-2.32246">
        <ele>19</ele>
        <time>2021-09-19T07:52:15.000Z</time>
      </trkpt>
      <trkpt lat="47.31971" lon="-2.32239">
        <ele>18.60000038147</ele>
        <time>2021-09-19T07:52:16.000Z</time>
      </trkpt>
      <trkpt lat="47.31976" lon="-2.32233">
        <ele>18</ele>
        <time>2021-09-19T07:52:17.000Z</time>
      </trkpt>
      <trkpt lat="47.31981" lon="-2.32226">
        <ele>17.60000038147</ele>
        <time>2021-09-19T07:52:18.000Z</time>
      </trkpt>
      <trkpt lat="47.31987" lon="-2.32219">
        <ele>17.200000762939</ele>
        <time>2021-09-19T07:52:19.000Z</time>
      </trkpt>
      <trkpt lat="47.31993" lon="-2.32212">
        <ele>16.799999237061</ele>
        <time>2021-09-19T07:52:20.000Z</time>
      </trkpt>
      <trkpt lat="47.31999" lon="-2.32206">
        <ele>16.39999961853</ele>
        <time>2021-09-19T07:52:21.000Z</time>
      </trkpt>
      <trkpt lat="47.32025" lon="-2.32182">
        <ele>16</ele>
        <time>2021-09-19T07:52:25.000Z</time>
      </trkpt>
      <trkpt lat="47.32033" lon="-2.3218">
        <ele>15.60000038147</ele>
        <time>2021-09-19T07:52:26.000Z</time>
      </trkpt>
      <trkpt lat="47.3204" lon="-2.3218">
        <ele>14.800000190735</ele>
        <time>2021-09-19T07:52:27.000Z</time>
      </trkpt>
      <trkpt lat="47.32048" lon="-2.32179">
        <ele>14.199999809265</ele>
        <time>2021-09-19T07:52:28.000Z</time>
      </trkpt>
      <trkpt lat="47.32103" lon="-2.32176">
        <ele>14.199999809265</ele>
        <time>2021-09-19T07:52:35.000Z</time>
      </trkpt>
      <trkpt lat="47.32111" lon="-2.32174">
        <ele>14.199999809265</ele>
        <time>2021-09-19T07:52:36.000Z</time>
      </trkpt>
      <trkpt lat="47.32127" lon="-2.3217">
        <ele>13.800000190735</ele>
        <time>2021-09-19T07:52:38.000Z</time>
      </trkpt>
      <trkpt lat="47.32134" lon="-2.32167">
        <ele>13.39999961853</ele>
        <time>2021-09-19T07:52:39.000Z</time>
      </trkpt>
      <trkpt lat="47.32141" lon="-2.32162">
        <ele>13</ele>
        <time>2021-09-19T07:52:40.000Z</time>
      </trkpt>
      <trkpt lat="47.32148" lon="-2.32157">
        <ele>12.60000038147</ele>
        <time>2021-09-19T07:52:41.000Z</time>
      </trkpt>
      <trkpt lat="47.32155" lon="-2.32151">
        <ele>12.199999809265</ele>
        <time>2021-09-19T07:52:42.000Z</time>
      </trkpt>
      <trkpt lat="47.32161" lon="-2.32146">
        <ele>12.199999809265</ele>
        <time>2021-09-19T07:52:43.000Z</time>
      </trkpt>
      <trkpt lat="47.3219" lon="-2.3212">
        <ele>12.199999809265</ele>
        <time>2021-09-19T07:52:49.000Z</time>
      </trkpt>
      <trkpt lat="47.32203" lon="-2.32111">
        <ele>12.199999809265</ele>
        <time>2021-09-19T07:52:53.000Z</time>
      </trkpt>
      <trkpt lat="47.32219" lon="-2.3211">
        <ele>12.199999809265</ele>
        <time>2021-09-19T07:52:57.000Z</time>
      </trkpt>
      <trkpt lat="47.32224" lon="-2.32108">
        <ele>12.199999809265</ele>
        <time>2021-09-19T07:52:58.000Z</time>
      </trkpt>
      <trkpt lat="47.32245" lon="-2.32104">
        <ele>12.199999809265</ele>
        <time>2021-09-19T07:53:02.000Z</time>
      </trkpt>
      <trkpt lat="47.32251" lon="-2.32103">
        <ele>12.199999809265</ele>
        <time>2021-09-19T07:53:03.000Z</time>
      </trkpt>
      <trkpt lat="47.32294" lon="-2.32097">
        <ele>12.199999809265</ele>
        <time>2021-09-19T07:53:10.000Z</time>
      </trkpt>
      <trkpt lat="47.32327" lon="-2.321">
        <ele>12.199999809265</ele>
        <time>2021-09-19T07:53:16.000Z</time>
      </trkpt>
      <trkpt lat="47.32343" lon="-2.32102">
        <ele>12.199999809265</ele>
        <time>2021-09-19T07:53:19.000Z</time>
      </trkpt>
      <trkpt lat="47.32348" lon="-2.32102">
        <ele>12.199999809265</ele>
        <time>2021-09-19T07:53:21.000Z</time>
      </trkpt>
      <trkpt lat="47.32366" lon="-2.32105">
        <ele>12.199999809265</ele>
        <time>2021-09-19T07:53:26.000Z</time>
      </trkpt>
      <trkpt lat="47.32392" lon="-2.32103">
        <ele>12.199999809265</ele>
        <time>2021-09-19T07:53:31.000Z</time>
      </trkpt>
      <trkpt lat="47.32435" lon="-2.321">
        <ele>12.199999809265</ele>
        <time>2021-09-19T07:53:38.000Z</time>
      </trkpt>
      <trkpt lat="47.32478" lon="-2.32099">
        <ele>12.199999809265</ele>
        <time>2021-09-19T07:53:45.000Z</time>
      </trkpt>
      <trkpt lat="47.32493" lon="-2.32098">
        <ele>12.199999809265</ele>
        <time>2021-09-19T07:53:48.000Z</time>
      </trkpt>
      <trkpt lat="47.325" lon="-2.32088">
        <ele>12.199999809265</ele>
        <time>2021-09-19T07:53:50.000Z</time>
      </trkpt>
      <trkpt lat="47.32503" lon="-2.32067">
        <ele>12.199999809265</ele>
        <time>2021-09-19T07:53:53.000Z</time>
      </trkpt>
      <trkpt lat="47.32503" lon="-2.32045">
        <ele>12.199999809265</ele>
        <time>2021-09-19T07:53:56.000Z</time>
      </trkpt>
      <trkpt lat="47.32503" lon="-2.32029">
        <ele>12.199999809265</ele>
        <time>2021-09-19T07:53:58.000Z</time>
      </trkpt>
      <trkpt lat="47.32503" lon="-2.32013">
        <ele>12.199999809265</ele>
        <time>2021-09-19T07:54:00.000Z</time>
      </trkpt>
      <trkpt lat="47.32504" lon="-2.3198">
        <ele>12.199999809265</ele>
        <time>2021-09-19T07:54:04.000Z</time>
      </trkpt>
      <trkpt lat="47.32512" lon="-2.3192">
        <ele>12.199999809265</ele>
        <time>2021-09-19T07:54:11.000Z</time>
      </trkpt>
      <trkpt lat="47.32518" lon="-2.3187">
        <ele>12.199999809265</ele>
        <time>2021-09-19T07:54:17.000Z</time>
      </trkpt>
      <trkpt lat="47.32519" lon="-2.31844">
        <ele>12.199999809265</ele>
        <time>2021-09-19T07:54:20.000Z</time>
      </trkpt>
      <trkpt lat="47.32518" lon="-2.3182">
        <ele>12.199999809265</ele>
        <time>2021-09-19T07:54:23.000Z</time>
      </trkpt>
      <trkpt lat="47.32516" lon="-2.31788">
        <ele>12.60000038147</ele>
        <time>2021-09-19T07:54:27.000Z</time>
      </trkpt>
      <trkpt lat="47.32515" lon="-2.31779">
        <ele>13</ele>
        <time>2021-09-19T07:54:28.000Z</time>
      </trkpt>
      <trkpt lat="47.32515" lon="-2.31771">
        <ele>13.39999961853</ele>
        <time>2021-09-19T07:54:29.000Z</time>
      </trkpt>
      <trkpt lat="47.32514" lon="-2.31763">
        <ele>14.199999809265</ele>
        <time>2021-09-19T07:54:30.000Z</time>
      </trkpt>
      <trkpt lat="47.32513" lon="-2.31748">
        <ele>14.199999809265</ele>
        <time>2021-09-19T07:54:32.000Z</time>
      </trkpt>
      <trkpt lat="47.3251" lon="-2.31716">
        <ele>14.199999809265</ele>
        <time>2021-09-19T07:54:36.000Z</time>
      </trkpt>
      <trkpt lat="47.32509" lon="-2.31699">
        <ele>14.199999809265</ele>
        <time>2021-09-19T07:54:38.000Z</time>
      </trkpt>
      <trkpt lat="47.32509" lon="-2.31656">
        <ele>14.199999809265</ele>
        <time>2021-09-19T07:54:43.000Z</time>
      </trkpt>
      <trkpt lat="47.32511" lon="-2.31648">
        <ele>14.199999809265</ele>
        <time>2021-09-19T07:54:44.000Z</time>
      </trkpt>
      <trkpt lat="47.32521" lon="-2.3163">
        <ele>14.199999809265</ele>
        <time>2021-09-19T07:54:47.000Z</time>
      </trkpt>
      <trkpt lat="47.32526" lon="-2.31624">
        <ele>14.199999809265</ele>
        <time>2021-09-19T07:54:48.000Z</time>
      </trkpt>
      <trkpt lat="47.32555" lon="-2.31586">
        <ele>14.199999809265</ele>
        <time>2021-09-19T07:54:54.000Z</time>
      </trkpt>
      <trkpt lat="47.32565" lon="-2.3158">
        <ele>14.199999809265</ele>
        <time>2021-09-19T07:54:56.000Z</time>
      </trkpt>
      <trkpt lat="47.32576" lon="-2.31575">
        <ele>14.199999809265</ele>
        <time>2021-09-19T07:54:58.000Z</time>
      </trkpt>
      <trkpt lat="47.32591" lon="-2.31567">
        <ele>14.199999809265</ele>
        <time>2021-09-19T07:55:01.000Z</time>
      </trkpt>
      <trkpt lat="47.326" lon="-2.31563">
        <ele>14.199999809265</ele>
        <time>2021-09-19T07:55:03.000Z</time>
      </trkpt>
      <trkpt lat="47.3263" lon="-2.31551">
        <ele>14.199999809265</ele>
        <time>2021-09-19T07:55:09.000Z</time>
      </trkpt>
      <trkpt lat="47.32634" lon="-2.31549">
        <ele>13.800000190735</ele>
        <time>2021-09-19T07:55:10.000Z</time>
      </trkpt>
      <trkpt lat="47.32639" lon="-2.31548">
        <ele>13.39999961853</ele>
        <time>2021-09-19T07:55:11.000Z</time>
      </trkpt>
      <trkpt lat="47.32645" lon="-2.31546">
        <ele>13</ele>
        <time>2021-09-19T07:55:12.000Z</time>
      </trkpt>
      <trkpt lat="47.3265" lon="-2.31544">
        <ele>12.60000038147</ele>
        <time>2021-09-19T07:55:13.000Z</time>
      </trkpt>
      <trkpt lat="47.32655" lon="-2.31543">
        <ele>12.199999809265</ele>
        <time>2021-09-19T07:55:14.000Z</time>
      </trkpt>
      <trkpt lat="47.3266" lon="-2.31539">
        <ele>12.199999809265</ele>
        <time>2021-09-19T07:55:15.000Z</time>
      </trkpt>
      <trkpt lat="47.32675" lon="-2.31527">
        <ele>12.199999809265</ele>
        <time>2021-09-19T07:55:19.000Z</time>
      </trkpt>
      <trkpt lat="47.32703" lon="-2.31507">
        <ele>12.199999809265</ele>
        <time>2021-09-19T07:55:25.000Z</time>
      </trkpt>
      <trkpt lat="47.32713" lon="-2.31499">
        <ele>12.199999809265</ele>
        <time>2021-09-19T07:55:27.000Z</time>
      </trkpt>
      <trkpt lat="47.32727" lon="-2.31484">
        <ele>12.199999809265</ele>
        <time>2021-09-19T07:55:30.000Z</time>
      </trkpt>
      <trkpt lat="47.32731" lon="-2.31479">
        <ele>12.199999809265</ele>
        <time>2021-09-19T07:55:31.000Z</time>
      </trkpt>
      <trkpt lat="47.32745" lon="-2.31457">
        <ele>11.800000190735</ele>
        <time>2021-09-19T07:55:35.000Z</time>
      </trkpt>
      <trkpt lat="47.32749" lon="-2.31451">
        <ele>11.39999961853</ele>
        <time>2021-09-19T07:55:36.000Z</time>
      </trkpt>
      <trkpt lat="47.32752" lon="-2.31445">
        <ele>11</ele>
        <time>2021-09-19T07:55:37.000Z</time>
      </trkpt>
      <trkpt lat="47.32756" lon="-2.31439">
        <ele>10.60000038147</ele>
        <time>2021-09-19T07:55:38.000Z</time>
      </trkpt>
      <trkpt lat="47.32759" lon="-2.31433">
        <ele>10.199999809265</ele>
        <time>2021-09-19T07:55:39.000Z</time>
      </trkpt>
      <trkpt lat="47.32767" lon="-2.31422">
        <ele>10.199999809265</ele>
        <time>2021-09-19T07:55:41.000Z</time>
      </trkpt>
      <trkpt lat="47.32783" lon="-2.31406">
        <ele>10.199999809265</ele>
        <time>2021-09-19T07:55:44.000Z</time>
      </trkpt>
      <trkpt lat="47.32826" lon="-2.31374">
        <ele>10.199999809265</ele>
        <time>2021-09-19T07:55:51.000Z</time>
      </trkpt>
      <trkpt lat="47.32841" lon="-2.3136">
        <ele>10.199999809265</ele>
        <time>2021-09-19T07:55:54.000Z</time>
      </trkpt>
      <trkpt lat="47.32845" lon="-2.31347">
        <ele>10.199999809265</ele>
        <time>2021-09-19T07:55:56.000Z</time>
      </trkpt>
      <trkpt lat="47.32847" lon="-2.3132">
        <ele>10.199999809265</ele>
        <time>2021-09-19T07:56:00.000Z</time>
      </trkpt>
      <trkpt lat="47.32859" lon="-2.31309">
        <ele>10.199999809265</ele>
        <time>2021-09-19T07:56:03.000Z</time>
      </trkpt>
      <trkpt lat="47.32875" lon="-2.31301">
        <ele>10.199999809265</ele>
        <time>2021-09-19T07:56:06.000Z</time>
      </trkpt>
      <trkpt lat="47.32881" lon="-2.31298">
        <ele>9.8000001907349</ele>
        <time>2021-09-19T07:56:07.000Z</time>
      </trkpt>
      <trkpt lat="47.32887" lon="-2.31296">
        <ele>9</ele>
        <time>2021-09-19T07:56:08.000Z</time>
      </trkpt>
      <trkpt lat="47.32892" lon="-2.31293">
        <ele>8.6000003814697</ele>
        <time>2021-09-19T07:56:09.000Z</time>
      </trkpt>
      <trkpt lat="47.32898" lon="-2.31291">
        <ele>8.1999998092651</ele>
        <time>2021-09-19T07:56:10.000Z</time>
      </trkpt>
      <trkpt lat="47.32925" lon="-2.31278">
        <ele>8.1999998092651</ele>
        <time>2021-09-19T07:56:15.000Z</time>
      </trkpt>
      <trkpt lat="47.3293" lon="-2.31273">
        <ele>8.1999998092651</ele>
        <time>2021-09-19T07:56:16.000Z</time>
      </trkpt>
      <trkpt lat="47.32937" lon="-2.31255">
        <ele>8.1999998092651</ele>
        <time>2021-09-19T07:56:19.000Z</time>
      </trkpt>
      <trkpt lat="47.32933" lon="-2.31232">
        <ele>8.1999998092651</ele>
        <time>2021-09-19T07:56:22.000Z</time>
      </trkpt>
      <trkpt lat="47.32931" lon="-2.31224">
        <ele>8.1999998092651</ele>
        <time>2021-09-19T07:56:23.000Z</time>
      </trkpt>
      <trkpt lat="47.32918" lon="-2.31174">
        <ele>8.1999998092651</ele>
        <time>2021-09-19T07:56:29.000Z</time>
      </trkpt>
      <trkpt lat="47.32904" lon="-2.31118">
        <ele>8.1999998092651</ele>
        <time>2021-09-19T07:56:36.000Z</time>
      </trkpt>
      <trkpt lat="47.32896" lon="-2.31068">
        <ele>8.1999998092651</ele>
        <time>2021-09-19T07:56:42.000Z</time>
      </trkpt>
      <trkpt lat="47.32895" lon="-2.31026">
        <ele>8.1999998092651</ele>
        <time>2021-09-19T07:56:47.000Z</time>
      </trkpt>
      <trkpt lat="47.32895" lon="-2.31011">
        <ele>8.1999998092651</ele>
        <time>2021-09-19T07:56:49.000Z</time>
      </trkpt>
      <trkpt lat="47.32897" lon="-2.30969">
        <ele>8.1999998092651</ele>
        <time>2021-09-19T07:56:54.000Z</time>
      </trkpt>
      <trkpt lat="47.32898" lon="-2.30961">
        <ele>8.1999998092651</ele>
        <time>2021-09-19T07:56:55.000Z</time>
      </trkpt>
      <trkpt lat="47.32905" lon="-2.30895">
        <ele>8.1999998092651</ele>
        <time>2021-09-19T07:57:03.000Z</time>
      </trkpt>
      <trkpt lat="47.32908" lon="-2.30846">
        <ele>8.1999998092651</ele>
        <time>2021-09-19T07:57:09.000Z</time>
      </trkpt>
      <trkpt lat="47.32912" lon="-2.30818">
        <ele>8.1999998092651</ele>
        <time>2021-09-19T07:57:14.000Z</time>
      </trkpt>
      <trkpt lat="47.32914" lon="-2.30814">
        <ele>8.1999998092651</ele>
        <time>2021-09-19T07:57:18.000Z</time>
      </trkpt>
      <trkpt lat="47.32917" lon="-2.30812">
        <ele>8.1999998092651</ele>
        <time>2021-09-19T07:58:16.000Z</time>
      </trkpt>
      <trkpt lat="47.32923" lon="-2.3081">
        <ele>8.1999998092651</ele>
        <time>2021-09-19T07:58:19.000Z</time>
      </trkpt>
      <trkpt lat="47.3294" lon="-2.30808">
        <ele>8.1999998092651</ele>
        <time>2021-09-19T07:58:24.000Z</time>
      </trkpt>
      <trkpt lat="47.32968" lon="-2.30806">
        <ele>8.1999998092651</ele>
        <time>2021-09-19T07:58:30.000Z</time>
      </trkpt>
      <trkpt lat="47.33007" lon="-2.30806">
        <ele>8.1999998092651</ele>
        <time>2021-09-19T07:58:38.000Z</time>
      </trkpt>
      <trkpt lat="47.33042" lon="-2.30806">
        <ele>8.1999998092651</ele>
        <time>2021-09-19T07:58:45.000Z</time>
      </trkpt>
      <trkpt lat="47.33054" lon="-2.3079">
        <ele>7.5999999046326</ele>
        <time>2021-09-19T07:58:48.000Z</time>
      </trkpt>
      <trkpt lat="47.33057" lon="-2.30783">
        <ele>7.1999998092651</ele>
        <time>2021-09-19T07:58:49.000Z</time>
      </trkpt>
      <trkpt lat="47.33059" lon="-2.30775">
        <ele>6.8000001907349</ele>
        <time>2021-09-19T07:58:50.000Z</time>
      </trkpt>
      <trkpt lat="47.3306" lon="-2.30766">
        <ele>6.4000000953674</ele>
        <time>2021-09-19T07:58:51.000Z</time>
      </trkpt>
      <trkpt lat="47.33062" lon="-2.30758">
        <ele>6</ele>
        <time>2021-09-19T07:58:52.000Z</time>
      </trkpt>
      <trkpt lat="47.33064" lon="-2.30749">
        <ele>6</ele>
        <time>2021-09-19T07:58:53.000Z</time>
      </trkpt>
      <trkpt lat="47.3307" lon="-2.3071">
        <ele>6</ele>
        <time>2021-09-19T07:58:57.000Z</time>
      </trkpt>
      <trkpt lat="47.33074" lon="-2.30701">
        <ele>6</ele>
        <time>2021-09-19T07:58:58.000Z</time>
      </trkpt>
      <trkpt lat="47.33079" lon="-2.30665">
        <ele>6</ele>
        <time>2021-09-19T07:59:02.000Z</time>
      </trkpt>
      <trkpt lat="47.33087" lon="-2.30604">
        <ele>6</ele>
        <time>2021-09-19T07:59:09.000Z</time>
      </trkpt>
      <trkpt lat="47.33092" lon="-2.30581">
        <ele>6</ele>
        <time>2021-09-19T07:59:12.000Z</time>
      </trkpt>
      <trkpt lat="47.33099" lon="-2.3057">
        <ele>6</ele>
        <time>2021-09-19T07:59:14.000Z</time>
      </trkpt>
      <trkpt lat="47.33113" lon="-2.30561">
        <ele>6</ele>
        <time>2021-09-19T07:59:17.000Z</time>
      </trkpt>
      <trkpt lat="47.33141" lon="-2.30549">
        <ele>6</ele>
        <time>2021-09-19T07:59:22.000Z</time>
      </trkpt>
      <trkpt lat="47.33191" lon="-2.30533">
        <ele>6</ele>
        <time>2021-09-19T07:59:30.000Z</time>
      </trkpt>
      <trkpt lat="47.33238" lon="-2.30518">
        <ele>6</ele>
        <time>2021-09-19T07:59:38.000Z</time>
      </trkpt>
      <trkpt lat="47.33275" lon="-2.3051">
        <ele>6</ele>
        <time>2021-09-19T07:59:44.000Z</time>
      </trkpt>
      <trkpt lat="47.33293" lon="-2.30505">
        <ele>6</ele>
        <time>2021-09-19T07:59:47.000Z</time>
      </trkpt>
      <trkpt lat="47.33309" lon="-2.30504">
        <ele>6</ele>
        <time>2021-09-19T07:59:50.000Z</time>
      </trkpt>
      <trkpt lat="47.33325" lon="-2.30503">
        <ele>5.4000000953674</ele>
        <time>2021-09-19T07:59:55.000Z</time>
      </trkpt>
      <trkpt lat="47.33327" lon="-2.30503">
        <ele>5</ele>
        <time>2021-09-19T07:59:56.000Z</time>
      </trkpt>
      <trkpt lat="47.33329" lon="-2.30502">
        <ele>4.5999999046326</ele>
        <time>2021-09-19T07:59:57.000Z</time>
      </trkpt>
      <trkpt lat="47.33332" lon="-2.30501">
        <ele>4.1999998092651</ele>
        <time>2021-09-19T07:59:58.000Z</time>
      </trkpt>
      <trkpt lat="47.33334" lon="-2.305">
        <ele>3.7999999523163</ele>
        <time>2021-09-19T07:59:59.000Z</time>
      </trkpt>
      <trkpt lat="47.33336" lon="-2.305">
        <ele>3.7999999523163</ele>
        <time>2021-09-19T08:00:00.000Z</time>
      </trkpt>
      <trkpt lat="47.33348" lon="-2.30504">
        <ele>3.7999999523163</ele>
        <time>2021-09-19T08:00:05.000Z</time>
      </trkpt>
      <trkpt lat="47.33353" lon="-2.30517">
        <ele>3.7999999523163</ele>
        <time>2021-09-19T08:00:09.000Z</time>
      </trkpt>
      <trkpt lat="47.33358" lon="-2.30531">
        <ele>3.7999999523163</ele>
        <time>2021-09-19T08:00:13.000Z</time>
      </trkpt>
      <trkpt lat="47.33363" lon="-2.30546">
        <ele>3.7999999523163</ele>
        <time>2021-09-19T08:00:19.000Z</time>
      </trkpt>
      <trkpt lat="47.33375" lon="-2.30548">
        <ele>3.7999999523163</ele>
        <time>2021-09-19T08:00:23.000Z</time>
      </trkpt>
      <trkpt lat="47.33382" lon="-2.30531">
        <ele>3.7999999523163</ele>
        <time>2021-09-19T08:00:26.000Z</time>
      </trkpt>
      <trkpt lat="47.33385" lon="-2.30526">
        <ele>3.7999999523163</ele>
        <time>2021-09-19T08:00:27.000Z</time>
      </trkpt>
      <trkpt lat="47.33391" lon="-2.30515">
        <ele>3.7999999523163</ele>
        <time>2021-09-19T08:00:29.000Z</time>
      </trkpt>
      <trkpt lat="47.33398" lon="-2.30507">
        <ele>3.7999999523163</ele>
        <time>2021-09-19T08:00:31.000Z</time>
      </trkpt>
      <trkpt lat="47.33403" lon="-2.30504">
        <ele>3.7999999523163</ele>
        <time>2021-09-19T08:00:32.000Z</time>
      </trkpt>
      <trkpt lat="47.33418" lon="-2.305">
        <ele>3.7999999523163</ele>
        <time>2021-09-19T08:00:35.000Z</time>
      </trkpt>
      <trkpt lat="47.33423" lon="-2.30499">
        <ele>3.7999999523163</ele>
        <time>2021-09-19T08:00:36.000Z</time>
      </trkpt>
      <trkpt lat="47.33434" lon="-2.30499">
        <ele>3.7999999523163</ele>
        <time>2021-09-19T08:00:38.000Z</time>
      </trkpt>
      <trkpt lat="47.33445" lon="-2.30501">
        <ele>3.7999999523163</ele>
        <time>2021-09-19T08:00:40.000Z</time>
      </trkpt>
      <trkpt lat="47.33477" lon="-2.30503">
        <ele>3.7999999523163</ele>
        <time>2021-09-19T08:00:46.000Z</time>
      </trkpt>
      <trkpt lat="47.33483" lon="-2.30502">
        <ele>3.7999999523163</ele>
        <time>2021-09-19T08:00:47.000Z</time>
      </trkpt>
      <trkpt lat="47.33504" lon="-2.30498">
        <ele>3.7999999523163</ele>
        <time>2021-09-19T08:00:51.000Z</time>
      </trkpt>
      <trkpt lat="47.33509" lon="-2.30495">
        <ele>3.7999999523163</ele>
        <time>2021-09-19T08:00:52.000Z</time>
      </trkpt>
      <trkpt lat="47.33522" lon="-2.30486">
        <ele>3.7999999523163</ele>
        <time>2021-09-19T08:00:55.000Z</time>
      </trkpt>
      <trkpt lat="47.33531" lon="-2.30481">
        <ele>3.7999999523163</ele>
        <time>2021-09-19T08:00:57.000Z</time>
      </trkpt>
      <trkpt lat="47.33545" lon="-2.30471">
        <ele>3.7999999523163</ele>
        <time>2021-09-19T08:01:00.000Z</time>
      </trkpt>
      <trkpt lat="47.33559" lon="-2.30461">
        <ele>3.7999999523163</ele>
        <time>2021-09-19T08:01:03.000Z</time>
      </trkpt>
      <trkpt lat="47.33573" lon="-2.30451">
        <ele>3.7999999523163</ele>
        <time>2021-09-19T08:01:06.000Z</time>
      </trkpt>
      <trkpt lat="47.33581" lon="-2.30444">
        <ele>3.7999999523163</ele>
        <time>2021-09-19T08:01:08.000Z</time>
      </trkpt>
      <trkpt lat="47.3359" lon="-2.30438">
        <ele>3.7999999523163</ele>
        <time>2021-09-19T08:01:10.000Z</time>
      </trkpt>
      <trkpt lat="47.336" lon="-2.30433">
        <ele>3.7999999523163</ele>
        <time>2021-09-19T08:01:12.000Z</time>
      </trkpt>
      <trkpt lat="47.33612" lon="-2.30425">
        <ele>3.7999999523163</ele>
        <time>2021-09-19T08:01:15.000Z</time>
      </trkpt>
      <trkpt lat="47.33621" lon="-2.30421">
        <ele>3.7999999523163</ele>
        <time>2021-09-19T08:01:17.000Z</time>
      </trkpt>
      <trkpt lat="47.33634" lon="-2.30413">
        <ele>3.7999999523163</ele>
        <time>2021-09-19T08:01:20.000Z</time>
      </trkpt>
      <trkpt lat="47.33653" lon="-2.30406">
        <ele>3.7999999523163</ele>
        <time>2021-09-19T08:01:24.000Z</time>
      </trkpt>
      <trkpt lat="47.33667" lon="-2.30401">
        <ele>3.7999999523163</ele>
        <time>2021-09-19T08:01:27.000Z</time>
      </trkpt>
      <trkpt lat="47.33682" lon="-2.30394">
        <ele>3.7999999523163</ele>
        <time>2021-09-19T08:01:30.000Z</time>
      </trkpt>
      <trkpt lat="47.33721" lon="-2.30377">
        <ele>3.7999999523163</ele>
        <time>2021-09-19T08:01:38.000Z</time>
      </trkpt>
      <trkpt lat="47.33741" lon="-2.30368">
        <ele>3.7999999523163</ele>
        <time>2021-09-19T08:01:42.000Z</time>
      </trkpt>
      <trkpt lat="47.3375" lon="-2.30364">
        <ele>3.7999999523163</ele>
        <time>2021-09-19T08:01:44.000Z</time>
      </trkpt>
      <trkpt lat="47.33778" lon="-2.30353">
        <ele>3.7999999523163</ele>
        <time>2021-09-19T08:01:50.000Z</time>
      </trkpt>
      <trkpt lat="47.33787" lon="-2.3035">
        <ele>3.7999999523163</ele>
        <time>2021-09-19T08:01:52.000Z</time>
      </trkpt>
      <trkpt lat="47.33807" lon="-2.30341">
        <ele>3.7999999523163</ele>
        <time>2021-09-19T08:01:56.000Z</time>
      </trkpt>
      <trkpt lat="47.33816" lon="-2.30334">
        <ele>3.7999999523163</ele>
        <time>2021-09-19T08:01:58.000Z</time>
      </trkpt>
      <trkpt lat="47.33849" lon="-2.30309">
        <ele>3.7999999523163</ele>
        <time>2021-09-19T08:02:06.000Z</time>
      </trkpt>
      <trkpt lat="47.33864" lon="-2.30304">
        <ele>3.7999999523163</ele>
        <time>2021-09-19T08:02:11.000Z</time>
      </trkpt>
      <trkpt lat="47.3387" lon="-2.30301">
        <ele>3.7999999523163</ele>
        <time>2021-09-19T08:02:16.000Z</time>
      </trkpt>
      <trkpt lat="47.33874" lon="-2.30302">
        <ele>3.7999999523163</ele>
        <time>2021-09-19T08:03:53.000Z</time>
      </trkpt>
      <trkpt lat="47.33871" lon="-2.303">
        <ele>3.7999999523163</ele>
        <time>2021-09-19T08:03:56.000Z</time>
      </trkpt>
      <trkpt lat="47.3387" lon="-2.303">
        <ele>3.7999999523163</ele>
        <time>2021-09-19T08:03:58.000Z</time>
      </trkpt>
      <trkpt lat="47.33867" lon="-2.30302">
        <ele>3.7999999523163</ele>
        <time>2021-09-19T08:04:02.000Z</time>
      </trkpt>
      <trkpt lat="47.33866" lon="-2.30303">
        <ele>3.7999999523163</ele>
        <time>2021-09-19T08:04:03.000Z</time>
      </trkpt>
      <trkpt lat="47.33854" lon="-2.30308">
        <ele>3.7999999523163</ele>
        <time>2021-09-19T08:04:08.000Z</time>
      </trkpt>
      <trkpt lat="47.33838" lon="-2.30319">
        <ele>3.7999999523163</ele>
        <time>2021-09-19T08:04:13.000Z</time>
      </trkpt>
      <trkpt lat="47.33817" lon="-2.30334">
        <ele>3.7999999523163</ele>
        <time>2021-09-19T08:04:19.000Z</time>
      </trkpt>
      <trkpt lat="47.33794" lon="-2.30348">
        <ele>3.7999999523163</ele>
        <time>2021-09-19T08:04:25.000Z</time>
      </trkpt>
      <trkpt lat="47.3379" lon="-2.3035">
        <ele>3.7999999523163</ele>
        <time>2021-09-19T08:04:26.000Z</time>
      </trkpt>
      <trkpt lat="47.33772" lon="-2.30356">
        <ele>3.7999999523163</ele>
        <time>2021-09-19T08:04:30.000Z</time>
      </trkpt>
      <trkpt lat="47.33758" lon="-2.3036">
        <ele>3.7999999523163</ele>
        <time>2021-09-19T08:04:33.000Z</time>
      </trkpt>
      <trkpt lat="47.33741" lon="-2.30368">
        <ele>3.7999999523163</ele>
        <time>2021-09-19T08:04:37.000Z</time>
      </trkpt>
      <trkpt lat="47.33728" lon="-2.30373">
        <ele>3.7999999523163</ele>
        <time>2021-09-19T08:04:40.000Z</time>
      </trkpt>
      <trkpt lat="47.33702" lon="-2.30386">
        <ele>3.7999999523163</ele>
        <time>2021-09-19T08:04:46.000Z</time>
      </trkpt>
      <trkpt lat="47.33693" lon="-2.3039">
        <ele>3.7999999523163</ele>
        <time>2021-09-19T08:04:48.000Z</time>
      </trkpt>
      <trkpt lat="47.33675" lon="-2.30398">
        <ele>3.7999999523163</ele>
        <time>2021-09-19T08:04:52.000Z</time>
      </trkpt>
      <trkpt lat="47.33648" lon="-2.30407">
        <ele>3.7999999523163</ele>
        <time>2021-09-19T08:04:58.000Z</time>
      </trkpt>
      <trkpt lat="47.33626" lon="-2.30417">
        <ele>3.7999999523163</ele>
        <time>2021-09-19T08:05:03.000Z</time>
      </trkpt>
      <trkpt lat="47.33622" lon="-2.3042">
        <ele>3.7999999523163</ele>
        <time>2021-09-19T08:05:04.000Z</time>
      </trkpt>
      <trkpt lat="47.33606" lon="-2.30432">
        <ele>3.7999999523163</ele>
        <time>2021-09-19T08:05:08.000Z</time>
      </trkpt>
      <trkpt lat="47.33598" lon="-2.30436">
        <ele>3.7999999523163</ele>
        <time>2021-09-19T08:05:10.000Z</time>
      </trkpt>
      <trkpt lat="47.33586" lon="-2.30442">
        <ele>3.7999999523163</ele>
        <time>2021-09-19T08:05:13.000Z</time>
      </trkpt>
      <trkpt lat="47.33578" lon="-2.30449">
        <ele>3.7999999523163</ele>
        <time>2021-09-19T08:05:15.000Z</time>
      </trkpt>
      <trkpt lat="47.33574" lon="-2.30452">
        <ele>3.7999999523163</ele>
        <time>2021-09-19T08:05:16.000Z</time>
      </trkpt>
      <trkpt lat="47.33557" lon="-2.30465">
        <ele>3.7999999523163</ele>
        <time>2021-09-19T08:05:20.000Z</time>
      </trkpt>
      <trkpt lat="47.33548" lon="-2.30471">
        <ele>3.7999999523163</ele>
        <time>2021-09-19T08:05:22.000Z</time>
      </trkpt>
      <trkpt lat="47.33518" lon="-2.30492">
        <ele>3.7999999523163</ele>
        <time>2021-09-19T08:05:29.000Z</time>
      </trkpt>
      <trkpt lat="47.33514" lon="-2.30494">
        <ele>3.7999999523163</ele>
        <time>2021-09-19T08:05:30.000Z</time>
      </trkpt>
      <trkpt lat="47.33496" lon="-2.30501">
        <ele>3.7999999523163</ele>
        <time>2021-09-19T08:05:34.000Z</time>
      </trkpt>
      <trkpt lat="47.33487" lon="-2.30503">
        <ele>3.7999999523163</ele>
        <time>2021-09-19T08:05:36.000Z</time>
      </trkpt>
      <trkpt lat="47.33473" lon="-2.30505">
        <ele>3.7999999523163</ele>
        <time>2021-09-19T08:05:39.000Z</time>
      </trkpt>
      <trkpt lat="47.33459" lon="-2.30504">
        <ele>3.7999999523163</ele>
        <time>2021-09-19T08:05:42.000Z</time>
      </trkpt>
      <trkpt lat="47.33427" lon="-2.305">
        <ele>3.7999999523163</ele>
        <time>2021-09-19T08:05:49.000Z</time>
      </trkpt>
      <trkpt lat="47.33423" lon="-2.305">
        <ele>3.7999999523163</ele>
        <time>2021-09-19T08:05:50.000Z</time>
      </trkpt>
      <trkpt lat="47.33405" lon="-2.30506">
        <ele>3.7999999523163</ele>
        <time>2021-09-19T08:05:54.000Z</time>
      </trkpt>
      <trkpt lat="47.33397" lon="-2.30511">
        <ele>3.7999999523163</ele>
        <time>2021-09-19T08:05:56.000Z</time>
      </trkpt>
      <trkpt lat="47.33387" lon="-2.30524">
        <ele>3.7999999523163</ele>
        <time>2021-09-19T08:05:59.000Z</time>
      </trkpt>
      <trkpt lat="47.33381" lon="-2.3054">
        <ele>3.7999999523163</ele>
        <time>2021-09-19T08:06:02.000Z</time>
      </trkpt>
      <trkpt lat="47.33377" lon="-2.30548">
        <ele>3.7999999523163</ele>
        <time>2021-09-19T08:06:04.000Z</time>
      </trkpt>
      <trkpt lat="47.3337" lon="-2.30549">
        <ele>3.7999999523163</ele>
        <time>2021-09-19T08:06:08.000Z</time>
      </trkpt>
      <trkpt lat="47.33363" lon="-2.3054">
        <ele>3.7999999523163</ele>
        <time>2021-09-19T08:06:12.000Z</time>
      </trkpt>
      <trkpt lat="47.33356" lon="-2.30523">
        <ele>3.7999999523163</ele>
        <time>2021-09-19T08:06:16.000Z</time>
      </trkpt>
      <trkpt lat="47.33352" lon="-2.30495">
        <ele>3.7999999523163</ele>
        <time>2021-09-19T08:06:21.000Z</time>
      </trkpt>
      <trkpt lat="47.33351" lon="-2.30489">
        <ele>3.7999999523163</ele>
        <time>2021-09-19T08:06:22.000Z</time>
      </trkpt>
      <trkpt lat="47.33347" lon="-2.30473">
        <ele>3.7999999523163</ele>
        <time>2021-09-19T08:06:26.000Z</time>
      </trkpt>
      <trkpt lat="47.33346" lon="-2.30471">
        <ele>3.7999999523163</ele>
        <time>2021-09-19T08:06:29.000Z</time>
      </trkpt>
      <trkpt lat="47.33347" lon="-2.30466">
        <ele>3.7999999523163</ele>
        <time>2021-09-19T08:06:43.000Z</time>
      </trkpt>
      <trkpt lat="47.33347" lon="-2.30463">
        <ele>3.7999999523163</ele>
        <time>2021-09-19T08:06:44.000Z</time>
      </trkpt>
      <trkpt lat="47.3335" lon="-2.30447">
        <ele>3.7999999523163</ele>
        <time>2021-09-19T08:06:48.000Z</time>
      </trkpt>
      <trkpt lat="47.33351" lon="-2.30442">
        <ele>3.7999999523163</ele>
        <time>2021-09-19T08:06:49.000Z</time>
      </trkpt>
      <trkpt lat="47.33358" lon="-2.3041">
        <ele>3.7999999523163</ele>
        <time>2021-09-19T08:06:55.000Z</time>
      </trkpt>
      <trkpt lat="47.3337" lon="-2.30399">
        <ele>3.7999999523163</ele>
        <time>2021-09-19T08:06:59.000Z</time>
      </trkpt>
      <trkpt lat="47.33385" lon="-2.30381">
        <ele>3.7999999523163</ele>
        <time>2021-09-19T08:07:05.000Z</time>
      </trkpt>
      <trkpt lat="47.33392" lon="-2.30349">
        <ele>3.7999999523163</ele>
        <time>2021-09-19T08:07:11.000Z</time>
      </trkpt>
      <trkpt lat="47.33393" lon="-2.30313">
        <ele>3.7999999523163</ele>
        <time>2021-09-19T08:07:18.000Z</time>
      </trkpt>
      <trkpt lat="47.33392" lon="-2.30273">
        <ele>3.7999999523163</ele>
        <time>2021-09-19T08:07:26.000Z</time>
      </trkpt>
      <trkpt lat="47.33396" lon="-2.30247">
        <ele>4.1999998092651</ele>
        <time>2021-09-19T08:07:31.000Z</time>
      </trkpt>
      <trkpt lat="47.33398" lon="-2.30241">
        <ele>4.5999999046326</ele>
        <time>2021-09-19T08:07:32.000Z</time>
      </trkpt>
      <trkpt lat="47.33399" lon="-2.30235">
        <ele>5</ele>
        <time>2021-09-19T08:07:33.000Z</time>
      </trkpt>
      <trkpt lat="47.33401" lon="-2.30229">
        <ele>5.4000000953674</ele>
        <time>2021-09-19T08:07:34.000Z</time>
      </trkpt>
      <trkpt lat="47.33403" lon="-2.30224">
        <ele>5.8000001907349</ele>
        <time>2021-09-19T08:07:35.000Z</time>
      </trkpt>
      <trkpt lat="47.33408" lon="-2.30206">
        <ele>5.8000001907349</ele>
        <time>2021-09-19T08:07:38.000Z</time>
      </trkpt>
      <trkpt lat="47.33421" lon="-2.30172">
        <ele>5.8000001907349</ele>
        <time>2021-09-19T08:07:45.000Z</time>
      </trkpt>
      <trkpt lat="47.33438" lon="-2.30148">
        <ele>5.8000001907349</ele>
        <time>2021-09-19T08:07:51.000Z</time>
      </trkpt>
      <trkpt lat="47.33444" lon="-2.30134">
        <ele>5.8000001907349</ele>
        <time>2021-09-19T08:07:54.000Z</time>
      </trkpt>
      <trkpt lat="47.33447" lon="-2.30123">
        <ele>5.8000001907349</ele>
        <time>2021-09-19T08:07:56.000Z</time>
      </trkpt>
      <trkpt lat="47.33453" lon="-2.30106">
        <ele>5.8000001907349</ele>
        <time>2021-09-19T08:08:00.000Z</time>
      </trkpt>
      <trkpt lat="47.33464" lon="-2.30072">
        <ele>5.8000001907349</ele>
        <time>2021-09-19T08:08:07.000Z</time>
      </trkpt>
      <trkpt lat="47.33466" lon="-2.30061">
        <ele>5.8000001907349</ele>
        <time>2021-09-19T08:08:09.000Z</time>
      </trkpt>
      <trkpt lat="47.33468" lon="-2.3005">
        <ele>5.8000001907349</ele>
        <time>2021-09-19T08:08:11.000Z</time>
      </trkpt>
      <trkpt lat="47.33474" lon="-2.30033">
        <ele>5.8000001907349</ele>
        <time>2021-09-19T08:08:14.000Z</time>
      </trkpt>
      <trkpt lat="47.33478" lon="-2.3002">
        <ele>5.8000001907349</ele>
        <time>2021-09-19T08:08:16.000Z</time>
      </trkpt>
      <trkpt lat="47.33486" lon="-2.30005">
        <ele>5.8000001907349</ele>
        <time>2021-09-19T08:08:19.000Z</time>
      </trkpt>
      <trkpt lat="47.33489" lon="-2.30001">
        <ele>5.8000001907349</ele>
        <time>2021-09-19T08:08:20.000Z</time>
      </trkpt>
      <trkpt lat="47.33501" lon="-2.29999">
        <ele>5.8000001907349</ele>
        <time>2021-09-19T08:08:23.000Z</time>
      </trkpt>
      <trkpt lat="47.3351" lon="-2.30001">
        <ele>5.8000001907349</ele>
        <time>2021-09-19T08:08:25.000Z</time>
      </trkpt>
      <trkpt lat="47.33528" lon="-2.30004">
        <ele>5.8000001907349</ele>
        <time>2021-09-19T08:08:29.000Z</time>
      </trkpt>
      <trkpt lat="47.33547" lon="-2.30008">
        <ele>5.8000001907349</ele>
        <time>2021-09-19T08:08:33.000Z</time>
      </trkpt>
      <trkpt lat="47.33557" lon="-2.30008">
        <ele>5.8000001907349</ele>
        <time>2021-09-19T08:08:35.000Z</time>
      </trkpt>
      <trkpt lat="47.33572" lon="-2.30001">
        <ele>5.8000001907349</ele>
        <time>2021-09-19T08:08:38.000Z</time>
      </trkpt>
      <trkpt lat="47.33576" lon="-2.29997">
        <ele>5.8000001907349</ele>
        <time>2021-09-19T08:08:39.000Z</time>
      </trkpt>
      <trkpt lat="47.33584" lon="-2.29987">
        <ele>5.8000001907349</ele>
        <time>2021-09-19T08:08:41.000Z</time>
      </trkpt>
      <trkpt lat="47.33595" lon="-2.29973">
        <ele>5.8000001907349</ele>
        <time>2021-09-19T08:08:44.000Z</time>
      </trkpt>
      <trkpt lat="47.33631" lon="-2.2993">
        <ele>5.8000001907349</ele>
        <time>2021-09-19T08:08:53.000Z</time>
      </trkpt>
      <trkpt lat="47.33649" lon="-2.29903">
        <ele>5.8000001907349</ele>
        <time>2021-09-19T08:08:58.000Z</time>
      </trkpt>
      <trkpt lat="47.33651" lon="-2.29889">
        <ele>5.8000001907349</ele>
        <time>2021-09-19T08:09:00.000Z</time>
      </trkpt>
      <trkpt lat="47.33645" lon="-2.29862">
        <ele>5.8000001907349</ele>
        <time>2021-09-19T08:09:04.000Z</time>
      </trkpt>
      <trkpt lat="47.33643" lon="-2.29856">
        <ele>5.8000001907349</ele>
        <time>2021-09-19T08:09:05.000Z</time>
      </trkpt>
      <trkpt lat="47.33637" lon="-2.29838">
        <ele>5.8000001907349</ele>
        <time>2021-09-19T08:09:08.000Z</time>
      </trkpt>
      <trkpt lat="47.33636" lon="-2.29832">
        <ele>5.8000001907349</ele>
        <time>2021-09-19T08:09:09.000Z</time>
      </trkpt>
      <trkpt lat="47.33642" lon="-2.29815">
        <ele>5.8000001907349</ele>
        <time>2021-09-19T08:09:12.000Z</time>
      </trkpt>
      <trkpt lat="47.33657" lon="-2.29807">
        <ele>5.8000001907349</ele>
        <time>2021-09-19T08:09:15.000Z</time>
      </trkpt>
      <trkpt lat="47.33661" lon="-2.29805">
        <ele>5.8000001907349</ele>
        <time>2021-09-19T08:09:16.000Z</time>
      </trkpt>
      <trkpt lat="47.33685" lon="-2.29794">
        <ele>5.8000001907349</ele>
        <time>2021-09-19T08:09:21.000Z</time>
      </trkpt>
      <trkpt lat="47.3369" lon="-2.29794">
        <ele>5.8000001907349</ele>
        <time>2021-09-19T08:09:22.000Z</time>
      </trkpt>
      <trkpt lat="47.33728" lon="-2.29803">
        <ele>5.8000001907349</ele>
        <time>2021-09-19T08:09:30.000Z</time>
      </trkpt>
      <trkpt lat="47.33764" lon="-2.29811">
        <ele>5.8000001907349</ele>
        <time>2021-09-19T08:09:37.000Z</time>
      </trkpt>
      <trkpt lat="47.33804" lon="-2.29819">
        <ele>5.8000001907349</ele>
        <time>2021-09-19T08:09:44.000Z</time>
      </trkpt>
      <trkpt lat="47.3381" lon="-2.29817">
        <ele>5.8000001907349</ele>
        <time>2021-09-19T08:09:45.000Z</time>
      </trkpt>
      <trkpt lat="47.33826" lon="-2.2981">
        <ele>5.8000001907349</ele>
        <time>2021-09-19T08:09:48.000Z</time>
      </trkpt>
      <trkpt lat="47.33867" lon="-2.29782">
        <ele>5.8000001907349</ele>
        <time>2021-09-19T08:09:56.000Z</time>
      </trkpt>
      <trkpt lat="47.33879" lon="-2.29754">
        <ele>5.8000001907349</ele>
        <time>2021-09-19T08:10:00.000Z</time>
      </trkpt>
      <trkpt lat="47.33896" lon="-2.29702">
        <ele>5.8000001907349</ele>
        <time>2021-09-19T08:10:07.000Z</time>
      </trkpt>
      <trkpt lat="47.33911" lon="-2.2965">
        <ele>5.8000001907349</ele>
        <time>2021-09-19T08:10:14.000Z</time>
      </trkpt>
      <trkpt lat="47.33912" lon="-2.29642">
        <ele>5.8000001907349</ele>
        <time>2021-09-19T08:10:15.000Z</time>
      </trkpt>
      <trkpt lat="47.33915" lon="-2.29619">
        <ele>5.8000001907349</ele>
        <time>2021-09-19T08:10:18.000Z</time>
      </trkpt>
      <trkpt lat="47.33916" lon="-2.29613">
        <ele>5.8000001907349</ele>
        <time>2021-09-19T08:10:19.000Z</time>
      </trkpt>
      <trkpt lat="47.33917" lon="-2.29586">
        <ele>5.8000001907349</ele>
        <time>2021-09-19T08:10:24.000Z</time>
      </trkpt>
      <trkpt lat="47.33918" lon="-2.29571">
        <ele>5.8000001907349</ele>
        <time>2021-09-19T08:10:30.000Z</time>
      </trkpt>
      <trkpt lat="47.33918" lon="-2.29559">
        <ele>5.8000001907349</ele>
        <time>2021-09-19T08:10:36.000Z</time>
      </trkpt>
      <trkpt lat="47.33918" lon="-2.29559">
        <ele>5.8000001907349</ele>
        <time>2021-09-19T08:10:37.000Z</time>
      </trkpt>
      <trkpt lat="47.33918" lon="-2.29555">
        <ele>5.8000001907349</ele>
        <time>2021-09-19T08:10:45.000Z</time>
      </trkpt>
      <trkpt lat="47.33917" lon="-2.29549">
        <ele>5.8000001907349</ele>
        <time>2021-09-19T08:10:47.000Z</time>
      </trkpt>
      <trkpt lat="47.33918" lon="-2.29534">
        <ele>5.8000001907349</ele>
        <time>2021-09-19T08:10:52.000Z</time>
      </trkpt>
      <trkpt lat="47.33919" lon="-2.29517">
        <ele>5.8000001907349</ele>
        <time>2021-09-19T08:10:57.000Z</time>
      </trkpt>
      <trkpt lat="47.33921" lon="-2.29497">
        <ele>5.8000001907349</ele>
        <time>2021-09-19T08:11:03.000Z</time>
      </trkpt>
      <trkpt lat="47.33931" lon="-2.29481">
        <ele>5.8000001907349</ele>
        <time>2021-09-19T08:11:08.000Z</time>
      </trkpt>
      <trkpt lat="47.33948" lon="-2.29454">
        <ele>5.8000001907349</ele>
        <time>2021-09-19T08:11:15.000Z</time>
      </trkpt>
      <trkpt lat="47.33949" lon="-2.29449">
        <ele>5.8000001907349</ele>
        <time>2021-09-19T08:11:16.000Z</time>
      </trkpt>
      <trkpt lat="47.33947" lon="-2.29437">
        <ele>5.8000001907349</ele>
        <time>2021-09-19T08:11:18.000Z</time>
      </trkpt>
      <trkpt lat="47.33935" lon="-2.29418">
        <ele>5.8000001907349</ele>
        <time>2021-09-19T08:11:22.000Z</time>
      </trkpt>
      <trkpt lat="47.33911" lon="-2.29391">
        <ele>5.8000001907349</ele>
        <time>2021-09-19T08:11:28.000Z</time>
      </trkpt>
      <trkpt lat="47.33883" lon="-2.29365">
        <ele>5.8000001907349</ele>
        <time>2021-09-19T08:11:34.000Z</time>
      </trkpt>
      <trkpt lat="47.33859" lon="-2.29344">
        <ele>6.5999999046326</ele>
        <time>2021-09-19T08:11:39.000Z</time>
      </trkpt>
      <trkpt lat="47.33855" lon="-2.2934">
        <ele>7</ele>
        <time>2021-09-19T08:11:40.000Z</time>
      </trkpt>
      <trkpt lat="47.3385" lon="-2.29337">
        <ele>7.4000000953674</ele>
        <time>2021-09-19T08:11:41.000Z</time>
      </trkpt>
      <trkpt lat="47.33845" lon="-2.29333">
        <ele>7.8000001907349</ele>
        <time>2021-09-19T08:11:42.000Z</time>
      </trkpt>
      <trkpt lat="47.33823" lon="-2.29315">
        <ele>7.8000001907349</ele>
        <time>2021-09-19T08:11:47.000Z</time>
      </trkpt>
      <trkpt lat="47.33809" lon="-2.29299">
        <ele>7.8000001907349</ele>
        <time>2021-09-19T08:11:50.000Z</time>
      </trkpt>
      <trkpt lat="47.33807" lon="-2.29292">
        <ele>7.8000001907349</ele>
        <time>2021-09-19T08:11:51.000Z</time>
      </trkpt>
      <trkpt lat="47.33808" lon="-2.2928">
        <ele>7.8000001907349</ele>
        <time>2021-09-19T08:11:53.000Z</time>
      </trkpt>
      <trkpt lat="47.33819" lon="-2.29269">
        <ele>7.8000001907349</ele>
        <time>2021-09-19T08:11:56.000Z</time>
      </trkpt>
      <trkpt lat="47.33833" lon="-2.2926">
        <ele>7.8000001907349</ele>
        <time>2021-09-19T08:11:59.000Z</time>
      </trkpt>
      <trkpt lat="47.33844" lon="-2.29253">
        <ele>7.8000001907349</ele>
        <time>2021-09-19T08:12:01.000Z</time>
      </trkpt>
      <trkpt lat="47.33887" lon="-2.29236">
        <ele>7.8000001907349</ele>
        <time>2021-09-19T08:12:08.000Z</time>
      </trkpt>
      <trkpt lat="47.33931" lon="-2.29229">
        <ele>7.8000001907349</ele>
        <time>2021-09-19T08:12:15.000Z</time>
      </trkpt>
      <trkpt lat="47.33975" lon="-2.2922">
        <ele>7.8000001907349</ele>
        <time>2021-09-19T08:12:22.000Z</time>
      </trkpt>
      <trkpt lat="47.34027" lon="-2.29201">
        <ele>7.8000001907349</ele>
        <time>2021-09-19T08:12:30.000Z</time>
      </trkpt>
      <trkpt lat="47.34071" lon="-2.29171">
        <ele>7.8000001907349</ele>
        <time>2021-09-19T08:12:37.000Z</time>
      </trkpt>
      <trkpt lat="47.34121" lon="-2.2913">
        <ele>7.8000001907349</ele>
        <time>2021-09-19T08:12:46.000Z</time>
      </trkpt>
      <trkpt lat="47.34162" lon="-2.29103">
        <ele>7.8000001907349</ele>
        <time>2021-09-19T08:12:53.000Z</time>
      </trkpt>
      <trkpt lat="47.34204" lon="-2.29084">
        <ele>7.8000001907349</ele>
        <time>2021-09-19T08:13:00.000Z</time>
      </trkpt>
      <trkpt lat="47.34253" lon="-2.29072">
        <ele>7.8000001907349</ele>
        <time>2021-09-19T08:13:08.000Z</time>
      </trkpt>
      <trkpt lat="47.34287" lon="-2.2907">
        <ele>7.8000001907349</ele>
        <time>2021-09-19T08:13:14.000Z</time>
      </trkpt>
      <trkpt lat="47.34311" lon="-2.29068">
        <ele>7.8000001907349</ele>
        <time>2021-09-19T08:13:19.000Z</time>
      </trkpt>
      <trkpt lat="47.34314" lon="-2.29065">
        <ele>7.8000001907349</ele>
        <time>2021-09-19T08:13:20.000Z</time>
      </trkpt>
      <trkpt lat="47.34315" lon="-2.29049">
        <ele>7.8000001907349</ele>
        <time>2021-09-19T08:13:23.000Z</time>
      </trkpt>
      <trkpt lat="47.34311" lon="-2.29036">
        <ele>7.8000001907349</ele>
        <time>2021-09-19T08:13:25.000Z</time>
      </trkpt>
      <trkpt lat="47.34306" lon="-2.29013">
        <ele>7.8000001907349</ele>
        <time>2021-09-19T08:13:28.000Z</time>
      </trkpt>
      <trkpt lat="47.34291" lon="-2.2894">
        <ele>7.8000001907349</ele>
        <time>2021-09-19T08:13:36.000Z</time>
      </trkpt>
      <trkpt lat="47.34273" lon="-2.28877">
        <ele>7.8000001907349</ele>
        <time>2021-09-19T08:13:43.000Z</time>
      </trkpt>
      <trkpt lat="47.34263" lon="-2.28843">
        <ele>7.4000000953674</ele>
        <time>2021-09-19T08:13:47.000Z</time>
      </trkpt>
      <trkpt lat="47.34261" lon="-2.28836">
        <ele>7</ele>
        <time>2021-09-19T08:13:48.000Z</time>
      </trkpt>
      <trkpt lat="47.34257" lon="-2.28832">
        <ele>6.5999999046326</ele>
        <time>2021-09-19T08:13:49.000Z</time>
      </trkpt>
      <trkpt lat="47.34253" lon="-2.28829">
        <ele>6.1999998092651</ele>
        <time>2021-09-19T08:13:50.000Z</time>
      </trkpt>
      <trkpt lat="47.3425" lon="-2.28829">
        <ele>5.8000001907349</ele>
        <time>2021-09-19T08:13:51.000Z</time>
      </trkpt>
      <trkpt lat="47.34247" lon="-2.28831">
        <ele>5.8000001907349</ele>
        <time>2021-09-19T08:13:52.000Z</time>
      </trkpt>
      <trkpt lat="47.34241" lon="-2.28835">
        <ele>5.8000001907349</ele>
        <time>2021-09-19T08:13:54.000Z</time>
      </trkpt>
      <trkpt lat="47.34227" lon="-2.28847">
        <ele>5.8000001907349</ele>
        <time>2021-09-19T08:13:57.000Z</time>
      </trkpt>
      <trkpt lat="47.34197" lon="-2.28871">
        <ele>5.8000001907349</ele>
        <time>2021-09-19T08:14:02.000Z</time>
      </trkpt>
      <trkpt lat="47.34184" lon="-2.28862">
        <ele>5.8000001907349</ele>
        <time>2021-09-19T08:14:05.000Z</time>
      </trkpt>
      <trkpt lat="47.34182" lon="-2.28841">
        <ele>5.8000001907349</ele>
        <time>2021-09-19T08:14:08.000Z</time>
      </trkpt>
      <trkpt lat="47.34182" lon="-2.28832">
        <ele>5.8000001907349</ele>
        <time>2021-09-19T08:14:09.000Z</time>
      </trkpt>
      <trkpt lat="47.3418" lon="-2.28786">
        <ele>5.8000001907349</ele>
        <time>2021-09-19T08:14:14.000Z</time>
      </trkpt>
      <trkpt lat="47.34174" lon="-2.2871">
        <ele>5.8000001907349</ele>
        <time>2021-09-19T08:14:22.000Z</time>
      </trkpt>
      <trkpt lat="47.34166" lon="-2.28691">
        <ele>5.8000001907349</ele>
        <time>2021-09-19T08:14:25.000Z</time>
      </trkpt>
      <trkpt lat="47.34148" lon="-2.28688">
        <ele>5.8000001907349</ele>
        <time>2021-09-19T08:14:28.000Z</time>
      </trkpt>
      <trkpt lat="47.34129" lon="-2.2869">
        <ele>5.8000001907349</ele>
        <time>2021-09-19T08:14:31.000Z</time>
      </trkpt>
      <trkpt lat="47.34119" lon="-2.28697">
        <ele>5.8000001907349</ele>
        <time>2021-09-19T08:14:33.000Z</time>
      </trkpt>
      <trkpt lat="47.34104" lon="-2.2872">
        <ele>5.8000001907349</ele>
        <time>2021-09-19T08:14:37.000Z</time>
      </trkpt>
      <trkpt lat="47.34089" lon="-2.28734">
        <ele>5.8000001907349</ele>
        <time>2021-09-19T08:14:41.000Z</time>
      </trkpt>
      <trkpt lat="47.34074" lon="-2.28731">
        <ele>5.8000001907349</ele>
        <time>2021-09-19T08:14:44.000Z</time>
      </trkpt>
      <trkpt lat="47.34068" lon="-2.28729">
        <ele>5.8000001907349</ele>
        <time>2021-09-19T08:14:45.000Z</time>
      </trkpt>
      <trkpt lat="47.34034" lon="-2.28714">
        <ele>5.8000001907349</ele>
        <time>2021-09-19T08:14:51.000Z</time>
      </trkpt>
      <trkpt lat="47.34008" lon="-2.28704">
        <ele>5.8000001907349</ele>
        <time>2021-09-19T08:14:56.000Z</time>
      </trkpt>
      <trkpt lat="47.33987" lon="-2.28686">
        <ele>5.8000001907349</ele>
        <time>2021-09-19T08:15:02.000Z</time>
      </trkpt>
      <trkpt lat="47.33983" lon="-2.28659">
        <ele>5.8000001907349</ele>
        <time>2021-09-19T08:15:06.000Z</time>
      </trkpt>
      <trkpt lat="47.33982" lon="-2.28646">
        <ele>5.8000001907349</ele>
        <time>2021-09-19T08:15:08.000Z</time>
      </trkpt>
      <trkpt lat="47.33973" lon="-2.28628">
        <ele>5.8000001907349</ele>
        <time>2021-09-19T08:15:11.000Z</time>
      </trkpt>
      <trkpt lat="47.33966" lon="-2.28617">
        <ele>5.8000001907349</ele>
        <time>2021-09-19T08:15:13.000Z</time>
      </trkpt>
      <trkpt lat="47.33949" lon="-2.28594">
        <ele>5.8000001907349</ele>
        <time>2021-09-19T08:15:17.000Z</time>
      </trkpt>
      <trkpt lat="47.33919" lon="-2.28555">
        <ele>5.8000001907349</ele>
        <time>2021-09-19T08:15:24.000Z</time>
      </trkpt>
      <trkpt lat="47.33893" lon="-2.28523">
        <ele>5.8000001907349</ele>
        <time>2021-09-19T08:15:30.000Z</time>
      </trkpt>
      <trkpt lat="47.33871" lon="-2.28494">
        <ele>5.8000001907349</ele>
        <time>2021-09-19T08:15:36.000Z</time>
      </trkpt>
      <trkpt lat="47.33846" lon="-2.28466">
        <ele>5.8000001907349</ele>
        <time>2021-09-19T08:15:43.000Z</time>
      </trkpt>
      <trkpt lat="47.33842" lon="-2.28463">
        <ele>5.8000001907349</ele>
        <time>2021-09-19T08:15:44.000Z</time>
      </trkpt>
      <trkpt lat="47.33826" lon="-2.2846">
        <ele>5.8000001907349</ele>
        <time>2021-09-19T08:15:47.000Z</time>
      </trkpt>
      <trkpt lat="47.33803" lon="-2.28474">
        <ele>5.8000001907349</ele>
        <time>2021-09-19T08:15:51.000Z</time>
      </trkpt>
      <trkpt lat="47.33772" lon="-2.28497">
        <ele>5.8000001907349</ele>
        <time>2021-09-19T08:15:57.000Z</time>
      </trkpt>
      <trkpt lat="47.33737" lon="-2.28527">
        <ele>5.8000001907349</ele>
        <time>2021-09-19T08:16:04.000Z</time>
      </trkpt>
      <trkpt lat="47.33713" lon="-2.28551">
        <ele>5.8000001907349</ele>
        <time>2021-09-19T08:16:09.000Z</time>
      </trkpt>
      <trkpt lat="47.33703" lon="-2.28561">
        <ele>5.8000001907349</ele>
        <time>2021-09-19T08:16:11.000Z</time>
      </trkpt>
      <trkpt lat="47.33665" lon="-2.28606">
        <ele>5.8000001907349</ele>
        <time>2021-09-19T08:16:19.000Z</time>
      </trkpt>
      <trkpt lat="47.33649" lon="-2.28623">
        <ele>5.8000001907349</ele>
        <time>2021-09-19T08:16:22.000Z</time>
      </trkpt>
      <trkpt lat="47.33631" lon="-2.28636">
        <ele>5.8000001907349</ele>
        <time>2021-09-19T08:16:25.000Z</time>
      </trkpt>
      <trkpt lat="47.33595" lon="-2.28654">
        <ele>5.8000001907349</ele>
        <time>2021-09-19T08:16:31.000Z</time>
      </trkpt>
      <trkpt lat="47.33555" lon="-2.28676">
        <ele>5.8000001907349</ele>
        <time>2021-09-19T08:16:38.000Z</time>
      </trkpt>
      <trkpt lat="47.33518" lon="-2.28693">
        <ele>5.8000001907349</ele>
        <time>2021-09-19T08:16:44.000Z</time>
      </trkpt>
      <trkpt lat="47.33499" lon="-2.28716">
        <ele>5.8000001907349</ele>
        <time>2021-09-19T08:16:48.000Z</time>
      </trkpt>
      <trkpt lat="47.33495" lon="-2.28723">
        <ele>5.8000001907349</ele>
        <time>2021-09-19T08:16:49.000Z</time>
      </trkpt>
      <trkpt lat="47.33471" lon="-2.28769">
        <ele>5.8000001907349</ele>
        <time>2021-09-19T08:16:55.000Z</time>
      </trkpt>
      <trkpt lat="47.3345" lon="-2.28814">
        <ele>5.8000001907349</ele>
        <time>2021-09-19T08:17:01.000Z</time>
      </trkpt>
      <trkpt lat="47.33434" lon="-2.28839">
        <ele>5.8000001907349</ele>
        <time>2021-09-19T08:17:05.000Z</time>
      </trkpt>
      <trkpt lat="47.3343" lon="-2.28844">
        <ele>6.1999998092651</ele>
        <time>2021-09-19T08:17:06.000Z</time>
      </trkpt>
      <trkpt lat="47.33425" lon="-2.28849">
        <ele>6.8000001907349</ele>
        <time>2021-09-19T08:17:07.000Z</time>
      </trkpt>
      <trkpt lat="47.33421" lon="-2.28854">
        <ele>7.1999998092651</ele>
        <time>2021-09-19T08:17:08.000Z</time>
      </trkpt>
      <trkpt lat="47.33415" lon="-2.28859">
        <ele>7.5999999046326</ele>
        <time>2021-09-19T08:17:09.000Z</time>
      </trkpt>
      <trkpt lat="47.3341" lon="-2.28863">
        <ele>8</ele>
        <time>2021-09-19T08:17:10.000Z</time>
      </trkpt>
      <trkpt lat="47.334" lon="-2.2887">
        <ele>8</ele>
        <time>2021-09-19T08:17:12.000Z</time>
      </trkpt>
      <trkpt lat="47.33369" lon="-2.28885">
        <ele>8</ele>
        <time>2021-09-19T08:17:18.000Z</time>
      </trkpt>
      <trkpt lat="47.33333" lon="-2.28904">
        <ele>8</ele>
        <time>2021-09-19T08:17:24.000Z</time>
      </trkpt>
      <trkpt lat="47.33311" lon="-2.28916">
        <ele>8</ele>
        <time>2021-09-19T08:17:28.000Z</time>
      </trkpt>
      <trkpt lat="47.33306" lon="-2.28919">
        <ele>8.3999996185303</ele>
        <time>2021-09-19T08:17:29.000Z</time>
      </trkpt>
      <trkpt lat="47.33302" lon="-2.28922">
        <ele>8.8000001907349</ele>
        <time>2021-09-19T08:17:30.000Z</time>
      </trkpt>
      <trkpt lat="47.33296" lon="-2.28926">
        <ele>9.1999998092651</ele>
        <time>2021-09-19T08:17:31.000Z</time>
      </trkpt>
      <trkpt lat="47.33291" lon="-2.28929">
        <ele>9.6000003814697</ele>
        <time>2021-09-19T08:17:32.000Z</time>
      </trkpt>
      <trkpt lat="47.33287" lon="-2.28932">
        <ele>10</ele>
        <time>2021-09-19T08:17:33.000Z</time>
      </trkpt>
      <trkpt lat="47.33273" lon="-2.28942">
        <ele>10</ele>
        <time>2021-09-19T08:17:36.000Z</time>
      </trkpt>
      <trkpt lat="47.3325" lon="-2.28961">
        <ele>10</ele>
        <time>2021-09-19T08:17:41.000Z</time>
      </trkpt>
      <trkpt lat="47.33247" lon="-2.28967">
        <ele>10</ele>
        <time>2021-09-19T08:17:42.000Z</time>
      </trkpt>
      <trkpt lat="47.3324" lon="-2.28995">
        <ele>10</ele>
        <time>2021-09-19T08:17:46.000Z</time>
      </trkpt>
      <trkpt lat="47.33236" lon="-2.29038">
        <ele>10</ele>
        <time>2021-09-19T08:17:52.000Z</time>
      </trkpt>
      <trkpt lat="47.3323" lon="-2.29068">
        <ele>10</ele>
        <time>2021-09-19T08:17:57.000Z</time>
      </trkpt>
      <trkpt lat="47.33223" lon="-2.29072">
        <ele>10</ele>
        <time>2021-09-19T08:17:59.000Z</time>
      </trkpt>
      <trkpt lat="47.33218" lon="-2.29072">
        <ele>10</ele>
        <time>2021-09-19T08:18:00.000Z</time>
      </trkpt>
      <trkpt lat="47.33197" lon="-2.29067">
        <ele>10</ele>
        <time>2021-09-19T08:18:04.000Z</time>
      </trkpt>
      <trkpt lat="47.33192" lon="-2.29065">
        <ele>10</ele>
        <time>2021-09-19T08:18:05.000Z</time>
      </trkpt>
      <trkpt lat="47.33171" lon="-2.29061">
        <ele>10.39999961853</ele>
        <time>2021-09-19T08:18:09.000Z</time>
      </trkpt>
      <trkpt lat="47.33166" lon="-2.2906">
        <ele>10.800000190735</ele>
        <time>2021-09-19T08:18:10.000Z</time>
      </trkpt>
      <trkpt lat="47.3316" lon="-2.2906">
        <ele>11.199999809265</ele>
        <time>2021-09-19T08:18:11.000Z</time>
      </trkpt>
      <trkpt lat="47.33155" lon="-2.29059">
        <ele>11.60000038147</ele>
        <time>2021-09-19T08:18:12.000Z</time>
      </trkpt>
      <trkpt lat="47.33149" lon="-2.2906">
        <ele>12</ele>
        <time>2021-09-19T08:18:13.000Z</time>
      </trkpt>
      <trkpt lat="47.33122" lon="-2.29064">
        <ele>12</ele>
        <time>2021-09-19T08:18:18.000Z</time>
      </trkpt>
      <trkpt lat="47.33104" lon="-2.29067">
        <ele>12</ele>
        <time>2021-09-19T08:18:22.000Z</time>
      </trkpt>
      <trkpt lat="47.33097" lon="-2.29064">
        <ele>12</ele>
        <time>2021-09-19T08:18:24.000Z</time>
      </trkpt>
      <trkpt lat="47.33091" lon="-2.29052">
        <ele>12.39999961853</ele>
        <time>2021-09-19T08:18:26.000Z</time>
      </trkpt>
      <trkpt lat="47.33091" lon="-2.29044">
        <ele>12.800000190735</ele>
        <time>2021-09-19T08:18:27.000Z</time>
      </trkpt>
      <trkpt lat="47.33092" lon="-2.29037">
        <ele>13.199999809265</ele>
        <time>2021-09-19T08:18:28.000Z</time>
      </trkpt>
      <trkpt lat="47.33094" lon="-2.2903">
        <ele>13.60000038147</ele>
        <time>2021-09-19T08:18:29.000Z</time>
      </trkpt>
      <trkpt lat="47.33096" lon="-2.29023">
        <ele>14</ele>
        <time>2021-09-19T08:18:30.000Z</time>
      </trkpt>
      <trkpt lat="47.33104" lon="-2.28984">
        <ele>14</ele>
        <time>2021-09-19T08:18:35.000Z</time>
      </trkpt>
      <trkpt lat="47.33105" lon="-2.28976">
        <ele>14</ele>
        <time>2021-09-19T08:18:36.000Z</time>
      </trkpt>
      <trkpt lat="47.33114" lon="-2.28919">
        <ele>14</ele>
        <time>2021-09-19T08:18:43.000Z</time>
      </trkpt>
      <trkpt lat="47.33115" lon="-2.28876">
        <ele>14</ele>
        <time>2021-09-19T08:18:48.000Z</time>
      </trkpt>
      <trkpt lat="47.33113" lon="-2.28868">
        <ele>14</ele>
        <time>2021-09-19T08:18:49.000Z</time>
      </trkpt>
      <trkpt lat="47.33105" lon="-2.28838">
        <ele>14</ele>
        <time>2021-09-19T08:18:53.000Z</time>
      </trkpt>
      <trkpt lat="47.33101" lon="-2.28823">
        <ele>14</ele>
        <time>2021-09-19T08:18:55.000Z</time>
      </trkpt>
      <trkpt lat="47.33095" lon="-2.28815">
        <ele>14</ele>
        <time>2021-09-19T08:18:57.000Z</time>
      </trkpt>
      <trkpt lat="47.33081" lon="-2.28818">
        <ele>14</ele>
        <time>2021-09-19T08:19:00.000Z</time>
      </trkpt>
      <trkpt lat="47.33071" lon="-2.28823">
        <ele>14</ele>
        <time>2021-09-19T08:19:02.000Z</time>
      </trkpt>
      <trkpt lat="47.33049" lon="-2.28835">
        <ele>14</ele>
        <time>2021-09-19T08:19:06.000Z</time>
      </trkpt>
      <trkpt lat="47.3301" lon="-2.2886">
        <ele>14</ele>
        <time>2021-09-19T08:19:13.000Z</time>
      </trkpt>
      <trkpt lat="47.32992" lon="-2.28873">
        <ele>14</ele>
        <time>2021-09-19T08:19:16.000Z</time>
      </trkpt>
      <trkpt lat="47.32975" lon="-2.28888">
        <ele>14</ele>
        <time>2021-09-19T08:19:19.000Z</time>
      </trkpt>
      <trkpt lat="47.32934" lon="-2.28924">
        <ele>14</ele>
        <time>2021-09-19T08:19:26.000Z</time>
      </trkpt>
      <trkpt lat="47.3291" lon="-2.2894">
        <ele>13.60000038147</ele>
        <time>2021-09-19T08:19:30.000Z</time>
      </trkpt>
      <trkpt lat="47.32904" lon="-2.28942">
        <ele>13.199999809265</ele>
        <time>2021-09-19T08:19:31.000Z</time>
      </trkpt>
      <trkpt lat="47.32898" lon="-2.28943">
        <ele>12.800000190735</ele>
        <time>2021-09-19T08:19:32.000Z</time>
      </trkpt>
      <trkpt lat="47.32892" lon="-2.28944">
        <ele>12.39999961853</ele>
        <time>2021-09-19T08:19:33.000Z</time>
      </trkpt>
      <trkpt lat="47.32886" lon="-2.28945">
        <ele>12</ele>
        <time>2021-09-19T08:19:34.000Z</time>
      </trkpt>
      <trkpt lat="47.32871" lon="-2.28945">
        <ele>12</ele>
        <time>2021-09-19T08:19:36.000Z</time>
      </trkpt>
      <trkpt lat="47.3285" lon="-2.28958">
        <ele>12</ele>
        <time>2021-09-19T08:19:39.000Z</time>
      </trkpt>
      <trkpt lat="47.32816" lon="-2.28985">
        <ele>11.60000038147</ele>
        <time>2021-09-19T08:19:44.000Z</time>
      </trkpt>
      <trkpt lat="47.3281" lon="-2.28989">
        <ele>11.199999809265</ele>
        <time>2021-09-19T08:19:45.000Z</time>
      </trkpt>
      <trkpt lat="47.32803" lon="-2.28992">
        <ele>10.800000190735</ele>
        <time>2021-09-19T08:19:46.000Z</time>
      </trkpt>
      <trkpt lat="47.32797" lon="-2.28996">
        <ele>10.39999961853</ele>
        <time>2021-09-19T08:19:47.000Z</time>
      </trkpt>
      <trkpt lat="47.3279" lon="-2.29">
        <ele>10</ele>
        <time>2021-09-19T08:19:48.000Z</time>
      </trkpt>
      <trkpt lat="47.32773" lon="-2.29007">
        <ele>10</ele>
        <time>2021-09-19T08:19:51.000Z</time>
      </trkpt>
      <trkpt lat="47.32769" lon="-2.29005">
        <ele>10</ele>
        <time>2021-09-19T08:19:52.000Z</time>
      </trkpt>
      <trkpt lat="47.32765" lon="-2.28987">
        <ele>10</ele>
        <time>2021-09-19T08:19:55.000Z</time>
      </trkpt>
      <trkpt lat="47.32766" lon="-2.28978">
        <ele>9.6000003814697</ele>
        <time>2021-09-19T08:19:56.000Z</time>
      </trkpt>
      <trkpt lat="47.32766" lon="-2.28969">
        <ele>9.1999998092651</ele>
        <time>2021-09-19T08:19:57.000Z</time>
      </trkpt>
      <trkpt lat="47.32767" lon="-2.2896">
        <ele>8.8000001907349</ele>
        <time>2021-09-19T08:19:58.000Z</time>
      </trkpt>
      <trkpt lat="47.32767" lon="-2.2895">
        <ele>8.3999996185303</ele>
        <time>2021-09-19T08:19:59.000Z</time>
      </trkpt>
      <trkpt lat="47.32768" lon="-2.2894">
        <ele>8</ele>
        <time>2021-09-19T08:20:00.000Z</time>
      </trkpt>
      <trkpt lat="47.32772" lon="-2.28909">
        <ele>8</ele>
        <time>2021-09-19T08:20:03.000Z</time>
      </trkpt>
      <trkpt lat="47.32776" lon="-2.2889">
        <ele>8</ele>
        <time>2021-09-19T08:20:05.000Z</time>
      </trkpt>
      <trkpt lat="47.32793" lon="-2.28819">
        <ele>8</ele>
        <time>2021-09-19T08:20:13.000Z</time>
      </trkpt>
      <trkpt lat="47.32799" lon="-2.28784">
        <ele>8</ele>
        <time>2021-09-19T08:20:17.000Z</time>
      </trkpt>
      <trkpt lat="47.32798" lon="-2.28774">
        <ele>8</ele>
        <time>2021-09-19T08:20:18.000Z</time>
      </trkpt>
      <trkpt lat="47.32794" lon="-2.28731">
        <ele>8.3999996185303</ele>
        <time>2021-09-19T08:20:23.000Z</time>
      </trkpt>
      <trkpt lat="47.32793" lon="-2.28722">
        <ele>8.8000001907349</ele>
        <time>2021-09-19T08:20:24.000Z</time>
      </trkpt>
      <trkpt lat="47.32791" lon="-2.28713">
        <ele>9.1999998092651</ele>
        <time>2021-09-19T08:20:25.000Z</time>
      </trkpt>
      <trkpt lat="47.3279" lon="-2.28704">
        <ele>9.6000003814697</ele>
        <time>2021-09-19T08:20:26.000Z</time>
      </trkpt>
      <trkpt lat="47.32789" lon="-2.28696">
        <ele>10</ele>
        <time>2021-09-19T08:20:27.000Z</time>
      </trkpt>
      <trkpt lat="47.32785" lon="-2.28679">
        <ele>10</ele>
        <time>2021-09-19T08:20:29.000Z</time>
      </trkpt>
      <trkpt lat="47.3278" lon="-2.28662">
        <ele>10</ele>
        <time>2021-09-19T08:20:31.000Z</time>
      </trkpt>
      <trkpt lat="47.32772" lon="-2.28646">
        <ele>10</ele>
        <time>2021-09-19T08:20:33.000Z</time>
      </trkpt>
      <trkpt lat="47.3276" lon="-2.28624">
        <ele>10</ele>
        <time>2021-09-19T08:20:36.000Z</time>
      </trkpt>
      <trkpt lat="47.3273" lon="-2.28559">
        <ele>10</ele>
        <time>2021-09-19T08:20:44.000Z</time>
      </trkpt>
      <trkpt lat="47.32724" lon="-2.2851">
        <ele>10</ele>
        <time>2021-09-19T08:20:49.000Z</time>
      </trkpt>
      <trkpt lat="47.32718" lon="-2.28444">
        <ele>10</ele>
        <time>2021-09-19T08:20:56.000Z</time>
      </trkpt>
      <trkpt lat="47.32711" lon="-2.28373">
        <ele>10</ele>
        <time>2021-09-19T08:21:03.000Z</time>
      </trkpt>
      <trkpt lat="47.3271" lon="-2.28363">
        <ele>9.6000003814697</ele>
        <time>2021-09-19T08:21:04.000Z</time>
      </trkpt>
      <trkpt lat="47.32709" lon="-2.28353">
        <ele>8.8000001907349</ele>
        <time>2021-09-19T08:21:05.000Z</time>
      </trkpt>
      <trkpt lat="47.32708" lon="-2.28344">
        <ele>8.3999996185303</ele>
        <time>2021-09-19T08:21:06.000Z</time>
      </trkpt>
      <trkpt lat="47.32707" lon="-2.28334">
        <ele>8</ele>
        <time>2021-09-19T08:21:07.000Z</time>
      </trkpt>
      <trkpt lat="47.32705" lon="-2.28308">
        <ele>8</ele>
        <time>2021-09-19T08:21:10.000Z</time>
      </trkpt>
      <trkpt lat="47.32711" lon="-2.28293">
        <ele>8</ele>
        <time>2021-09-19T08:21:13.000Z</time>
      </trkpt>
      <trkpt lat="47.32715" lon="-2.28287">
        <ele>8</ele>
        <time>2021-09-19T08:21:14.000Z</time>
      </trkpt>
      <trkpt lat="47.32729" lon="-2.28267">
        <ele>8</ele>
        <time>2021-09-19T08:21:18.000Z</time>
      </trkpt>
      <trkpt lat="47.32754" lon="-2.28234">
        <ele>8</ele>
        <time>2021-09-19T08:21:25.000Z</time>
      </trkpt>
      <trkpt lat="47.32759" lon="-2.28226">
        <ele>7.4000000953674</ele>
        <time>2021-09-19T08:21:27.000Z</time>
      </trkpt>
      <trkpt lat="47.3276" lon="-2.28223">
        <ele>7</ele>
        <time>2021-09-19T08:21:28.000Z</time>
      </trkpt>
      <trkpt lat="47.32761" lon="-2.28221">
        <ele>6.1999998092651</ele>
        <time>2021-09-19T08:21:29.000Z</time>
      </trkpt>
      <trkpt lat="47.32761" lon="-2.28218">
        <ele>5.8000001907349</ele>
        <time>2021-09-19T08:21:30.000Z</time>
      </trkpt>
      <trkpt lat="47.32764" lon="-2.28207">
        <ele>5.8000001907349</ele>
        <time>2021-09-19T08:21:34.000Z</time>
      </trkpt>
      <trkpt lat="47.32766" lon="-2.28208">
        <ele>5.8000001907349</ele>
        <time>2021-09-19T08:21:35.000Z</time>
      </trkpt>
      <trkpt lat="47.32768" lon="-2.28212">
        <ele>5.8000001907349</ele>
        <time>2021-09-19T08:21:38.000Z</time>
      </trkpt>
      <trkpt lat="47.32763" lon="-2.28226">
        <ele>5.8000001907349</ele>
        <time>2021-09-19T08:21:43.000Z</time>
      </trkpt>
      <trkpt lat="47.32758" lon="-2.28233">
        <ele>5.8000001907349</ele>
        <time>2021-09-19T08:21:45.000Z</time>
      </trkpt>
      <trkpt lat="47.32749" lon="-2.28246">
        <ele>5.8000001907349</ele>
        <time>2021-09-19T08:21:49.000Z</time>
      </trkpt>
      <trkpt lat="47.3273" lon="-2.28273">
        <ele>5.8000001907349</ele>
        <time>2021-09-19T08:21:58.000Z</time>
      </trkpt>
      <trkpt lat="47.3272" lon="-2.28285">
        <ele>5.8000001907349</ele>
        <time>2021-09-19T08:22:04.000Z</time>
      </trkpt>
      <trkpt lat="47.32708" lon="-2.28301">
        <ele>5.8000001907349</ele>
        <time>2021-09-19T08:22:09.000Z</time>
      </trkpt>
      <trkpt lat="47.32704" lon="-2.28302">
        <ele>5.8000001907349</ele>
        <time>2021-09-19T08:22:10.000Z</time>
      </trkpt>
      <trkpt lat="47.32698" lon="-2.28298">
        <ele>5.8000001907349</ele>
        <time>2021-09-19T08:22:12.000Z</time>
      </trkpt>
      <trkpt lat="47.32693" lon="-2.28291">
        <ele>5.8000001907349</ele>
        <time>2021-09-19T08:22:14.000Z</time>
      </trkpt>
      <trkpt lat="47.32684" lon="-2.28279">
        <ele>5.8000001907349</ele>
        <time>2021-09-19T08:22:17.000Z</time>
      </trkpt>
      <trkpt lat="47.32668" lon="-2.28255">
        <ele>5.8000001907349</ele>
        <time>2021-09-19T08:22:24.000Z</time>
      </trkpt>
      <trkpt lat="47.3266" lon="-2.28245">
        <ele>5.8000001907349</ele>
        <time>2021-09-19T08:22:30.000Z</time>
      </trkpt>
      <trkpt lat="47.32657" lon="-2.28242">
        <ele>5.8000001907349</ele>
        <time>2021-09-19T08:22:34.000Z</time>
      </trkpt>
      <trkpt lat="47.32648" lon="-2.28242">
        <ele>5.8000001907349</ele>
        <time>2021-09-19T08:22:53.000Z</time>
      </trkpt>
      <trkpt lat="47.32647" lon="-2.28244">
        <ele>5.8000001907349</ele>
        <time>2021-09-19T08:22:54.000Z</time>
      </trkpt>
      <trkpt lat="47.32643" lon="-2.28258">
        <ele>5.8000001907349</ele>
        <time>2021-09-19T08:22:59.000Z</time>
      </trkpt>
      <trkpt lat="47.32632" lon="-2.28267">
        <ele>5.8000001907349</ele>
        <time>2021-09-19T08:23:04.000Z</time>
      </trkpt>
      <trkpt lat="47.32628" lon="-2.28264">
        <ele>5.8000001907349</ele>
        <time>2021-09-19T08:23:05.000Z</time>
      </trkpt>
      <trkpt lat="47.32622" lon="-2.28256">
        <ele>5.8000001907349</ele>
        <time>2021-09-19T08:23:07.000Z</time>
      </trkpt>
      <trkpt lat="47.32614" lon="-2.28221">
        <ele>5.8000001907349</ele>
        <time>2021-09-19T08:23:12.000Z</time>
      </trkpt>
      <trkpt lat="47.32611" lon="-2.28196">
        <ele>5.8000001907349</ele>
        <time>2021-09-19T08:23:15.000Z</time>
      </trkpt>
      <trkpt lat="47.32608" lon="-2.2818">
        <ele>5.8000001907349</ele>
        <time>2021-09-19T08:23:17.000Z</time>
      </trkpt>
      <trkpt lat="47.32606" lon="-2.28172">
        <ele>5.8000001907349</ele>
        <time>2021-09-19T08:23:18.000Z</time>
      </trkpt>
      <trkpt lat="47.32598" lon="-2.28143">
        <ele>5.8000001907349</ele>
        <time>2021-09-19T08:23:22.000Z</time>
      </trkpt>
      <trkpt lat="47.32585" lon="-2.2809">
        <ele>5.8000001907349</ele>
        <time>2021-09-19T08:23:29.000Z</time>
      </trkpt>
      <trkpt lat="47.32574" lon="-2.28038">
        <ele>5.8000001907349</ele>
        <time>2021-09-19T08:23:36.000Z</time>
      </trkpt>
      <trkpt lat="47.32566" lon="-2.28">
        <ele>5.8000001907349</ele>
        <time>2021-09-19T08:23:41.000Z</time>
      </trkpt>
      <trkpt lat="47.32565" lon="-2.27993">
        <ele>5.8000001907349</ele>
        <time>2021-09-19T08:23:42.000Z</time>
      </trkpt>
      <trkpt lat="47.32563" lon="-2.27985">
        <ele>5.8000001907349</ele>
        <time>2021-09-19T08:23:43.000Z</time>
      </trkpt>
      <trkpt lat="47.32557" lon="-2.27954">
        <ele>5.8000001907349</ele>
        <time>2021-09-19T08:23:47.000Z</time>
      </trkpt>
      <trkpt lat="47.32551" lon="-2.27925">
        <ele>5.8000001907349</ele>
        <time>2021-09-19T08:23:51.000Z</time>
      </trkpt>
      <trkpt lat="47.32547" lon="-2.27902">
        <ele>5.8000001907349</ele>
        <time>2021-09-19T08:23:54.000Z</time>
      </trkpt>
      <trkpt lat="47.32545" lon="-2.27887">
        <ele>5.8000001907349</ele>
        <time>2021-09-19T08:23:56.000Z</time>
      </trkpt>
      <trkpt lat="47.32534" lon="-2.27843">
        <ele>5.8000001907349</ele>
        <time>2021-09-19T08:24:02.000Z</time>
      </trkpt>
      <trkpt lat="47.32532" lon="-2.27838">
        <ele>5.8000001907349</ele>
        <time>2021-09-19T08:24:03.000Z</time>
      </trkpt>
      <trkpt lat="47.32522" lon="-2.27819">
        <ele>5.8000001907349</ele>
        <time>2021-09-19T08:24:06.000Z</time>
      </trkpt>
      <trkpt lat="47.32512" lon="-2.27802">
        <ele>5.8000001907349</ele>
        <time>2021-09-19T08:24:09.000Z</time>
      </trkpt>
      <trkpt lat="47.32505" lon="-2.27792">
        <ele>5.8000001907349</ele>
        <time>2021-09-19T08:24:11.000Z</time>
      </trkpt>
      <trkpt lat="47.32498" lon="-2.27781">
        <ele>5.8000001907349</ele>
        <time>2021-09-19T08:24:13.000Z</time>
      </trkpt>
      <trkpt lat="47.32484" lon="-2.27763">
        <ele>5.8000001907349</ele>
        <time>2021-09-19T08:24:17.000Z</time>
      </trkpt>
      <trkpt lat="47.32473" lon="-2.27755">
        <ele>5.8000001907349</ele>
        <time>2021-09-19T08:24:20.000Z</time>
      </trkpt>
      <trkpt lat="47.32466" lon="-2.2776">
        <ele>5.8000001907349</ele>
        <time>2021-09-19T08:24:22.000Z</time>
      </trkpt>
      <trkpt lat="47.32458" lon="-2.2777">
        <ele>5.8000001907349</ele>
        <time>2021-09-19T08:24:25.000Z</time>
      </trkpt>
      <trkpt lat="47.32452" lon="-2.27776">
        <ele>5.8000001907349</ele>
        <time>2021-09-19T08:24:27.000Z</time>
      </trkpt>
      <trkpt lat="47.32444" lon="-2.2778">
        <ele>5.8000001907349</ele>
        <time>2021-09-19T08:24:32.000Z</time>
      </trkpt>
      <trkpt lat="47.32436" lon="-2.27772">
        <ele>5.8000001907349</ele>
        <time>2021-09-19T08:24:38.000Z</time>
      </trkpt>
      <trkpt lat="47.32435" lon="-2.2777">
        <ele>5.8000001907349</ele>
        <time>2021-09-19T08:24:40.000Z</time>
      </trkpt>
      <trkpt lat="47.32435" lon="-2.27763">
        <ele>3.7999999523163</ele>
        <time>2021-09-19T08:27:20.000Z</time>
      </trkpt>
      <trkpt lat="47.32436" lon="-2.2776">
        <ele>3.7999999523163</ele>
        <time>2021-09-19T08:27:21.000Z</time>
      </trkpt>
      <trkpt lat="47.32436" lon="-2.27736">
        <ele>3.7999999523163</ele>
        <time>2021-09-19T08:27:27.000Z</time>
      </trkpt>
      <trkpt lat="47.32434" lon="-2.27706">
        <ele>3.7999999523163</ele>
        <time>2021-09-19T08:27:33.000Z</time>
      </trkpt>
      <trkpt lat="47.32433" lon="-2.27672">
        <ele>3.7999999523163</ele>
        <time>2021-09-19T08:27:39.000Z</time>
      </trkpt>
      <trkpt lat="47.32433" lon="-2.27666">
        <ele>3.7999999523163</ele>
        <time>2021-09-19T08:27:40.000Z</time>
      </trkpt>
      <trkpt lat="47.32431" lon="-2.27647">
        <ele>3.7999999523163</ele>
        <time>2021-09-19T08:27:43.000Z</time>
      </trkpt>
      <trkpt lat="47.32425" lon="-2.27631">
        <ele>3.7999999523163</ele>
        <time>2021-09-19T08:27:46.000Z</time>
      </trkpt>
      <trkpt lat="47.32423" lon="-2.27625">
        <ele>3.7999999523163</ele>
        <time>2021-09-19T08:27:47.000Z</time>
      </trkpt>
      <trkpt lat="47.32414" lon="-2.27598">
        <ele>3.7999999523163</ele>
        <time>2021-09-19T08:27:52.000Z</time>
      </trkpt>
      <trkpt lat="47.32407" lon="-2.27575">
        <ele>3.7999999523163</ele>
        <time>2021-09-19T08:27:56.000Z</time>
      </trkpt>
      <trkpt lat="47.32407" lon="-2.27562">
        <ele>3.7999999523163</ele>
        <time>2021-09-19T08:27:58.000Z</time>
      </trkpt>
      <trkpt lat="47.32416" lon="-2.27549">
        <ele>3.7999999523163</ele>
        <time>2021-09-19T08:28:01.000Z</time>
      </trkpt>
      <trkpt lat="47.32431" lon="-2.27549">
        <ele>3.7999999523163</ele>
        <time>2021-09-19T08:28:05.000Z</time>
      </trkpt>
      <trkpt lat="47.32445" lon="-2.27558">
        <ele>3.7999999523163</ele>
        <time>2021-09-19T08:28:08.000Z</time>
      </trkpt>
      <trkpt lat="47.3245" lon="-2.27561">
        <ele>3.7999999523163</ele>
        <time>2021-09-19T08:28:09.000Z</time>
      </trkpt>
      <trkpt lat="47.32463" lon="-2.27571">
        <ele>3.7999999523163</ele>
        <time>2021-09-19T08:28:12.000Z</time>
      </trkpt>
      <trkpt lat="47.32472" lon="-2.27576">
        <ele>3.7999999523163</ele>
        <time>2021-09-19T08:28:14.000Z</time>
      </trkpt>
      <trkpt lat="47.32485" lon="-2.27579">
        <ele>3.7999999523163</ele>
        <time>2021-09-19T08:28:17.000Z</time>
      </trkpt>
      <trkpt lat="47.3249" lon="-2.27578">
        <ele>3.7999999523163</ele>
        <time>2021-09-19T08:28:18.000Z</time>
      </trkpt>
      <trkpt lat="47.32498" lon="-2.27575">
        <ele>3.7999999523163</ele>
        <time>2021-09-19T08:28:20.000Z</time>
      </trkpt>
      <trkpt lat="47.3251" lon="-2.27563">
        <ele>3.7999999523163</ele>
        <time>2021-09-19T08:28:23.000Z</time>
      </trkpt>
      <trkpt lat="47.32545" lon="-2.27529">
        <ele>3.7999999523163</ele>
        <time>2021-09-19T08:28:31.000Z</time>
      </trkpt>
      <trkpt lat="47.3257" lon="-2.275">
        <ele>3.7999999523163</ele>
        <time>2021-09-19T08:28:37.000Z</time>
      </trkpt>
      <trkpt lat="47.32573" lon="-2.27493">
        <ele>3.7999999523163</ele>
        <time>2021-09-19T08:28:38.000Z</time>
      </trkpt>
      <trkpt lat="47.32579" lon="-2.27471">
        <ele>3.7999999523163</ele>
        <time>2021-09-19T08:28:42.000Z</time>
      </trkpt>
      <trkpt lat="47.32579" lon="-2.27464">
        <ele>3.7999999523163</ele>
        <time>2021-09-19T08:28:43.000Z</time>
      </trkpt>
      <trkpt lat="47.32581" lon="-2.27442">
        <ele>3.7999999523163</ele>
        <time>2021-09-19T08:28:46.000Z</time>
      </trkpt>
      <trkpt lat="47.32582" lon="-2.27421">
        <ele>3.7999999523163</ele>
        <time>2021-09-19T08:28:49.000Z</time>
      </trkpt>
      <trkpt lat="47.32582" lon="-2.27399">
        <ele>3.7999999523163</ele>
        <time>2021-09-19T08:28:52.000Z</time>
      </trkpt>
      <trkpt lat="47.32584" lon="-2.27354">
        <ele>3.7999999523163</ele>
        <time>2021-09-19T08:28:58.000Z</time>
      </trkpt>
      <trkpt lat="47.32587" lon="-2.2734">
        <ele>3.7999999523163</ele>
        <time>2021-09-19T08:29:00.000Z</time>
      </trkpt>
      <trkpt lat="47.3259" lon="-2.2732">
        <ele>3.7999999523163</ele>
        <time>2021-09-19T08:29:03.000Z</time>
      </trkpt>
      <trkpt lat="47.32591" lon="-2.27306">
        <ele>3.7999999523163</ele>
        <time>2021-09-19T08:29:05.000Z</time>
      </trkpt>
      <trkpt lat="47.32594" lon="-2.27285">
        <ele>3.7999999523163</ele>
        <time>2021-09-19T08:29:08.000Z</time>
      </trkpt>
      <trkpt lat="47.32595" lon="-2.27279">
        <ele>3.7999999523163</ele>
        <time>2021-09-19T08:29:09.000Z</time>
      </trkpt>
      <trkpt lat="47.32597" lon="-2.27248">
        <ele>3.7999999523163</ele>
        <time>2021-09-19T08:29:15.000Z</time>
      </trkpt>
      <trkpt lat="47.32598" lon="-2.27226">
        <ele>3.7999999523163</ele>
        <time>2021-09-19T08:29:22.000Z</time>
      </trkpt>
      <trkpt lat="47.326" lon="-2.27212">
        <ele>3.7999999523163</ele>
        <time>2021-09-19T08:29:27.000Z</time>
      </trkpt>
      <trkpt lat="47.32597" lon="-2.27187">
        <ele>3.7999999523163</ele>
        <time>2021-09-19T08:29:32.000Z</time>
      </trkpt>
      <trkpt lat="47.32595" lon="-2.27156">
        <ele>3.7999999523163</ele>
        <time>2021-09-19T08:29:37.000Z</time>
      </trkpt>
      <trkpt lat="47.32599" lon="-2.27128">
        <ele>3.7999999523163</ele>
        <time>2021-09-19T08:29:41.000Z</time>
      </trkpt>
      <trkpt lat="47.32601" lon="-2.27122">
        <ele>3.7999999523163</ele>
        <time>2021-09-19T08:29:42.000Z</time>
      </trkpt>
      <trkpt lat="47.32615" lon="-2.27084">
        <ele>3.7999999523163</ele>
        <time>2021-09-19T08:29:49.000Z</time>
      </trkpt>
      <trkpt lat="47.32616" lon="-2.27077">
        <ele>3.7999999523163</ele>
        <time>2021-09-19T08:29:50.000Z</time>
      </trkpt>
      <trkpt lat="47.32616" lon="-2.27062">
        <ele>3.7999999523163</ele>
        <time>2021-09-19T08:29:52.000Z</time>
      </trkpt>
      <trkpt lat="47.32614" lon="-2.27055">
        <ele>3.7999999523163</ele>
        <time>2021-09-19T08:29:53.000Z</time>
      </trkpt>
      <trkpt lat="47.32606" lon="-2.27037">
        <ele>3.7999999523163</ele>
        <time>2021-09-19T08:29:56.000Z</time>
      </trkpt>
      <trkpt lat="47.32599" lon="-2.27027">
        <ele>3.7999999523163</ele>
        <time>2021-09-19T08:29:58.000Z</time>
      </trkpt>
      <trkpt lat="47.32582" lon="-2.27">
        <ele>3.7999999523163</ele>
        <time>2021-09-19T08:30:03.000Z</time>
      </trkpt>
      <trkpt lat="47.32575" lon="-2.26987">
        <ele>3.7999999523163</ele>
        <time>2021-09-19T08:30:05.000Z</time>
      </trkpt>
      <trkpt lat="47.32551" lon="-2.26938">
        <ele>3.7999999523163</ele>
        <time>2021-09-19T08:30:13.000Z</time>
      </trkpt>
      <trkpt lat="47.32544" lon="-2.26926">
        <ele>3.7999999523163</ele>
        <time>2021-09-19T08:30:15.000Z</time>
      </trkpt>
      <trkpt lat="47.32532" lon="-2.26902">
        <ele>3.7999999523163</ele>
        <time>2021-09-19T08:30:19.000Z</time>
      </trkpt>
      <trkpt lat="47.32529" lon="-2.26896">
        <ele>3.7999999523163</ele>
        <time>2021-09-19T08:30:20.000Z</time>
      </trkpt>
      <trkpt lat="47.32521" lon="-2.26869">
        <ele>3.7999999523163</ele>
        <time>2021-09-19T08:30:24.000Z</time>
      </trkpt>
      <trkpt lat="47.32518" lon="-2.26855">
        <ele>3.7999999523163</ele>
        <time>2021-09-19T08:30:26.000Z</time>
      </trkpt>
      <trkpt lat="47.32516" lon="-2.26833">
        <ele>3.7999999523163</ele>
        <time>2021-09-19T08:30:29.000Z</time>
      </trkpt>
      <trkpt lat="47.32518" lon="-2.26806">
        <ele>3.7999999523163</ele>
        <time>2021-09-19T08:30:33.000Z</time>
      </trkpt>
      <trkpt lat="47.32518" lon="-2.26798">
        <ele>3.7999999523163</ele>
        <time>2021-09-19T08:30:34.000Z</time>
      </trkpt>
      <trkpt lat="47.32522" lon="-2.26761">
        <ele>3.7999999523163</ele>
        <time>2021-09-19T08:30:39.000Z</time>
      </trkpt>
      <trkpt lat="47.32533" lon="-2.26716">
        <ele>3.7999999523163</ele>
        <time>2021-09-19T08:30:45.000Z</time>
      </trkpt>
      <trkpt lat="47.32541" lon="-2.26679">
        <ele>3.7999999523163</ele>
        <time>2021-09-19T08:30:50.000Z</time>
      </trkpt>
      <trkpt lat="47.32545" lon="-2.26665">
        <ele>3.7999999523163</ele>
        <time>2021-09-19T08:30:52.000Z</time>
      </trkpt>
      <trkpt lat="47.32553" lon="-2.26643">
        <ele>3.7999999523163</ele>
        <time>2021-09-19T08:30:55.000Z</time>
      </trkpt>
      <trkpt lat="47.32558" lon="-2.2663">
        <ele>3.7999999523163</ele>
        <time>2021-09-19T08:30:57.000Z</time>
      </trkpt>
      <trkpt lat="47.32568" lon="-2.26603">
        <ele>3.7999999523163</ele>
        <time>2021-09-19T08:31:01.000Z</time>
      </trkpt>
      <trkpt lat="47.32571" lon="-2.26591">
        <ele>3.7999999523163</ele>
        <time>2021-09-19T08:31:03.000Z</time>
      </trkpt>
      <trkpt lat="47.32581" lon="-2.26557">
        <ele>3.7999999523163</ele>
        <time>2021-09-19T08:31:09.000Z</time>
      </trkpt>
      <trkpt lat="47.32593" lon="-2.26528">
        <ele>3.7999999523163</ele>
        <time>2021-09-19T08:31:14.000Z</time>
      </trkpt>
      <trkpt lat="47.32601" lon="-2.26504">
        <ele>3.7999999523163</ele>
        <time>2021-09-19T08:31:18.000Z</time>
      </trkpt>
      <trkpt lat="47.32604" lon="-2.26498">
        <ele>3.7999999523163</ele>
        <time>2021-09-19T08:31:19.000Z</time>
      </trkpt>
      <trkpt lat="47.3262" lon="-2.26461">
        <ele>3.7999999523163</ele>
        <time>2021-09-19T08:31:26.000Z</time>
      </trkpt>
      <trkpt lat="47.32627" lon="-2.26442">
        <ele>3.7999999523163</ele>
        <time>2021-09-19T08:31:30.000Z</time>
      </trkpt>
      <trkpt lat="47.32627" lon="-2.2644">
        <ele>3.7999999523163</ele>
        <time>2021-09-19T08:31:31.000Z</time>
      </trkpt>
      <trkpt lat="47.32622" lon="-2.26437">
        <ele>3.7999999523163</ele>
        <time>2021-09-19T08:31:36.000Z</time>
      </trkpt>
      <trkpt lat="47.32618" lon="-2.26436">
        <ele>3.7999999523163</ele>
        <time>2021-09-19T08:31:52.000Z</time>
      </trkpt>
      <trkpt lat="47.32613" lon="-2.26436">
        <ele>3.7999999523163</ele>
        <time>2021-09-19T08:31:54.000Z</time>
      </trkpt>
      <trkpt lat="47.32603" lon="-2.2644">
        <ele>3.7999999523163</ele>
        <time>2021-09-19T08:31:58.000Z</time>
      </trkpt>
      <trkpt lat="47.32577" lon="-2.26448">
        <ele>3.7999999523163</ele>
        <time>2021-09-19T08:32:05.000Z</time>
      </trkpt>
      <trkpt lat="47.32553" lon="-2.26458">
        <ele>3.7999999523163</ele>
        <time>2021-09-19T08:32:11.000Z</time>
      </trkpt>
      <trkpt lat="47.32533" lon="-2.26467">
        <ele>3.7999999523163</ele>
        <time>2021-09-19T08:32:15.000Z</time>
      </trkpt>
      <trkpt lat="47.32523" lon="-2.26472">
        <ele>3.7999999523163</ele>
        <time>2021-09-19T08:32:17.000Z</time>
      </trkpt>
      <trkpt lat="47.32498" lon="-2.26485">
        <ele>3.7999999523163</ele>
        <time>2021-09-19T08:32:22.000Z</time>
      </trkpt>
      <trkpt lat="47.3246" lon="-2.26502">
        <ele>3.7999999523163</ele>
        <time>2021-09-19T08:32:29.000Z</time>
      </trkpt>
      <trkpt lat="47.32448" lon="-2.26508">
        <ele>3.7999999523163</ele>
        <time>2021-09-19T08:32:31.000Z</time>
      </trkpt>
      <trkpt lat="47.32431" lon="-2.26516">
        <ele>3.7999999523163</ele>
        <time>2021-09-19T08:32:34.000Z</time>
      </trkpt>
      <trkpt lat="47.32391" lon="-2.2653">
        <ele>3.7999999523163</ele>
        <time>2021-09-19T08:32:41.000Z</time>
      </trkpt>
      <trkpt lat="47.32357" lon="-2.26534">
        <ele>3.7999999523163</ele>
        <time>2021-09-19T08:32:47.000Z</time>
      </trkpt>
      <trkpt lat="47.32329" lon="-2.26552">
        <ele>3.7999999523163</ele>
        <time>2021-09-19T08:32:53.000Z</time>
      </trkpt>
      <trkpt lat="47.32303" lon="-2.26584">
        <ele>3.7999999523163</ele>
        <time>2021-09-19T08:32:59.000Z</time>
      </trkpt>
      <trkpt lat="47.32299" lon="-2.2659">
        <ele>4.1999998092651</ele>
        <time>2021-09-19T08:33:00.000Z</time>
      </trkpt>
      <trkpt lat="47.32295" lon="-2.26595">
        <ele>4.5999999046326</ele>
        <time>2021-09-19T08:33:01.000Z</time>
      </trkpt>
      <trkpt lat="47.3229" lon="-2.266">
        <ele>5.4000000953674</ele>
        <time>2021-09-19T08:33:02.000Z</time>
      </trkpt>
      <trkpt lat="47.32284" lon="-2.26604">
        <ele>5.8000001907349</ele>
        <time>2021-09-19T08:33:03.000Z</time>
      </trkpt>
      <trkpt lat="47.32278" lon="-2.26607">
        <ele>5.8000001907349</ele>
        <time>2021-09-19T08:33:04.000Z</time>
      </trkpt>
      <trkpt lat="47.3226" lon="-2.2661">
        <ele>5.8000001907349</ele>
        <time>2021-09-19T08:33:07.000Z</time>
      </trkpt>
      <trkpt lat="47.32249" lon="-2.26611">
        <ele>5.8000001907349</ele>
        <time>2021-09-19T08:33:09.000Z</time>
      </trkpt>
      <trkpt lat="47.32214" lon="-2.26611">
        <ele>5.8000001907349</ele>
        <time>2021-09-19T08:33:15.000Z</time>
      </trkpt>
      <trkpt lat="47.32172" lon="-2.26612">
        <ele>6.4000000953674</ele>
        <time>2021-09-19T08:33:22.000Z</time>
      </trkpt>
      <trkpt lat="47.32166" lon="-2.26611">
        <ele>6.8000001907349</ele>
        <time>2021-09-19T08:33:23.000Z</time>
      </trkpt>
      <trkpt lat="47.3216" lon="-2.2661">
        <ele>7.1999998092651</ele>
        <time>2021-09-19T08:33:24.000Z</time>
      </trkpt>
      <trkpt lat="47.32155" lon="-2.26609">
        <ele>7.5999999046326</ele>
        <time>2021-09-19T08:33:25.000Z</time>
      </trkpt>
      <trkpt lat="47.32149" lon="-2.26607">
        <ele>8</ele>
        <time>2021-09-19T08:33:26.000Z</time>
      </trkpt>
      <trkpt lat="47.32137" lon="-2.26604">
        <ele>8</ele>
        <time>2021-09-19T08:33:28.000Z</time>
      </trkpt>
      <trkpt lat="47.32091" lon="-2.26586">
        <ele>8</ele>
        <time>2021-09-19T08:33:36.000Z</time>
      </trkpt>
      <trkpt lat="47.32073" lon="-2.26587">
        <ele>8</ele>
        <time>2021-09-19T08:33:39.000Z</time>
      </trkpt>
      <trkpt lat="47.3206" lon="-2.26591">
        <ele>8</ele>
        <time>2021-09-19T08:33:41.000Z</time>
      </trkpt>
      <trkpt lat="47.32018" lon="-2.26614">
        <ele>8</ele>
        <time>2021-09-19T08:33:48.000Z</time>
      </trkpt>
      <trkpt lat="47.31979" lon="-2.26642">
        <ele>8</ele>
        <time>2021-09-19T08:33:55.000Z</time>
      </trkpt>
      <trkpt lat="47.31948" lon="-2.26665">
        <ele>8.3999996185303</ele>
        <time>2021-09-19T08:34:01.000Z</time>
      </trkpt>
      <trkpt lat="47.31943" lon="-2.26668">
        <ele>8.8000001907349</ele>
        <time>2021-09-19T08:34:02.000Z</time>
      </trkpt>
      <trkpt lat="47.31938" lon="-2.26673">
        <ele>9.3999996185303</ele>
        <time>2021-09-19T08:34:03.000Z</time>
      </trkpt>
      <trkpt lat="47.31933" lon="-2.26677">
        <ele>9.8000001907349</ele>
        <time>2021-09-19T08:34:04.000Z</time>
      </trkpt>
      <trkpt lat="47.31928" lon="-2.26681">
        <ele>10.199999809265</ele>
        <time>2021-09-19T08:34:05.000Z</time>
      </trkpt>
      <trkpt lat="47.31914" lon="-2.26693">
        <ele>10.199999809265</ele>
        <time>2021-09-19T08:34:08.000Z</time>
      </trkpt>
      <trkpt lat="47.31891" lon="-2.26712">
        <ele>10.199999809265</ele>
        <time>2021-09-19T08:34:13.000Z</time>
      </trkpt>
      <trkpt lat="47.31887" lon="-2.26716">
        <ele>10.199999809265</ele>
        <time>2021-09-19T08:34:14.000Z</time>
      </trkpt>
      <trkpt lat="47.31859" lon="-2.26738">
        <ele>10.199999809265</ele>
        <time>2021-09-19T08:34:21.000Z</time>
      </trkpt>
      <trkpt lat="47.31851" lon="-2.26743">
        <ele>10.199999809265</ele>
        <time>2021-09-19T08:34:23.000Z</time>
      </trkpt>
      <trkpt lat="47.31838" lon="-2.26743">
        <ele>10.199999809265</ele>
        <time>2021-09-19T08:34:26.000Z</time>
      </trkpt>
      <trkpt lat="47.31832" lon="-2.2674">
        <ele>10.199999809265</ele>
        <time>2021-09-19T08:34:28.000Z</time>
      </trkpt>
      <trkpt lat="47.3183" lon="-2.26739">
        <ele>10.199999809265</ele>
        <time>2021-09-19T08:34:30.000Z</time>
      </trkpt>
      <trkpt lat="47.31825" lon="-2.26734">
        <ele>10.199999809265</ele>
        <time>2021-09-19T08:34:34.000Z</time>
      </trkpt>
      <trkpt lat="47.31823" lon="-2.26729">
        <ele>10.199999809265</ele>
        <time>2021-09-19T08:34:37.000Z</time>
      </trkpt>
      <trkpt lat="47.31816" lon="-2.26714">
        <ele>10.199999809265</ele>
        <time>2021-09-19T08:34:42.000Z</time>
      </trkpt>
      <trkpt lat="47.318" lon="-2.26696">
        <ele>10.199999809265</ele>
        <time>2021-09-19T08:34:47.000Z</time>
      </trkpt>
      <trkpt lat="47.31785" lon="-2.267">
        <ele>10.199999809265</ele>
        <time>2021-09-19T08:34:50.000Z</time>
      </trkpt>
      <trkpt lat="47.31766" lon="-2.26706">
        <ele>10.199999809265</ele>
        <time>2021-09-19T08:34:53.000Z</time>
      </trkpt>
      <trkpt lat="47.31754" lon="-2.26711">
        <ele>10.199999809265</ele>
        <time>2021-09-19T08:34:55.000Z</time>
      </trkpt>
      <trkpt lat="47.31721" lon="-2.2672">
        <ele>9.8000001907349</ele>
        <time>2021-09-19T08:35:00.000Z</time>
      </trkpt>
      <trkpt lat="47.31714" lon="-2.26722">
        <ele>9.1999998092651</ele>
        <time>2021-09-19T08:35:01.000Z</time>
      </trkpt>
      <trkpt lat="47.31707" lon="-2.26724">
        <ele>8.8000001907349</ele>
        <time>2021-09-19T08:35:02.000Z</time>
      </trkpt>
      <trkpt lat="47.31701" lon="-2.26726">
        <ele>8.3999996185303</ele>
        <time>2021-09-19T08:35:03.000Z</time>
      </trkpt>
      <trkpt lat="47.31694" lon="-2.26728">
        <ele>8</ele>
        <time>2021-09-19T08:35:04.000Z</time>
      </trkpt>
      <trkpt lat="47.31669" lon="-2.26732">
        <ele>8</ele>
        <time>2021-09-19T08:35:08.000Z</time>
      </trkpt>
      <trkpt lat="47.31647" lon="-2.2674">
        <ele>8</ele>
        <time>2021-09-19T08:35:12.000Z</time>
      </trkpt>
      <trkpt lat="47.31642" lon="-2.26743">
        <ele>8</ele>
        <time>2021-09-19T08:35:13.000Z</time>
      </trkpt>
      <trkpt lat="47.31621" lon="-2.26758">
        <ele>8</ele>
        <time>2021-09-19T08:35:17.000Z</time>
      </trkpt>
      <trkpt lat="47.31615" lon="-2.26759">
        <ele>8</ele>
        <time>2021-09-19T08:35:18.000Z</time>
      </trkpt>
      <trkpt lat="47.3159" lon="-2.26758">
        <ele>8</ele>
        <time>2021-09-19T08:35:22.000Z</time>
      </trkpt>
      <trkpt lat="47.31584" lon="-2.26757">
        <ele>7.5999999046326</ele>
        <time>2021-09-19T08:35:23.000Z</time>
      </trkpt>
      <trkpt lat="47.31578" lon="-2.26757">
        <ele>7.1999998092651</ele>
        <time>2021-09-19T08:35:24.000Z</time>
      </trkpt>
      <trkpt lat="47.31573" lon="-2.26759">
        <ele>6.8000001907349</ele>
        <time>2021-09-19T08:35:25.000Z</time>
      </trkpt>
      <trkpt lat="47.31567" lon="-2.26763">
        <ele>6.4000000953674</ele>
        <time>2021-09-19T08:35:26.000Z</time>
      </trkpt>
      <trkpt lat="47.31564" lon="-2.26769">
        <ele>6</ele>
        <time>2021-09-19T08:35:27.000Z</time>
      </trkpt>
      <trkpt lat="47.31557" lon="-2.26783">
        <ele>6</ele>
        <time>2021-09-19T08:35:29.000Z</time>
      </trkpt>
      <trkpt lat="47.31554" lon="-2.2679">
        <ele>6</ele>
        <time>2021-09-19T08:35:30.000Z</time>
      </trkpt>
      <trkpt lat="47.31542" lon="-2.26821">
        <ele>6</ele>
        <time>2021-09-19T08:35:35.000Z</time>
      </trkpt>
      <trkpt lat="47.31525" lon="-2.26863">
        <ele>6</ele>
        <time>2021-09-19T08:35:41.000Z</time>
      </trkpt>
      <trkpt lat="47.31521" lon="-2.26876">
        <ele>6</ele>
        <time>2021-09-19T08:35:43.000Z</time>
      </trkpt>
      <trkpt lat="47.31514" lon="-2.26895">
        <ele>6</ele>
        <time>2021-09-19T08:35:46.000Z</time>
      </trkpt>
      <trkpt lat="47.31498" lon="-2.26949">
        <ele>6</ele>
        <time>2021-09-19T08:35:53.000Z</time>
      </trkpt>
      <trkpt lat="47.31492" lon="-2.2697">
        <ele>6</ele>
        <time>2021-09-19T08:35:56.000Z</time>
      </trkpt>
      <trkpt lat="47.31481" lon="-2.26986">
        <ele>6</ele>
        <time>2021-09-19T08:35:59.000Z</time>
      </trkpt>
      <trkpt lat="47.31476" lon="-2.2699">
        <ele>6</ele>
        <time>2021-09-19T08:36:00.000Z</time>
      </trkpt>
      <trkpt lat="47.31439" lon="-2.27019">
        <ele>6</ele>
        <time>2021-09-19T08:36:07.000Z</time>
      </trkpt>
      <trkpt lat="47.31412" lon="-2.2704">
        <ele>6.4000000953674</ele>
        <time>2021-09-19T08:36:12.000Z</time>
      </trkpt>
      <trkpt lat="47.31407" lon="-2.27043">
        <ele>6.8000001907349</ele>
        <time>2021-09-19T08:36:13.000Z</time>
      </trkpt>
      <trkpt lat="47.31401" lon="-2.27047">
        <ele>7.1999998092651</ele>
        <time>2021-09-19T08:36:14.000Z</time>
      </trkpt>
      <trkpt lat="47.31396" lon="-2.27051">
        <ele>7.5999999046326</ele>
        <time>2021-09-19T08:36:15.000Z</time>
      </trkpt>
      <trkpt lat="47.3139" lon="-2.27054">
        <ele>8</ele>
        <time>2021-09-19T08:36:16.000Z</time>
      </trkpt>
      <trkpt lat="47.31373" lon="-2.27063">
        <ele>8</ele>
        <time>2021-09-19T08:36:19.000Z</time>
      </trkpt>
      <trkpt lat="47.31367" lon="-2.27066">
        <ele>8</ele>
        <time>2021-09-19T08:36:20.000Z</time>
      </trkpt>
      <trkpt lat="47.31325" lon="-2.27079">
        <ele>8.3999996185303</ele>
        <time>2021-09-19T08:36:27.000Z</time>
      </trkpt>
      <trkpt lat="47.31319" lon="-2.27081">
        <ele>8.8000001907349</ele>
        <time>2021-09-19T08:36:28.000Z</time>
      </trkpt>
      <trkpt lat="47.31313" lon="-2.27083">
        <ele>9.1999998092651</ele>
        <time>2021-09-19T08:36:29.000Z</time>
      </trkpt>
      <trkpt lat="47.31308" lon="-2.27085">
        <ele>9.6000003814697</ele>
        <time>2021-09-19T08:36:30.000Z</time>
      </trkpt>
      <trkpt lat="47.31302" lon="-2.27088">
        <ele>10</ele>
        <time>2021-09-19T08:36:31.000Z</time>
      </trkpt>
      <trkpt lat="47.31278" lon="-2.27101">
        <ele>10</ele>
        <time>2021-09-19T08:36:35.000Z</time>
      </trkpt>
      <trkpt lat="47.31235" lon="-2.27134">
        <ele>10</ele>
        <time>2021-09-19T08:36:43.000Z</time>
      </trkpt>
      <trkpt lat="47.31199" lon="-2.27166">
        <ele>10</ele>
        <time>2021-09-19T08:36:50.000Z</time>
      </trkpt>
      <trkpt lat="47.3117" lon="-2.27197">
        <ele>10</ele>
        <time>2021-09-19T08:36:56.000Z</time>
      </trkpt>
      <trkpt lat="47.31134" lon="-2.27228">
        <ele>10</ele>
        <time>2021-09-19T08:37:03.000Z</time>
      </trkpt>
      <trkpt lat="47.31098" lon="-2.27243">
        <ele>10</ele>
        <time>2021-09-19T08:37:09.000Z</time>
      </trkpt>
      <trkpt lat="47.31054" lon="-2.27255">
        <ele>10</ele>
        <time>2021-09-19T08:37:16.000Z</time>
      </trkpt>
      <trkpt lat="47.31042" lon="-2.27255">
        <ele>10</ele>
        <time>2021-09-19T08:37:18.000Z</time>
      </trkpt>
      <trkpt lat="47.31025" lon="-2.27251">
        <ele>10</ele>
        <time>2021-09-19T08:37:21.000Z</time>
      </trkpt>
      <trkpt lat="47.31011" lon="-2.27235">
        <ele>10</ele>
        <time>2021-09-19T08:37:24.000Z</time>
      </trkpt>
      <trkpt lat="47.31003" lon="-2.272">
        <ele>10</ele>
        <time>2021-09-19T08:37:28.000Z</time>
      </trkpt>
      <trkpt lat="47.31003" lon="-2.27191">
        <ele>10</ele>
        <time>2021-09-19T08:37:29.000Z</time>
      </trkpt>
      <trkpt lat="47.31" lon="-2.27138">
        <ele>10</ele>
        <time>2021-09-19T08:37:35.000Z</time>
      </trkpt>
      <trkpt lat="47.30997" lon="-2.27074">
        <ele>10</ele>
        <time>2021-09-19T08:37:42.000Z</time>
      </trkpt>
      <trkpt lat="47.30994" lon="-2.27008">
        <ele>10</ele>
        <time>2021-09-19T08:37:48.000Z</time>
      </trkpt>
      <trkpt lat="47.30991" lon="-2.26996">
        <ele>10</ele>
        <time>2021-09-19T08:37:49.000Z</time>
      </trkpt>
      <trkpt lat="47.30988" lon="-2.26984">
        <ele>9.6000003814697</ele>
        <time>2021-09-19T08:37:50.000Z</time>
      </trkpt>
      <trkpt lat="47.30984" lon="-2.26974">
        <ele>9</ele>
        <time>2021-09-19T08:37:51.000Z</time>
      </trkpt>
      <trkpt lat="47.30978" lon="-2.26966">
        <ele>8.6000003814697</ele>
        <time>2021-09-19T08:37:52.000Z</time>
      </trkpt>
      <trkpt lat="47.30971" lon="-2.2696">
        <ele>8</ele>
        <time>2021-09-19T08:37:53.000Z</time>
      </trkpt>
      <trkpt lat="47.30964" lon="-2.26955">
        <ele>7.5999999046326</ele>
        <time>2021-09-19T08:37:54.000Z</time>
      </trkpt>
      <trkpt lat="47.30957" lon="-2.26951">
        <ele>7.5999999046326</ele>
        <time>2021-09-19T08:37:55.000Z</time>
      </trkpt>
      <trkpt lat="47.30924" lon="-2.2693">
        <ele>7.5999999046326</ele>
        <time>2021-09-19T08:38:00.000Z</time>
      </trkpt>
      <trkpt lat="47.30912" lon="-2.26909">
        <ele>7.5999999046326</ele>
        <time>2021-09-19T08:38:03.000Z</time>
      </trkpt>
      <trkpt lat="47.30906" lon="-2.26877">
        <ele>7.5999999046326</ele>
        <time>2021-09-19T08:38:07.000Z</time>
      </trkpt>
      <trkpt lat="47.30906" lon="-2.26861">
        <ele>7.5999999046326</ele>
        <time>2021-09-19T08:38:09.000Z</time>
      </trkpt>
      <trkpt lat="47.30907" lon="-2.26852">
        <ele>7.1999998092651</ele>
        <time>2021-09-19T08:38:10.000Z</time>
      </trkpt>
      <trkpt lat="47.30908" lon="-2.26843">
        <ele>6.8000001907349</ele>
        <time>2021-09-19T08:38:11.000Z</time>
      </trkpt>
      <trkpt lat="47.3091" lon="-2.26833">
        <ele>6.4000000953674</ele>
        <time>2021-09-19T08:38:12.000Z</time>
      </trkpt>
      <trkpt lat="47.30912" lon="-2.26823">
        <ele>6</ele>
        <time>2021-09-19T08:38:13.000Z</time>
      </trkpt>
      <trkpt lat="47.30913" lon="-2.26813">
        <ele>5.4000000953674</ele>
        <time>2021-09-19T08:38:14.000Z</time>
      </trkpt>
      <trkpt lat="47.30922" lon="-2.26765">
        <ele>5.4000000953674</ele>
        <time>2021-09-19T08:38:19.000Z</time>
      </trkpt>
      <trkpt lat="47.30934" lon="-2.26697">
        <ele>5.4000000953674</ele>
        <time>2021-09-19T08:38:26.000Z</time>
      </trkpt>
      <trkpt lat="47.30947" lon="-2.26627">
        <ele>5.4000000953674</ele>
        <time>2021-09-19T08:38:33.000Z</time>
      </trkpt>
      <trkpt lat="47.30961" lon="-2.26554">
        <ele>5.4000000953674</ele>
        <time>2021-09-19T08:38:40.000Z</time>
      </trkpt>
      <trkpt lat="47.30975" lon="-2.26475">
        <ele>5.4000000953674</ele>
        <time>2021-09-19T08:38:48.000Z</time>
      </trkpt>
      <trkpt lat="47.30977" lon="-2.26466">
        <ele>5.4000000953674</ele>
        <time>2021-09-19T08:38:49.000Z</time>
      </trkpt>
      <trkpt lat="47.30991" lon="-2.26385">
        <ele>5.4000000953674</ele>
        <time>2021-09-19T08:38:57.000Z</time>
      </trkpt>
      <trkpt lat="47.31006" lon="-2.26319">
        <ele>5.4000000953674</ele>
        <time>2021-09-19T08:39:04.000Z</time>
      </trkpt>
      <trkpt lat="47.31016" lon="-2.26267">
        <ele>5.4000000953674</ele>
        <time>2021-09-19T08:39:10.000Z</time>
      </trkpt>
      <trkpt lat="47.31024" lon="-2.26207">
        <ele>5.4000000953674</ele>
        <time>2021-09-19T08:39:17.000Z</time>
      </trkpt>
      <trkpt lat="47.31032" lon="-2.26141">
        <ele>5.4000000953674</ele>
        <time>2021-09-19T08:39:25.000Z</time>
      </trkpt>
      <trkpt lat="47.31039" lon="-2.26088">
        <ele>5.4000000953674</ele>
        <time>2021-09-19T08:39:32.000Z</time>
      </trkpt>
      <trkpt lat="47.3104" lon="-2.26081">
        <ele>6</ele>
        <time>2021-09-19T08:39:33.000Z</time>
      </trkpt>
      <trkpt lat="47.31041" lon="-2.26073">
        <ele>6.4000000953674</ele>
        <time>2021-09-19T08:39:34.000Z</time>
      </trkpt>
      <trkpt lat="47.31042" lon="-2.26066">
        <ele>6.8000001907349</ele>
        <time>2021-09-19T08:39:35.000Z</time>
      </trkpt>
      <trkpt lat="47.31043" lon="-2.26058">
        <ele>7.1999998092651</ele>
        <time>2021-09-19T08:39:36.000Z</time>
      </trkpt>
      <trkpt lat="47.31045" lon="-2.26051">
        <ele>7.5999999046326</ele>
        <time>2021-09-19T08:39:37.000Z</time>
      </trkpt>
      <trkpt lat="47.31047" lon="-2.26044">
        <ele>7.5999999046326</ele>
        <time>2021-09-19T08:39:38.000Z</time>
      </trkpt>
      <trkpt lat="47.31053" lon="-2.2603">
        <ele>7.5999999046326</ele>
        <time>2021-09-19T08:39:40.000Z</time>
      </trkpt>
      <trkpt lat="47.31066" lon="-2.26014">
        <ele>7.5999999046326</ele>
        <time>2021-09-19T08:39:43.000Z</time>
      </trkpt>
      <trkpt lat="47.31071" lon="-2.26009">
        <ele>7.5999999046326</ele>
        <time>2021-09-19T08:39:44.000Z</time>
      </trkpt>
      <trkpt lat="47.31087" lon="-2.26001">
        <ele>7.5999999046326</ele>
        <time>2021-09-19T08:39:47.000Z</time>
      </trkpt>
      <trkpt lat="47.3111" lon="-2.26009">
        <ele>7.5999999046326</ele>
        <time>2021-09-19T08:39:51.000Z</time>
      </trkpt>
      <trkpt lat="47.31149" lon="-2.26033">
        <ele>7.5999999046326</ele>
        <time>2021-09-19T08:39:57.000Z</time>
      </trkpt>
      <trkpt lat="47.31186" lon="-2.26059">
        <ele>7.5999999046326</ele>
        <time>2021-09-19T08:40:03.000Z</time>
      </trkpt>
      <trkpt lat="47.31199" lon="-2.26053">
        <ele>7.1999998092651</ele>
        <time>2021-09-19T08:40:06.000Z</time>
      </trkpt>
      <trkpt lat="47.31204" lon="-2.2605">
        <ele>6.8000001907349</ele>
        <time>2021-09-19T08:40:07.000Z</time>
      </trkpt>
      <trkpt lat="47.31208" lon="-2.26047">
        <ele>6.4000000953674</ele>
        <time>2021-09-19T08:40:08.000Z</time>
      </trkpt>
      <trkpt lat="47.31212" lon="-2.26044">
        <ele>6</ele>
        <time>2021-09-19T08:40:09.000Z</time>
      </trkpt>
      <trkpt lat="47.31216" lon="-2.26041">
        <ele>5.5999999046326</ele>
        <time>2021-09-19T08:40:10.000Z</time>
      </trkpt>
      <trkpt lat="47.31228" lon="-2.26032">
        <ele>5.5999999046326</ele>
        <time>2021-09-19T08:40:13.000Z</time>
      </trkpt>
      <trkpt lat="47.31246" lon="-2.26019">
        <ele>5.5999999046326</ele>
        <time>2021-09-19T08:40:18.000Z</time>
      </trkpt>
      <trkpt lat="47.3125" lon="-2.26015">
        <ele>5.5999999046326</ele>
        <time>2021-09-19T08:40:19.000Z</time>
      </trkpt>
      <trkpt lat="47.31276" lon="-2.25994">
        <ele>6</ele>
        <time>2021-09-19T08:40:25.000Z</time>
      </trkpt>
      <trkpt lat="47.3128" lon="-2.25991">
        <ele>6.8000001907349</ele>
        <time>2021-09-19T08:40:26.000Z</time>
      </trkpt>
      <trkpt lat="47.31284" lon="-2.25989">
        <ele>7.1999998092651</ele>
        <time>2021-09-19T08:40:27.000Z</time>
      </trkpt>
      <trkpt lat="47.31288" lon="-2.25987">
        <ele>7.5999999046326</ele>
        <time>2021-09-19T08:40:28.000Z</time>
      </trkpt>
      <trkpt lat="47.31293" lon="-2.25986">
        <ele>7.5999999046326</ele>
        <time>2021-09-19T08:40:29.000Z</time>
      </trkpt>
      <trkpt lat="47.3131" lon="-2.25993">
        <ele>7.5999999046326</ele>
        <time>2021-09-19T08:40:33.000Z</time>
      </trkpt>
      <trkpt lat="47.31323" lon="-2.26013">
        <ele>7.5999999046326</ele>
        <time>2021-09-19T08:40:37.000Z</time>
      </trkpt>
      <trkpt lat="47.31328" lon="-2.26028">
        <ele>7.5999999046326</ele>
        <time>2021-09-19T08:40:39.000Z</time>
      </trkpt>
      <trkpt lat="47.31335" lon="-2.26053">
        <ele>7.5999999046326</ele>
        <time>2021-09-19T08:40:42.000Z</time>
      </trkpt>
      <trkpt lat="47.31355" lon="-2.26098">
        <ele>7.5999999046326</ele>
        <time>2021-09-19T08:40:48.000Z</time>
      </trkpt>
      <trkpt lat="47.31365" lon="-2.26122">
        <ele>7.5999999046326</ele>
        <time>2021-09-19T08:40:51.000Z</time>
      </trkpt>
      <trkpt lat="47.3137" lon="-2.2614">
        <ele>7.5999999046326</ele>
        <time>2021-09-19T08:40:53.000Z</time>
      </trkpt>
      <trkpt lat="47.31373" lon="-2.26147">
        <ele>7.5999999046326</ele>
        <time>2021-09-19T08:40:54.000Z</time>
      </trkpt>
      <trkpt lat="47.31379" lon="-2.26152">
        <ele>7.1999998092651</ele>
        <time>2021-09-19T08:40:56.000Z</time>
      </trkpt>
      <trkpt lat="47.31384" lon="-2.2615">
        <ele>6.8000001907349</ele>
        <time>2021-09-19T08:40:57.000Z</time>
      </trkpt>
      <trkpt lat="47.31388" lon="-2.26146">
        <ele>6.4000000953674</ele>
        <time>2021-09-19T08:40:58.000Z</time>
      </trkpt>
      <trkpt lat="47.31393" lon="-2.26142">
        <ele>6</ele>
        <time>2021-09-19T08:40:59.000Z</time>
      </trkpt>
      <trkpt lat="47.31397" lon="-2.26138">
        <ele>5.4000000953674</ele>
        <time>2021-09-19T08:41:00.000Z</time>
      </trkpt>
      <trkpt lat="47.31406" lon="-2.26129">
        <ele>5.4000000953674</ele>
        <time>2021-09-19T08:41:02.000Z</time>
      </trkpt>
      <trkpt lat="47.31417" lon="-2.26111">
        <ele>5.4000000953674</ele>
        <time>2021-09-19T08:41:05.000Z</time>
      </trkpt>
      <trkpt lat="47.3143" lon="-2.2608">
        <ele>5.4000000953674</ele>
        <time>2021-09-19T08:41:09.000Z</time>
      </trkpt>
      <trkpt lat="47.31437" lon="-2.26066">
        <ele>5.4000000953674</ele>
        <time>2021-09-19T08:41:11.000Z</time>
      </trkpt>
      <trkpt lat="47.31463" lon="-2.26022">
        <ele>5.4000000953674</ele>
        <time>2021-09-19T08:41:18.000Z</time>
      </trkpt>
      <trkpt lat="47.3149" lon="-2.25974">
        <ele>5.4000000953674</ele>
        <time>2021-09-19T08:41:26.000Z</time>
      </trkpt>
      <trkpt lat="47.31505" lon="-2.25948">
        <ele>5.4000000953674</ele>
        <time>2021-09-19T08:41:31.000Z</time>
      </trkpt>
      <trkpt lat="47.31523" lon="-2.2593">
        <ele>5.4000000953674</ele>
        <time>2021-09-19T08:41:36.000Z</time>
      </trkpt>
      <trkpt lat="47.31537" lon="-2.25924">
        <ele>5.4000000953674</ele>
        <time>2021-09-19T08:41:41.000Z</time>
      </trkpt>
      <trkpt lat="47.31545" lon="-2.25921">
        <ele>5</ele>
        <time>2021-09-19T08:41:45.000Z</time>
      </trkpt>
      <trkpt lat="47.31546" lon="-2.2592">
        <ele>4.5999999046326</ele>
        <time>2021-09-19T08:41:46.000Z</time>
      </trkpt>
      <trkpt lat="47.31547" lon="-2.2592">
        <ele>4.1999998092651</ele>
        <time>2021-09-19T08:41:47.000Z</time>
      </trkpt>
      <trkpt lat="47.31547" lon="-2.2592">
        <ele>3.7999999523163</ele>
        <time>2021-09-19T08:41:48.000Z</time>
      </trkpt>
      <trkpt lat="47.31542" lon="-2.2592">
        <ele>3.4000000953674</ele>
        <time>2021-09-19T08:57:24.000Z</time>
      </trkpt>
      <trkpt lat="47.3154" lon="-2.2592">
        <ele>3.4000000953674</ele>
        <time>2021-09-19T08:57:25.000Z</time>
      </trkpt>
      <trkpt lat="47.31533" lon="-2.25917">
        <ele>3.4000000953674</ele>
        <time>2021-09-19T08:57:34.000Z</time>
      </trkpt>
      <trkpt lat="47.31533" lon="-2.25917">
        <ele>3.4000000953674</ele>
        <time>2021-09-19T08:57:35.000Z</time>
      </trkpt>
      <trkpt lat="47.31536" lon="-2.25905">
        <ele>3.4000000953674</ele>
        <time>2021-09-19T08:58:11.000Z</time>
      </trkpt>
      <trkpt lat="47.31538" lon="-2.25898">
        <ele>3.4000000953674</ele>
        <time>2021-09-19T08:58:13.000Z</time>
      </trkpt>
      <trkpt lat="47.31543" lon="-2.25887">
        <ele>3.4000000953674</ele>
        <time>2021-09-19T08:58:16.000Z</time>
      </trkpt>
      <trkpt lat="47.31549" lon="-2.25871">
        <ele>3.4000000953674</ele>
        <time>2021-09-19T08:58:19.000Z</time>
      </trkpt>
      <trkpt lat="47.31551" lon="-2.25842">
        <ele>3.4000000953674</ele>
        <time>2021-09-19T08:58:24.000Z</time>
      </trkpt>
      <trkpt lat="47.31549" lon="-2.25809">
        <ele>3.4000000953674</ele>
        <time>2021-09-19T08:58:30.000Z</time>
      </trkpt>
      <trkpt lat="47.31549" lon="-2.25785">
        <ele>3.4000000953674</ele>
        <time>2021-09-19T08:58:36.000Z</time>
      </trkpt>
      <trkpt lat="47.31546" lon="-2.25765">
        <ele>3.4000000953674</ele>
        <time>2021-09-19T08:58:41.000Z</time>
      </trkpt>
      <trkpt lat="47.31543" lon="-2.25748">
        <ele>3.4000000953674</ele>
        <time>2021-09-19T08:58:46.000Z</time>
      </trkpt>
      <trkpt lat="47.31537" lon="-2.25727">
        <ele>3.4000000953674</ele>
        <time>2021-09-19T08:58:52.000Z</time>
      </trkpt>
      <trkpt lat="47.31527" lon="-2.25682">
        <ele>3.4000000953674</ele>
        <time>2021-09-19T08:59:00.000Z</time>
      </trkpt>
      <trkpt lat="47.31517" lon="-2.25641">
        <ele>3.4000000953674</ele>
        <time>2021-09-19T08:59:08.000Z</time>
      </trkpt>
      <trkpt lat="47.31512" lon="-2.25616">
        <ele>3.4000000953674</ele>
        <time>2021-09-19T08:59:12.000Z</time>
      </trkpt>
      <trkpt lat="47.31511" lon="-2.25609">
        <ele>4</ele>
        <time>2021-09-19T08:59:13.000Z</time>
      </trkpt>
      <trkpt lat="47.31508" lon="-2.25602">
        <ele>4.4000000953674</ele>
        <time>2021-09-19T08:59:14.000Z</time>
      </trkpt>
      <trkpt lat="47.31505" lon="-2.25596">
        <ele>4.8000001907349</ele>
        <time>2021-09-19T08:59:15.000Z</time>
      </trkpt>
      <trkpt lat="47.31502" lon="-2.25589">
        <ele>5.1999998092651</ele>
        <time>2021-09-19T08:59:16.000Z</time>
      </trkpt>
      <trkpt lat="47.31499" lon="-2.25584">
        <ele>5.5999999046326</ele>
        <time>2021-09-19T08:59:17.000Z</time>
      </trkpt>
      <trkpt lat="47.31495" lon="-2.25578">
        <ele>5.5999999046326</ele>
        <time>2021-09-19T08:59:18.000Z</time>
      </trkpt>
      <trkpt lat="47.31487" lon="-2.25569">
        <ele>5.5999999046326</ele>
        <time>2021-09-19T08:59:20.000Z</time>
      </trkpt>
      <trkpt lat="47.31479" lon="-2.25562">
        <ele>5.5999999046326</ele>
        <time>2021-09-19T08:59:22.000Z</time>
      </trkpt>
      <trkpt lat="47.31457" lon="-2.25542">
        <ele>5.5999999046326</ele>
        <time>2021-09-19T08:59:27.000Z</time>
      </trkpt>
      <trkpt lat="47.31431" lon="-2.25505">
        <ele>5.5999999046326</ele>
        <time>2021-09-19T08:59:34.000Z</time>
      </trkpt>
      <trkpt lat="47.31405" lon="-2.2545">
        <ele>5.5999999046326</ele>
        <time>2021-09-19T08:59:43.000Z</time>
      </trkpt>
      <trkpt lat="47.31397" lon="-2.25432">
        <ele>5.5999999046326</ele>
        <time>2021-09-19T08:59:46.000Z</time>
      </trkpt>
      <trkpt lat="47.31386" lon="-2.25415">
        <ele>5.5999999046326</ele>
        <time>2021-09-19T08:59:49.000Z</time>
      </trkpt>
      <trkpt lat="47.31359" lon="-2.25387">
        <ele>5.5999999046326</ele>
        <time>2021-09-19T08:59:55.000Z</time>
      </trkpt>
      <trkpt lat="47.31345" lon="-2.25351">
        <ele>5.5999999046326</ele>
        <time>2021-09-19T09:00:00.000Z</time>
      </trkpt>
      <trkpt lat="47.31342" lon="-2.25327">
        <ele>5.5999999046326</ele>
        <time>2021-09-19T09:00:03.000Z</time>
      </trkpt>
      <trkpt lat="47.3134" lon="-2.25309">
        <ele>5.5999999046326</ele>
        <time>2021-09-19T09:00:05.000Z</time>
      </trkpt>
      <trkpt lat="47.31333" lon="-2.25265">
        <ele>5.5999999046326</ele>
        <time>2021-09-19T09:00:10.000Z</time>
      </trkpt>
      <trkpt lat="47.31329" lon="-2.25257">
        <ele>5.5999999046326</ele>
        <time>2021-09-19T09:00:11.000Z</time>
      </trkpt>
      <trkpt lat="47.31316" lon="-2.25237">
        <ele>5.5999999046326</ele>
        <time>2021-09-19T09:00:14.000Z</time>
      </trkpt>
      <trkpt lat="47.31311" lon="-2.25231">
        <ele>5.5999999046326</ele>
        <time>2021-09-19T09:00:15.000Z</time>
      </trkpt>
      <trkpt lat="47.31279" lon="-2.2519">
        <ele>5.5999999046326</ele>
        <time>2021-09-19T09:00:22.000Z</time>
      </trkpt>
      <trkpt lat="47.31247" lon="-2.25134">
        <ele>5.5999999046326</ele>
        <time>2021-09-19T09:00:30.000Z</time>
      </trkpt>
      <trkpt lat="47.3124" lon="-2.2512">
        <ele>5.5999999046326</ele>
        <time>2021-09-19T09:00:32.000Z</time>
      </trkpt>
      <trkpt lat="47.31225" lon="-2.25083">
        <ele>5.5999999046326</ele>
        <time>2021-09-19T09:00:37.000Z</time>
      </trkpt>
      <trkpt lat="47.31204" lon="-2.2503">
        <ele>5.5999999046326</ele>
        <time>2021-09-19T09:00:44.000Z</time>
      </trkpt>
      <trkpt lat="47.31196" lon="-2.25009">
        <ele>5.5999999046326</ele>
        <time>2021-09-19T09:00:47.000Z</time>
      </trkpt>
      <trkpt lat="47.31188" lon="-2.24996">
        <ele>5.5999999046326</ele>
        <time>2021-09-19T09:00:49.000Z</time>
      </trkpt>
      <trkpt lat="47.31172" lon="-2.24994">
        <ele>5.5999999046326</ele>
        <time>2021-09-19T09:00:52.000Z</time>
      </trkpt>
      <trkpt lat="47.31158" lon="-2.25009">
        <ele>5.5999999046326</ele>
        <time>2021-09-19T09:00:55.000Z</time>
      </trkpt>
      <trkpt lat="47.31153" lon="-2.25014">
        <ele>5.5999999046326</ele>
        <time>2021-09-19T09:00:56.000Z</time>
      </trkpt>
      <trkpt lat="47.31144" lon="-2.25024">
        <ele>5.5999999046326</ele>
        <time>2021-09-19T09:00:58.000Z</time>
      </trkpt>
      <trkpt lat="47.31119" lon="-2.25045">
        <ele>5.5999999046326</ele>
        <time>2021-09-19T09:01:03.000Z</time>
      </trkpt>
      <trkpt lat="47.3108" lon="-2.25068">
        <ele>5.5999999046326</ele>
        <time>2021-09-19T09:01:11.000Z</time>
      </trkpt>
      <trkpt lat="47.31065" lon="-2.25078">
        <ele>5.5999999046326</ele>
        <time>2021-09-19T09:01:14.000Z</time>
      </trkpt>
      <trkpt lat="47.31053" lon="-2.25094">
        <ele>5.5999999046326</ele>
        <time>2021-09-19T09:01:17.000Z</time>
      </trkpt>
      <trkpt lat="47.31046" lon="-2.25109">
        <ele>5.5999999046326</ele>
        <time>2021-09-19T09:01:19.000Z</time>
      </trkpt>
      <trkpt lat="47.31027" lon="-2.25145">
        <ele>5.5999999046326</ele>
        <time>2021-09-19T09:01:24.000Z</time>
      </trkpt>
      <trkpt lat="47.31007" lon="-2.25179">
        <ele>5.5999999046326</ele>
        <time>2021-09-19T09:01:29.000Z</time>
      </trkpt>
      <trkpt lat="47.31005" lon="-2.25186">
        <ele>5.5999999046326</ele>
        <time>2021-09-19T09:01:30.000Z</time>
      </trkpt>
      <trkpt lat="47.31" lon="-2.25221">
        <ele>5.5999999046326</ele>
        <time>2021-09-19T09:01:35.000Z</time>
      </trkpt>
      <trkpt lat="47.30999" lon="-2.25233">
        <ele>5.5999999046326</ele>
        <time>2021-09-19T09:01:39.000Z</time>
      </trkpt>
      <trkpt lat="47.30999" lon="-2.25235">
        <ele>5.5999999046326</ele>
        <time>2021-09-19T09:01:41.000Z</time>
      </trkpt>
      <trkpt lat="47.30997" lon="-2.2524">
        <ele>5.5999999046326</ele>
        <time>2021-09-19T09:01:45.000Z</time>
      </trkpt>
      <trkpt lat="47.30994" lon="-2.25244">
        <ele>5.5999999046326</ele>
        <time>2021-09-19T09:01:47.000Z</time>
      </trkpt>
      <trkpt lat="47.30988" lon="-2.25264">
        <ele>5.5999999046326</ele>
        <time>2021-09-19T09:01:51.000Z</time>
      </trkpt>
      <trkpt lat="47.30985" lon="-2.25269">
        <ele>6</ele>
        <time>2021-09-19T09:01:52.000Z</time>
      </trkpt>
      <trkpt lat="47.30982" lon="-2.25274">
        <ele>6.4000000953674</ele>
        <time>2021-09-19T09:01:53.000Z</time>
      </trkpt>
      <trkpt lat="47.30979" lon="-2.25278">
        <ele>6.8000001907349</ele>
        <time>2021-09-19T09:01:54.000Z</time>
      </trkpt>
      <trkpt lat="47.30976" lon="-2.25282">
        <ele>7.1999998092651</ele>
        <time>2021-09-19T09:01:55.000Z</time>
      </trkpt>
      <trkpt lat="47.30974" lon="-2.25287">
        <ele>7.5999999046326</ele>
        <time>2021-09-19T09:01:56.000Z</time>
      </trkpt>
      <trkpt lat="47.30972" lon="-2.25292">
        <ele>7.5999999046326</ele>
        <time>2021-09-19T09:01:57.000Z</time>
      </trkpt>
      <trkpt lat="47.30965" lon="-2.25309">
        <ele>7.5999999046326</ele>
        <time>2021-09-19T09:02:00.000Z</time>
      </trkpt>
      <trkpt lat="47.30964" lon="-2.25315">
        <ele>7.5999999046326</ele>
        <time>2021-09-19T09:02:01.000Z</time>
      </trkpt>
      <trkpt lat="47.30961" lon="-2.25335">
        <ele>7.5999999046326</ele>
        <time>2021-09-19T09:02:04.000Z</time>
      </trkpt>
      <trkpt lat="47.3096" lon="-2.25341">
        <ele>7.5999999046326</ele>
        <time>2021-09-19T09:02:05.000Z</time>
      </trkpt>
      <trkpt lat="47.30955" lon="-2.25358">
        <ele>7.5999999046326</ele>
        <time>2021-09-19T09:02:08.000Z</time>
      </trkpt>
      <trkpt lat="47.30949" lon="-2.25374">
        <ele>7.5999999046326</ele>
        <time>2021-09-19T09:02:11.000Z</time>
      </trkpt>
      <trkpt lat="47.30945" lon="-2.25386">
        <ele>8</ele>
        <time>2021-09-19T09:02:13.000Z</time>
      </trkpt>
      <trkpt lat="47.30941" lon="-2.25391">
        <ele>8.3999996185303</ele>
        <time>2021-09-19T09:02:14.000Z</time>
      </trkpt>
      <trkpt lat="47.30937" lon="-2.25394">
        <ele>8.8000001907349</ele>
        <time>2021-09-19T09:02:15.000Z</time>
      </trkpt>
      <trkpt lat="47.30932" lon="-2.25396">
        <ele>9.1999998092651</ele>
        <time>2021-09-19T09:02:16.000Z</time>
      </trkpt>
      <trkpt lat="47.30927" lon="-2.25397">
        <ele>9.8000001907349</ele>
        <time>2021-09-19T09:02:17.000Z</time>
      </trkpt>
      <trkpt lat="47.30922" lon="-2.25397">
        <ele>9.8000001907349</ele>
        <time>2021-09-19T09:02:18.000Z</time>
      </trkpt>
      <trkpt lat="47.30917" lon="-2.25398">
        <ele>9.8000001907349</ele>
        <time>2021-09-19T09:02:19.000Z</time>
      </trkpt>
      <trkpt lat="47.30885" lon="-2.25403">
        <ele>9.8000001907349</ele>
        <time>2021-09-19T09:02:25.000Z</time>
      </trkpt>
      <trkpt lat="47.30867" lon="-2.25405">
        <ele>9.8000001907349</ele>
        <time>2021-09-19T09:02:28.000Z</time>
      </trkpt>
      <trkpt lat="47.30846" lon="-2.25411">
        <ele>9.8000001907349</ele>
        <time>2021-09-19T09:02:32.000Z</time>
      </trkpt>
      <trkpt lat="47.30798" lon="-2.25423">
        <ele>9.8000001907349</ele>
        <time>2021-09-19T09:02:40.000Z</time>
      </trkpt>
      <trkpt lat="47.30758" lon="-2.2543">
        <ele>9.1999998092651</ele>
        <time>2021-09-19T09:02:46.000Z</time>
      </trkpt>
      <trkpt lat="47.30751" lon="-2.25431">
        <ele>8.8000001907349</ele>
        <time>2021-09-19T09:02:47.000Z</time>
      </trkpt>
      <trkpt lat="47.30744" lon="-2.25433">
        <ele>8.3999996185303</ele>
        <time>2021-09-19T09:02:48.000Z</time>
      </trkpt>
      <trkpt lat="47.30737" lon="-2.25434">
        <ele>7.8000001907349</ele>
        <time>2021-09-19T09:02:49.000Z</time>
      </trkpt>
      <trkpt lat="47.30731" lon="-2.25434">
        <ele>7.4000000953674</ele>
        <time>2021-09-19T09:02:50.000Z</time>
      </trkpt>
      <trkpt lat="47.30724" lon="-2.25433">
        <ele>7.4000000953674</ele>
        <time>2021-09-19T09:02:51.000Z</time>
      </trkpt>
      <trkpt lat="47.30712" lon="-2.25433">
        <ele>7.4000000953674</ele>
        <time>2021-09-19T09:02:53.000Z</time>
      </trkpt>
      <trkpt lat="47.30706" lon="-2.25433">
        <ele>7.4000000953674</ele>
        <time>2021-09-19T09:02:54.000Z</time>
      </trkpt>
      <trkpt lat="47.30681" lon="-2.25432">
        <ele>7</ele>
        <time>2021-09-19T09:02:58.000Z</time>
      </trkpt>
      <trkpt lat="47.30676" lon="-2.25429">
        <ele>6.5999999046326</ele>
        <time>2021-09-19T09:02:59.000Z</time>
      </trkpt>
      <trkpt lat="47.30671" lon="-2.25424">
        <ele>6.1999998092651</ele>
        <time>2021-09-19T09:03:00.000Z</time>
      </trkpt>
      <trkpt lat="47.30667" lon="-2.2542">
        <ele>5.8000001907349</ele>
        <time>2021-09-19T09:03:01.000Z</time>
      </trkpt>
      <trkpt lat="47.30663" lon="-2.25415">
        <ele>5.4000000953674</ele>
        <time>2021-09-19T09:03:02.000Z</time>
      </trkpt>
      <trkpt lat="47.30659" lon="-2.25402">
        <ele>5.4000000953674</ele>
        <time>2021-09-19T09:03:04.000Z</time>
      </trkpt>
      <trkpt lat="47.30658" lon="-2.25374">
        <ele>5.4000000953674</ele>
        <time>2021-09-19T09:03:07.000Z</time>
      </trkpt>
      <trkpt lat="47.30654" lon="-2.25323">
        <ele>5.4000000953674</ele>
        <time>2021-09-19T09:03:12.000Z</time>
      </trkpt>
      <trkpt lat="47.30639" lon="-2.25245">
        <ele>5.4000000953674</ele>
        <time>2021-09-19T09:03:20.000Z</time>
      </trkpt>
      <trkpt lat="47.30637" lon="-2.25235">
        <ele>5.4000000953674</ele>
        <time>2021-09-19T09:03:21.000Z</time>
      </trkpt>
      <trkpt lat="47.3062" lon="-2.25191">
        <ele>5.4000000953674</ele>
        <time>2021-09-19T09:03:26.000Z</time>
      </trkpt>
      <trkpt lat="47.30591" lon="-2.2512">
        <ele>5.4000000953674</ele>
        <time>2021-09-19T09:03:34.000Z</time>
      </trkpt>
      <trkpt lat="47.30579" lon="-2.2506">
        <ele>5.4000000953674</ele>
        <time>2021-09-19T09:03:40.000Z</time>
      </trkpt>
      <trkpt lat="47.3057" lon="-2.24995">
        <ele>5.4000000953674</ele>
        <time>2021-09-19T09:03:47.000Z</time>
      </trkpt>
      <trkpt lat="47.3057" lon="-2.24927">
        <ele>5.4000000953674</ele>
        <time>2021-09-19T09:03:54.000Z</time>
      </trkpt>
      <trkpt lat="47.30578" lon="-2.2488">
        <ele>5.4000000953674</ele>
        <time>2021-09-19T09:03:59.000Z</time>
      </trkpt>
      <trkpt lat="47.30595" lon="-2.24835">
        <ele>5.4000000953674</ele>
        <time>2021-09-19T09:04:04.000Z</time>
      </trkpt>
      <trkpt lat="47.30622" lon="-2.24796">
        <ele>5.4000000953674</ele>
        <time>2021-09-19T09:04:10.000Z</time>
      </trkpt>
      <trkpt lat="47.30627" lon="-2.2479">
        <ele>5.4000000953674</ele>
        <time>2021-09-19T09:04:11.000Z</time>
      </trkpt>
      <trkpt lat="47.30636" lon="-2.24769">
        <ele>5.4000000953674</ele>
        <time>2021-09-19T09:04:14.000Z</time>
      </trkpt>
      <trkpt lat="47.30638" lon="-2.24761">
        <ele>5.4000000953674</ele>
        <time>2021-09-19T09:04:15.000Z</time>
      </trkpt>
      <trkpt lat="47.3064" lon="-2.24753">
        <ele>5.4000000953674</ele>
        <time>2021-09-19T09:04:16.000Z</time>
      </trkpt>
      <trkpt lat="47.30641" lon="-2.24729">
        <ele>5.4000000953674</ele>
        <time>2021-09-19T09:04:19.000Z</time>
      </trkpt>
      <trkpt lat="47.30633" lon="-2.24695">
        <ele>5.4000000953674</ele>
        <time>2021-09-19T09:04:23.000Z</time>
      </trkpt>
      <trkpt lat="47.30631" lon="-2.24686">
        <ele>5.4000000953674</ele>
        <time>2021-09-19T09:04:24.000Z</time>
      </trkpt>
      <trkpt lat="47.30615" lon="-2.24631">
        <ele>5.4000000953674</ele>
        <time>2021-09-19T09:04:31.000Z</time>
      </trkpt>
      <trkpt lat="47.30612" lon="-2.24616">
        <ele>5.4000000953674</ele>
        <time>2021-09-19T09:04:33.000Z</time>
      </trkpt>
      <trkpt lat="47.30613" lon="-2.24591">
        <ele>5.4000000953674</ele>
        <time>2021-09-19T09:04:36.000Z</time>
      </trkpt>
      <trkpt lat="47.30615" lon="-2.24575">
        <ele>5.4000000953674</ele>
        <time>2021-09-19T09:04:38.000Z</time>
      </trkpt>
      <trkpt lat="47.30618" lon="-2.24544">
        <ele>5.4000000953674</ele>
        <time>2021-09-19T09:04:42.000Z</time>
      </trkpt>
      <trkpt lat="47.30621" lon="-2.24523">
        <ele>5.4000000953674</ele>
        <time>2021-09-19T09:04:45.000Z</time>
      </trkpt>
      <trkpt lat="47.30621" lon="-2.24516">
        <ele>5.8000001907349</ele>
        <time>2021-09-19T09:04:46.000Z</time>
      </trkpt>
      <trkpt lat="47.30622" lon="-2.24509">
        <ele>6.1999998092651</ele>
        <time>2021-09-19T09:04:47.000Z</time>
      </trkpt>
      <trkpt lat="47.30623" lon="-2.24503">
        <ele>6.5999999046326</ele>
        <time>2021-09-19T09:04:48.000Z</time>
      </trkpt>
      <trkpt lat="47.30624" lon="-2.24496">
        <ele>7</ele>
        <time>2021-09-19T09:04:49.000Z</time>
      </trkpt>
      <trkpt lat="47.30625" lon="-2.24489">
        <ele>7.4000000953674</ele>
        <time>2021-09-19T09:04:50.000Z</time>
      </trkpt>
      <trkpt lat="47.30627" lon="-2.2447">
        <ele>7.8000001907349</ele>
        <time>2021-09-19T09:04:53.000Z</time>
      </trkpt>
      <trkpt lat="47.30628" lon="-2.24463">
        <ele>8.1999998092651</ele>
        <time>2021-09-19T09:04:54.000Z</time>
      </trkpt>
      <trkpt lat="47.30629" lon="-2.24456">
        <ele>9.1999998092651</ele>
        <time>2021-09-19T09:04:55.000Z</time>
      </trkpt>
      <trkpt lat="47.3063" lon="-2.24451">
        <ele>9.6000003814697</ele>
        <time>2021-09-19T09:04:56.000Z</time>
      </trkpt>
      <trkpt lat="47.30633" lon="-2.24428">
        <ele>10</ele>
        <time>2021-09-19T09:05:00.000Z</time>
      </trkpt>
      <trkpt lat="47.30631" lon="-2.24424">
        <ele>10.39999961853</ele>
        <time>2021-09-19T09:05:01.000Z</time>
      </trkpt>
      <trkpt lat="47.30628" lon="-2.24421">
        <ele>11</ele>
        <time>2021-09-19T09:05:02.000Z</time>
      </trkpt>
      <trkpt lat="47.30625" lon="-2.24419">
        <ele>11.39999961853</ele>
        <time>2021-09-19T09:05:03.000Z</time>
      </trkpt>
      <trkpt lat="47.30621" lon="-2.24418">
        <ele>11.800000190735</ele>
        <time>2021-09-19T09:05:04.000Z</time>
      </trkpt>
      <trkpt lat="47.30611" lon="-2.24415">
        <ele>11.800000190735</ele>
        <time>2021-09-19T09:05:07.000Z</time>
      </trkpt>
      <trkpt lat="47.30607" lon="-2.24414">
        <ele>11.800000190735</ele>
        <time>2021-09-19T09:05:08.000Z</time>
      </trkpt>
      <trkpt lat="47.30603" lon="-2.24411">
        <ele>12.199999809265</ele>
        <time>2021-09-19T09:05:09.000Z</time>
      </trkpt>
      <trkpt lat="47.306" lon="-2.24408">
        <ele>12.60000038147</ele>
        <time>2021-09-19T09:05:10.000Z</time>
      </trkpt>
      <trkpt lat="47.30596" lon="-2.24403">
        <ele>13</ele>
        <time>2021-09-19T09:05:11.000Z</time>
      </trkpt>
      <trkpt lat="47.30591" lon="-2.24399">
        <ele>13.39999961853</ele>
        <time>2021-09-19T09:05:12.000Z</time>
      </trkpt>
      <trkpt lat="47.30587" lon="-2.24395">
        <ele>14</ele>
        <time>2021-09-19T09:05:13.000Z</time>
      </trkpt>
      <trkpt lat="47.30563" lon="-2.24369">
        <ele>14</ele>
        <time>2021-09-19T09:05:19.000Z</time>
      </trkpt>
      <trkpt lat="47.30555" lon="-2.24361">
        <ele>14</ele>
        <time>2021-09-19T09:05:21.000Z</time>
      </trkpt>
      <trkpt lat="47.30548" lon="-2.24354">
        <ele>14.39999961853</ele>
        <time>2021-09-19T09:05:23.000Z</time>
      </trkpt>
      <trkpt lat="47.30545" lon="-2.2435">
        <ele>14.800000190735</ele>
        <time>2021-09-19T09:05:24.000Z</time>
      </trkpt>
      <trkpt lat="47.30542" lon="-2.24345">
        <ele>15.199999809265</ele>
        <time>2021-09-19T09:05:25.000Z</time>
      </trkpt>
      <trkpt lat="47.30538" lon="-2.24342">
        <ele>15.800000190735</ele>
        <time>2021-09-19T09:05:26.000Z</time>
      </trkpt>
      <trkpt lat="47.30534" lon="-2.24338">
        <ele>16.200000762939</ele>
        <time>2021-09-19T09:05:27.000Z</time>
      </trkpt>
      <trkpt lat="47.30522" lon="-2.24325">
        <ele>16.200000762939</ele>
        <time>2021-09-19T09:05:30.000Z</time>
      </trkpt>
      <trkpt lat="47.30488" lon="-2.24296">
        <ele>16.200000762939</ele>
        <time>2021-09-19T09:05:37.000Z</time>
      </trkpt>
      <trkpt lat="47.3046" lon="-2.24284">
        <ele>16.200000762939</ele>
        <time>2021-09-19T09:05:42.000Z</time>
      </trkpt>
      <trkpt lat="47.30455" lon="-2.24282">
        <ele>16.200000762939</ele>
        <time>2021-09-19T09:05:43.000Z</time>
      </trkpt>
      <trkpt lat="47.30421" lon="-2.24276">
        <ele>16.200000762939</ele>
        <time>2021-09-19T09:05:49.000Z</time>
      </trkpt>
      <trkpt lat="47.30411" lon="-2.2427">
        <ele>16.200000762939</ele>
        <time>2021-09-19T09:05:51.000Z</time>
      </trkpt>
      <trkpt lat="47.30399" lon="-2.24257">
        <ele>16.200000762939</ele>
        <time>2021-09-19T09:05:54.000Z</time>
      </trkpt>
      <trkpt lat="47.30367" lon="-2.24224">
        <ele>16.200000762939</ele>
        <time>2021-09-19T09:06:01.000Z</time>
      </trkpt>
      <trkpt lat="47.30354" lon="-2.24208">
        <ele>16.200000762939</ele>
        <time>2021-09-19T09:06:04.000Z</time>
      </trkpt>
      <trkpt lat="47.30349" lon="-2.24193">
        <ele>16.200000762939</ele>
        <time>2021-09-19T09:06:07.000Z</time>
      </trkpt>
      <trkpt lat="47.30352" lon="-2.24171">
        <ele>16.200000762939</ele>
        <time>2021-09-19T09:06:10.000Z</time>
      </trkpt>
      <trkpt lat="47.30363" lon="-2.24155">
        <ele>16.200000762939</ele>
        <time>2021-09-19T09:06:13.000Z</time>
      </trkpt>
      <trkpt lat="47.3037" lon="-2.24145">
        <ele>16.200000762939</ele>
        <time>2021-09-19T09:06:15.000Z</time>
      </trkpt>
      <trkpt lat="47.30379" lon="-2.24132">
        <ele>16.200000762939</ele>
        <time>2021-09-19T09:06:18.000Z</time>
      </trkpt>
      <trkpt lat="47.30386" lon="-2.24126">
        <ele>16.200000762939</ele>
        <time>2021-09-19T09:06:20.000Z</time>
      </trkpt>
      <trkpt lat="47.3039" lon="-2.24122">
        <ele>16.200000762939</ele>
        <time>2021-09-19T09:06:21.000Z</time>
      </trkpt>
      <trkpt lat="47.30407" lon="-2.241">
        <ele>16.200000762939</ele>
        <time>2021-09-19T09:06:26.000Z</time>
      </trkpt>
      <trkpt lat="47.30434" lon="-2.24068">
        <ele>16.200000762939</ele>
        <time>2021-09-19T09:06:32.000Z</time>
      </trkpt>
      <trkpt lat="47.30458" lon="-2.24043">
        <ele>15.800000190735</ele>
        <time>2021-09-19T09:06:37.000Z</time>
      </trkpt>
      <trkpt lat="47.30463" lon="-2.2404">
        <ele>15.199999809265</ele>
        <time>2021-09-19T09:06:38.000Z</time>
      </trkpt>
      <trkpt lat="47.30468" lon="-2.24038">
        <ele>14.800000190735</ele>
        <time>2021-09-19T09:06:39.000Z</time>
      </trkpt>
      <trkpt lat="47.30474" lon="-2.24035">
        <ele>14.39999961853</ele>
        <time>2021-09-19T09:06:40.000Z</time>
      </trkpt>
      <trkpt lat="47.30479" lon="-2.24031">
        <ele>13.800000190735</ele>
        <time>2021-09-19T09:06:41.000Z</time>
      </trkpt>
      <trkpt lat="47.30485" lon="-2.24027">
        <ele>13.800000190735</ele>
        <time>2021-09-19T09:06:42.000Z</time>
      </trkpt>
      <trkpt lat="47.3049" lon="-2.24023">
        <ele>13.39999961853</ele>
        <time>2021-09-19T09:06:43.000Z</time>
      </trkpt>
      <trkpt lat="47.30497" lon="-2.24012">
        <ele>12.800000190735</ele>
        <time>2021-09-19T09:06:44.000Z</time>
      </trkpt>
      <trkpt lat="47.30503" lon="-2.24002">
        <ele>12.39999961853</ele>
        <time>2021-09-19T09:06:45.000Z</time>
      </trkpt>
      <trkpt lat="47.30509" lon="-2.23993">
        <ele>11.800000190735</ele>
        <time>2021-09-19T09:06:46.000Z</time>
      </trkpt>
      <trkpt lat="47.30516" lon="-2.23984">
        <ele>11.39999961853</ele>
        <time>2021-09-19T09:06:47.000Z</time>
      </trkpt>
      <trkpt lat="47.30523" lon="-2.23976">
        <ele>10.800000190735</ele>
        <time>2021-09-19T09:06:48.000Z</time>
      </trkpt>
      <trkpt lat="47.3053" lon="-2.23968">
        <ele>10.39999961853</ele>
        <time>2021-09-19T09:06:49.000Z</time>
      </trkpt>
      <trkpt lat="47.30536" lon="-2.2396">
        <ele>9.8000001907349</ele>
        <time>2021-09-19T09:06:50.000Z</time>
      </trkpt>
      <trkpt lat="47.30543" lon="-2.23953">
        <ele>9.1999998092651</ele>
        <time>2021-09-19T09:06:51.000Z</time>
      </trkpt>
      <trkpt lat="47.30548" lon="-2.23945">
        <ele>8.8000001907349</ele>
        <time>2021-09-19T09:06:52.000Z</time>
      </trkpt>
      <trkpt lat="47.3055" lon="-2.23938">
        <ele>8.1999998092651</ele>
        <time>2021-09-19T09:06:53.000Z</time>
      </trkpt>
      <trkpt lat="47.30551" lon="-2.23931">
        <ele>7.8000001907349</ele>
        <time>2021-09-19T09:06:54.000Z</time>
      </trkpt>
      <trkpt lat="47.3055" lon="-2.23925">
        <ele>7.1999998092651</ele>
        <time>2021-09-19T09:06:55.000Z</time>
      </trkpt>
      <trkpt lat="47.30547" lon="-2.23919">
        <ele>6.5999999046326</ele>
        <time>2021-09-19T09:06:56.000Z</time>
      </trkpt>
      <trkpt lat="47.30543" lon="-2.23915">
        <ele>5.8000001907349</ele>
        <time>2021-09-19T09:06:57.000Z</time>
      </trkpt>
      <trkpt lat="47.30538" lon="-2.23909">
        <ele>5.1999998092651</ele>
        <time>2021-09-19T09:06:58.000Z</time>
      </trkpt>
      <trkpt lat="47.30534" lon="-2.23904">
        <ele>4.5999999046326</ele>
        <time>2021-09-19T09:06:59.000Z</time>
      </trkpt>
      <trkpt lat="47.30529" lon="-2.23898">
        <ele>4.5999999046326</ele>
        <time>2021-09-19T09:07:00.000Z</time>
      </trkpt>
      <trkpt lat="47.3052" lon="-2.23885">
        <ele>4.5999999046326</ele>
        <time>2021-09-19T09:07:02.000Z</time>
      </trkpt>
      <trkpt lat="47.3049" lon="-2.23847">
        <ele>4.5999999046326</ele>
        <time>2021-09-19T09:07:08.000Z</time>
      </trkpt>
      <trkpt lat="47.30484" lon="-2.23844">
        <ele>4.5999999046326</ele>
        <time>2021-09-19T09:07:09.000Z</time>
      </trkpt>
      <trkpt lat="47.30463" lon="-2.23844">
        <ele>4.5999999046326</ele>
        <time>2021-09-19T09:07:12.000Z</time>
      </trkpt>
      <trkpt lat="47.30456" lon="-2.23844">
        <ele>4.5999999046326</ele>
        <time>2021-09-19T09:07:13.000Z</time>
      </trkpt>
      <trkpt lat="47.3041" lon="-2.23852">
        <ele>4.5999999046326</ele>
        <time>2021-09-19T09:07:20.000Z</time>
      </trkpt>
      <trkpt lat="47.3036" lon="-2.2386">
        <ele>4.5999999046326</ele>
        <time>2021-09-19T09:07:28.000Z</time>
      </trkpt>
      <trkpt lat="47.30318" lon="-2.23876">
        <ele>4.5999999046326</ele>
        <time>2021-09-19T09:07:35.000Z</time>
      </trkpt>
      <trkpt lat="47.30289" lon="-2.23886">
        <ele>4.5999999046326</ele>
        <time>2021-09-19T09:07:40.000Z</time>
      </trkpt>
      <trkpt lat="47.30278" lon="-2.23887">
        <ele>4.5999999046326</ele>
        <time>2021-09-19T09:07:42.000Z</time>
      </trkpt>
      <trkpt lat="47.30264" lon="-2.23902">
        <ele>4.5999999046326</ele>
        <time>2021-09-19T09:07:45.000Z</time>
      </trkpt>
      <trkpt lat="47.30259" lon="-2.23924">
        <ele>4.5999999046326</ele>
        <time>2021-09-19T09:07:48.000Z</time>
      </trkpt>
      <trkpt lat="47.30264" lon="-2.23955">
        <ele>4.5999999046326</ele>
        <time>2021-09-19T09:07:52.000Z</time>
      </trkpt>
      <trkpt lat="47.30267" lon="-2.23962">
        <ele>4.5999999046326</ele>
        <time>2021-09-19T09:07:53.000Z</time>
      </trkpt>
      <trkpt lat="47.30271" lon="-2.23976">
        <ele>4.5999999046326</ele>
        <time>2021-09-19T09:07:55.000Z</time>
      </trkpt>
      <trkpt lat="47.30274" lon="-2.23989">
        <ele>4.5999999046326</ele>
        <time>2021-09-19T09:07:57.000Z</time>
      </trkpt>
      <trkpt lat="47.30275" lon="-2.23995">
        <ele>5</ele>
        <time>2021-09-19T09:07:58.000Z</time>
      </trkpt>
      <trkpt lat="47.30276" lon="-2.24002">
        <ele>5.4000000953674</ele>
        <time>2021-09-19T09:07:59.000Z</time>
      </trkpt>
      <trkpt lat="47.30278" lon="-2.24008">
        <ele>5.8000001907349</ele>
        <time>2021-09-19T09:08:00.000Z</time>
      </trkpt>
      <trkpt lat="47.30279" lon="-2.24015">
        <ele>6.4000000953674</ele>
        <time>2021-09-19T09:08:01.000Z</time>
      </trkpt>
      <trkpt lat="47.30279" lon="-2.24021">
        <ele>6.8000001907349</ele>
        <time>2021-09-19T09:08:02.000Z</time>
      </trkpt>
      <trkpt lat="47.30281" lon="-2.2404">
        <ele>6.8000001907349</ele>
        <time>2021-09-19T09:08:05.000Z</time>
      </trkpt>
      <trkpt lat="47.30281" lon="-2.24046">
        <ele>7.1999998092651</ele>
        <time>2021-09-19T09:08:06.000Z</time>
      </trkpt>
      <trkpt lat="47.30281" lon="-2.24051">
        <ele>7.5999999046326</ele>
        <time>2021-09-19T09:08:07.000Z</time>
      </trkpt>
      <trkpt lat="47.30281" lon="-2.24055">
        <ele>8</ele>
        <time>2021-09-19T09:08:08.000Z</time>
      </trkpt>
      <trkpt lat="47.30279" lon="-2.24059">
        <ele>8.3999996185303</ele>
        <time>2021-09-19T09:08:09.000Z</time>
      </trkpt>
      <trkpt lat="47.30276" lon="-2.24061">
        <ele>8.8000001907349</ele>
        <time>2021-09-19T09:08:10.000Z</time>
      </trkpt>
      <trkpt lat="47.30261" lon="-2.24063">
        <ele>8.8000001907349</ele>
        <time>2021-09-19T09:08:14.000Z</time>
      </trkpt>
      <trkpt lat="47.30257" lon="-2.24062">
        <ele>9.1999998092651</ele>
        <time>2021-09-19T09:08:15.000Z</time>
      </trkpt>
      <trkpt lat="47.30253" lon="-2.24062">
        <ele>9.6000003814697</ele>
        <time>2021-09-19T09:08:16.000Z</time>
      </trkpt>
      <trkpt lat="47.30248" lon="-2.24061">
        <ele>10</ele>
        <time>2021-09-19T09:08:17.000Z</time>
      </trkpt>
      <trkpt lat="47.30244" lon="-2.24061">
        <ele>10.39999961853</ele>
        <time>2021-09-19T09:08:18.000Z</time>
      </trkpt>
      <trkpt lat="47.30239" lon="-2.2406">
        <ele>10.800000190735</ele>
        <time>2021-09-19T09:08:19.000Z</time>
      </trkpt>
      <trkpt lat="47.3023" lon="-2.24059">
        <ele>10.800000190735</ele>
        <time>2021-09-19T09:08:21.000Z</time>
      </trkpt>
      <trkpt lat="47.30199" lon="-2.24058">
        <ele>10.800000190735</ele>
        <time>2021-09-19T09:08:28.000Z</time>
      </trkpt>
      <trkpt lat="47.30186" lon="-2.24059">
        <ele>10.800000190735</ele>
        <time>2021-09-19T09:08:31.000Z</time>
      </trkpt>
      <trkpt lat="47.30173" lon="-2.24063">
        <ele>10.800000190735</ele>
        <time>2021-09-19T09:08:34.000Z</time>
      </trkpt>
      <trkpt lat="47.30142" lon="-2.24076">
        <ele>10.800000190735</ele>
        <time>2021-09-19T09:08:41.000Z</time>
      </trkpt>
      <trkpt lat="47.30138" lon="-2.24078">
        <ele>11.199999809265</ele>
        <time>2021-09-19T09:08:42.000Z</time>
      </trkpt>
      <trkpt lat="47.30134" lon="-2.2408">
        <ele>11.60000038147</ele>
        <time>2021-09-19T09:08:43.000Z</time>
      </trkpt>
      <trkpt lat="47.3013" lon="-2.24082">
        <ele>12</ele>
        <time>2021-09-19T09:08:44.000Z</time>
      </trkpt>
      <trkpt lat="47.30126" lon="-2.24085">
        <ele>12.39999961853</ele>
        <time>2021-09-19T09:08:45.000Z</time>
      </trkpt>
      <trkpt lat="47.30122" lon="-2.24087">
        <ele>12.800000190735</ele>
        <time>2021-09-19T09:08:46.000Z</time>
      </trkpt>
      <trkpt lat="47.30115" lon="-2.24092">
        <ele>12.800000190735</ele>
        <time>2021-09-19T09:08:48.000Z</time>
      </trkpt>
      <trkpt lat="47.30089" lon="-2.24106">
        <ele>12.800000190735</ele>
        <time>2021-09-19T09:08:54.000Z</time>
      </trkpt>
      <trkpt lat="47.30053" lon="-2.24127">
        <ele>12.800000190735</ele>
        <time>2021-09-19T09:09:02.000Z</time>
      </trkpt>
      <trkpt lat="47.30034" lon="-2.2414">
        <ele>12.800000190735</ele>
        <time>2021-09-19T09:09:07.000Z</time>
      </trkpt>
      <trkpt lat="47.3003" lon="-2.24142">
        <ele>12.39999961853</ele>
        <time>2021-09-19T09:09:08.000Z</time>
      </trkpt>
      <trkpt lat="47.30027" lon="-2.24144">
        <ele>12</ele>
        <time>2021-09-19T09:09:09.000Z</time>
      </trkpt>
      <trkpt lat="47.30026" lon="-2.24146">
        <ele>11.39999961853</ele>
        <time>2021-09-19T09:09:10.000Z</time>
      </trkpt>
      <trkpt lat="47.30026" lon="-2.24148">
        <ele>11</ele>
        <time>2021-09-19T09:09:11.000Z</time>
      </trkpt>
      <trkpt lat="47.30026" lon="-2.24151">
        <ele>10.39999961853</ele>
        <time>2021-09-19T09:09:12.000Z</time>
      </trkpt>
      <trkpt lat="47.30029" lon="-2.24162">
        <ele>10.39999961853</ele>
        <time>2021-09-19T09:09:15.000Z</time>
      </trkpt>
      <trkpt lat="47.30031" lon="-2.24171">
        <ele>10.39999961853</ele>
        <time>2021-09-19T09:09:17.000Z</time>
      </trkpt>
      <trkpt lat="47.30031" lon="-2.24192">
        <ele>10.39999961853</ele>
        <time>2021-09-19T09:09:21.000Z</time>
      </trkpt>
      <trkpt lat="47.3003" lon="-2.24202">
        <ele>11</ele>
        <time>2021-09-19T09:09:23.000Z</time>
      </trkpt>
      <trkpt lat="47.3003" lon="-2.24206">
        <ele>11.39999961853</ele>
        <time>2021-09-19T09:09:24.000Z</time>
      </trkpt>
      <trkpt lat="47.30029" lon="-2.24209">
        <ele>12</ele>
        <time>2021-09-19T09:09:25.000Z</time>
      </trkpt>
      <trkpt lat="47.30028" lon="-2.24213">
        <ele>12.39999961853</ele>
        <time>2021-09-19T09:09:26.000Z</time>
      </trkpt>
      <trkpt lat="47.30027" lon="-2.24218">
        <ele>12.800000190735</ele>
        <time>2021-09-19T09:09:27.000Z</time>
      </trkpt>
      <trkpt lat="47.30027" lon="-2.24229">
        <ele>12.800000190735</ele>
        <time>2021-09-19T09:09:29.000Z</time>
      </trkpt>
      <trkpt lat="47.30028" lon="-2.24241">
        <ele>12.800000190735</ele>
        <time>2021-09-19T09:09:31.000Z</time>
      </trkpt>
      <trkpt lat="47.30029" lon="-2.24246">
        <ele>13.39999961853</ele>
        <time>2021-09-19T09:09:32.000Z</time>
      </trkpt>
      <trkpt lat="47.3003" lon="-2.24251">
        <ele>13.800000190735</ele>
        <time>2021-09-19T09:09:33.000Z</time>
      </trkpt>
      <trkpt lat="47.3003" lon="-2.24256">
        <ele>14.199999809265</ele>
        <time>2021-09-19T09:09:34.000Z</time>
      </trkpt>
      <trkpt lat="47.3003" lon="-2.2426">
        <ele>14.60000038147</ele>
        <time>2021-09-19T09:09:35.000Z</time>
      </trkpt>
      <trkpt lat="47.3003" lon="-2.24264">
        <ele>15.199999809265</ele>
        <time>2021-09-19T09:09:36.000Z</time>
      </trkpt>
      <trkpt lat="47.30029" lon="-2.24269">
        <ele>15.199999809265</ele>
        <time>2021-09-19T09:09:37.000Z</time>
      </trkpt>
      <trkpt lat="47.30025" lon="-2.2428">
        <ele>15.60000038147</ele>
        <time>2021-09-19T09:09:40.000Z</time>
      </trkpt>
      <trkpt lat="47.30023" lon="-2.24282">
        <ele>16</ele>
        <time>2021-09-19T09:09:41.000Z</time>
      </trkpt>
      <trkpt lat="47.3002" lon="-2.24285">
        <ele>16.39999961853</ele>
        <time>2021-09-19T09:09:42.000Z</time>
      </trkpt>
      <trkpt lat="47.30019" lon="-2.24288">
        <ele>16.799999237061</ele>
        <time>2021-09-19T09:09:43.000Z</time>
      </trkpt>
      <trkpt lat="47.30017" lon="-2.24291">
        <ele>17.200000762939</ele>
        <time>2021-09-19T09:09:44.000Z</time>
      </trkpt>
      <trkpt lat="47.30015" lon="-2.243">
        <ele>17.200000762939</ele>
        <time>2021-09-19T09:09:46.000Z</time>
      </trkpt>
      <trkpt lat="47.30007" lon="-2.24322">
        <ele>17.200000762939</ele>
        <time>2021-09-19T09:09:51.000Z</time>
      </trkpt>
      <trkpt lat="47.3" lon="-2.24346">
        <ele>17.200000762939</ele>
        <time>2021-09-19T09:09:56.000Z</time>
      </trkpt>
      <trkpt lat="47.29992" lon="-2.24359">
        <ele>17.200000762939</ele>
        <time>2021-09-19T09:09:59.000Z</time>
      </trkpt>
      <trkpt lat="47.29988" lon="-2.24357">
        <ele>17.200000762939</ele>
        <time>2021-09-19T09:10:00.000Z</time>
      </trkpt>
      <trkpt lat="47.29971" lon="-2.24337">
        <ele>17.200000762939</ele>
        <time>2021-09-19T09:10:05.000Z</time>
      </trkpt>
      <trkpt lat="47.29956" lon="-2.24322">
        <ele>17.200000762939</ele>
        <time>2021-09-19T09:10:09.000Z</time>
      </trkpt>
      <trkpt lat="47.29945" lon="-2.24311">
        <ele>17.200000762939</ele>
        <time>2021-09-19T09:10:12.000Z</time>
      </trkpt>
      <trkpt lat="47.29942" lon="-2.24307">
        <ele>17.200000762939</ele>
        <time>2021-09-19T09:10:13.000Z</time>
      </trkpt>
      <trkpt lat="47.29931" lon="-2.24292">
        <ele>17.200000762939</ele>
        <time>2021-09-19T09:10:16.000Z</time>
      </trkpt>
      <trkpt lat="47.29926" lon="-2.24289">
        <ele>17.200000762939</ele>
        <time>2021-09-19T09:10:17.000Z</time>
      </trkpt>
      <trkpt lat="47.29903" lon="-2.24276">
        <ele>17.200000762939</ele>
        <time>2021-09-19T09:10:22.000Z</time>
      </trkpt>
      <trkpt lat="47.2987" lon="-2.24252">
        <ele>17.200000762939</ele>
        <time>2021-09-19T09:10:29.000Z</time>
      </trkpt>
      <trkpt lat="47.2986" lon="-2.24247">
        <ele>17.200000762939</ele>
        <time>2021-09-19T09:10:31.000Z</time>
      </trkpt>
      <trkpt lat="47.2984" lon="-2.24239">
        <ele>17.200000762939</ele>
        <time>2021-09-19T09:10:35.000Z</time>
      </trkpt>
      <trkpt lat="47.29826" lon="-2.24231">
        <ele>17.200000762939</ele>
        <time>2021-09-19T09:10:38.000Z</time>
      </trkpt>
      <trkpt lat="47.29816" lon="-2.24224">
        <ele>17.200000762939</ele>
        <time>2021-09-19T09:10:41.000Z</time>
      </trkpt>
      <trkpt lat="47.29813" lon="-2.24223">
        <ele>17.200000762939</ele>
        <time>2021-09-19T09:10:44.000Z</time>
      </trkpt>
      <trkpt lat="47.29812" lon="-2.24222">
        <ele>17.200000762939</ele>
        <time>2021-09-19T09:10:49.000Z</time>
      </trkpt>
      <trkpt lat="47.29801" lon="-2.24216">
        <ele>17.200000762939</ele>
        <time>2021-09-19T09:10:54.000Z</time>
      </trkpt>
      <trkpt lat="47.29785" lon="-2.24223">
        <ele>17.200000762939</ele>
        <time>2021-09-19T09:10:58.000Z</time>
      </trkpt>
      <trkpt lat="47.29776" lon="-2.24228">
        <ele>16.799999237061</ele>
        <time>2021-09-19T09:11:00.000Z</time>
      </trkpt>
      <trkpt lat="47.29771" lon="-2.24231">
        <ele>16.39999961853</ele>
        <time>2021-09-19T09:11:01.000Z</time>
      </trkpt>
      <trkpt lat="47.29766" lon="-2.24234">
        <ele>15.800000190735</ele>
        <time>2021-09-19T09:11:02.000Z</time>
      </trkpt>
      <trkpt lat="47.2976" lon="-2.24237">
        <ele>15.39999961853</ele>
        <time>2021-09-19T09:11:03.000Z</time>
      </trkpt>
      <trkpt lat="47.29755" lon="-2.2424">
        <ele>15</ele>
        <time>2021-09-19T09:11:04.000Z</time>
      </trkpt>
      <trkpt lat="47.29713" lon="-2.24261">
        <ele>15</ele>
        <time>2021-09-19T09:11:11.000Z</time>
      </trkpt>
      <trkpt lat="47.29707" lon="-2.24265">
        <ele>14.60000038147</ele>
        <time>2021-09-19T09:11:12.000Z</time>
      </trkpt>
      <trkpt lat="47.297" lon="-2.24268">
        <ele>14.199999809265</ele>
        <time>2021-09-19T09:11:13.000Z</time>
      </trkpt>
      <trkpt lat="47.29694" lon="-2.24272">
        <ele>13.800000190735</ele>
        <time>2021-09-19T09:11:14.000Z</time>
      </trkpt>
      <trkpt lat="47.29687" lon="-2.24276">
        <ele>13.39999961853</ele>
        <time>2021-09-19T09:11:15.000Z</time>
      </trkpt>
      <trkpt lat="47.2968" lon="-2.2428">
        <ele>13</ele>
        <time>2021-09-19T09:11:16.000Z</time>
      </trkpt>
      <trkpt lat="47.2966" lon="-2.24292">
        <ele>12.60000038147</ele>
        <time>2021-09-19T09:11:19.000Z</time>
      </trkpt>
      <trkpt lat="47.29653" lon="-2.24296">
        <ele>12</ele>
        <time>2021-09-19T09:11:20.000Z</time>
      </trkpt>
      <trkpt lat="47.29646" lon="-2.243">
        <ele>11.60000038147</ele>
        <time>2021-09-19T09:11:21.000Z</time>
      </trkpt>
      <trkpt lat="47.29639" lon="-2.24304">
        <ele>11.199999809265</ele>
        <time>2021-09-19T09:11:22.000Z</time>
      </trkpt>
      <trkpt lat="47.29632" lon="-2.24307">
        <ele>10.60000038147</ele>
        <time>2021-09-19T09:11:23.000Z</time>
      </trkpt>
      <trkpt lat="47.29611" lon="-2.24315">
        <ele>10.60000038147</ele>
        <time>2021-09-19T09:11:26.000Z</time>
      </trkpt>
      <trkpt lat="47.29578" lon="-2.24319">
        <ele>10.199999809265</ele>
        <time>2021-09-19T09:11:31.000Z</time>
      </trkpt>
      <trkpt lat="47.29572" lon="-2.24317">
        <ele>9.8000001907349</ele>
        <time>2021-09-19T09:11:32.000Z</time>
      </trkpt>
      <trkpt lat="47.29565" lon="-2.24313">
        <ele>9.3999996185303</ele>
        <time>2021-09-19T09:11:33.000Z</time>
      </trkpt>
      <trkpt lat="47.29559" lon="-2.24308">
        <ele>9</ele>
        <time>2021-09-19T09:11:34.000Z</time>
      </trkpt>
      <trkpt lat="47.29553" lon="-2.24302">
        <ele>8.6000003814697</ele>
        <time>2021-09-19T09:11:35.000Z</time>
      </trkpt>
      <trkpt lat="47.29547" lon="-2.24296">
        <ele>8.6000003814697</ele>
        <time>2021-09-19T09:11:36.000Z</time>
      </trkpt>
      <trkpt lat="47.2954" lon="-2.24291">
        <ele>8.6000003814697</ele>
        <time>2021-09-19T09:11:37.000Z</time>
      </trkpt>
      <trkpt lat="47.29525" lon="-2.2429">
        <ele>8.6000003814697</ele>
        <time>2021-09-19T09:11:39.000Z</time>
      </trkpt>
      <trkpt lat="47.29511" lon="-2.24295">
        <ele>8.6000003814697</ele>
        <time>2021-09-19T09:11:41.000Z</time>
      </trkpt>
      <trkpt lat="47.29499" lon="-2.24299">
        <ele>8.6000003814697</ele>
        <time>2021-09-19T09:11:43.000Z</time>
      </trkpt>
      <trkpt lat="47.29478" lon="-2.24309">
        <ele>8.6000003814697</ele>
        <time>2021-09-19T09:11:47.000Z</time>
      </trkpt>
      <trkpt lat="47.29473" lon="-2.24311">
        <ele>8.6000003814697</ele>
        <time>2021-09-19T09:11:48.000Z</time>
      </trkpt>
      <trkpt lat="47.29442" lon="-2.2432">
        <ele>9</ele>
        <time>2021-09-19T09:11:54.000Z</time>
      </trkpt>
      <trkpt lat="47.29437" lon="-2.24322">
        <ele>9.8000001907349</ele>
        <time>2021-09-19T09:11:55.000Z</time>
      </trkpt>
      <trkpt lat="47.29432" lon="-2.24325">
        <ele>10.39999961853</ele>
        <time>2021-09-19T09:11:56.000Z</time>
      </trkpt>
      <trkpt lat="47.29427" lon="-2.24328">
        <ele>10.800000190735</ele>
        <time>2021-09-19T09:11:57.000Z</time>
      </trkpt>
      <trkpt lat="47.29412" lon="-2.2434">
        <ele>10.800000190735</ele>
        <time>2021-09-19T09:12:00.000Z</time>
      </trkpt>
      <trkpt lat="47.2938" lon="-2.24373">
        <ele>10.800000190735</ele>
        <time>2021-09-19T09:12:07.000Z</time>
      </trkpt>
      <trkpt lat="47.2934" lon="-2.24414">
        <ele>10.800000190735</ele>
        <time>2021-09-19T09:12:15.000Z</time>
      </trkpt>
      <trkpt lat="47.29302" lon="-2.2445">
        <ele>11.199999809265</ele>
        <time>2021-09-19T09:12:23.000Z</time>
      </trkpt>
      <trkpt lat="47.29297" lon="-2.24454">
        <ele>11.60000038147</ele>
        <time>2021-09-19T09:12:24.000Z</time>
      </trkpt>
      <trkpt lat="47.29294" lon="-2.2446">
        <ele>12</ele>
        <time>2021-09-19T09:12:25.000Z</time>
      </trkpt>
      <trkpt lat="47.29292" lon="-2.24466">
        <ele>12.39999961853</ele>
        <time>2021-09-19T09:12:26.000Z</time>
      </trkpt>
      <trkpt lat="47.29291" lon="-2.24473">
        <ele>12.800000190735</ele>
        <time>2021-09-19T09:12:27.000Z</time>
      </trkpt>
      <trkpt lat="47.29292" lon="-2.24488">
        <ele>12.800000190735</ele>
        <time>2021-09-19T09:12:29.000Z</time>
      </trkpt>
      <trkpt lat="47.29294" lon="-2.24541">
        <ele>12.800000190735</ele>
        <time>2021-09-19T09:12:35.000Z</time>
      </trkpt>
      <trkpt lat="47.293" lon="-2.24597">
        <ele>12.800000190735</ele>
        <time>2021-09-19T09:12:41.000Z</time>
      </trkpt>
      <trkpt lat="47.29297" lon="-2.24639">
        <ele>12.800000190735</ele>
        <time>2021-09-19T09:12:46.000Z</time>
      </trkpt>
      <trkpt lat="47.29296" lon="-2.24647">
        <ele>12.800000190735</ele>
        <time>2021-09-19T09:12:47.000Z</time>
      </trkpt>
      <trkpt lat="47.29298" lon="-2.24678">
        <ele>12.800000190735</ele>
        <time>2021-09-19T09:12:51.000Z</time>
      </trkpt>
      <trkpt lat="47.29299" lon="-2.24685">
        <ele>12.800000190735</ele>
        <time>2021-09-19T09:12:52.000Z</time>
      </trkpt>
      <trkpt lat="47.29304" lon="-2.24712">
        <ele>12.800000190735</ele>
        <time>2021-09-19T09:12:56.000Z</time>
      </trkpt>
      <trkpt lat="47.29311" lon="-2.2474">
        <ele>13.199999809265</ele>
        <time>2021-09-19T09:13:00.000Z</time>
      </trkpt>
      <trkpt lat="47.29312" lon="-2.24747">
        <ele>13.60000038147</ele>
        <time>2021-09-19T09:13:01.000Z</time>
      </trkpt>
      <trkpt lat="47.29314" lon="-2.24754">
        <ele>14.199999809265</ele>
        <time>2021-09-19T09:13:02.000Z</time>
      </trkpt>
      <trkpt lat="47.29316" lon="-2.2476">
        <ele>14.60000038147</ele>
        <time>2021-09-19T09:13:03.000Z</time>
      </trkpt>
      <trkpt lat="47.29318" lon="-2.24766">
        <ele>15</ele>
        <time>2021-09-19T09:13:04.000Z</time>
      </trkpt>
      <trkpt lat="47.29324" lon="-2.24785">
        <ele>15</ele>
        <time>2021-09-19T09:13:07.000Z</time>
      </trkpt>
      <trkpt lat="47.29327" lon="-2.24798">
        <ele>15</ele>
        <time>2021-09-19T09:13:09.000Z</time>
      </trkpt>
      <trkpt lat="47.29335" lon="-2.24842">
        <ele>15</ele>
        <time>2021-09-19T09:13:15.000Z</time>
      </trkpt>
      <trkpt lat="47.29337" lon="-2.24881">
        <ele>15</ele>
        <time>2021-09-19T09:13:20.000Z</time>
      </trkpt>
      <trkpt lat="47.29336" lon="-2.24895">
        <ele>15</ele>
        <time>2021-09-19T09:13:22.000Z</time>
      </trkpt>
      <trkpt lat="47.2933" lon="-2.2491">
        <ele>15</ele>
        <time>2021-09-19T09:13:25.000Z</time>
      </trkpt>
      <trkpt lat="47.29326" lon="-2.24912">
        <ele>15</ele>
        <time>2021-09-19T09:13:26.000Z</time>
      </trkpt>
      <trkpt lat="47.29304" lon="-2.24917">
        <ele>15</ele>
        <time>2021-09-19T09:13:30.000Z</time>
      </trkpt>
      <trkpt lat="47.29282" lon="-2.24918">
        <ele>15.800000190735</ele>
        <time>2021-09-19T09:13:34.000Z</time>
      </trkpt>
      <trkpt lat="47.29277" lon="-2.24918">
        <ele>16.200000762939</ele>
        <time>2021-09-19T09:13:35.000Z</time>
      </trkpt>
      <trkpt lat="47.29272" lon="-2.24919">
        <ele>16.60000038147</ele>
        <time>2021-09-19T09:13:36.000Z</time>
      </trkpt>
      <trkpt lat="47.29267" lon="-2.24919">
        <ele>17</ele>
        <time>2021-09-19T09:13:37.000Z</time>
      </trkpt>
      <trkpt lat="47.29263" lon="-2.24922">
        <ele>17</ele>
        <time>2021-09-19T09:13:38.000Z</time>
      </trkpt>
      <trkpt lat="47.29257" lon="-2.24932">
        <ele>17</ele>
        <time>2021-09-19T09:13:40.000Z</time>
      </trkpt>
      <trkpt lat="47.29259" lon="-2.24953">
        <ele>17</ele>
        <time>2021-09-19T09:13:43.000Z</time>
      </trkpt>
      <trkpt lat="47.2926" lon="-2.2496">
        <ele>17</ele>
        <time>2021-09-19T09:13:44.000Z</time>
      </trkpt>
      <trkpt lat="47.29269" lon="-2.25001">
        <ele>17</ele>
        <time>2021-09-19T09:13:49.000Z</time>
      </trkpt>
      <trkpt lat="47.29285" lon="-2.25059">
        <ele>17</ele>
        <time>2021-09-19T09:13:56.000Z</time>
      </trkpt>
      <trkpt lat="47.29295" lon="-2.25109">
        <ele>17</ele>
        <time>2021-09-19T09:14:02.000Z</time>
      </trkpt>
      <trkpt lat="47.293" lon="-2.25145">
        <ele>16.60000038147</ele>
        <time>2021-09-19T09:14:06.000Z</time>
      </trkpt>
      <trkpt lat="47.29302" lon="-2.25154">
        <ele>16.200000762939</ele>
        <time>2021-09-19T09:14:07.000Z</time>
      </trkpt>
      <trkpt lat="47.29303" lon="-2.25164">
        <ele>15.60000038147</ele>
        <time>2021-09-19T09:14:08.000Z</time>
      </trkpt>
      <trkpt lat="47.29304" lon="-2.25174">
        <ele>15.199999809265</ele>
        <time>2021-09-19T09:14:09.000Z</time>
      </trkpt>
      <trkpt lat="47.29305" lon="-2.25184">
        <ele>14.800000190735</ele>
        <time>2021-09-19T09:14:10.000Z</time>
      </trkpt>
      <trkpt lat="47.29307" lon="-2.25192">
        <ele>14.800000190735</ele>
        <time>2021-09-19T09:14:11.000Z</time>
      </trkpt>
      <trkpt lat="47.29314" lon="-2.252">
        <ele>14.39999961853</ele>
        <time>2021-09-19T09:14:13.000Z</time>
      </trkpt>
      <trkpt lat="47.29318" lon="-2.25201">
        <ele>14</ele>
        <time>2021-09-19T09:14:14.000Z</time>
      </trkpt>
      <trkpt lat="47.29322" lon="-2.25201">
        <ele>13.60000038147</ele>
        <time>2021-09-19T09:14:15.000Z</time>
      </trkpt>
      <trkpt lat="47.29326" lon="-2.25201">
        <ele>13.199999809265</ele>
        <time>2021-09-19T09:14:16.000Z</time>
      </trkpt>
      <trkpt lat="47.29332" lon="-2.252">
        <ele>12.800000190735</ele>
        <time>2021-09-19T09:14:17.000Z</time>
      </trkpt>
      <trkpt lat="47.29354" lon="-2.25203">
        <ele>12.800000190735</ele>
        <time>2021-09-19T09:14:21.000Z</time>
      </trkpt>
      <trkpt lat="47.29398" lon="-2.25212">
        <ele>12.800000190735</ele>
        <time>2021-09-19T09:14:28.000Z</time>
      </trkpt>
      <trkpt lat="47.2941" lon="-2.25214">
        <ele>12.800000190735</ele>
        <time>2021-09-19T09:14:30.000Z</time>
      </trkpt>
      <trkpt lat="47.29429" lon="-2.25211">
        <ele>12.800000190735</ele>
        <time>2021-09-19T09:14:33.000Z</time>
      </trkpt>
      <trkpt lat="47.29434" lon="-2.2521">
        <ele>12.800000190735</ele>
        <time>2021-09-19T09:14:34.000Z</time>
      </trkpt>
      <trkpt lat="47.29449" lon="-2.25206">
        <ele>13.199999809265</ele>
        <time>2021-09-19T09:14:37.000Z</time>
      </trkpt>
      <trkpt lat="47.29455" lon="-2.25205">
        <ele>13.60000038147</ele>
        <time>2021-09-19T09:14:38.000Z</time>
      </trkpt>
      <trkpt lat="47.2946" lon="-2.25203">
        <ele>14</ele>
        <time>2021-09-19T09:14:39.000Z</time>
      </trkpt>
      <trkpt lat="47.29465" lon="-2.25202">
        <ele>14.39999961853</ele>
        <time>2021-09-19T09:14:40.000Z</time>
      </trkpt>
      <trkpt lat="47.2947" lon="-2.25201">
        <ele>14.800000190735</ele>
        <time>2021-09-19T09:14:41.000Z</time>
      </trkpt>
      <trkpt lat="47.29495" lon="-2.25196">
        <ele>14.800000190735</ele>
        <time>2021-09-19T09:14:46.000Z</time>
      </trkpt>
      <trkpt lat="47.2952" lon="-2.25186">
        <ele>14.800000190735</ele>
        <time>2021-09-19T09:14:51.000Z</time>
      </trkpt>
      <trkpt lat="47.29539" lon="-2.25182">
        <ele>15.199999809265</ele>
        <time>2021-09-19T09:14:56.000Z</time>
      </trkpt>
      <trkpt lat="47.29541" lon="-2.25182">
        <ele>15.60000038147</ele>
        <time>2021-09-19T09:14:57.000Z</time>
      </trkpt>
      <trkpt lat="47.29543" lon="-2.25181">
        <ele>16</ele>
        <time>2021-09-19T09:14:58.000Z</time>
      </trkpt>
      <trkpt lat="47.29545" lon="-2.25181">
        <ele>16.39999961853</ele>
        <time>2021-09-19T09:14:59.000Z</time>
      </trkpt>
      <trkpt lat="47.29546" lon="-2.25179">
        <ele>17</ele>
        <time>2021-09-19T09:15:00.000Z</time>
      </trkpt>
      <trkpt lat="47.29551" lon="-2.25179">
        <ele>17</ele>
        <time>2021-09-19T09:15:03.000Z</time>
      </trkpt>
      <trkpt lat="47.29552" lon="-2.25182">
        <ele>17</ele>
        <time>2021-09-19T09:15:05.000Z</time>
      </trkpt>
      <trkpt lat="47.29551" lon="-2.25183">
        <ele>17</ele>
        <time>2021-09-19T09:15:08.000Z</time>
      </trkpt>
      <trkpt lat="47.29551" lon="-2.25188">
        <ele>17</ele>
        <time>2021-09-19T09:15:16.000Z</time>
      </trkpt>
      <trkpt lat="47.2955" lon="-2.25203">
        <ele>17</ele>
        <time>2021-09-19T09:15:20.000Z</time>
      </trkpt>
      <trkpt lat="47.29542" lon="-2.25232">
        <ele>17</ele>
        <time>2021-09-19T09:15:25.000Z</time>
      </trkpt>
      <trkpt lat="47.2954" lon="-2.25251">
        <ele>17</ele>
        <time>2021-09-19T09:15:28.000Z</time>
      </trkpt>
      <trkpt lat="47.29541" lon="-2.25273">
        <ele>17</ele>
        <time>2021-09-19T09:15:31.000Z</time>
      </trkpt>
      <trkpt lat="47.29546" lon="-2.25296">
        <ele>17</ele>
        <time>2021-09-19T09:15:34.000Z</time>
      </trkpt>
      <trkpt lat="47.2955" lon="-2.25311">
        <ele>17</ele>
        <time>2021-09-19T09:15:36.000Z</time>
      </trkpt>
      <trkpt lat="47.29553" lon="-2.25317">
        <ele>17</ele>
        <time>2021-09-19T09:15:37.000Z</time>
      </trkpt>
      <trkpt lat="47.29567" lon="-2.25348">
        <ele>17.39999961853</ele>
        <time>2021-09-19T09:15:42.000Z</time>
      </trkpt>
      <trkpt lat="47.2957" lon="-2.25354">
        <ele>17.799999237061</ele>
        <time>2021-09-19T09:15:43.000Z</time>
      </trkpt>
      <trkpt lat="47.29573" lon="-2.25361">
        <ele>18.200000762939</ele>
        <time>2021-09-19T09:15:44.000Z</time>
      </trkpt>
      <trkpt lat="47.29575" lon="-2.25367">
        <ele>18.60000038147</ele>
        <time>2021-09-19T09:15:45.000Z</time>
      </trkpt>
      <trkpt lat="47.29577" lon="-2.25375">
        <ele>19</ele>
        <time>2021-09-19T09:15:46.000Z</time>
      </trkpt>
      <trkpt lat="47.29585" lon="-2.25413">
        <ele>19</ele>
        <time>2021-09-19T09:15:51.000Z</time>
      </trkpt>
      <trkpt lat="47.29587" lon="-2.25452">
        <ele>19.39999961853</ele>
        <time>2021-09-19T09:15:56.000Z</time>
      </trkpt>
      <trkpt lat="47.29588" lon="-2.25459">
        <ele>19.799999237061</ele>
        <time>2021-09-19T09:15:57.000Z</time>
      </trkpt>
      <trkpt lat="47.29588" lon="-2.25467">
        <ele>20.200000762939</ele>
        <time>2021-09-19T09:15:58.000Z</time>
      </trkpt>
      <trkpt lat="47.29589" lon="-2.25475">
        <ele>20.60000038147</ele>
        <time>2021-09-19T09:15:59.000Z</time>
      </trkpt>
      <trkpt lat="47.29589" lon="-2.25482">
        <ele>21</ele>
        <time>2021-09-19T09:16:00.000Z</time>
      </trkpt>
      <trkpt lat="47.29586" lon="-2.25504">
        <ele>21</ele>
        <time>2021-09-19T09:16:03.000Z</time>
      </trkpt>
      <trkpt lat="47.29582" lon="-2.25519">
        <ele>21</ele>
        <time>2021-09-19T09:16:05.000Z</time>
      </trkpt>
      <trkpt lat="47.29567" lon="-2.25542">
        <ele>21</ele>
        <time>2021-09-19T09:16:09.000Z</time>
      </trkpt>
      <trkpt lat="47.29552" lon="-2.25553">
        <ele>21</ele>
        <time>2021-09-19T09:16:12.000Z</time>
      </trkpt>
      <trkpt lat="47.29537" lon="-2.25563">
        <ele>21</ele>
        <time>2021-09-19T09:16:15.000Z</time>
      </trkpt>
      <trkpt lat="47.29512" lon="-2.25579">
        <ele>21.39999961853</ele>
        <time>2021-09-19T09:16:20.000Z</time>
      </trkpt>
      <trkpt lat="47.29507" lon="-2.25583">
        <ele>21.799999237061</ele>
        <time>2021-09-19T09:16:21.000Z</time>
      </trkpt>
      <trkpt lat="47.29502" lon="-2.25586">
        <ele>22.200000762939</ele>
        <time>2021-09-19T09:16:22.000Z</time>
      </trkpt>
      <trkpt lat="47.29497" lon="-2.25589">
        <ele>22.60000038147</ele>
        <time>2021-09-19T09:16:23.000Z</time>
      </trkpt>
      <trkpt lat="47.29492" lon="-2.25592">
        <ele>23</ele>
        <time>2021-09-19T09:16:24.000Z</time>
      </trkpt>
      <trkpt lat="47.29462" lon="-2.25607">
        <ele>23</ele>
        <time>2021-09-19T09:16:30.000Z</time>
      </trkpt>
      <trkpt lat="47.29441" lon="-2.25615">
        <ele>23.39999961853</ele>
        <time>2021-09-19T09:16:34.000Z</time>
      </trkpt>
      <trkpt lat="47.29436" lon="-2.25617">
        <ele>24</ele>
        <time>2021-09-19T09:16:35.000Z</time>
      </trkpt>
      <trkpt lat="47.29431" lon="-2.25619">
        <ele>24.39999961853</ele>
        <time>2021-09-19T09:16:36.000Z</time>
      </trkpt>
      <trkpt lat="47.29426" lon="-2.25621">
        <ele>24.799999237061</ele>
        <time>2021-09-19T09:16:37.000Z</time>
      </trkpt>
      <trkpt lat="47.29421" lon="-2.25623">
        <ele>25.200000762939</ele>
        <time>2021-09-19T09:16:38.000Z</time>
      </trkpt>
      <trkpt lat="47.29391" lon="-2.25639">
        <ele>25.200000762939</ele>
        <time>2021-09-19T09:16:45.000Z</time>
      </trkpt>
      <trkpt lat="47.2939" lon="-2.25647">
        <ele>25.200000762939</ele>
        <time>2021-09-19T09:16:48.000Z</time>
      </trkpt>
      <trkpt lat="47.29394" lon="-2.25651">
        <ele>25.200000762939</ele>
        <time>2021-09-19T09:16:50.000Z</time>
      </trkpt>
      <trkpt lat="47.29399" lon="-2.25654">
        <ele>25.200000762939</ele>
        <time>2021-09-19T09:16:53.000Z</time>
      </trkpt>
      <trkpt lat="47.29413" lon="-2.25664">
        <ele>25.200000762939</ele>
        <time>2021-09-19T09:16:58.000Z</time>
      </trkpt>
      <trkpt lat="47.29416" lon="-2.25668">
        <ele>25.200000762939</ele>
        <time>2021-09-19T09:16:59.000Z</time>
      </trkpt>
      <trkpt lat="47.29426" lon="-2.25684">
        <ele>25.200000762939</ele>
        <time>2021-09-19T09:17:02.000Z</time>
      </trkpt>
      <trkpt lat="47.29428" lon="-2.25689">
        <ele>25.200000762939</ele>
        <time>2021-09-19T09:17:03.000Z</time>
      </trkpt>
      <trkpt lat="47.2944" lon="-2.25719">
        <ele>24.799999237061</ele>
        <time>2021-09-19T09:17:07.000Z</time>
      </trkpt>
      <trkpt lat="47.29443" lon="-2.25729">
        <ele>24.39999961853</ele>
        <time>2021-09-19T09:17:08.000Z</time>
      </trkpt>
      <trkpt lat="47.29445" lon="-2.25738">
        <ele>24</ele>
        <time>2021-09-19T09:17:09.000Z</time>
      </trkpt>
      <trkpt lat="47.29447" lon="-2.25746">
        <ele>23.39999961853</ele>
        <time>2021-09-19T09:17:10.000Z</time>
      </trkpt>
      <trkpt lat="47.29449" lon="-2.25753">
        <ele>23</ele>
        <time>2021-09-19T09:17:11.000Z</time>
      </trkpt>
      <trkpt lat="47.29451" lon="-2.2576">
        <ele>22.39999961853</ele>
        <time>2021-09-19T09:17:12.000Z</time>
      </trkpt>
      <trkpt lat="47.29452" lon="-2.25765">
        <ele>22</ele>
        <time>2021-09-19T09:17:13.000Z</time>
      </trkpt>
      <trkpt lat="47.29453" lon="-2.2577">
        <ele>21.200000762939</ele>
        <time>2021-09-19T09:17:14.000Z</time>
      </trkpt>
      <trkpt lat="47.29452" lon="-2.25773">
        <ele>20.60000038147</ele>
        <time>2021-09-19T09:17:15.000Z</time>
      </trkpt>
      <trkpt lat="47.2945" lon="-2.25777">
        <ele>19.39999961853</ele>
        <time>2021-09-19T09:17:16.000Z</time>
      </trkpt>
      <trkpt lat="47.29448" lon="-2.25779">
        <ele>18.60000038147</ele>
        <time>2021-09-19T09:17:17.000Z</time>
      </trkpt>
      <trkpt lat="47.29442" lon="-2.25782">
        <ele>18.60000038147</ele>
        <time>2021-09-19T09:17:19.000Z</time>
      </trkpt>
      <trkpt lat="47.29439" lon="-2.25782">
        <ele>18.60000038147</ele>
        <time>2021-09-19T09:17:20.000Z</time>
      </trkpt>
      <trkpt lat="47.29432" lon="-2.2579">
        <ele>18.60000038147</ele>
        <time>2021-09-19T09:17:23.000Z</time>
      </trkpt>
      <trkpt lat="47.29432" lon="-2.25794">
        <ele>18.60000038147</ele>
        <time>2021-09-19T09:17:24.000Z</time>
      </trkpt>
      <trkpt lat="47.29434" lon="-2.25811">
        <ele>18.60000038147</ele>
        <time>2021-09-19T09:17:27.000Z</time>
      </trkpt>
      <trkpt lat="47.29431" lon="-2.25832">
        <ele>18.60000038147</ele>
        <time>2021-09-19T09:17:30.000Z</time>
      </trkpt>
      <trkpt lat="47.29428" lon="-2.25843">
        <ele>18.60000038147</ele>
        <time>2021-09-19T09:17:32.000Z</time>
      </trkpt>
      <trkpt lat="47.2943" lon="-2.25851">
        <ele>18.60000038147</ele>
        <time>2021-09-19T09:17:34.000Z</time>
      </trkpt>
      <trkpt lat="47.29432" lon="-2.25856">
        <ele>18.60000038147</ele>
        <time>2021-09-19T09:17:35.000Z</time>
      </trkpt>
      <trkpt lat="47.29439" lon="-2.25884">
        <ele>18.60000038147</ele>
        <time>2021-09-19T09:17:39.000Z</time>
      </trkpt>
      <trkpt lat="47.2944" lon="-2.25893">
        <ele>18.60000038147</ele>
        <time>2021-09-19T09:17:40.000Z</time>
      </trkpt>
      <trkpt lat="47.29442" lon="-2.25923">
        <ele>18.60000038147</ele>
        <time>2021-09-19T09:17:44.000Z</time>
      </trkpt>
      <trkpt lat="47.29435" lon="-2.25936">
        <ele>18.60000038147</ele>
        <time>2021-09-19T09:17:47.000Z</time>
      </trkpt>
      <trkpt lat="47.2942" lon="-2.2595">
        <ele>18.60000038147</ele>
        <time>2021-09-19T09:17:51.000Z</time>
      </trkpt>
      <trkpt lat="47.29402" lon="-2.25953">
        <ele>18.60000038147</ele>
        <time>2021-09-19T09:17:56.000Z</time>
      </trkpt>
      <trkpt lat="47.29397" lon="-2.25955">
        <ele>18.60000038147</ele>
        <time>2021-09-19T09:17:58.000Z</time>
      </trkpt>
      <trkpt lat="47.29396" lon="-2.25959">
        <ele>18.60000038147</ele>
        <time>2021-09-19T09:18:00.000Z</time>
      </trkpt>
      <trkpt lat="47.29394" lon="-2.25978">
        <ele>18.60000038147</ele>
        <time>2021-09-19T09:18:04.000Z</time>
      </trkpt>
      <trkpt lat="47.29392" lon="-2.25985">
        <ele>18.60000038147</ele>
        <time>2021-09-19T09:18:05.000Z</time>
      </trkpt>
      <trkpt lat="47.29392" lon="-2.26015">
        <ele>18.60000038147</ele>
        <time>2021-09-19T09:18:09.000Z</time>
      </trkpt>
      <trkpt lat="47.29394" lon="-2.26022">
        <ele>18.60000038147</ele>
        <time>2021-09-19T09:18:10.000Z</time>
      </trkpt>
      <trkpt lat="47.29405" lon="-2.26042">
        <ele>18.60000038147</ele>
        <time>2021-09-19T09:18:13.000Z</time>
      </trkpt>
      <trkpt lat="47.29408" lon="-2.26049">
        <ele>18.60000038147</ele>
        <time>2021-09-19T09:18:14.000Z</time>
      </trkpt>
      <trkpt lat="47.2942" lon="-2.26095">
        <ele>18.60000038147</ele>
        <time>2021-09-19T09:18:20.000Z</time>
      </trkpt>
      <trkpt lat="47.29419" lon="-2.26105">
        <ele>18.60000038147</ele>
        <time>2021-09-19T09:18:21.000Z</time>
      </trkpt>
      <trkpt lat="47.29416" lon="-2.2613">
        <ele>18.60000038147</ele>
        <time>2021-09-19T09:18:24.000Z</time>
      </trkpt>
      <trkpt lat="47.29415" lon="-2.26142">
        <ele>18.60000038147</ele>
        <time>2021-09-19T09:18:26.000Z</time>
      </trkpt>
      <trkpt lat="47.29409" lon="-2.26162">
        <ele>18.60000038147</ele>
        <time>2021-09-19T09:18:30.000Z</time>
      </trkpt>
      <trkpt lat="47.29396" lon="-2.26168">
        <ele>19.200000762939</ele>
        <time>2021-09-19T09:18:34.000Z</time>
      </trkpt>
      <trkpt lat="47.29393" lon="-2.26168">
        <ele>19.60000038147</ele>
        <time>2021-09-19T09:18:35.000Z</time>
      </trkpt>
      <trkpt lat="47.2939" lon="-2.26167">
        <ele>20</ele>
        <time>2021-09-19T09:18:36.000Z</time>
      </trkpt>
      <trkpt lat="47.29386" lon="-2.26166">
        <ele>20.39999961853</ele>
        <time>2021-09-19T09:18:37.000Z</time>
      </trkpt>
      <trkpt lat="47.29383" lon="-2.26166">
        <ele>21</ele>
        <time>2021-09-19T09:18:38.000Z</time>
      </trkpt>
      <trkpt lat="47.29374" lon="-2.26165">
        <ele>21</ele>
        <time>2021-09-19T09:18:40.000Z</time>
      </trkpt>
      <trkpt lat="47.29351" lon="-2.26167">
        <ele>21</ele>
        <time>2021-09-19T09:18:47.000Z</time>
      </trkpt>
      <trkpt lat="47.29337" lon="-2.2617">
        <ele>21.39999961853</ele>
        <time>2021-09-19T09:18:53.000Z</time>
      </trkpt>
      <trkpt lat="47.29335" lon="-2.2617">
        <ele>21.799999237061</ele>
        <time>2021-09-19T09:18:54.000Z</time>
      </trkpt>
      <trkpt lat="47.29333" lon="-2.2617">
        <ele>22.60000038147</ele>
        <time>2021-09-19T09:18:55.000Z</time>
      </trkpt>
      <trkpt lat="47.29331" lon="-2.2617">
        <ele>23</ele>
        <time>2021-09-19T09:18:56.000Z</time>
      </trkpt>
      <trkpt lat="47.29323" lon="-2.26171">
        <ele>23</ele>
        <time>2021-09-19T09:19:00.000Z</time>
      </trkpt>
      <trkpt lat="47.29321" lon="-2.26172">
        <ele>23</ele>
        <time>2021-09-19T09:19:02.000Z</time>
      </trkpt>
      <trkpt lat="47.29312" lon="-2.26181">
        <ele>23</ele>
        <time>2021-09-19T09:19:10.000Z</time>
      </trkpt>
      <trkpt lat="47.2931" lon="-2.26181">
        <ele>23</ele>
        <time>2021-09-19T09:19:11.000Z</time>
      </trkpt>
      <trkpt lat="47.29293" lon="-2.26181">
        <ele>23</ele>
        <time>2021-09-19T09:19:16.000Z</time>
      </trkpt>
      <trkpt lat="47.29276" lon="-2.26179">
        <ele>23</ele>
        <time>2021-09-19T09:19:21.000Z</time>
      </trkpt>
      <trkpt lat="47.29265" lon="-2.26179">
        <ele>23</ele>
        <time>2021-09-19T09:19:25.000Z</time>
      </trkpt>
      <trkpt lat="47.29256" lon="-2.26162">
        <ele>23</ele>
        <time>2021-09-19T09:19:29.000Z</time>
      </trkpt>
      <trkpt lat="47.29246" lon="-2.26129">
        <ele>23.39999961853</ele>
        <time>2021-09-19T09:19:35.000Z</time>
      </trkpt>
      <trkpt lat="47.29244" lon="-2.26123">
        <ele>23.799999237061</ele>
        <time>2021-09-19T09:19:36.000Z</time>
      </trkpt>
      <trkpt lat="47.29241" lon="-2.26117">
        <ele>24.200000762939</ele>
        <time>2021-09-19T09:19:37.000Z</time>
      </trkpt>
      <trkpt lat="47.29239" lon="-2.26111">
        <ele>24.60000038147</ele>
        <time>2021-09-19T09:19:38.000Z</time>
      </trkpt>
      <trkpt lat="47.29236" lon="-2.26106">
        <ele>25</ele>
        <time>2021-09-19T09:19:39.000Z</time>
      </trkpt>
      <trkpt lat="47.29234" lon="-2.26101">
        <ele>25</ele>
        <time>2021-09-19T09:19:40.000Z</time>
      </trkpt>
      <trkpt lat="47.29226" lon="-2.26086">
        <ele>25</ele>
        <time>2021-09-19T09:19:43.000Z</time>
      </trkpt>
      <trkpt lat="47.29217" lon="-2.26072">
        <ele>25</ele>
        <time>2021-09-19T09:19:46.000Z</time>
      </trkpt>
      <trkpt lat="47.29188" lon="-2.26033">
        <ele>25</ele>
        <time>2021-09-19T09:19:54.000Z</time>
      </trkpt>
      <trkpt lat="47.29182" lon="-2.26018">
        <ele>25</ele>
        <time>2021-09-19T09:19:56.000Z</time>
      </trkpt>
      <trkpt lat="47.29174" lon="-2.25996">
        <ele>25</ele>
        <time>2021-09-19T09:19:59.000Z</time>
      </trkpt>
      <trkpt lat="47.29171" lon="-2.2599">
        <ele>25</ele>
        <time>2021-09-19T09:20:00.000Z</time>
      </trkpt>
      <trkpt lat="47.29167" lon="-2.25985">
        <ele>24.60000038147</ele>
        <time>2021-09-19T09:20:01.000Z</time>
      </trkpt>
      <trkpt lat="47.29162" lon="-2.25983">
        <ele>24.200000762939</ele>
        <time>2021-09-19T09:20:02.000Z</time>
      </trkpt>
      <trkpt lat="47.29158" lon="-2.25982">
        <ele>23.799999237061</ele>
        <time>2021-09-19T09:20:03.000Z</time>
      </trkpt>
      <trkpt lat="47.29153" lon="-2.25983">
        <ele>23.39999961853</ele>
        <time>2021-09-19T09:20:04.000Z</time>
      </trkpt>
      <trkpt lat="47.29147" lon="-2.25982">
        <ele>23</ele>
        <time>2021-09-19T09:20:05.000Z</time>
      </trkpt>
      <trkpt lat="47.29142" lon="-2.25981">
        <ele>23</ele>
        <time>2021-09-19T09:20:06.000Z</time>
      </trkpt>
      <trkpt lat="47.29136" lon="-2.25979">
        <ele>23</ele>
        <time>2021-09-19T09:20:07.000Z</time>
      </trkpt>
      <trkpt lat="47.29125" lon="-2.25977">
        <ele>23</ele>
        <time>2021-09-19T09:20:09.000Z</time>
      </trkpt>
      <trkpt lat="47.29111" lon="-2.25976">
        <ele>23</ele>
        <time>2021-09-19T09:20:12.000Z</time>
      </trkpt>
      <trkpt lat="47.29106" lon="-2.25977">
        <ele>23</ele>
        <time>2021-09-19T09:20:13.000Z</time>
      </trkpt>
      <trkpt lat="47.29094" lon="-2.25987">
        <ele>23</ele>
        <time>2021-09-19T09:20:16.000Z</time>
      </trkpt>
      <trkpt lat="47.29091" lon="-2.25991">
        <ele>23</ele>
        <time>2021-09-19T09:20:17.000Z</time>
      </trkpt>
      <trkpt lat="47.29084" lon="-2.26">
        <ele>23</ele>
        <time>2021-09-19T09:20:19.000Z</time>
      </trkpt>
      <trkpt lat="47.29086" lon="-2.26012">
        <ele>23</ele>
        <time>2021-09-19T09:20:21.000Z</time>
      </trkpt>
      <trkpt lat="47.29093" lon="-2.26031">
        <ele>23</ele>
        <time>2021-09-19T09:20:25.000Z</time>
      </trkpt>
      <trkpt lat="47.291" lon="-2.26059">
        <ele>23</ele>
        <time>2021-09-19T09:20:29.000Z</time>
      </trkpt>
      <trkpt lat="47.29102" lon="-2.26066">
        <ele>23</ele>
        <time>2021-09-19T09:20:30.000Z</time>
      </trkpt>
      <trkpt lat="47.29104" lon="-2.26079">
        <ele>23</ele>
        <time>2021-09-19T09:20:32.000Z</time>
      </trkpt>
      <trkpt lat="47.29106" lon="-2.26092">
        <ele>23</ele>
        <time>2021-09-19T09:20:34.000Z</time>
      </trkpt>
      <trkpt lat="47.29108" lon="-2.26104">
        <ele>23</ele>
        <time>2021-09-19T09:20:36.000Z</time>
      </trkpt>
      <trkpt lat="47.2911" lon="-2.26121">
        <ele>23</ele>
        <time>2021-09-19T09:20:39.000Z</time>
      </trkpt>
      <trkpt lat="47.29102" lon="-2.26129">
        <ele>23</ele>
        <time>2021-09-19T09:20:41.000Z</time>
      </trkpt>
      <trkpt lat="47.29097" lon="-2.26149">
        <ele>23</ele>
        <time>2021-09-19T09:20:44.000Z</time>
      </trkpt>
      <trkpt lat="47.29094" lon="-2.26182">
        <ele>23</ele>
        <time>2021-09-19T09:20:48.000Z</time>
      </trkpt>
      <trkpt lat="47.29093" lon="-2.2619">
        <ele>23.39999961853</ele>
        <time>2021-09-19T09:20:49.000Z</time>
      </trkpt>
      <trkpt lat="47.29091" lon="-2.26198">
        <ele>24</ele>
        <time>2021-09-19T09:20:50.000Z</time>
      </trkpt>
      <trkpt lat="47.2909" lon="-2.26207">
        <ele>24.39999961853</ele>
        <time>2021-09-19T09:20:51.000Z</time>
      </trkpt>
      <trkpt lat="47.29089" lon="-2.26215">
        <ele>24.799999237061</ele>
        <time>2021-09-19T09:20:52.000Z</time>
      </trkpt>
      <trkpt lat="47.29088" lon="-2.26223">
        <ele>25.200000762939</ele>
        <time>2021-09-19T09:20:53.000Z</time>
      </trkpt>
      <trkpt lat="47.29081" lon="-2.26257">
        <ele>25.200000762939</ele>
        <time>2021-09-19T09:20:57.000Z</time>
      </trkpt>
      <trkpt lat="47.29066" lon="-2.2632">
        <ele>25.200000762939</ele>
        <time>2021-09-19T09:21:05.000Z</time>
      </trkpt>
      <trkpt lat="47.2905" lon="-2.26345">
        <ele>25.200000762939</ele>
        <time>2021-09-19T09:21:09.000Z</time>
      </trkpt>
      <trkpt lat="47.29026" lon="-2.26365">
        <ele>25.200000762939</ele>
        <time>2021-09-19T09:21:14.000Z</time>
      </trkpt>
      <trkpt lat="47.29018" lon="-2.26374">
        <ele>25.200000762939</ele>
        <time>2021-09-19T09:21:16.000Z</time>
      </trkpt>
      <trkpt lat="47.29014" lon="-2.26388">
        <ele>25.200000762939</ele>
        <time>2021-09-19T09:21:18.000Z</time>
      </trkpt>
      <trkpt lat="47.29016" lon="-2.26417">
        <ele>25.200000762939</ele>
        <time>2021-09-19T09:21:22.000Z</time>
      </trkpt>
      <trkpt lat="47.2902" lon="-2.26465">
        <ele>25.200000762939</ele>
        <time>2021-09-19T09:21:27.000Z</time>
      </trkpt>
      <trkpt lat="47.29022" lon="-2.26486">
        <ele>24.799999237061</ele>
        <time>2021-09-19T09:21:29.000Z</time>
      </trkpt>
      <trkpt lat="47.29024" lon="-2.26496">
        <ele>24.39999961853</ele>
        <time>2021-09-19T09:21:30.000Z</time>
      </trkpt>
      <trkpt lat="47.29026" lon="-2.26506">
        <ele>24</ele>
        <time>2021-09-19T09:21:31.000Z</time>
      </trkpt>
      <trkpt lat="47.29028" lon="-2.26515">
        <ele>23.60000038147</ele>
        <time>2021-09-19T09:21:32.000Z</time>
      </trkpt>
      <trkpt lat="47.2903" lon="-2.26525">
        <ele>23.200000762939</ele>
        <time>2021-09-19T09:21:33.000Z</time>
      </trkpt>
      <trkpt lat="47.29033" lon="-2.26534">
        <ele>23.200000762939</ele>
        <time>2021-09-19T09:21:34.000Z</time>
      </trkpt>
      <trkpt lat="47.29043" lon="-2.26581">
        <ele>23.200000762939</ele>
        <time>2021-09-19T09:21:40.000Z</time>
      </trkpt>
      <trkpt lat="47.29045" lon="-2.26601">
        <ele>23.200000762939</ele>
        <time>2021-09-19T09:21:43.000Z</time>
      </trkpt>
      <trkpt lat="47.29047" lon="-2.26616">
        <ele>23.200000762939</ele>
        <time>2021-09-19T09:21:45.000Z</time>
      </trkpt>
      <trkpt lat="47.29047" lon="-2.26633">
        <ele>23.200000762939</ele>
        <time>2021-09-19T09:21:47.000Z</time>
      </trkpt>
      <trkpt lat="47.29049" lon="-2.26668">
        <ele>23.200000762939</ele>
        <time>2021-09-19T09:21:51.000Z</time>
      </trkpt>
      <trkpt lat="47.29055" lon="-2.26718">
        <ele>22.60000038147</ele>
        <time>2021-09-19T09:21:56.000Z</time>
      </trkpt>
      <trkpt lat="47.29057" lon="-2.26729">
        <ele>22.200000762939</ele>
        <time>2021-09-19T09:21:57.000Z</time>
      </trkpt>
      <trkpt lat="47.29059" lon="-2.2674">
        <ele>21.799999237061</ele>
        <time>2021-09-19T09:21:58.000Z</time>
      </trkpt>
      <trkpt lat="47.2906" lon="-2.26751">
        <ele>21.200000762939</ele>
        <time>2021-09-19T09:21:59.000Z</time>
      </trkpt>
      <trkpt lat="47.29062" lon="-2.26763">
        <ele>20.799999237061</ele>
        <time>2021-09-19T09:22:00.000Z</time>
      </trkpt>
      <trkpt lat="47.29064" lon="-2.26776">
        <ele>20.200000762939</ele>
        <time>2021-09-19T09:22:01.000Z</time>
      </trkpt>
      <trkpt lat="47.29065" lon="-2.26789">
        <ele>19.60000038147</ele>
        <time>2021-09-19T09:22:02.000Z</time>
      </trkpt>
      <trkpt lat="47.29066" lon="-2.26802">
        <ele>19.200000762939</ele>
        <time>2021-09-19T09:22:03.000Z</time>
      </trkpt>
      <trkpt lat="47.29066" lon="-2.26816">
        <ele>18.60000038147</ele>
        <time>2021-09-19T09:22:04.000Z</time>
      </trkpt>
      <trkpt lat="47.29066" lon="-2.26829">
        <ele>18.200000762939</ele>
        <time>2021-09-19T09:22:05.000Z</time>
      </trkpt>
      <trkpt lat="47.29065" lon="-2.26842">
        <ele>17.799999237061</ele>
        <time>2021-09-19T09:22:06.000Z</time>
      </trkpt>
      <trkpt lat="47.29065" lon="-2.26854">
        <ele>17.39999961853</ele>
        <time>2021-09-19T09:22:07.000Z</time>
      </trkpt>
      <trkpt lat="47.29064" lon="-2.26865">
        <ele>17</ele>
        <time>2021-09-19T09:22:08.000Z</time>
      </trkpt>
      <trkpt lat="47.29064" lon="-2.26876">
        <ele>16.60000038147</ele>
        <time>2021-09-19T09:22:09.000Z</time>
      </trkpt>
      <trkpt lat="47.29062" lon="-2.2694">
        <ele>16.60000038147</ele>
        <time>2021-09-19T09:22:15.000Z</time>
      </trkpt>
      <trkpt lat="47.2906" lon="-2.27004">
        <ele>16.60000038147</ele>
        <time>2021-09-19T09:22:22.000Z</time>
      </trkpt>
      <trkpt lat="47.29059" lon="-2.27027">
        <ele>16.60000038147</ele>
        <time>2021-09-19T09:22:25.000Z</time>
      </trkpt>
      <trkpt lat="47.29061" lon="-2.27034">
        <ele>16.60000038147</ele>
        <time>2021-09-19T09:22:26.000Z</time>
      </trkpt>
      <trkpt lat="47.29065" lon="-2.27057">
        <ele>16.60000038147</ele>
        <time>2021-09-19T09:22:30.000Z</time>
      </trkpt>
      <trkpt lat="47.2906" lon="-2.27075">
        <ele>16.60000038147</ele>
        <time>2021-09-19T09:22:34.000Z</time>
      </trkpt>
      <trkpt lat="47.29057" lon="-2.2708">
        <ele>16.60000038147</ele>
        <time>2021-09-19T09:22:35.000Z</time>
      </trkpt>
      <trkpt lat="47.29044" lon="-2.27095">
        <ele>16.60000038147</ele>
        <time>2021-09-19T09:22:39.000Z</time>
      </trkpt>
      <trkpt lat="47.29033" lon="-2.27101">
        <ele>16.60000038147</ele>
        <time>2021-09-19T09:22:42.000Z</time>
      </trkpt>
      <trkpt lat="47.2903" lon="-2.27105">
        <ele>16.60000038147</ele>
        <time>2021-09-19T09:22:43.000Z</time>
      </trkpt>
      <trkpt lat="47.29027" lon="-2.27116">
        <ele>16.60000038147</ele>
        <time>2021-09-19T09:22:46.000Z</time>
      </trkpt>
      <trkpt lat="47.29032" lon="-2.27124">
        <ele>16.60000038147</ele>
        <time>2021-09-19T09:22:48.000Z</time>
      </trkpt>
      <trkpt lat="47.29035" lon="-2.27127">
        <ele>16.60000038147</ele>
        <time>2021-09-19T09:22:49.000Z</time>
      </trkpt>
      <trkpt lat="47.29048" lon="-2.27139">
        <ele>16.60000038147</ele>
        <time>2021-09-19T09:22:53.000Z</time>
      </trkpt>
      <trkpt lat="47.29063" lon="-2.27168">
        <ele>16.60000038147</ele>
        <time>2021-09-19T09:22:59.000Z</time>
      </trkpt>
      <trkpt lat="47.29074" lon="-2.27183">
        <ele>16.60000038147</ele>
        <time>2021-09-19T09:23:02.000Z</time>
      </trkpt>
      <trkpt lat="47.29079" lon="-2.27188">
        <ele>16.60000038147</ele>
        <time>2021-09-19T09:23:03.000Z</time>
      </trkpt>
      <trkpt lat="47.29084" lon="-2.27191">
        <ele>16.60000038147</ele>
        <time>2021-09-19T09:23:04.000Z</time>
      </trkpt>
      <trkpt lat="47.29092" lon="-2.2719">
        <ele>16.200000762939</ele>
        <time>2021-09-19T09:23:06.000Z</time>
      </trkpt>
      <trkpt lat="47.29096" lon="-2.27191">
        <ele>15.60000038147</ele>
        <time>2021-09-19T09:23:07.000Z</time>
      </trkpt>
      <trkpt lat="47.29101" lon="-2.27191">
        <ele>15.199999809265</ele>
        <time>2021-09-19T09:23:08.000Z</time>
      </trkpt>
      <trkpt lat="47.29103" lon="-2.27192">
        <ele>14.800000190735</ele>
        <time>2021-09-19T09:23:09.000Z</time>
      </trkpt>
      <trkpt lat="47.29105" lon="-2.27193">
        <ele>14.39999961853</ele>
        <time>2021-09-19T09:23:10.000Z</time>
      </trkpt>
      <trkpt lat="47.29107" lon="-2.27194">
        <ele>14.39999961853</ele>
        <time>2021-09-19T09:23:11.000Z</time>
      </trkpt>
      <trkpt lat="47.29113" lon="-2.27198">
        <ele>14.39999961853</ele>
        <time>2021-09-19T09:23:16.000Z</time>
      </trkpt>
      <trkpt lat="47.29113" lon="-2.27207">
        <ele>14.39999961853</ele>
        <time>2021-09-19T09:23:20.000Z</time>
      </trkpt>
      <trkpt lat="47.29112" lon="-2.27226">
        <ele>14.39999961853</ele>
        <time>2021-09-19T09:23:26.000Z</time>
      </trkpt>
      <trkpt lat="47.29107" lon="-2.2725">
        <ele>14.39999961853</ele>
        <time>2021-09-19T09:23:31.000Z</time>
      </trkpt>
      <trkpt lat="47.29104" lon="-2.27273">
        <ele>14.39999961853</ele>
        <time>2021-09-19T09:23:36.000Z</time>
      </trkpt>
      <trkpt lat="47.29099" lon="-2.27307">
        <ele>14.39999961853</ele>
        <time>2021-09-19T09:23:42.000Z</time>
      </trkpt>
      <trkpt lat="47.29094" lon="-2.27338">
        <ele>14.39999961853</ele>
        <time>2021-09-19T09:23:48.000Z</time>
      </trkpt>
      <trkpt lat="47.29098" lon="-2.27352">
        <ele>14.39999961853</ele>
        <time>2021-09-19T09:23:52.000Z</time>
      </trkpt>
      <trkpt lat="47.29106" lon="-2.27382">
        <ele>14.39999961853</ele>
        <time>2021-09-19T09:23:57.000Z</time>
      </trkpt>
      <trkpt lat="47.29108" lon="-2.27398">
        <ele>14.39999961853</ele>
        <time>2021-09-19T09:23:59.000Z</time>
      </trkpt>
      <trkpt lat="47.2911" lon="-2.27416">
        <ele>14.39999961853</ele>
        <time>2021-09-19T09:24:01.000Z</time>
      </trkpt>
      <trkpt lat="47.29109" lon="-2.27425">
        <ele>14.39999961853</ele>
        <time>2021-09-19T09:24:02.000Z</time>
      </trkpt>
      <trkpt lat="47.29105" lon="-2.27486">
        <ele>14.39999961853</ele>
        <time>2021-09-19T09:24:09.000Z</time>
      </trkpt>
      <trkpt lat="47.29102" lon="-2.27531">
        <ele>14.39999961853</ele>
        <time>2021-09-19T09:24:16.000Z</time>
      </trkpt>
      <trkpt lat="47.29099" lon="-2.27534">
        <ele>14.39999961853</ele>
        <time>2021-09-19T09:24:17.000Z</time>
      </trkpt>
      <trkpt lat="47.29079" lon="-2.27541">
        <ele>14.39999961853</ele>
        <time>2021-09-19T09:24:22.000Z</time>
      </trkpt>
      <trkpt lat="47.29073" lon="-2.27539">
        <ele>14.39999961853</ele>
        <time>2021-09-19T09:24:23.000Z</time>
      </trkpt>
      <trkpt lat="47.29053" lon="-2.27537">
        <ele>14.39999961853</ele>
        <time>2021-09-19T09:24:26.000Z</time>
      </trkpt>
      <trkpt lat="47.2904" lon="-2.27535">
        <ele>14.800000190735</ele>
        <time>2021-09-19T09:24:28.000Z</time>
      </trkpt>
      <trkpt lat="47.29034" lon="-2.27533">
        <ele>15.199999809265</ele>
        <time>2021-09-19T09:24:29.000Z</time>
      </trkpt>
      <trkpt lat="47.29028" lon="-2.27532">
        <ele>15.60000038147</ele>
        <time>2021-09-19T09:24:30.000Z</time>
      </trkpt>
      <trkpt lat="47.29021" lon="-2.27531">
        <ele>16</ele>
        <time>2021-09-19T09:24:31.000Z</time>
      </trkpt>
      <trkpt lat="47.29015" lon="-2.2753">
        <ele>16.39999961853</ele>
        <time>2021-09-19T09:24:32.000Z</time>
      </trkpt>
      <trkpt lat="47.28998" lon="-2.2753">
        <ele>16.39999961853</ele>
        <time>2021-09-19T09:24:35.000Z</time>
      </trkpt>
      <trkpt lat="47.28941" lon="-2.27528">
        <ele>16.39999961853</ele>
        <time>2021-09-19T09:24:44.000Z</time>
      </trkpt>
      <trkpt lat="47.28891" lon="-2.27531">
        <ele>16.39999961853</ele>
        <time>2021-09-19T09:24:52.000Z</time>
      </trkpt>
      <trkpt lat="47.28844" lon="-2.27539">
        <ele>16.39999961853</ele>
        <time>2021-09-19T09:25:00.000Z</time>
      </trkpt>
      <trkpt lat="47.2882" lon="-2.27543">
        <ele>16.39999961853</ele>
        <time>2021-09-19T09:25:04.000Z</time>
      </trkpt>
      <trkpt lat="47.28809" lon="-2.27548">
        <ele>16.39999961853</ele>
        <time>2021-09-19T09:25:06.000Z</time>
      </trkpt>
      <trkpt lat="47.28799" lon="-2.27551">
        <ele>16.39999961853</ele>
        <time>2021-09-19T09:25:08.000Z</time>
      </trkpt>
      <trkpt lat="47.28789" lon="-2.27542">
        <ele>16.39999961853</ele>
        <time>2021-09-19T09:25:10.000Z</time>
      </trkpt>
      <trkpt lat="47.28768" lon="-2.2753">
        <ele>16.39999961853</ele>
        <time>2021-09-19T09:25:14.000Z</time>
      </trkpt>
      <trkpt lat="47.2873" lon="-2.27512">
        <ele>16.39999961853</ele>
        <time>2021-09-19T09:25:21.000Z</time>
      </trkpt>
      <trkpt lat="47.28705" lon="-2.27495">
        <ele>16.39999961853</ele>
        <time>2021-09-19T09:25:26.000Z</time>
      </trkpt>
      <trkpt lat="47.28695" lon="-2.27488">
        <ele>16.39999961853</ele>
        <time>2021-09-19T09:25:28.000Z</time>
      </trkpt>
      <trkpt lat="47.28687" lon="-2.27479">
        <ele>16.39999961853</ele>
        <time>2021-09-19T09:25:30.000Z</time>
      </trkpt>
      <trkpt lat="47.28671" lon="-2.2746">
        <ele>16.39999961853</ele>
        <time>2021-09-19T09:25:34.000Z</time>
      </trkpt>
      <trkpt lat="47.28648" lon="-2.27427">
        <ele>16.799999237061</ele>
        <time>2021-09-19T09:25:40.000Z</time>
      </trkpt>
      <trkpt lat="47.28645" lon="-2.27421">
        <ele>17.200000762939</ele>
        <time>2021-09-19T09:25:41.000Z</time>
      </trkpt>
      <trkpt lat="47.28642" lon="-2.27414">
        <ele>17.799999237061</ele>
        <time>2021-09-19T09:25:42.000Z</time>
      </trkpt>
      <trkpt lat="47.28638" lon="-2.27408">
        <ele>18.200000762939</ele>
        <time>2021-09-19T09:25:43.000Z</time>
      </trkpt>
      <trkpt lat="47.28635" lon="-2.27403">
        <ele>18.60000038147</ele>
        <time>2021-09-19T09:25:44.000Z</time>
      </trkpt>
      <trkpt lat="47.28616" lon="-2.27366">
        <ele>18.60000038147</ele>
        <time>2021-09-19T09:25:50.000Z</time>
      </trkpt>
      <trkpt lat="47.28609" lon="-2.27356">
        <ele>18.60000038147</ele>
        <time>2021-09-19T09:25:52.000Z</time>
      </trkpt>
      <trkpt lat="47.286" lon="-2.2735">
        <ele>18.60000038147</ele>
        <time>2021-09-19T09:25:54.000Z</time>
      </trkpt>
      <trkpt lat="47.28581" lon="-2.27354">
        <ele>18.60000038147</ele>
        <time>2021-09-19T09:25:58.000Z</time>
      </trkpt>
      <trkpt lat="47.28577" lon="-2.27356">
        <ele>19</ele>
        <time>2021-09-19T09:25:59.000Z</time>
      </trkpt>
      <trkpt lat="47.28572" lon="-2.27359">
        <ele>19.39999961853</ele>
        <time>2021-09-19T09:26:00.000Z</time>
      </trkpt>
      <trkpt lat="47.28567" lon="-2.27361">
        <ele>19.799999237061</ele>
        <time>2021-09-19T09:26:01.000Z</time>
      </trkpt>
      <trkpt lat="47.28563" lon="-2.27363">
        <ele>20.200000762939</ele>
        <time>2021-09-19T09:26:02.000Z</time>
      </trkpt>
      <trkpt lat="47.28557" lon="-2.27365">
        <ele>20.60000038147</ele>
        <time>2021-09-19T09:26:03.000Z</time>
      </trkpt>
      <trkpt lat="47.28552" lon="-2.27365">
        <ele>20.60000038147</ele>
        <time>2021-09-19T09:26:04.000Z</time>
      </trkpt>
      <trkpt lat="47.28514" lon="-2.27364">
        <ele>20.60000038147</ele>
        <time>2021-09-19T09:26:12.000Z</time>
      </trkpt>
      <trkpt lat="47.28504" lon="-2.27364">
        <ele>20.60000038147</ele>
        <time>2021-09-19T09:26:14.000Z</time>
      </trkpt>
      <trkpt lat="47.28485" lon="-2.27361">
        <ele>20.60000038147</ele>
        <time>2021-09-19T09:26:18.000Z</time>
      </trkpt>
      <trkpt lat="47.28476" lon="-2.27359">
        <ele>21</ele>
        <time>2021-09-19T09:26:20.000Z</time>
      </trkpt>
      <trkpt lat="47.28472" lon="-2.27358">
        <ele>21.799999237061</ele>
        <time>2021-09-19T09:26:21.000Z</time>
      </trkpt>
      <trkpt lat="47.28468" lon="-2.27358">
        <ele>22.200000762939</ele>
        <time>2021-09-19T09:26:22.000Z</time>
      </trkpt>
      <trkpt lat="47.28463" lon="-2.27357">
        <ele>22.60000038147</ele>
        <time>2021-09-19T09:26:23.000Z</time>
      </trkpt>
      <trkpt lat="47.28454" lon="-2.27356">
        <ele>22.60000038147</ele>
        <time>2021-09-19T09:26:25.000Z</time>
      </trkpt>
      <trkpt lat="47.28418" lon="-2.27357">
        <ele>22.60000038147</ele>
        <time>2021-09-19T09:26:33.000Z</time>
      </trkpt>
      <trkpt lat="47.28393" lon="-2.27359">
        <ele>23</ele>
        <time>2021-09-19T09:26:39.000Z</time>
      </trkpt>
      <trkpt lat="47.2839" lon="-2.27358">
        <ele>23.39999961853</ele>
        <time>2021-09-19T09:26:40.000Z</time>
      </trkpt>
      <trkpt lat="47.28386" lon="-2.27359">
        <ele>23.799999237061</ele>
        <time>2021-09-19T09:26:41.000Z</time>
      </trkpt>
      <trkpt lat="47.28384" lon="-2.27361">
        <ele>24.200000762939</ele>
        <time>2021-09-19T09:26:42.000Z</time>
      </trkpt>
      <trkpt lat="47.28383" lon="-2.27366">
        <ele>24.799999237061</ele>
        <time>2021-09-19T09:26:43.000Z</time>
      </trkpt>
      <trkpt lat="47.28382" lon="-2.27374">
        <ele>24.799999237061</ele>
        <time>2021-09-19T09:26:45.000Z</time>
      </trkpt>
      <trkpt lat="47.2838" lon="-2.27383">
        <ele>25.200000762939</ele>
        <time>2021-09-19T09:26:47.000Z</time>
      </trkpt>
      <trkpt lat="47.2838" lon="-2.27386">
        <ele>25.60000038147</ele>
        <time>2021-09-19T09:26:48.000Z</time>
      </trkpt>
      <trkpt lat="47.2838" lon="-2.27389">
        <ele>26</ele>
        <time>2021-09-19T09:26:49.000Z</time>
      </trkpt>
      <trkpt lat="47.28379" lon="-2.27393">
        <ele>26.39999961853</ele>
        <time>2021-09-19T09:26:50.000Z</time>
      </trkpt>
      <trkpt lat="47.28379" lon="-2.27396">
        <ele>26.799999237061</ele>
        <time>2021-09-19T09:26:51.000Z</time>
      </trkpt>
      <trkpt lat="47.28378" lon="-2.27403">
        <ele>26.799999237061</ele>
        <time>2021-09-19T09:26:53.000Z</time>
      </trkpt>
      <trkpt lat="47.28376" lon="-2.27415">
        <ele>27.200000762939</ele>
        <time>2021-09-19T09:26:56.000Z</time>
      </trkpt>
      <trkpt lat="47.28375" lon="-2.27419">
        <ele>27.799999237061</ele>
        <time>2021-09-19T09:26:57.000Z</time>
      </trkpt>
      <trkpt lat="47.28375" lon="-2.27424">
        <ele>28.200000762939</ele>
        <time>2021-09-19T09:26:58.000Z</time>
      </trkpt>
      <trkpt lat="47.28374" lon="-2.27428">
        <ele>28.60000038147</ele>
        <time>2021-09-19T09:26:59.000Z</time>
      </trkpt>
      <trkpt lat="47.28373" lon="-2.27433">
        <ele>29</ele>
        <time>2021-09-19T09:27:00.000Z</time>
      </trkpt>
      <trkpt lat="47.28373" lon="-2.27437">
        <ele>29.39999961853</ele>
        <time>2021-09-19T09:27:01.000Z</time>
      </trkpt>
      <trkpt lat="47.28372" lon="-2.27441">
        <ele>29.799999237061</ele>
        <time>2021-09-19T09:27:02.000Z</time>
      </trkpt>
      <trkpt lat="47.28371" lon="-2.27445">
        <ele>30.200000762939</ele>
        <time>2021-09-19T09:27:03.000Z</time>
      </trkpt>
      <trkpt lat="47.28371" lon="-2.2745">
        <ele>30.60000038147</ele>
        <time>2021-09-19T09:27:04.000Z</time>
      </trkpt>
      <trkpt lat="47.2837" lon="-2.27455">
        <ele>31.200000762939</ele>
        <time>2021-09-19T09:27:05.000Z</time>
      </trkpt>
      <trkpt lat="47.28369" lon="-2.2746">
        <ele>31.200000762939</ele>
        <time>2021-09-19T09:27:06.000Z</time>
      </trkpt>
      <trkpt lat="47.28366" lon="-2.27497">
        <ele>31.200000762939</ele>
        <time>2021-09-19T09:27:13.000Z</time>
      </trkpt>
      <trkpt lat="47.28361" lon="-2.27529">
        <ele>31.200000762939</ele>
        <time>2021-09-19T09:27:19.000Z</time>
      </trkpt>
      <trkpt lat="47.28354" lon="-2.27571">
        <ele>31.200000762939</ele>
        <time>2021-09-19T09:27:27.000Z</time>
      </trkpt>
      <trkpt lat="47.2835" lon="-2.27592">
        <ele>31.200000762939</ele>
        <time>2021-09-19T09:27:31.000Z</time>
      </trkpt>
      <trkpt lat="47.2835" lon="-2.27625">
        <ele>31.200000762939</ele>
        <time>2021-09-19T09:27:37.000Z</time>
      </trkpt>
      <trkpt lat="47.28345" lon="-2.27674">
        <ele>31.200000762939</ele>
        <time>2021-09-19T09:27:45.000Z</time>
      </trkpt>
      <trkpt lat="47.28342" lon="-2.27701">
        <ele>30.60000038147</ele>
        <time>2021-09-19T09:27:49.000Z</time>
      </trkpt>
      <trkpt lat="47.28341" lon="-2.27708">
        <ele>30.200000762939</ele>
        <time>2021-09-19T09:27:50.000Z</time>
      </trkpt>
      <trkpt lat="47.28341" lon="-2.27716">
        <ele>29.799999237061</ele>
        <time>2021-09-19T09:27:51.000Z</time>
      </trkpt>
      <trkpt lat="47.28341" lon="-2.27723">
        <ele>29.200000762939</ele>
        <time>2021-09-19T09:27:52.000Z</time>
      </trkpt>
      <trkpt lat="47.2834" lon="-2.2773">
        <ele>28.799999237061</ele>
        <time>2021-09-19T09:27:53.000Z</time>
      </trkpt>
      <trkpt lat="47.28339" lon="-2.27748">
        <ele>28.799999237061</ele>
        <time>2021-09-19T09:27:56.000Z</time>
      </trkpt>
      <trkpt lat="47.28336" lon="-2.27784">
        <ele>28.799999237061</ele>
        <time>2021-09-19T09:28:02.000Z</time>
      </trkpt>
      <trkpt lat="47.28336" lon="-2.2779">
        <ele>28.799999237061</ele>
        <time>2021-09-19T09:28:03.000Z</time>
      </trkpt>
      <trkpt lat="47.28332" lon="-2.27837">
        <ele>28.799999237061</ele>
        <time>2021-09-19T09:28:11.000Z</time>
      </trkpt>
      <trkpt lat="47.2833" lon="-2.27866">
        <ele>28.799999237061</ele>
        <time>2021-09-19T09:28:16.000Z</time>
      </trkpt>
      <trkpt lat="47.28324" lon="-2.27923">
        <ele>28.799999237061</ele>
        <time>2021-09-19T09:28:25.000Z</time>
      </trkpt>
      <trkpt lat="47.28324" lon="-2.27963">
        <ele>28.799999237061</ele>
        <time>2021-09-19T09:28:31.000Z</time>
      </trkpt>
      <trkpt lat="47.28322" lon="-2.27969">
        <ele>28.799999237061</ele>
        <time>2021-09-19T09:28:32.000Z</time>
      </trkpt>
      <trkpt lat="47.28318" lon="-2.27984">
        <ele>28.799999237061</ele>
        <time>2021-09-19T09:28:35.000Z</time>
      </trkpt>
      <trkpt lat="47.28319" lon="-2.27991">
        <ele>28.799999237061</ele>
        <time>2021-09-19T09:28:36.000Z</time>
      </trkpt>
      <trkpt lat="47.28322" lon="-2.28011">
        <ele>28.799999237061</ele>
        <time>2021-09-19T09:28:39.000Z</time>
      </trkpt>
      <trkpt lat="47.28322" lon="-2.28019">
        <ele>28.39999961853</ele>
        <time>2021-09-19T09:28:40.000Z</time>
      </trkpt>
      <trkpt lat="47.28322" lon="-2.28027">
        <ele>28</ele>
        <time>2021-09-19T09:28:41.000Z</time>
      </trkpt>
      <trkpt lat="47.28322" lon="-2.28037">
        <ele>27.60000038147</ele>
        <time>2021-09-19T09:28:42.000Z</time>
      </trkpt>
      <trkpt lat="47.28323" lon="-2.28046">
        <ele>27.200000762939</ele>
        <time>2021-09-19T09:28:43.000Z</time>
      </trkpt>
      <trkpt lat="47.28323" lon="-2.28057">
        <ele>26.799999237061</ele>
        <time>2021-09-19T09:28:44.000Z</time>
      </trkpt>
      <trkpt lat="47.28324" lon="-2.28079">
        <ele>26.799999237061</ele>
        <time>2021-09-19T09:28:46.000Z</time>
      </trkpt>
      <trkpt lat="47.28324" lon="-2.28089">
        <ele>26.200000762939</ele>
        <time>2021-09-19T09:28:47.000Z</time>
      </trkpt>
      <trkpt lat="47.28324" lon="-2.28099">
        <ele>25.799999237061</ele>
        <time>2021-09-19T09:28:48.000Z</time>
      </trkpt>
      <trkpt lat="47.28324" lon="-2.28109">
        <ele>24.799999237061</ele>
        <time>2021-09-19T09:28:49.000Z</time>
      </trkpt>
      <trkpt lat="47.28323" lon="-2.28118">
        <ele>24.39999961853</ele>
        <time>2021-09-19T09:28:50.000Z</time>
      </trkpt>
      <trkpt lat="47.28323" lon="-2.28133">
        <ele>24.39999961853</ele>
        <time>2021-09-19T09:28:52.000Z</time>
      </trkpt>
      <trkpt lat="47.28323" lon="-2.28179">
        <ele>24.39999961853</ele>
        <time>2021-09-19T09:28:59.000Z</time>
      </trkpt>
      <trkpt lat="47.28324" lon="-2.28197">
        <ele>24.799999237061</ele>
        <time>2021-09-19T09:29:02.000Z</time>
      </trkpt>
      <trkpt lat="47.28324" lon="-2.28203">
        <ele>25.200000762939</ele>
        <time>2021-09-19T09:29:03.000Z</time>
      </trkpt>
      <trkpt lat="47.28324" lon="-2.28209">
        <ele>25.799999237061</ele>
        <time>2021-09-19T09:29:04.000Z</time>
      </trkpt>
      <trkpt lat="47.28324" lon="-2.28215">
        <ele>26.200000762939</ele>
        <time>2021-09-19T09:29:05.000Z</time>
      </trkpt>
      <trkpt lat="47.28324" lon="-2.28222">
        <ele>26.60000038147</ele>
        <time>2021-09-19T09:29:06.000Z</time>
      </trkpt>
      <trkpt lat="47.28325" lon="-2.2825">
        <ele>27</ele>
        <time>2021-09-19T09:29:11.000Z</time>
      </trkpt>
      <trkpt lat="47.28325" lon="-2.28256">
        <ele>27.60000038147</ele>
        <time>2021-09-19T09:29:12.000Z</time>
      </trkpt>
      <trkpt lat="47.28325" lon="-2.28262">
        <ele>28</ele>
        <time>2021-09-19T09:29:13.000Z</time>
      </trkpt>
      <trkpt lat="47.28325" lon="-2.28267">
        <ele>28.799999237061</ele>
        <time>2021-09-19T09:29:14.000Z</time>
      </trkpt>
      <trkpt lat="47.28325" lon="-2.28298">
        <ele>28.799999237061</ele>
        <time>2021-09-19T09:29:20.000Z</time>
      </trkpt>
      <trkpt lat="47.28324" lon="-2.28324">
        <ele>29.200000762939</ele>
        <time>2021-09-19T09:29:26.000Z</time>
      </trkpt>
      <trkpt lat="47.28324" lon="-2.28328">
        <ele>29.60000038147</ele>
        <time>2021-09-19T09:29:27.000Z</time>
      </trkpt>
      <trkpt lat="47.28324" lon="-2.28333">
        <ele>30</ele>
        <time>2021-09-19T09:29:28.000Z</time>
      </trkpt>
      <trkpt lat="47.28325" lon="-2.28338">
        <ele>30.39999961853</ele>
        <time>2021-09-19T09:29:29.000Z</time>
      </trkpt>
      <trkpt lat="47.28325" lon="-2.28342">
        <ele>30.799999237061</ele>
        <time>2021-09-19T09:29:30.000Z</time>
      </trkpt>
      <trkpt lat="47.28325" lon="-2.2835">
        <ele>30.799999237061</ele>
        <time>2021-09-19T09:29:33.000Z</time>
      </trkpt>
      <trkpt lat="47.28325" lon="-2.28351">
        <ele>30.799999237061</ele>
        <time>2021-09-19T09:29:34.000Z</time>
      </trkpt>
      <trkpt lat="47.28325" lon="-2.28352">
        <ele>30.799999237061</ele>
        <time>2021-09-19T09:29:49.000Z</time>
      </trkpt>
      <trkpt lat="47.28325" lon="-2.28355">
        <ele>30.799999237061</ele>
        <time>2021-09-19T09:29:50.000Z</time>
      </trkpt>
      <trkpt lat="47.28323" lon="-2.28368">
        <ele>30.799999237061</ele>
        <time>2021-09-19T09:29:54.000Z</time>
      </trkpt>
      <trkpt lat="47.28319" lon="-2.28395">
        <ele>30.799999237061</ele>
        <time>2021-09-19T09:29:59.000Z</time>
      </trkpt>
      <trkpt lat="47.28309" lon="-2.2843">
        <ele>30.799999237061</ele>
        <time>2021-09-19T09:30:05.000Z</time>
      </trkpt>
      <trkpt lat="47.28297" lon="-2.28481">
        <ele>30.799999237061</ele>
        <time>2021-09-19T09:30:13.000Z</time>
      </trkpt>
      <trkpt lat="47.2829" lon="-2.28532">
        <ele>30.799999237061</ele>
        <time>2021-09-19T09:30:20.000Z</time>
      </trkpt>
      <trkpt lat="47.28279" lon="-2.28596">
        <ele>30.799999237061</ele>
        <time>2021-09-19T09:30:28.000Z</time>
      </trkpt>
      <trkpt lat="47.28266" lon="-2.28657">
        <ele>30.799999237061</ele>
        <time>2021-09-19T09:30:36.000Z</time>
      </trkpt>
      <trkpt lat="47.28255" lon="-2.28711">
        <ele>30.799999237061</ele>
        <time>2021-09-19T09:30:43.000Z</time>
      </trkpt>
      <trkpt lat="47.28244" lon="-2.28776">
        <ele>30.799999237061</ele>
        <time>2021-09-19T09:30:51.000Z</time>
      </trkpt>
      <trkpt lat="47.28235" lon="-2.28836">
        <ele>30.799999237061</ele>
        <time>2021-09-19T09:30:59.000Z</time>
      </trkpt>
      <trkpt lat="47.28229" lon="-2.28857">
        <ele>30.799999237061</ele>
        <time>2021-09-19T09:31:02.000Z</time>
      </trkpt>
      <trkpt lat="47.28222" lon="-2.28868">
        <ele>30.799999237061</ele>
        <time>2021-09-19T09:31:04.000Z</time>
      </trkpt>
      <trkpt lat="47.28206" lon="-2.28869">
        <ele>30.799999237061</ele>
        <time>2021-09-19T09:31:07.000Z</time>
      </trkpt>
      <trkpt lat="47.282" lon="-2.28866">
        <ele>30.39999961853</ele>
        <time>2021-09-19T09:31:08.000Z</time>
      </trkpt>
      <trkpt lat="47.28195" lon="-2.28861">
        <ele>30</ele>
        <time>2021-09-19T09:31:09.000Z</time>
      </trkpt>
      <trkpt lat="47.28189" lon="-2.28856">
        <ele>29.60000038147</ele>
        <time>2021-09-19T09:31:10.000Z</time>
      </trkpt>
      <trkpt lat="47.28184" lon="-2.28851">
        <ele>29.200000762939</ele>
        <time>2021-09-19T09:31:11.000Z</time>
      </trkpt>
      <trkpt lat="47.28178" lon="-2.28846">
        <ele>28.799999237061</ele>
        <time>2021-09-19T09:31:12.000Z</time>
      </trkpt>
      <trkpt lat="47.28142" lon="-2.28817">
        <ele>28.799999237061</ele>
        <time>2021-09-19T09:31:18.000Z</time>
      </trkpt>
      <trkpt lat="47.28109" lon="-2.28793">
        <ele>28.200000762939</ele>
        <time>2021-09-19T09:31:23.000Z</time>
      </trkpt>
      <trkpt lat="47.28102" lon="-2.28789">
        <ele>27.799999237061</ele>
        <time>2021-09-19T09:31:24.000Z</time>
      </trkpt>
      <trkpt lat="47.28095" lon="-2.28785">
        <ele>27.39999961853</ele>
        <time>2021-09-19T09:31:25.000Z</time>
      </trkpt>
      <trkpt lat="47.28088" lon="-2.28781">
        <ele>27</ele>
        <time>2021-09-19T09:31:26.000Z</time>
      </trkpt>
      <trkpt lat="47.28081" lon="-2.28777">
        <ele>26.60000038147</ele>
        <time>2021-09-19T09:31:27.000Z</time>
      </trkpt>
      <trkpt lat="47.28052" lon="-2.28763">
        <ele>26.60000038147</ele>
        <time>2021-09-19T09:31:31.000Z</time>
      </trkpt>
      <trkpt lat="47.28045" lon="-2.2876">
        <ele>26.200000762939</ele>
        <time>2021-09-19T09:31:32.000Z</time>
      </trkpt>
      <trkpt lat="47.28037" lon="-2.28758">
        <ele>25.60000038147</ele>
        <time>2021-09-19T09:31:33.000Z</time>
      </trkpt>
      <trkpt lat="47.2803" lon="-2.28756">
        <ele>25.200000762939</ele>
        <time>2021-09-19T09:31:34.000Z</time>
      </trkpt>
      <trkpt lat="47.28023" lon="-2.28755">
        <ele>24.799999237061</ele>
        <time>2021-09-19T09:31:35.000Z</time>
      </trkpt>
      <trkpt lat="47.28016" lon="-2.28753">
        <ele>24.39999961853</ele>
        <time>2021-09-19T09:31:36.000Z</time>
      </trkpt>
      <trkpt lat="47.27995" lon="-2.2875">
        <ele>24.39999961853</ele>
        <time>2021-09-19T09:31:39.000Z</time>
      </trkpt>
      <trkpt lat="47.27982" lon="-2.28748">
        <ele>24.39999961853</ele>
        <time>2021-09-19T09:31:41.000Z</time>
      </trkpt>
      <trkpt lat="47.27961" lon="-2.28747">
        <ele>24.39999961853</ele>
        <time>2021-09-19T09:31:44.000Z</time>
      </trkpt>
      <trkpt lat="47.27948" lon="-2.28749">
        <ele>24.39999961853</ele>
        <time>2021-09-19T09:31:46.000Z</time>
      </trkpt>
      <trkpt lat="47.27911" lon="-2.28763">
        <ele>24.39999961853</ele>
        <time>2021-09-19T09:31:52.000Z</time>
      </trkpt>
      <trkpt lat="47.27881" lon="-2.28775">
        <ele>24.39999961853</ele>
        <time>2021-09-19T09:31:58.000Z</time>
      </trkpt>
      <trkpt lat="47.27875" lon="-2.28789">
        <ele>24.39999961853</ele>
        <time>2021-09-19T09:32:03.000Z</time>
      </trkpt>
      <trkpt lat="47.27861" lon="-2.28815">
        <ele>24.39999961853</ele>
        <time>2021-09-19T09:32:10.000Z</time>
      </trkpt>
      <trkpt lat="47.27844" lon="-2.28807">
        <ele>24.39999961853</ele>
        <time>2021-09-19T09:32:14.000Z</time>
      </trkpt>
      <trkpt lat="47.27821" lon="-2.28797">
        <ele>24.39999961853</ele>
        <time>2021-09-19T09:32:18.000Z</time>
      </trkpt>
      <trkpt lat="47.27815" lon="-2.28796">
        <ele>24.39999961853</ele>
        <time>2021-09-19T09:32:19.000Z</time>
      </trkpt>
      <trkpt lat="47.27791" lon="-2.28797">
        <ele>24.39999961853</ele>
        <time>2021-09-19T09:32:23.000Z</time>
      </trkpt>
      <trkpt lat="47.27785" lon="-2.28797">
        <ele>24.39999961853</ele>
        <time>2021-09-19T09:32:24.000Z</time>
      </trkpt>
      <trkpt lat="47.27773" lon="-2.28798">
        <ele>24.39999961853</ele>
        <time>2021-09-19T09:32:26.000Z</time>
      </trkpt>
      <trkpt lat="47.27756" lon="-2.28804">
        <ele>24.39999961853</ele>
        <time>2021-09-19T09:32:29.000Z</time>
      </trkpt>
      <trkpt lat="47.27714" lon="-2.28819">
        <ele>24.39999961853</ele>
        <time>2021-09-19T09:32:36.000Z</time>
      </trkpt>
      <trkpt lat="47.27672" lon="-2.28836">
        <ele>24.39999961853</ele>
        <time>2021-09-19T09:32:43.000Z</time>
      </trkpt>
      <trkpt lat="47.27632" lon="-2.28851">
        <ele>24.39999961853</ele>
        <time>2021-09-19T09:32:50.000Z</time>
      </trkpt>
      <trkpt lat="47.27585" lon="-2.2887">
        <ele>24.39999961853</ele>
        <time>2021-09-19T09:32:58.000Z</time>
      </trkpt>
      <trkpt lat="47.27551" lon="-2.2889">
        <ele>24.39999961853</ele>
        <time>2021-09-19T09:33:05.000Z</time>
      </trkpt>
      <trkpt lat="47.27516" lon="-2.28909">
        <ele>24.39999961853</ele>
        <time>2021-09-19T09:33:12.000Z</time>
      </trkpt>
      <trkpt lat="47.2749" lon="-2.28926">
        <ele>24.39999961853</ele>
        <time>2021-09-19T09:33:17.000Z</time>
      </trkpt>
      <trkpt lat="47.27481" lon="-2.28935">
        <ele>24.39999961853</ele>
        <time>2021-09-19T09:33:19.000Z</time>
      </trkpt>
      <trkpt lat="47.27476" lon="-2.2894">
        <ele>24.39999961853</ele>
        <time>2021-09-19T09:33:20.000Z</time>
      </trkpt>
      <trkpt lat="47.27469" lon="-2.28951">
        <ele>24.39999961853</ele>
        <time>2021-09-19T09:33:22.000Z</time>
      </trkpt>
      <trkpt lat="47.2746" lon="-2.28974">
        <ele>24.39999961853</ele>
        <time>2021-09-19T09:33:25.000Z</time>
      </trkpt>
      <trkpt lat="47.27441" lon="-2.29017">
        <ele>24.39999961853</ele>
        <time>2021-09-19T09:33:31.000Z</time>
      </trkpt>
      <trkpt lat="47.27421" lon="-2.29033">
        <ele>24.39999961853</ele>
        <time>2021-09-19T09:33:35.000Z</time>
      </trkpt>
      <trkpt lat="47.27397" lon="-2.29038">
        <ele>24.39999961853</ele>
        <time>2021-09-19T09:33:39.000Z</time>
      </trkpt>
      <trkpt lat="47.27383" lon="-2.2904">
        <ele>24.39999961853</ele>
        <time>2021-09-19T09:33:41.000Z</time>
      </trkpt>
      <trkpt lat="47.27355" lon="-2.29038">
        <ele>24.39999961853</ele>
        <time>2021-09-19T09:33:46.000Z</time>
      </trkpt>
      <trkpt lat="47.2735" lon="-2.29035">
        <ele>24.39999961853</ele>
        <time>2021-09-19T09:33:47.000Z</time>
      </trkpt>
      <trkpt lat="47.27339" lon="-2.29017">
        <ele>24.39999961853</ele>
        <time>2021-09-19T09:33:50.000Z</time>
      </trkpt>
      <trkpt lat="47.2734" lon="-2.28994">
        <ele>24.39999961853</ele>
        <time>2021-09-19T09:33:53.000Z</time>
      </trkpt>
      <trkpt lat="47.27339" lon="-2.2896">
        <ele>24.39999961853</ele>
        <time>2021-09-19T09:33:57.000Z</time>
      </trkpt>
      <trkpt lat="47.27328" lon="-2.28946">
        <ele>24.39999961853</ele>
        <time>2021-09-19T09:34:00.000Z</time>
      </trkpt>
      <trkpt lat="47.27317" lon="-2.28949">
        <ele>24.39999961853</ele>
        <time>2021-09-19T09:34:03.000Z</time>
      </trkpt>
      <trkpt lat="47.2731" lon="-2.28965">
        <ele>24.39999961853</ele>
        <time>2021-09-19T09:34:07.000Z</time>
      </trkpt>
      <trkpt lat="47.27306" lon="-2.28971">
        <ele>24.39999961853</ele>
        <time>2021-09-19T09:34:09.000Z</time>
      </trkpt>
      <trkpt lat="47.27295" lon="-2.28986">
        <ele>24.39999961853</ele>
        <time>2021-09-19T09:34:13.000Z</time>
      </trkpt>
      <trkpt lat="47.27289" lon="-2.28995">
        <ele>24.39999961853</ele>
        <time>2021-09-19T09:34:15.000Z</time>
      </trkpt>
      <trkpt lat="47.2728" lon="-2.2901">
        <ele>24.39999961853</ele>
        <time>2021-09-19T09:34:18.000Z</time>
      </trkpt>
      <trkpt lat="47.27278" lon="-2.29016">
        <ele>24.799999237061</ele>
        <time>2021-09-19T09:34:19.000Z</time>
      </trkpt>
      <trkpt lat="47.27275" lon="-2.29021">
        <ele>25.200000762939</ele>
        <time>2021-09-19T09:34:20.000Z</time>
      </trkpt>
      <trkpt lat="47.27272" lon="-2.29025">
        <ele>25.60000038147</ele>
        <time>2021-09-19T09:34:21.000Z</time>
      </trkpt>
      <trkpt lat="47.27269" lon="-2.29029">
        <ele>26</ele>
        <time>2021-09-19T09:34:22.000Z</time>
      </trkpt>
      <trkpt lat="47.27266" lon="-2.29034">
        <ele>26.39999961853</ele>
        <time>2021-09-19T09:34:23.000Z</time>
      </trkpt>
      <trkpt lat="47.27264" lon="-2.29039">
        <ele>26.39999961853</ele>
        <time>2021-09-19T09:34:24.000Z</time>
      </trkpt>
      <trkpt lat="47.27252" lon="-2.2905">
        <ele>26.39999961853</ele>
        <time>2021-09-19T09:34:27.000Z</time>
      </trkpt>
      <trkpt lat="47.27247" lon="-2.29053">
        <ele>26.39999961853</ele>
        <time>2021-09-19T09:34:28.000Z</time>
      </trkpt>
      <trkpt lat="47.27238" lon="-2.29061">
        <ele>26.39999961853</ele>
        <time>2021-09-19T09:34:30.000Z</time>
      </trkpt>
      <trkpt lat="47.27223" lon="-2.29077">
        <ele>26.39999961853</ele>
        <time>2021-09-19T09:34:33.000Z</time>
      </trkpt>
      <trkpt lat="47.27209" lon="-2.29092">
        <ele>26.39999961853</ele>
        <time>2021-09-19T09:34:36.000Z</time>
      </trkpt>
      <trkpt lat="47.27196" lon="-2.29108">
        <ele>26.39999961853</ele>
        <time>2021-09-19T09:34:39.000Z</time>
      </trkpt>
      <trkpt lat="47.27185" lon="-2.29124">
        <ele>26.39999961853</ele>
        <time>2021-09-19T09:34:42.000Z</time>
      </trkpt>
      <trkpt lat="47.27172" lon="-2.2914">
        <ele>26.39999961853</ele>
        <time>2021-09-19T09:34:45.000Z</time>
      </trkpt>
      <trkpt lat="47.27157" lon="-2.2916">
        <ele>26.39999961853</ele>
        <time>2021-09-19T09:34:49.000Z</time>
      </trkpt>
      <trkpt lat="47.27156" lon="-2.29173">
        <ele>26.39999961853</ele>
        <time>2021-09-19T09:34:51.000Z</time>
      </trkpt>
      <trkpt lat="47.27164" lon="-2.29203">
        <ele>26.39999961853</ele>
        <time>2021-09-19T09:34:55.000Z</time>
      </trkpt>
      <trkpt lat="47.2717" lon="-2.29214">
        <ele>26.39999961853</ele>
        <time>2021-09-19T09:34:57.000Z</time>
      </trkpt>
      <trkpt lat="47.27173" lon="-2.2922">
        <ele>26.39999961853</ele>
        <time>2021-09-19T09:34:58.000Z</time>
      </trkpt>
      <trkpt lat="47.27176" lon="-2.29232">
        <ele>26.39999961853</ele>
        <time>2021-09-19T09:35:00.000Z</time>
      </trkpt>
      <trkpt lat="47.27175" lon="-2.29254">
        <ele>26.39999961853</ele>
        <time>2021-09-19T09:35:03.000Z</time>
      </trkpt>
      <trkpt lat="47.2717" lon="-2.29268">
        <ele>26.39999961853</ele>
        <time>2021-09-19T09:35:05.000Z</time>
      </trkpt>
      <trkpt lat="47.27163" lon="-2.29286">
        <ele>26.39999961853</ele>
        <time>2021-09-19T09:35:08.000Z</time>
      </trkpt>
      <trkpt lat="47.27155" lon="-2.29307">
        <ele>26.39999961853</ele>
        <time>2021-09-19T09:35:12.000Z</time>
      </trkpt>
      <trkpt lat="47.27158" lon="-2.29317">
        <ele>26.799999237061</ele>
        <time>2021-09-19T09:35:14.000Z</time>
      </trkpt>
      <trkpt lat="47.2716" lon="-2.29323">
        <ele>27.200000762939</ele>
        <time>2021-09-19T09:35:15.000Z</time>
      </trkpt>
      <trkpt lat="47.27163" lon="-2.29327">
        <ele>27.799999237061</ele>
        <time>2021-09-19T09:35:16.000Z</time>
      </trkpt>
      <trkpt lat="47.27165" lon="-2.29332">
        <ele>28.200000762939</ele>
        <time>2021-09-19T09:35:17.000Z</time>
      </trkpt>
      <trkpt lat="47.27168" lon="-2.29335">
        <ele>28.60000038147</ele>
        <time>2021-09-19T09:35:18.000Z</time>
      </trkpt>
      <trkpt lat="47.27176" lon="-2.29344">
        <ele>28.60000038147</ele>
        <time>2021-09-19T09:35:21.000Z</time>
      </trkpt>
      <trkpt lat="47.27179" lon="-2.29348">
        <ele>28.60000038147</ele>
        <time>2021-09-19T09:35:22.000Z</time>
      </trkpt>
      <trkpt lat="47.27189" lon="-2.29366">
        <ele>28.60000038147</ele>
        <time>2021-09-19T09:35:25.000Z</time>
      </trkpt>
      <trkpt lat="47.27207" lon="-2.29413">
        <ele>28.60000038147</ele>
        <time>2021-09-19T09:35:31.000Z</time>
      </trkpt>
      <trkpt lat="47.27225" lon="-2.29471">
        <ele>28.60000038147</ele>
        <time>2021-09-19T09:35:38.000Z</time>
      </trkpt>
      <trkpt lat="47.27243" lon="-2.29523">
        <ele>28.60000038147</ele>
        <time>2021-09-19T09:35:45.000Z</time>
      </trkpt>
      <trkpt lat="47.27246" lon="-2.29537">
        <ele>28.60000038147</ele>
        <time>2021-09-19T09:35:47.000Z</time>
      </trkpt>
      <trkpt lat="47.27248" lon="-2.29548">
        <ele>28.60000038147</ele>
        <time>2021-09-19T09:35:49.000Z</time>
      </trkpt>
      <trkpt lat="47.27248" lon="-2.29554">
        <ele>28.60000038147</ele>
        <time>2021-09-19T09:35:50.000Z</time>
      </trkpt>
      <trkpt lat="47.27242" lon="-2.29573">
        <ele>28.60000038147</ele>
        <time>2021-09-19T09:35:53.000Z</time>
      </trkpt>
      <trkpt lat="47.27229" lon="-2.29584">
        <ele>28.60000038147</ele>
        <time>2021-09-19T09:35:56.000Z</time>
      </trkpt>
      <trkpt lat="47.27225" lon="-2.29587">
        <ele>28.60000038147</ele>
        <time>2021-09-19T09:35:57.000Z</time>
      </trkpt>
      <trkpt lat="47.27215" lon="-2.29595">
        <ele>28.60000038147</ele>
        <time>2021-09-19T09:35:59.000Z</time>
      </trkpt>
      <trkpt lat="47.27205" lon="-2.29603">
        <ele>28.60000038147</ele>
        <time>2021-09-19T09:36:01.000Z</time>
      </trkpt>
      <trkpt lat="47.27171" lon="-2.29628">
        <ele>29</ele>
        <time>2021-09-19T09:36:08.000Z</time>
      </trkpt>
      <trkpt lat="47.27166" lon="-2.29631">
        <ele>29.39999961853</ele>
        <time>2021-09-19T09:36:09.000Z</time>
      </trkpt>
      <trkpt lat="47.27161" lon="-2.29634">
        <ele>29.799999237061</ele>
        <time>2021-09-19T09:36:10.000Z</time>
      </trkpt>
      <trkpt lat="47.27157" lon="-2.29637">
        <ele>30.200000762939</ele>
        <time>2021-09-19T09:36:11.000Z</time>
      </trkpt>
      <trkpt lat="47.27152" lon="-2.29639">
        <ele>30.60000038147</ele>
        <time>2021-09-19T09:36:12.000Z</time>
      </trkpt>
      <trkpt lat="47.27148" lon="-2.29639">
        <ele>30.60000038147</ele>
        <time>2021-09-19T09:36:13.000Z</time>
      </trkpt>
      <trkpt lat="47.27124" lon="-2.29647">
        <ele>30.60000038147</ele>
        <time>2021-09-19T09:36:19.000Z</time>
      </trkpt>
      <trkpt lat="47.27104" lon="-2.29646">
        <ele>30.60000038147</ele>
        <time>2021-09-19T09:36:24.000Z</time>
      </trkpt>
      <trkpt lat="47.27084" lon="-2.29638">
        <ele>30.60000038147</ele>
        <time>2021-09-19T09:36:30.000Z</time>
      </trkpt>
      <trkpt lat="47.27059" lon="-2.29621">
        <ele>30.60000038147</ele>
        <time>2021-09-19T09:36:37.000Z</time>
      </trkpt>
      <trkpt lat="47.27046" lon="-2.29613">
        <ele>30.60000038147</ele>
        <time>2021-09-19T09:36:42.000Z</time>
      </trkpt>
      <trkpt lat="47.27037" lon="-2.29607">
        <ele>30.60000038147</ele>
        <time>2021-09-19T09:36:49.000Z</time>
      </trkpt>
      <trkpt lat="47.2702" lon="-2.29601">
        <ele>30.60000038147</ele>
        <time>2021-09-19T09:36:54.000Z</time>
      </trkpt>
      <trkpt lat="47.27001" lon="-2.29598">
        <ele>30.60000038147</ele>
        <time>2021-09-19T09:36:58.000Z</time>
      </trkpt>
      <trkpt lat="47.26996" lon="-2.29597">
        <ele>30.60000038147</ele>
        <time>2021-09-19T09:36:59.000Z</time>
      </trkpt>
      <trkpt lat="47.26975" lon="-2.29593">
        <ele>31.39999961853</ele>
        <time>2021-09-19T09:37:03.000Z</time>
      </trkpt>
      <trkpt lat="47.2697" lon="-2.29593">
        <ele>31.799999237061</ele>
        <time>2021-09-19T09:37:04.000Z</time>
      </trkpt>
      <trkpt lat="47.26964" lon="-2.29593">
        <ele>32.200000762939</ele>
        <time>2021-09-19T09:37:05.000Z</time>
      </trkpt>
      <trkpt lat="47.2696" lon="-2.29591">
        <ele>32.799999237061</ele>
        <time>2021-09-19T09:37:06.000Z</time>
      </trkpt>
      <trkpt lat="47.26945" lon="-2.2959">
        <ele>32.799999237061</ele>
        <time>2021-09-19T09:37:09.000Z</time>
      </trkpt>
      <trkpt lat="47.2694" lon="-2.29591">
        <ele>32.799999237061</ele>
        <time>2021-09-19T09:37:10.000Z</time>
      </trkpt>
      <trkpt lat="47.26935" lon="-2.29592">
        <ele>32.799999237061</ele>
        <time>2021-09-19T09:37:11.000Z</time>
      </trkpt>
      <trkpt lat="47.26916" lon="-2.29596">
        <ele>33.200000762939</ele>
        <time>2021-09-19T09:37:15.000Z</time>
      </trkpt>
      <trkpt lat="47.26912" lon="-2.29596">
        <ele>33.599998474121</ele>
        <time>2021-09-19T09:37:16.000Z</time>
      </trkpt>
      <trkpt lat="47.26906" lon="-2.29597">
        <ele>34.200000762939</ele>
        <time>2021-09-19T09:37:17.000Z</time>
      </trkpt>
      <trkpt lat="47.26902" lon="-2.29598">
        <ele>34.599998474121</ele>
        <time>2021-09-19T09:37:18.000Z</time>
      </trkpt>
      <trkpt lat="47.26897" lon="-2.29599">
        <ele>35.200000762939</ele>
        <time>2021-09-19T09:37:19.000Z</time>
      </trkpt>
      <trkpt lat="47.26878" lon="-2.29603">
        <ele>35.200000762939</ele>
        <time>2021-09-19T09:37:23.000Z</time>
      </trkpt>
      <trkpt lat="47.26869" lon="-2.29603">
        <ele>35.200000762939</ele>
        <time>2021-09-19T09:37:25.000Z</time>
      </trkpt>
      <trkpt lat="47.26855" lon="-2.29604">
        <ele>35.200000762939</ele>
        <time>2021-09-19T09:37:28.000Z</time>
      </trkpt>
      <trkpt lat="47.26846" lon="-2.29604">
        <ele>35.599998474121</ele>
        <time>2021-09-19T09:37:30.000Z</time>
      </trkpt>
      <trkpt lat="47.26841" lon="-2.29604">
        <ele>36</ele>
        <time>2021-09-19T09:37:31.000Z</time>
      </trkpt>
      <trkpt lat="47.26837" lon="-2.29605">
        <ele>36.400001525879</ele>
        <time>2021-09-19T09:37:32.000Z</time>
      </trkpt>
      <trkpt lat="47.26832" lon="-2.29605">
        <ele>36.799999237061</ele>
        <time>2021-09-19T09:37:33.000Z</time>
      </trkpt>
      <trkpt lat="47.26828" lon="-2.29606">
        <ele>37.200000762939</ele>
        <time>2021-09-19T09:37:34.000Z</time>
      </trkpt>
      <trkpt lat="47.26815" lon="-2.29609">
        <ele>37.200000762939</ele>
        <time>2021-09-19T09:37:37.000Z</time>
      </trkpt>
      <trkpt lat="47.26786" lon="-2.29617">
        <ele>37.200000762939</ele>
        <time>2021-09-19T09:37:44.000Z</time>
      </trkpt>
      <trkpt lat="47.26749" lon="-2.29622">
        <ele>37.200000762939</ele>
        <time>2021-09-19T09:37:51.000Z</time>
      </trkpt>
      <trkpt lat="47.26738" lon="-2.29622">
        <ele>37.599998474121</ele>
        <time>2021-09-19T09:37:53.000Z</time>
      </trkpt>
      <trkpt lat="47.26733" lon="-2.29621">
        <ele>38</ele>
        <time>2021-09-19T09:37:54.000Z</time>
      </trkpt>
      <trkpt lat="47.26728" lon="-2.29621">
        <ele>38.599998474121</ele>
        <time>2021-09-19T09:37:55.000Z</time>
      </trkpt>
      <trkpt lat="47.26723" lon="-2.2962">
        <ele>39</ele>
        <time>2021-09-19T09:37:56.000Z</time>
      </trkpt>
      <trkpt lat="47.26718" lon="-2.29622">
        <ele>39.400001525879</ele>
        <time>2021-09-19T09:37:57.000Z</time>
      </trkpt>
      <trkpt lat="47.26714" lon="-2.29624">
        <ele>39.400001525879</ele>
        <time>2021-09-19T09:37:58.000Z</time>
      </trkpt>
      <trkpt lat="47.26683" lon="-2.29644">
        <ele>39.400001525879</ele>
        <time>2021-09-19T09:38:05.000Z</time>
      </trkpt>
      <trkpt lat="47.26638" lon="-2.29664">
        <ele>39.400001525879</ele>
        <time>2021-09-19T09:38:14.000Z</time>
      </trkpt>
      <trkpt lat="47.26592" lon="-2.29683">
        <ele>39.400001525879</ele>
        <time>2021-09-19T09:38:23.000Z</time>
      </trkpt>
      <trkpt lat="47.26545" lon="-2.29695">
        <ele>39.400001525879</ele>
        <time>2021-09-19T09:38:31.000Z</time>
      </trkpt>
      <trkpt lat="47.26534" lon="-2.29698">
        <ele>39.400001525879</ele>
        <time>2021-09-19T09:38:33.000Z</time>
      </trkpt>
      <trkpt lat="47.26517" lon="-2.29706">
        <ele>39.400001525879</ele>
        <time>2021-09-19T09:38:36.000Z</time>
      </trkpt>
      <trkpt lat="47.26473" lon="-2.29731">
        <ele>39.400001525879</ele>
        <time>2021-09-19T09:38:44.000Z</time>
      </trkpt>
      <trkpt lat="47.26429" lon="-2.2975">
        <ele>39.400001525879</ele>
        <time>2021-09-19T09:38:51.000Z</time>
      </trkpt>
      <trkpt lat="47.26375" lon="-2.29777">
        <ele>39.400001525879</ele>
        <time>2021-09-19T09:38:59.000Z</time>
      </trkpt>
      <trkpt lat="47.26368" lon="-2.2978">
        <ele>39.400001525879</ele>
        <time>2021-09-19T09:39:00.000Z</time>
      </trkpt>
      <trkpt lat="47.26327" lon="-2.29803">
        <ele>39</ele>
        <time>2021-09-19T09:39:06.000Z</time>
      </trkpt>
      <trkpt lat="47.2632" lon="-2.29806">
        <ele>38.599998474121</ele>
        <time>2021-09-19T09:39:07.000Z</time>
      </trkpt>
      <trkpt lat="47.26313" lon="-2.2981">
        <ele>38.200000762939</ele>
        <time>2021-09-19T09:39:08.000Z</time>
      </trkpt>
      <trkpt lat="47.26306" lon="-2.29814">
        <ele>37.799999237061</ele>
        <time>2021-09-19T09:39:09.000Z</time>
      </trkpt>
      <trkpt lat="47.26299" lon="-2.29817">
        <ele>37.400001525879</ele>
        <time>2021-09-19T09:39:10.000Z</time>
      </trkpt>
      <trkpt lat="47.26269" lon="-2.29825">
        <ele>37.400001525879</ele>
        <time>2021-09-19T09:39:14.000Z</time>
      </trkpt>
      <trkpt lat="47.26255" lon="-2.29829">
        <ele>36.799999237061</ele>
        <time>2021-09-19T09:39:16.000Z</time>
      </trkpt>
      <trkpt lat="47.26248" lon="-2.29831">
        <ele>36.400001525879</ele>
        <time>2021-09-19T09:39:17.000Z</time>
      </trkpt>
      <trkpt lat="47.26241" lon="-2.29833">
        <ele>36</ele>
        <time>2021-09-19T09:39:18.000Z</time>
      </trkpt>
      <trkpt lat="47.26234" lon="-2.29835">
        <ele>35.400001525879</ele>
        <time>2021-09-19T09:39:19.000Z</time>
      </trkpt>
      <trkpt lat="47.26227" lon="-2.29836">
        <ele>35</ele>
        <time>2021-09-19T09:39:20.000Z</time>
      </trkpt>
      <trkpt lat="47.26223" lon="-2.29839">
        <ele>35</ele>
        <time>2021-09-19T09:39:21.000Z</time>
      </trkpt>
      <trkpt lat="47.2622" lon="-2.29843">
        <ele>34.599998474121</ele>
        <time>2021-09-19T09:39:22.000Z</time>
      </trkpt>
      <trkpt lat="47.26217" lon="-2.29849">
        <ele>34</ele>
        <time>2021-09-19T09:39:23.000Z</time>
      </trkpt>
      <trkpt lat="47.26217" lon="-2.29856">
        <ele>33.599998474121</ele>
        <time>2021-09-19T09:39:24.000Z</time>
      </trkpt>
      <trkpt lat="47.26218" lon="-2.29863">
        <ele>33</ele>
        <time>2021-09-19T09:39:25.000Z</time>
      </trkpt>
      <trkpt lat="47.26219" lon="-2.29871">
        <ele>32.599998474121</ele>
        <time>2021-09-19T09:39:26.000Z</time>
      </trkpt>
      <trkpt lat="47.26223" lon="-2.29917">
        <ele>32.599998474121</ele>
        <time>2021-09-19T09:39:32.000Z</time>
      </trkpt>
      <trkpt lat="47.26225" lon="-2.29942">
        <ele>32.599998474121</ele>
        <time>2021-09-19T09:39:35.000Z</time>
      </trkpt>
      <trkpt lat="47.26226" lon="-2.29959">
        <ele>32.599998474121</ele>
        <time>2021-09-19T09:39:37.000Z</time>
      </trkpt>
      <trkpt lat="47.26228" lon="-2.29985">
        <ele>32.599998474121</ele>
        <time>2021-09-19T09:39:40.000Z</time>
      </trkpt>
      <trkpt lat="47.26227" lon="-2.30003">
        <ele>32.599998474121</ele>
        <time>2021-09-19T09:39:42.000Z</time>
      </trkpt>
      <trkpt lat="47.26226" lon="-2.30011">
        <ele>32.599998474121</ele>
        <time>2021-09-19T09:39:43.000Z</time>
      </trkpt>
      <trkpt lat="47.26226" lon="-2.30038">
        <ele>32.599998474121</ele>
        <time>2021-09-19T09:39:46.000Z</time>
      </trkpt>
      <trkpt lat="47.26234" lon="-2.30071">
        <ele>32.599998474121</ele>
        <time>2021-09-19T09:39:50.000Z</time>
      </trkpt>
      <trkpt lat="47.26244" lon="-2.30107">
        <ele>32.599998474121</ele>
        <time>2021-09-19T09:39:55.000Z</time>
      </trkpt>
      <trkpt lat="47.26245" lon="-2.30114">
        <ele>32.599998474121</ele>
        <time>2021-09-19T09:39:56.000Z</time>
      </trkpt>
      <trkpt lat="47.26246" lon="-2.30126">
        <ele>32.599998474121</ele>
        <time>2021-09-19T09:39:59.000Z</time>
      </trkpt>
      <trkpt lat="47.26245" lon="-2.30128">
        <ele>32</ele>
        <time>2021-09-19T09:40:00.000Z</time>
      </trkpt>
      <trkpt lat="47.26243" lon="-2.3013">
        <ele>31.60000038147</ele>
        <time>2021-09-19T09:40:01.000Z</time>
      </trkpt>
      <trkpt lat="47.26241" lon="-2.3013">
        <ele>31.200000762939</ele>
        <time>2021-09-19T09:40:02.000Z</time>
      </trkpt>
      <trkpt lat="47.26239" lon="-2.30131">
        <ele>30.799999237061</ele>
        <time>2021-09-19T09:40:03.000Z</time>
      </trkpt>
      <trkpt lat="47.26236" lon="-2.30132">
        <ele>30.200000762939</ele>
        <time>2021-09-19T09:40:04.000Z</time>
      </trkpt>
      <trkpt lat="47.26219" lon="-2.30138">
        <ele>30.200000762939</ele>
        <time>2021-09-19T09:40:09.000Z</time>
      </trkpt>
      <trkpt lat="47.26191" lon="-2.30148">
        <ele>30.200000762939</ele>
        <time>2021-09-19T09:40:16.000Z</time>
      </trkpt>
      <trkpt lat="47.2618" lon="-2.30154">
        <ele>29.799999237061</ele>
        <time>2021-09-19T09:40:19.000Z</time>
      </trkpt>
      <trkpt lat="47.26177" lon="-2.30156">
        <ele>29</ele>
        <time>2021-09-19T09:40:20.000Z</time>
      </trkpt>
      <trkpt lat="47.26175" lon="-2.30155">
        <ele>28.60000038147</ele>
        <time>2021-09-19T09:40:21.000Z</time>
      </trkpt>
      <trkpt lat="47.26173" lon="-2.30152">
        <ele>28.200000762939</ele>
        <time>2021-09-19T09:40:22.000Z</time>
      </trkpt>
      <trkpt lat="47.26172" lon="-2.30146">
        <ele>28.200000762939</ele>
        <time>2021-09-19T09:40:24.000Z</time>
      </trkpt>
      <trkpt lat="47.26165" lon="-2.30144">
        <ele>28.200000762939</ele>
        <time>2021-09-19T09:40:28.000Z</time>
      </trkpt>
      <trkpt lat="47.26149" lon="-2.30149">
        <ele>28.200000762939</ele>
        <time>2021-09-19T09:40:32.000Z</time>
      </trkpt>
      <trkpt lat="47.26139" lon="-2.30152">
        <ele>27.799999237061</ele>
        <time>2021-09-19T09:40:34.000Z</time>
      </trkpt>
      <trkpt lat="47.26134" lon="-2.30154">
        <ele>27.39999961853</ele>
        <time>2021-09-19T09:40:35.000Z</time>
      </trkpt>
      <trkpt lat="47.26128" lon="-2.30155">
        <ele>27</ele>
        <time>2021-09-19T09:40:36.000Z</time>
      </trkpt>
      <trkpt lat="47.26123" lon="-2.30157">
        <ele>26.60000038147</ele>
        <time>2021-09-19T09:40:37.000Z</time>
      </trkpt>
      <trkpt lat="47.26119" lon="-2.30159">
        <ele>26.200000762939</ele>
        <time>2021-09-19T09:40:38.000Z</time>
      </trkpt>
      <trkpt lat="47.26105" lon="-2.30162">
        <ele>26.200000762939</ele>
        <time>2021-09-19T09:40:42.000Z</time>
      </trkpt>
      <trkpt lat="47.26103" lon="-2.3016">
        <ele>25.799999237061</ele>
        <time>2021-09-19T09:40:43.000Z</time>
      </trkpt>
      <trkpt lat="47.26101" lon="-2.30157">
        <ele>25.39999961853</ele>
        <time>2021-09-19T09:40:44.000Z</time>
      </trkpt>
      <trkpt lat="47.26099" lon="-2.30154">
        <ele>24.39999961853</ele>
        <time>2021-09-19T09:40:45.000Z</time>
      </trkpt>
      <trkpt lat="47.26097" lon="-2.30153">
        <ele>24</ele>
        <time>2021-09-19T09:40:46.000Z</time>
      </trkpt>
      <trkpt lat="47.26087" lon="-2.30155">
        <ele>24</ele>
        <time>2021-09-19T09:40:49.000Z</time>
      </trkpt>
      <trkpt lat="47.26083" lon="-2.30156">
        <ele>24</ele>
        <time>2021-09-19T09:40:50.000Z</time>
      </trkpt>
      <trkpt lat="47.26071" lon="-2.30155">
        <ele>23.60000038147</ele>
        <time>2021-09-19T09:40:53.000Z</time>
      </trkpt>
      <trkpt lat="47.26067" lon="-2.30153">
        <ele>23.200000762939</ele>
        <time>2021-09-19T09:40:54.000Z</time>
      </trkpt>
      <trkpt lat="47.26064" lon="-2.3015">
        <ele>22.60000038147</ele>
        <time>2021-09-19T09:40:55.000Z</time>
      </trkpt>
      <trkpt lat="47.26061" lon="-2.30146">
        <ele>22.200000762939</ele>
        <time>2021-09-19T09:40:56.000Z</time>
      </trkpt>
      <trkpt lat="47.26057" lon="-2.30144">
        <ele>21.799999237061</ele>
        <time>2021-09-19T09:40:57.000Z</time>
      </trkpt>
      <trkpt lat="47.26052" lon="-2.30143">
        <ele>21.799999237061</ele>
        <time>2021-09-19T09:40:58.000Z</time>
      </trkpt>
      <trkpt lat="47.26034" lon="-2.30143">
        <ele>21.799999237061</ele>
        <time>2021-09-19T09:41:02.000Z</time>
      </trkpt>
      <trkpt lat="47.26024" lon="-2.3014">
        <ele>21.799999237061</ele>
        <time>2021-09-19T09:41:04.000Z</time>
      </trkpt>
      <trkpt lat="47.26014" lon="-2.30136">
        <ele>21.39999961853</ele>
        <time>2021-09-19T09:41:06.000Z</time>
      </trkpt>
      <trkpt lat="47.26008" lon="-2.30137">
        <ele>21</ele>
        <time>2021-09-19T09:41:07.000Z</time>
      </trkpt>
      <trkpt lat="47.26003" lon="-2.30136">
        <ele>20.39999961853</ele>
        <time>2021-09-19T09:41:08.000Z</time>
      </trkpt>
      <trkpt lat="47.25998" lon="-2.30136">
        <ele>19.60000038147</ele>
        <time>2021-09-19T09:41:09.000Z</time>
      </trkpt>
      <trkpt lat="47.25989" lon="-2.30137">
        <ele>19.60000038147</ele>
        <time>2021-09-19T09:41:11.000Z</time>
      </trkpt>
      <trkpt lat="47.25984" lon="-2.30138">
        <ele>19.60000038147</ele>
        <time>2021-09-19T09:41:12.000Z</time>
      </trkpt>
      <trkpt lat="47.25971" lon="-2.30142">
        <ele>19.60000038147</ele>
        <time>2021-09-19T09:41:15.000Z</time>
      </trkpt>
      <trkpt lat="47.25967" lon="-2.30146">
        <ele>19.200000762939</ele>
        <time>2021-09-19T09:41:16.000Z</time>
      </trkpt>
      <trkpt lat="47.25963" lon="-2.30151">
        <ele>18.799999237061</ele>
        <time>2021-09-19T09:41:17.000Z</time>
      </trkpt>
      <trkpt lat="47.25959" lon="-2.30155">
        <ele>18.39999961853</ele>
        <time>2021-09-19T09:41:18.000Z</time>
      </trkpt>
      <trkpt lat="47.25955" lon="-2.30159">
        <ele>17.799999237061</ele>
        <time>2021-09-19T09:41:19.000Z</time>
      </trkpt>
      <trkpt lat="47.2595" lon="-2.30163">
        <ele>17.39999961853</ele>
        <time>2021-09-19T09:41:20.000Z</time>
      </trkpt>
      <trkpt lat="47.25945" lon="-2.30167">
        <ele>17.39999961853</ele>
        <time>2021-09-19T09:41:21.000Z</time>
      </trkpt>
      <trkpt lat="47.25928" lon="-2.30173">
        <ele>17.39999961853</ele>
        <time>2021-09-19T09:41:24.000Z</time>
      </trkpt>
      <trkpt lat="47.25917" lon="-2.30175">
        <ele>17.39999961853</ele>
        <time>2021-09-19T09:41:26.000Z</time>
      </trkpt>
      <trkpt lat="47.25897" lon="-2.3018">
        <ele>17.39999961853</ele>
        <time>2021-09-19T09:41:30.000Z</time>
      </trkpt>
      <trkpt lat="47.25891" lon="-2.30189">
        <ele>17.39999961853</ele>
        <time>2021-09-19T09:41:32.000Z</time>
      </trkpt>
      <trkpt lat="47.2589" lon="-2.30203">
        <ele>17.799999237061</ele>
        <time>2021-09-19T09:41:34.000Z</time>
      </trkpt>
      <trkpt lat="47.25891" lon="-2.3021">
        <ele>18.39999961853</ele>
        <time>2021-09-19T09:41:35.000Z</time>
      </trkpt>
      <trkpt lat="47.25892" lon="-2.30217">
        <ele>18.799999237061</ele>
        <time>2021-09-19T09:41:36.000Z</time>
      </trkpt>
      <trkpt lat="47.25893" lon="-2.30225">
        <ele>19.200000762939</ele>
        <time>2021-09-19T09:41:37.000Z</time>
      </trkpt>
      <trkpt lat="47.25893" lon="-2.30232">
        <ele>19.60000038147</ele>
        <time>2021-09-19T09:41:38.000Z</time>
      </trkpt>
      <trkpt lat="47.25895" lon="-2.30262">
        <ele>19.60000038147</ele>
        <time>2021-09-19T09:41:42.000Z</time>
      </trkpt>
      <trkpt lat="47.25895" lon="-2.30269">
        <ele>19.60000038147</ele>
        <time>2021-09-19T09:41:43.000Z</time>
      </trkpt>
      <trkpt lat="47.25895" lon="-2.3029">
        <ele>19.60000038147</ele>
        <time>2021-09-19T09:41:46.000Z</time>
      </trkpt>
      <trkpt lat="47.25892" lon="-2.30302">
        <ele>19.60000038147</ele>
        <time>2021-09-19T09:41:48.000Z</time>
      </trkpt>
      <trkpt lat="47.25881" lon="-2.30309">
        <ele>19.60000038147</ele>
        <time>2021-09-19T09:41:51.000Z</time>
      </trkpt>
      <trkpt lat="47.25868" lon="-2.30299">
        <ele>19.60000038147</ele>
        <time>2021-09-19T09:41:54.000Z</time>
      </trkpt>
      <trkpt lat="47.25864" lon="-2.30293">
        <ele>19.60000038147</ele>
        <time>2021-09-19T09:41:55.000Z</time>
      </trkpt>
      <trkpt lat="47.25855" lon="-2.30283">
        <ele>19.60000038147</ele>
        <time>2021-09-19T09:41:57.000Z</time>
      </trkpt>
      <trkpt lat="47.25844" lon="-2.30276">
        <ele>19.60000038147</ele>
        <time>2021-09-19T09:41:59.000Z</time>
      </trkpt>
      <trkpt lat="47.25802" lon="-2.30256">
        <ele>19.60000038147</ele>
        <time>2021-09-19T09:42:05.000Z</time>
      </trkpt>
      <trkpt lat="47.25766" lon="-2.3024">
        <ele>19.60000038147</ele>
        <time>2021-09-19T09:42:10.000Z</time>
      </trkpt>
      <trkpt lat="47.25733" lon="-2.30222">
        <ele>19.60000038147</ele>
        <time>2021-09-19T09:42:16.000Z</time>
      </trkpt>
      <trkpt lat="47.25717" lon="-2.30218">
        <ele>19.60000038147</ele>
        <time>2021-09-19T09:42:19.000Z</time>
      </trkpt>
      <trkpt lat="47.25706" lon="-2.30222">
        <ele>19.60000038147</ele>
        <time>2021-09-19T09:42:21.000Z</time>
      </trkpt>
      <trkpt lat="47.25691" lon="-2.30242">
        <ele>19.60000038147</ele>
        <time>2021-09-19T09:42:26.000Z</time>
      </trkpt>
      <trkpt lat="47.25687" lon="-2.30256">
        <ele>20</ele>
        <time>2021-09-19T09:42:28.000Z</time>
      </trkpt>
      <trkpt lat="47.25686" lon="-2.30263">
        <ele>20.39999961853</ele>
        <time>2021-09-19T09:42:29.000Z</time>
      </trkpt>
      <trkpt lat="47.25686" lon="-2.30271">
        <ele>20.799999237061</ele>
        <time>2021-09-19T09:42:30.000Z</time>
      </trkpt>
      <trkpt lat="47.25686" lon="-2.30278">
        <ele>21.200000762939</ele>
        <time>2021-09-19T09:42:31.000Z</time>
      </trkpt>
      <trkpt lat="47.25687" lon="-2.30287">
        <ele>21.60000038147</ele>
        <time>2021-09-19T09:42:32.000Z</time>
      </trkpt>
      <trkpt lat="47.25687" lon="-2.30302">
        <ele>21.60000038147</ele>
        <time>2021-09-19T09:42:34.000Z</time>
      </trkpt>
      <trkpt lat="47.25685" lon="-2.30309">
        <ele>21.60000038147</ele>
        <time>2021-09-19T09:42:35.000Z</time>
      </trkpt>
      <trkpt lat="47.25673" lon="-2.30321">
        <ele>21.60000038147</ele>
        <time>2021-09-19T09:42:38.000Z</time>
      </trkpt>
      <trkpt lat="47.25663" lon="-2.30326">
        <ele>21.60000038147</ele>
        <time>2021-09-19T09:42:40.000Z</time>
      </trkpt>
      <trkpt lat="47.25659" lon="-2.30329">
        <ele>21.60000038147</ele>
        <time>2021-09-19T09:42:41.000Z</time>
      </trkpt>
      <trkpt lat="47.25652" lon="-2.30336">
        <ele>21.60000038147</ele>
        <time>2021-09-19T09:42:43.000Z</time>
      </trkpt>
      <trkpt lat="47.2564" lon="-2.30344">
        <ele>21.60000038147</ele>
        <time>2021-09-19T09:42:46.000Z</time>
      </trkpt>
      <trkpt lat="47.25633" lon="-2.3034">
        <ele>21.60000038147</ele>
        <time>2021-09-19T09:42:48.000Z</time>
      </trkpt>
      <trkpt lat="47.25628" lon="-2.30324">
        <ele>21.60000038147</ele>
        <time>2021-09-19T09:42:51.000Z</time>
      </trkpt>
      <trkpt lat="47.25627" lon="-2.30318">
        <ele>21.60000038147</ele>
        <time>2021-09-19T09:42:52.000Z</time>
      </trkpt>
      <trkpt lat="47.25627" lon="-2.30312">
        <ele>21.60000038147</ele>
        <time>2021-09-19T09:42:53.000Z</time>
      </trkpt>
      <trkpt lat="47.25625" lon="-2.30284">
        <ele>21.60000038147</ele>
        <time>2021-09-19T09:42:57.000Z</time>
      </trkpt>
      <trkpt lat="47.25624" lon="-2.30277">
        <ele>21.60000038147</ele>
        <time>2021-09-19T09:42:58.000Z</time>
      </trkpt>
      <trkpt lat="47.25618" lon="-2.3024">
        <ele>21.60000038147</ele>
        <time>2021-09-19T09:43:03.000Z</time>
      </trkpt>
      <trkpt lat="47.25615" lon="-2.30233">
        <ele>21.60000038147</ele>
        <time>2021-09-19T09:43:04.000Z</time>
      </trkpt>
      <trkpt lat="47.25603" lon="-2.3021">
        <ele>21.60000038147</ele>
        <time>2021-09-19T09:43:08.000Z</time>
      </trkpt>
      <trkpt lat="47.25582" lon="-2.3019">
        <ele>21.60000038147</ele>
        <time>2021-09-19T09:43:13.000Z</time>
      </trkpt>
      <trkpt lat="47.25578" lon="-2.30188">
        <ele>21.60000038147</ele>
        <time>2021-09-19T09:43:14.000Z</time>
      </trkpt>
      <trkpt lat="47.25564" lon="-2.30186">
        <ele>21.60000038147</ele>
        <time>2021-09-19T09:43:17.000Z</time>
      </trkpt>
      <trkpt lat="47.25558" lon="-2.30186">
        <ele>21.60000038147</ele>
        <time>2021-09-19T09:43:18.000Z</time>
      </trkpt>
      <trkpt lat="47.25553" lon="-2.30186">
        <ele>21.60000038147</ele>
        <time>2021-09-19T09:43:19.000Z</time>
      </trkpt>
      <trkpt lat="47.25539" lon="-2.3019">
        <ele>21.60000038147</ele>
        <time>2021-09-19T09:43:22.000Z</time>
      </trkpt>
      <trkpt lat="47.25524" lon="-2.30194">
        <ele>21.60000038147</ele>
        <time>2021-09-19T09:43:25.000Z</time>
      </trkpt>
      <trkpt lat="47.25515" lon="-2.30194">
        <ele>21.60000038147</ele>
        <time>2021-09-19T09:43:27.000Z</time>
      </trkpt>
      <trkpt lat="47.25511" lon="-2.30194">
        <ele>22</ele>
        <time>2021-09-19T09:43:28.000Z</time>
      </trkpt>
      <trkpt lat="47.25507" lon="-2.30194">
        <ele>22.60000038147</ele>
        <time>2021-09-19T09:43:29.000Z</time>
      </trkpt>
      <trkpt lat="47.25504" lon="-2.30196">
        <ele>23</ele>
        <time>2021-09-19T09:43:30.000Z</time>
      </trkpt>
      <trkpt lat="47.25502" lon="-2.30199">
        <ele>23.39999961853</ele>
        <time>2021-09-19T09:43:31.000Z</time>
      </trkpt>
      <trkpt lat="47.25499" lon="-2.30202">
        <ele>23.799999237061</ele>
        <time>2021-09-19T09:43:32.000Z</time>
      </trkpt>
      <trkpt lat="47.25488" lon="-2.30219">
        <ele>23.799999237061</ele>
        <time>2021-09-19T09:43:36.000Z</time>
      </trkpt>
      <trkpt lat="47.25479" lon="-2.30241">
        <ele>23.799999237061</ele>
        <time>2021-09-19T09:43:41.000Z</time>
      </trkpt>
      <trkpt lat="47.25468" lon="-2.30241">
        <ele>23.799999237061</ele>
        <time>2021-09-19T09:43:44.000Z</time>
      </trkpt>
      <trkpt lat="47.25445" lon="-2.30237">
        <ele>23.799999237061</ele>
        <time>2021-09-19T09:43:49.000Z</time>
      </trkpt>
      <trkpt lat="47.25441" lon="-2.30236">
        <ele>24.200000762939</ele>
        <time>2021-09-19T09:43:50.000Z</time>
      </trkpt>
      <trkpt lat="47.25437" lon="-2.30234">
        <ele>24.60000038147</ele>
        <time>2021-09-19T09:43:51.000Z</time>
      </trkpt>
      <trkpt lat="47.25433" lon="-2.30232">
        <ele>25</ele>
        <time>2021-09-19T09:43:52.000Z</time>
      </trkpt>
      <trkpt lat="47.25428" lon="-2.3023">
        <ele>25.60000038147</ele>
        <time>2021-09-19T09:43:53.000Z</time>
      </trkpt>
      <trkpt lat="47.25424" lon="-2.30229">
        <ele>26</ele>
        <time>2021-09-19T09:43:54.000Z</time>
      </trkpt>
      <trkpt lat="47.25415" lon="-2.30226">
        <ele>26</ele>
        <time>2021-09-19T09:43:56.000Z</time>
      </trkpt>
      <trkpt lat="47.25411" lon="-2.30224">
        <ele>26</ele>
        <time>2021-09-19T09:43:57.000Z</time>
      </trkpt>
      <trkpt lat="47.25393" lon="-2.30217">
        <ele>26</ele>
        <time>2021-09-19T09:44:01.000Z</time>
      </trkpt>
      <trkpt lat="47.25374" lon="-2.30211">
        <ele>26</ele>
        <time>2021-09-19T09:44:05.000Z</time>
      </trkpt>
      <trkpt lat="47.25369" lon="-2.30212">
        <ele>26</ele>
        <time>2021-09-19T09:44:06.000Z</time>
      </trkpt>
      <trkpt lat="47.25349" lon="-2.30211">
        <ele>26</ele>
        <time>2021-09-19T09:44:10.000Z</time>
      </trkpt>
      <trkpt lat="47.2534" lon="-2.30211">
        <ele>26</ele>
        <time>2021-09-19T09:44:12.000Z</time>
      </trkpt>
      <trkpt lat="47.25319" lon="-2.30209">
        <ele>26.39999961853</ele>
        <time>2021-09-19T09:44:17.000Z</time>
      </trkpt>
      <trkpt lat="47.25315" lon="-2.30208">
        <ele>26.799999237061</ele>
        <time>2021-09-19T09:44:18.000Z</time>
      </trkpt>
      <trkpt lat="47.25311" lon="-2.30207">
        <ele>27.200000762939</ele>
        <time>2021-09-19T09:44:19.000Z</time>
      </trkpt>
      <trkpt lat="47.25308" lon="-2.30209">
        <ele>27.799999237061</ele>
        <time>2021-09-19T09:44:20.000Z</time>
      </trkpt>
      <trkpt lat="47.25306" lon="-2.30212">
        <ele>28.200000762939</ele>
        <time>2021-09-19T09:44:21.000Z</time>
      </trkpt>
      <trkpt lat="47.25303" lon="-2.30214">
        <ele>28.200000762939</ele>
        <time>2021-09-19T09:44:22.000Z</time>
      </trkpt>
      <trkpt lat="47.25293" lon="-2.30208">
        <ele>28.200000762939</ele>
        <time>2021-09-19T09:44:25.000Z</time>
      </trkpt>
      <trkpt lat="47.25269" lon="-2.30197">
        <ele>28.200000762939</ele>
        <time>2021-09-19T09:44:31.000Z</time>
      </trkpt>
      <trkpt lat="47.25241" lon="-2.30186">
        <ele>28.200000762939</ele>
        <time>2021-09-19T09:44:38.000Z</time>
      </trkpt>
      <trkpt lat="47.25222" lon="-2.30178">
        <ele>28.200000762939</ele>
        <time>2021-09-19T09:44:43.000Z</time>
      </trkpt>
      <trkpt lat="47.25219" lon="-2.30175">
        <ele>28.60000038147</ele>
        <time>2021-09-19T09:44:44.000Z</time>
      </trkpt>
      <trkpt lat="47.25216" lon="-2.30172">
        <ele>29</ele>
        <time>2021-09-19T09:44:45.000Z</time>
      </trkpt>
      <trkpt lat="47.25212" lon="-2.30168">
        <ele>29.39999961853</ele>
        <time>2021-09-19T09:44:46.000Z</time>
      </trkpt>
      <trkpt lat="47.25208" lon="-2.30164">
        <ele>29.799999237061</ele>
        <time>2021-09-19T09:44:47.000Z</time>
      </trkpt>
      <trkpt lat="47.25205" lon="-2.30159">
        <ele>30.200000762939</ele>
        <time>2021-09-19T09:44:48.000Z</time>
      </trkpt>
      <trkpt lat="47.25201" lon="-2.30155">
        <ele>30.200000762939</ele>
        <time>2021-09-19T09:44:49.000Z</time>
      </trkpt>
      <trkpt lat="47.25195" lon="-2.30146">
        <ele>30.200000762939</ele>
        <time>2021-09-19T09:44:51.000Z</time>
      </trkpt>
      <trkpt lat="47.25187" lon="-2.30132">
        <ele>30.200000762939</ele>
        <time>2021-09-19T09:44:54.000Z</time>
      </trkpt>
      <trkpt lat="47.25184" lon="-2.30128">
        <ele>30.200000762939</ele>
        <time>2021-09-19T09:44:55.000Z</time>
      </trkpt>
      <trkpt lat="47.25176" lon="-2.30122">
        <ele>30.60000038147</ele>
        <time>2021-09-19T09:44:57.000Z</time>
      </trkpt>
      <trkpt lat="47.25172" lon="-2.30121">
        <ele>31</ele>
        <time>2021-09-19T09:44:58.000Z</time>
      </trkpt>
      <trkpt lat="47.25168" lon="-2.30123">
        <ele>31.39999961853</ele>
        <time>2021-09-19T09:44:59.000Z</time>
      </trkpt>
      <trkpt lat="47.25163" lon="-2.30124">
        <ele>31.799999237061</ele>
        <time>2021-09-19T09:45:00.000Z</time>
      </trkpt>
      <trkpt lat="47.25159" lon="-2.30125">
        <ele>32.200000762939</ele>
        <time>2021-09-19T09:45:01.000Z</time>
      </trkpt>
      <trkpt lat="47.25154" lon="-2.30127">
        <ele>32.200000762939</ele>
        <time>2021-09-19T09:45:02.000Z</time>
      </trkpt>
      <trkpt lat="47.25129" lon="-2.30132">
        <ele>32.200000762939</ele>
        <time>2021-09-19T09:45:08.000Z</time>
      </trkpt>
      <trkpt lat="47.25124" lon="-2.30132">
        <ele>32.200000762939</ele>
        <time>2021-09-19T09:45:09.000Z</time>
      </trkpt>
      <trkpt lat="47.25112" lon="-2.30135">
        <ele>32.599998474121</ele>
        <time>2021-09-19T09:45:12.000Z</time>
      </trkpt>
      <trkpt lat="47.25108" lon="-2.30136">
        <ele>33</ele>
        <time>2021-09-19T09:45:13.000Z</time>
      </trkpt>
      <trkpt lat="47.25104" lon="-2.30137">
        <ele>33.400001525879</ele>
        <time>2021-09-19T09:45:14.000Z</time>
      </trkpt>
      <trkpt lat="47.25099" lon="-2.30138">
        <ele>33.799999237061</ele>
        <time>2021-09-19T09:45:15.000Z</time>
      </trkpt>
      <trkpt lat="47.25095" lon="-2.30139">
        <ele>34.200000762939</ele>
        <time>2021-09-19T09:45:16.000Z</time>
      </trkpt>
      <trkpt lat="47.25075" lon="-2.30141">
        <ele>34.200000762939</ele>
        <time>2021-09-19T09:45:21.000Z</time>
      </trkpt>
      <trkpt lat="47.25069" lon="-2.30136">
        <ele>34.200000762939</ele>
        <time>2021-09-19T09:45:24.000Z</time>
      </trkpt>
      <trkpt lat="47.25069" lon="-2.30135">
        <ele>34.200000762939</ele>
        <time>2021-09-19T09:45:25.000Z</time>
      </trkpt>
      <trkpt lat="47.25069" lon="-2.30134">
        <ele>34.200000762939</ele>
        <time>2021-09-19T09:45:26.000Z</time>
      </trkpt>
      <trkpt lat="47.25068" lon="-2.30131">
        <ele>34.200000762939</ele>
        <time>2021-09-19T09:46:03.000Z</time>
      </trkpt>
      <trkpt lat="47.25069" lon="-2.30125">
        <ele>34.200000762939</ele>
        <time>2021-09-19T09:46:05.000Z</time>
      </trkpt>
      <trkpt lat="47.25069" lon="-2.30096">
        <ele>34.200000762939</ele>
        <time>2021-09-19T09:46:11.000Z</time>
      </trkpt>
      <trkpt lat="47.25071" lon="-2.30062">
        <ele>34.200000762939</ele>
        <time>2021-09-19T09:46:18.000Z</time>
      </trkpt>
      <trkpt lat="47.2507" lon="-2.30058">
        <ele>34.200000762939</ele>
        <time>2021-09-19T09:46:19.000Z</time>
      </trkpt>
      <trkpt lat="47.25064" lon="-2.30056">
        <ele>34.200000762939</ele>
        <time>2021-09-19T09:46:21.000Z</time>
      </trkpt>
      <trkpt lat="47.25049" lon="-2.30057">
        <ele>34.200000762939</ele>
        <time>2021-09-19T09:46:25.000Z</time>
      </trkpt>
      <trkpt lat="47.25045" lon="-2.30056">
        <ele>34.200000762939</ele>
        <time>2021-09-19T09:46:26.000Z</time>
      </trkpt>
      <trkpt lat="47.25037" lon="-2.30055">
        <ele>34.200000762939</ele>
        <time>2021-09-19T09:46:28.000Z</time>
      </trkpt>
      <trkpt lat="47.25019" lon="-2.30054">
        <ele>34.200000762939</ele>
        <time>2021-09-19T09:46:32.000Z</time>
      </trkpt>
      <trkpt lat="47.24991" lon="-2.30054">
        <ele>34.200000762939</ele>
        <time>2021-09-19T09:46:38.000Z</time>
      </trkpt>
      <trkpt lat="47.24969" lon="-2.30056">
        <ele>34.599998474121</ele>
        <time>2021-09-19T09:46:43.000Z</time>
      </trkpt>
      <trkpt lat="47.24964" lon="-2.30056">
        <ele>35</ele>
        <time>2021-09-19T09:46:44.000Z</time>
      </trkpt>
      <trkpt lat="47.24959" lon="-2.30056">
        <ele>35.599998474121</ele>
        <time>2021-09-19T09:46:45.000Z</time>
      </trkpt>
      <trkpt lat="47.24955" lon="-2.30056">
        <ele>36</ele>
        <time>2021-09-19T09:46:46.000Z</time>
      </trkpt>
      <trkpt lat="47.2495" lon="-2.30056">
        <ele>36.400001525879</ele>
        <time>2021-09-19T09:46:47.000Z</time>
      </trkpt>
      <trkpt lat="47.24923" lon="-2.30056">
        <ele>36.400001525879</ele>
        <time>2021-09-19T09:46:53.000Z</time>
      </trkpt>
      <trkpt lat="47.24907" lon="-2.30055">
        <ele>36.400001525879</ele>
        <time>2021-09-19T09:46:57.000Z</time>
      </trkpt>
      <trkpt lat="47.24901" lon="-2.30045">
        <ele>36.400001525879</ele>
        <time>2021-09-19T09:46:59.000Z</time>
      </trkpt>
      <trkpt lat="47.24901" lon="-2.30025">
        <ele>36.400001525879</ele>
        <time>2021-09-19T09:47:02.000Z</time>
      </trkpt>
      <trkpt lat="47.24897" lon="-2.30003">
        <ele>36.400001525879</ele>
        <time>2021-09-19T09:47:05.000Z</time>
      </trkpt>
      <trkpt lat="47.24893" lon="-2.29988">
        <ele>36.400001525879</ele>
        <time>2021-09-19T09:47:07.000Z</time>
      </trkpt>
      <trkpt lat="47.24879" lon="-2.29934">
        <ele>36.400001525879</ele>
        <time>2021-09-19T09:47:14.000Z</time>
      </trkpt>
      <trkpt lat="47.24874" lon="-2.29891">
        <ele>36.400001525879</ele>
        <time>2021-09-19T09:47:20.000Z</time>
      </trkpt>
      <trkpt lat="47.24866" lon="-2.29849">
        <ele>36.400001525879</ele>
        <time>2021-09-19T09:47:26.000Z</time>
      </trkpt>
      <trkpt lat="47.24865" lon="-2.29842">
        <ele>36.400001525879</ele>
        <time>2021-09-19T09:47:27.000Z</time>
      </trkpt>
      <trkpt lat="47.24862" lon="-2.29832">
        <ele>36.400001525879</ele>
        <time>2021-09-19T09:47:29.000Z</time>
      </trkpt>
      <trkpt lat="47.24859" lon="-2.2983">
        <ele>36.400001525879</ele>
        <time>2021-09-19T09:47:30.000Z</time>
      </trkpt>
      <trkpt lat="47.24849" lon="-2.29837">
        <ele>36.400001525879</ele>
        <time>2021-09-19T09:47:33.000Z</time>
      </trkpt>
      <trkpt lat="47.24846" lon="-2.2984">
        <ele>36.400001525879</ele>
        <time>2021-09-19T09:47:34.000Z</time>
      </trkpt>
      <trkpt lat="47.24842" lon="-2.29842">
        <ele>36.400001525879</ele>
        <time>2021-09-19T09:47:35.000Z</time>
      </trkpt>
      <trkpt lat="47.24824" lon="-2.29849">
        <ele>36.400001525879</ele>
        <time>2021-09-19T09:47:39.000Z</time>
      </trkpt>
      <trkpt lat="47.24802" lon="-2.29855">
        <ele>36.799999237061</ele>
        <time>2021-09-19T09:47:43.000Z</time>
      </trkpt>
      <trkpt lat="47.24797" lon="-2.29857">
        <ele>37.599998474121</ele>
        <time>2021-09-19T09:47:44.000Z</time>
      </trkpt>
      <trkpt lat="47.24792" lon="-2.2986">
        <ele>38</ele>
        <time>2021-09-19T09:47:45.000Z</time>
      </trkpt>
      <trkpt lat="47.24787" lon="-2.29864">
        <ele>38.400001525879</ele>
        <time>2021-09-19T09:47:46.000Z</time>
      </trkpt>
      <trkpt lat="47.24751" lon="-2.2989">
        <ele>38.400001525879</ele>
        <time>2021-09-19T09:47:53.000Z</time>
      </trkpt>
      <trkpt lat="47.24718" lon="-2.29906">
        <ele>38.400001525879</ele>
        <time>2021-09-19T09:47:59.000Z</time>
      </trkpt>
      <trkpt lat="47.247" lon="-2.2991">
        <ele>38</ele>
        <time>2021-09-19T09:48:02.000Z</time>
      </trkpt>
      <trkpt lat="47.24694" lon="-2.29912">
        <ele>37.599998474121</ele>
        <time>2021-09-19T09:48:03.000Z</time>
      </trkpt>
      <trkpt lat="47.24688" lon="-2.29914">
        <ele>37.200000762939</ele>
        <time>2021-09-19T09:48:04.000Z</time>
      </trkpt>
      <trkpt lat="47.24682" lon="-2.29916">
        <ele>36.799999237061</ele>
        <time>2021-09-19T09:48:05.000Z</time>
      </trkpt>
      <trkpt lat="47.24676" lon="-2.29918">
        <ele>36.200000762939</ele>
        <time>2021-09-19T09:48:06.000Z</time>
      </trkpt>
      <trkpt lat="47.2467" lon="-2.2992">
        <ele>36.200000762939</ele>
        <time>2021-09-19T09:48:07.000Z</time>
      </trkpt>
      <trkpt lat="47.24628" lon="-2.29937">
        <ele>36.200000762939</ele>
        <time>2021-09-19T09:48:15.000Z</time>
      </trkpt>
      <trkpt lat="47.24615" lon="-2.2994">
        <ele>36.200000762939</ele>
        <time>2021-09-19T09:48:18.000Z</time>
      </trkpt>
      <trkpt lat="47.24605" lon="-2.29943">
        <ele>36.200000762939</ele>
        <time>2021-09-19T09:48:20.000Z</time>
      </trkpt>
      <trkpt lat="47.246" lon="-2.29944">
        <ele>36.200000762939</ele>
        <time>2021-09-19T09:48:21.000Z</time>
      </trkpt>
      <trkpt lat="47.24591" lon="-2.29938">
        <ele>36.200000762939</ele>
        <time>2021-09-19T09:48:23.000Z</time>
      </trkpt>
      <trkpt lat="47.24579" lon="-2.2992">
        <ele>36.200000762939</ele>
        <time>2021-09-19T09:48:26.000Z</time>
      </trkpt>
      <trkpt lat="47.24576" lon="-2.29914">
        <ele>36.200000762939</ele>
        <time>2021-09-19T09:48:27.000Z</time>
      </trkpt>
      <trkpt lat="47.24562" lon="-2.29884">
        <ele>36.200000762939</ele>
        <time>2021-09-19T09:48:32.000Z</time>
      </trkpt>
      <trkpt lat="47.24558" lon="-2.29879">
        <ele>36.200000762939</ele>
        <time>2021-09-19T09:48:33.000Z</time>
      </trkpt>
      <trkpt lat="47.2455" lon="-2.29871">
        <ele>36.200000762939</ele>
        <time>2021-09-19T09:48:35.000Z</time>
      </trkpt>
      <trkpt lat="47.2454" lon="-2.29867">
        <ele>36.200000762939</ele>
        <time>2021-09-19T09:48:37.000Z</time>
      </trkpt>
      <trkpt lat="47.24507" lon="-2.29851">
        <ele>36.200000762939</ele>
        <time>2021-09-19T09:48:43.000Z</time>
      </trkpt>
      <trkpt lat="47.2449" lon="-2.29839">
        <ele>35.799999237061</ele>
        <time>2021-09-19T09:48:46.000Z</time>
      </trkpt>
      <trkpt lat="47.24485" lon="-2.29834">
        <ele>35.400001525879</ele>
        <time>2021-09-19T09:48:47.000Z</time>
      </trkpt>
      <trkpt lat="47.24481" lon="-2.29828">
        <ele>35</ele>
        <time>2021-09-19T09:48:48.000Z</time>
      </trkpt>
      <trkpt lat="47.24478" lon="-2.29822">
        <ele>34.599998474121</ele>
        <time>2021-09-19T09:48:49.000Z</time>
      </trkpt>
      <trkpt lat="47.24474" lon="-2.29815">
        <ele>34</ele>
        <time>2021-09-19T09:48:50.000Z</time>
      </trkpt>
      <trkpt lat="47.24464" lon="-2.29793">
        <ele>34</ele>
        <time>2021-09-19T09:48:53.000Z</time>
      </trkpt>
      <trkpt lat="47.2446" lon="-2.29777">
        <ele>34</ele>
        <time>2021-09-19T09:48:55.000Z</time>
      </trkpt>
      <trkpt lat="47.24457" lon="-2.29761">
        <ele>34</ele>
        <time>2021-09-19T09:48:57.000Z</time>
      </trkpt>
      <trkpt lat="47.24455" lon="-2.29752">
        <ele>34</ele>
        <time>2021-09-19T09:48:58.000Z</time>
      </trkpt>
      <trkpt lat="47.24453" lon="-2.29744">
        <ele>34</ele>
        <time>2021-09-19T09:48:59.000Z</time>
      </trkpt>
      <trkpt lat="47.24446" lon="-2.29728">
        <ele>34</ele>
        <time>2021-09-19T09:49:01.000Z</time>
      </trkpt>
      <trkpt lat="47.2444" lon="-2.29705">
        <ele>34</ele>
        <time>2021-09-19T09:49:04.000Z</time>
      </trkpt>
      <trkpt lat="47.24434" lon="-2.29692">
        <ele>34</ele>
        <time>2021-09-19T09:49:06.000Z</time>
      </trkpt>
      <trkpt lat="47.24424" lon="-2.29691">
        <ele>34</ele>
        <time>2021-09-19T09:49:08.000Z</time>
      </trkpt>
      <trkpt lat="47.24413" lon="-2.29697">
        <ele>34</ele>
        <time>2021-09-19T09:49:10.000Z</time>
      </trkpt>
      <trkpt lat="47.24408" lon="-2.29699">
        <ele>34</ele>
        <time>2021-09-19T09:49:11.000Z</time>
      </trkpt>
      <trkpt lat="47.24403" lon="-2.29702">
        <ele>34</ele>
        <time>2021-09-19T09:49:12.000Z</time>
      </trkpt>
      <trkpt lat="47.24391" lon="-2.2972">
        <ele>34</ele>
        <time>2021-09-19T09:49:15.000Z</time>
      </trkpt>
      <trkpt lat="47.24386" lon="-2.29735">
        <ele>34</ele>
        <time>2021-09-19T09:49:17.000Z</time>
      </trkpt>
      <trkpt lat="47.24378" lon="-2.29757">
        <ele>34</ele>
        <time>2021-09-19T09:49:20.000Z</time>
      </trkpt>
      <trkpt lat="47.24363" lon="-2.29792">
        <ele>34</ele>
        <time>2021-09-19T09:49:25.000Z</time>
      </trkpt>
      <trkpt lat="47.24358" lon="-2.29798">
        <ele>34</ele>
        <time>2021-09-19T09:49:26.000Z</time>
      </trkpt>
      <trkpt lat="47.24343" lon="-2.29807">
        <ele>34</ele>
        <time>2021-09-19T09:49:29.000Z</time>
      </trkpt>
      <trkpt lat="47.24337" lon="-2.29809">
        <ele>34</ele>
        <time>2021-09-19T09:49:30.000Z</time>
      </trkpt>
      <trkpt lat="47.24326" lon="-2.29817">
        <ele>34</ele>
        <time>2021-09-19T09:49:32.000Z</time>
      </trkpt>
      <trkpt lat="47.24319" lon="-2.2983">
        <ele>34</ele>
        <time>2021-09-19T09:49:34.000Z</time>
      </trkpt>
      <trkpt lat="47.24321" lon="-2.29848">
        <ele>33.599998474121</ele>
        <time>2021-09-19T09:49:36.000Z</time>
      </trkpt>
      <trkpt lat="47.24323" lon="-2.29857">
        <ele>33.200000762939</ele>
        <time>2021-09-19T09:49:37.000Z</time>
      </trkpt>
      <trkpt lat="47.24323" lon="-2.29866">
        <ele>32.799999237061</ele>
        <time>2021-09-19T09:49:38.000Z</time>
      </trkpt>
      <trkpt lat="47.24323" lon="-2.29874">
        <ele>32.400001525879</ele>
        <time>2021-09-19T09:49:39.000Z</time>
      </trkpt>
      <trkpt lat="47.24322" lon="-2.29881">
        <ele>32</ele>
        <time>2021-09-19T09:49:40.000Z</time>
      </trkpt>
      <trkpt lat="47.24319" lon="-2.29886">
        <ele>32</ele>
        <time>2021-09-19T09:49:41.000Z</time>
      </trkpt>
      <trkpt lat="47.24305" lon="-2.29897">
        <ele>31.60000038147</ele>
        <time>2021-09-19T09:49:44.000Z</time>
      </trkpt>
      <trkpt lat="47.243" lon="-2.29901">
        <ele>31.200000762939</ele>
        <time>2021-09-19T09:49:45.000Z</time>
      </trkpt>
      <trkpt lat="47.24294" lon="-2.29904">
        <ele>30.799999237061</ele>
        <time>2021-09-19T09:49:46.000Z</time>
      </trkpt>
      <trkpt lat="47.24289" lon="-2.29908">
        <ele>30.39999961853</ele>
        <time>2021-09-19T09:49:47.000Z</time>
      </trkpt>
      <trkpt lat="47.24283" lon="-2.29912">
        <ele>30</ele>
        <time>2021-09-19T09:49:48.000Z</time>
      </trkpt>
      <trkpt lat="47.24263" lon="-2.29931">
        <ele>30</ele>
        <time>2021-09-19T09:49:52.000Z</time>
      </trkpt>
      <trkpt lat="47.24234" lon="-2.29953">
        <ele>30</ele>
        <time>2021-09-19T09:49:58.000Z</time>
      </trkpt>
      <trkpt lat="47.24213" lon="-2.29961">
        <ele>30</ele>
        <time>2021-09-19T09:50:03.000Z</time>
      </trkpt>
      <trkpt lat="47.24208" lon="-2.29962">
        <ele>30</ele>
        <time>2021-09-19T09:50:04.000Z</time>
      </trkpt>
      <trkpt lat="47.24197" lon="-2.29966">
        <ele>30</ele>
        <time>2021-09-19T09:50:07.000Z</time>
      </trkpt>
      <trkpt lat="47.24189" lon="-2.29967">
        <ele>30.39999961853</ele>
        <time>2021-09-19T09:50:09.000Z</time>
      </trkpt>
      <trkpt lat="47.24185" lon="-2.29967">
        <ele>30.799999237061</ele>
        <time>2021-09-19T09:50:10.000Z</time>
      </trkpt>
      <trkpt lat="47.2418" lon="-2.29968">
        <ele>31.200000762939</ele>
        <time>2021-09-19T09:50:11.000Z</time>
      </trkpt>
      <trkpt lat="47.24177" lon="-2.29969">
        <ele>31.60000038147</ele>
        <time>2021-09-19T09:50:12.000Z</time>
      </trkpt>
      <trkpt lat="47.24174" lon="-2.2997">
        <ele>32</ele>
        <time>2021-09-19T09:50:13.000Z</time>
      </trkpt>
      <trkpt lat="47.24171" lon="-2.29971">
        <ele>32</ele>
        <time>2021-09-19T09:50:14.000Z</time>
      </trkpt>
      <trkpt lat="47.24163" lon="-2.29977">
        <ele>32</ele>
        <time>2021-09-19T09:50:19.000Z</time>
      </trkpt>
      <trkpt lat="47.24159" lon="-2.29974">
        <ele>32</ele>
        <time>2021-09-19T09:50:24.000Z</time>
      </trkpt>
      <trkpt lat="47.24159" lon="-2.29974">
        <ele>32</ele>
        <time>2021-09-19T09:50:25.000Z</time>
      </trkpt>
      <trkpt lat="47.24162" lon="-2.29978">
        <ele>32</ele>
        <time>2021-09-19T09:50:29.000Z</time>
      </trkpt>
      <trkpt lat="47.24162" lon="-2.29982">
        <ele>32</ele>
        <time>2021-09-19T09:50:31.000Z</time>
      </trkpt>
      <trkpt lat="47.24168" lon="-2.29999">
        <ele>32</ele>
        <time>2021-09-19T09:50:36.000Z</time>
      </trkpt>
      <trkpt lat="47.24168" lon="-2.30005">
        <ele>31.60000038147</ele>
        <time>2021-09-19T09:50:37.000Z</time>
      </trkpt>
      <trkpt lat="47.24167" lon="-2.30009">
        <ele>31.200000762939</ele>
        <time>2021-09-19T09:50:38.000Z</time>
      </trkpt>
      <trkpt lat="47.24167" lon="-2.30013">
        <ele>30.799999237061</ele>
        <time>2021-09-19T09:50:39.000Z</time>
      </trkpt>
      <trkpt lat="47.24166" lon="-2.30016">
        <ele>30.39999961853</ele>
        <time>2021-09-19T09:50:40.000Z</time>
      </trkpt>
      <trkpt lat="47.24165" lon="-2.30018">
        <ele>30</ele>
        <time>2021-09-19T09:50:41.000Z</time>
      </trkpt>
      <trkpt lat="47.24164" lon="-2.3002">
        <ele>30</ele>
        <time>2021-09-19T09:50:42.000Z</time>
      </trkpt>
      <trkpt lat="47.24162" lon="-2.30021">
        <ele>30</ele>
        <time>2021-09-19T09:50:43.000Z</time>
      </trkpt>
      <trkpt lat="47.24158" lon="-2.30024">
        <ele>30</ele>
        <time>2021-09-19T09:50:46.000Z</time>
      </trkpt>
      <trkpt lat="47.24156" lon="-2.30026">
        <ele>30</ele>
        <time>2021-09-19T09:50:47.000Z</time>
      </trkpt>
      <trkpt lat="47.24149" lon="-2.30045">
        <ele>30</ele>
        <time>2021-09-19T09:50:52.000Z</time>
      </trkpt>
      <trkpt lat="47.24137" lon="-2.3008">
        <ele>30</ele>
        <time>2021-09-19T09:50:58.000Z</time>
      </trkpt>
      <trkpt lat="47.24134" lon="-2.30087">
        <ele>29.60000038147</ele>
        <time>2021-09-19T09:50:59.000Z</time>
      </trkpt>
      <trkpt lat="47.24133" lon="-2.30095">
        <ele>29.200000762939</ele>
        <time>2021-09-19T09:51:00.000Z</time>
      </trkpt>
      <trkpt lat="47.24131" lon="-2.30102">
        <ele>28.799999237061</ele>
        <time>2021-09-19T09:51:01.000Z</time>
      </trkpt>
      <trkpt lat="47.2413" lon="-2.30108">
        <ele>27.799999237061</ele>
        <time>2021-09-19T09:51:02.000Z</time>
      </trkpt>
      <trkpt lat="47.24129" lon="-2.30113">
        <ele>27.799999237061</ele>
        <time>2021-09-19T09:51:03.000Z</time>
      </trkpt>
      <trkpt lat="47.24128" lon="-2.30132">
        <ele>27.799999237061</ele>
        <time>2021-09-19T09:51:08.000Z</time>
      </trkpt>
      <trkpt lat="47.2413" lon="-2.30141">
        <ele>27.799999237061</ele>
        <time>2021-09-19T09:51:11.000Z</time>
      </trkpt>
      <trkpt lat="47.24131" lon="-2.30147">
        <ele>27.799999237061</ele>
        <time>2021-09-19T09:51:13.000Z</time>
      </trkpt>
      <trkpt lat="47.24135" lon="-2.30151">
        <ele>27.39999961853</ele>
        <time>2021-09-19T09:51:15.000Z</time>
      </trkpt>
      <trkpt lat="47.24137" lon="-2.30153">
        <ele>27</ele>
        <time>2021-09-19T09:51:16.000Z</time>
      </trkpt>
      <trkpt lat="47.24139" lon="-2.30157">
        <ele>26.60000038147</ele>
        <time>2021-09-19T09:51:17.000Z</time>
      </trkpt>
      <trkpt lat="47.2414" lon="-2.3016">
        <ele>26.200000762939</ele>
        <time>2021-09-19T09:51:18.000Z</time>
      </trkpt>
      <trkpt lat="47.24141" lon="-2.30166">
        <ele>25.799999237061</ele>
        <time>2021-09-19T09:51:19.000Z</time>
      </trkpt>
      <trkpt lat="47.24146" lon="-2.30182">
        <ele>25.799999237061</ele>
        <time>2021-09-19T09:51:22.000Z</time>
      </trkpt>
      <trkpt lat="47.24153" lon="-2.30209">
        <ele>24.799999237061</ele>
        <time>2021-09-19T09:51:26.000Z</time>
      </trkpt>
      <trkpt lat="47.24155" lon="-2.30217">
        <ele>24.39999961853</ele>
        <time>2021-09-19T09:51:27.000Z</time>
      </trkpt>
      <trkpt lat="47.24158" lon="-2.30224">
        <ele>24</ele>
        <time>2021-09-19T09:51:28.000Z</time>
      </trkpt>
      <trkpt lat="47.24161" lon="-2.3023">
        <ele>23.39999961853</ele>
        <time>2021-09-19T09:51:29.000Z</time>
      </trkpt>
      <trkpt lat="47.2417" lon="-2.30235">
        <ele>23</ele>
        <time>2021-09-19T09:51:31.000Z</time>
      </trkpt>
      <trkpt lat="47.24175" lon="-2.30235">
        <ele>22.60000038147</ele>
        <time>2021-09-19T09:51:32.000Z</time>
      </trkpt>
      <trkpt lat="47.24179" lon="-2.30233">
        <ele>22.200000762939</ele>
        <time>2021-09-19T09:51:33.000Z</time>
      </trkpt>
      <trkpt lat="47.24182" lon="-2.30232">
        <ele>21.799999237061</ele>
        <time>2021-09-19T09:51:34.000Z</time>
      </trkpt>
      <trkpt lat="47.24186" lon="-2.30231">
        <ele>21.200000762939</ele>
        <time>2021-09-19T09:51:35.000Z</time>
      </trkpt>
      <trkpt lat="47.24191" lon="-2.30235">
        <ele>21.200000762939</ele>
        <time>2021-09-19T09:51:37.000Z</time>
      </trkpt>
      <trkpt lat="47.24191" lon="-2.30242">
        <ele>21.200000762939</ele>
        <time>2021-09-19T09:51:38.000Z</time>
      </trkpt>
      <trkpt lat="47.24197" lon="-2.30281">
        <ele>21.200000762939</ele>
        <time>2021-09-19T09:51:43.000Z</time>
      </trkpt>
      <trkpt lat="47.24206" lon="-2.30326">
        <ele>21.200000762939</ele>
        <time>2021-09-19T09:51:49.000Z</time>
      </trkpt>
      <trkpt lat="47.24209" lon="-2.30329">
        <ele>21.200000762939</ele>
        <time>2021-09-19T09:51:50.000Z</time>
      </trkpt>
      <trkpt lat="47.24214" lon="-2.30328">
        <ele>21.200000762939</ele>
        <time>2021-09-19T09:51:52.000Z</time>
      </trkpt>
      <trkpt lat="47.24217" lon="-2.30327">
        <ele>21.799999237061</ele>
        <time>2021-09-19T09:51:53.000Z</time>
      </trkpt>
      <trkpt lat="47.24221" lon="-2.30326">
        <ele>22.200000762939</ele>
        <time>2021-09-19T09:51:54.000Z</time>
      </trkpt>
      <trkpt lat="47.24223" lon="-2.30325">
        <ele>22.60000038147</ele>
        <time>2021-09-19T09:51:55.000Z</time>
      </trkpt>
      <trkpt lat="47.24225" lon="-2.30324">
        <ele>23</ele>
        <time>2021-09-19T09:51:56.000Z</time>
      </trkpt>
      <trkpt lat="47.24228" lon="-2.30323">
        <ele>23.60000038147</ele>
        <time>2021-09-19T09:51:57.000Z</time>
      </trkpt>
      <trkpt lat="47.24229" lon="-2.30323">
        <ele>24</ele>
        <time>2021-09-19T09:51:58.000Z</time>
      </trkpt>
      <trkpt lat="47.24231" lon="-2.30324">
        <ele>24.39999961853</ele>
        <time>2021-09-19T09:51:59.000Z</time>
      </trkpt>
      <trkpt lat="47.24233" lon="-2.30325">
        <ele>24.799999237061</ele>
        <time>2021-09-19T09:52:00.000Z</time>
      </trkpt>
      <trkpt lat="47.24235" lon="-2.30328">
        <ele>25.200000762939</ele>
        <time>2021-09-19T09:52:01.000Z</time>
      </trkpt>
      <trkpt lat="47.24237" lon="-2.30333">
        <ele>25.60000038147</ele>
        <time>2021-09-19T09:52:02.000Z</time>
      </trkpt>
      <trkpt lat="47.2424" lon="-2.30337">
        <ele>25.60000038147</ele>
        <time>2021-09-19T09:52:03.000Z</time>
      </trkpt>
      <trkpt lat="47.24246" lon="-2.30347">
        <ele>25.60000038147</ele>
        <time>2021-09-19T09:52:06.000Z</time>
      </trkpt>
      <trkpt lat="47.24248" lon="-2.3035">
        <ele>26</ele>
        <time>2021-09-19T09:52:07.000Z</time>
      </trkpt>
      <trkpt lat="47.2425" lon="-2.30354">
        <ele>26.39999961853</ele>
        <time>2021-09-19T09:52:08.000Z</time>
      </trkpt>
      <trkpt lat="47.24252" lon="-2.30358">
        <ele>26.799999237061</ele>
        <time>2021-09-19T09:52:09.000Z</time>
      </trkpt>
      <trkpt lat="47.24254" lon="-2.30362">
        <ele>27.200000762939</ele>
        <time>2021-09-19T09:52:10.000Z</time>
      </trkpt>
      <trkpt lat="47.24257" lon="-2.30367">
        <ele>27.60000038147</ele>
        <time>2021-09-19T09:52:11.000Z</time>
      </trkpt>
      <trkpt lat="47.24259" lon="-2.30371">
        <ele>27.60000038147</ele>
        <time>2021-09-19T09:52:12.000Z</time>
      </trkpt>
      <trkpt lat="47.24274" lon="-2.30395">
        <ele>27.60000038147</ele>
        <time>2021-09-19T09:52:17.000Z</time>
      </trkpt>
      <trkpt lat="47.24281" lon="-2.30404">
        <ele>27.60000038147</ele>
        <time>2021-09-19T09:52:19.000Z</time>
      </trkpt>
      <trkpt lat="47.243" lon="-2.30418">
        <ele>27.60000038147</ele>
        <time>2021-09-19T09:52:24.000Z</time>
      </trkpt>
      <trkpt lat="47.24314" lon="-2.30429">
        <ele>27.60000038147</ele>
        <time>2021-09-19T09:52:29.000Z</time>
      </trkpt>
      <trkpt lat="47.24327" lon="-2.30439">
        <ele>27.200000762939</ele>
        <time>2021-09-19T09:52:34.000Z</time>
      </trkpt>
      <trkpt lat="47.2433" lon="-2.3044">
        <ele>26.799999237061</ele>
        <time>2021-09-19T09:52:35.000Z</time>
      </trkpt>
      <trkpt lat="47.24335" lon="-2.30442">
        <ele>26.39999961853</ele>
        <time>2021-09-19T09:52:36.000Z</time>
      </trkpt>
      <trkpt lat="47.24339" lon="-2.30444">
        <ele>26</ele>
        <time>2021-09-19T09:52:37.000Z</time>
      </trkpt>
      <trkpt lat="47.24344" lon="-2.30447">
        <ele>25.60000038147</ele>
        <time>2021-09-19T09:52:38.000Z</time>
      </trkpt>
      <trkpt lat="47.2435" lon="-2.30448">
        <ele>25.60000038147</ele>
        <time>2021-09-19T09:52:39.000Z</time>
      </trkpt>
      <trkpt lat="47.24369" lon="-2.30447">
        <ele>25.60000038147</ele>
        <time>2021-09-19T09:52:43.000Z</time>
      </trkpt>
      <trkpt lat="47.24371" lon="-2.30463">
        <ele>25.60000038147</ele>
        <time>2021-09-19T09:52:46.000Z</time>
      </trkpt>
      <trkpt lat="47.24369" lon="-2.30473">
        <ele>25.60000038147</ele>
        <time>2021-09-19T09:52:48.000Z</time>
      </trkpt>
      <trkpt lat="47.24368" lon="-2.30478">
        <ele>25.200000762939</ele>
        <time>2021-09-19T09:52:49.000Z</time>
      </trkpt>
      <trkpt lat="47.24368" lon="-2.30482">
        <ele>24.799999237061</ele>
        <time>2021-09-19T09:52:50.000Z</time>
      </trkpt>
      <trkpt lat="47.24367" lon="-2.30486">
        <ele>24.39999961853</ele>
        <time>2021-09-19T09:52:51.000Z</time>
      </trkpt>
      <trkpt lat="47.24366" lon="-2.3049">
        <ele>24</ele>
        <time>2021-09-19T09:52:52.000Z</time>
      </trkpt>
      <trkpt lat="47.24364" lon="-2.30493">
        <ele>23.60000038147</ele>
        <time>2021-09-19T09:52:53.000Z</time>
      </trkpt>
      <trkpt lat="47.24359" lon="-2.30507">
        <ele>23.60000038147</ele>
        <time>2021-09-19T09:52:56.000Z</time>
      </trkpt>
      <trkpt lat="47.24359" lon="-2.30516">
        <ele>23.200000762939</ele>
        <time>2021-09-19T09:52:57.000Z</time>
      </trkpt>
      <trkpt lat="47.24359" lon="-2.30524">
        <ele>22.799999237061</ele>
        <time>2021-09-19T09:52:58.000Z</time>
      </trkpt>
      <trkpt lat="47.24359" lon="-2.30534">
        <ele>22.39999961853</ele>
        <time>2021-09-19T09:52:59.000Z</time>
      </trkpt>
      <trkpt lat="47.24361" lon="-2.30542">
        <ele>22</ele>
        <time>2021-09-19T09:53:00.000Z</time>
      </trkpt>
      <trkpt lat="47.24363" lon="-2.30548">
        <ele>21.60000038147</ele>
        <time>2021-09-19T09:53:01.000Z</time>
      </trkpt>
      <trkpt lat="47.24367" lon="-2.30555">
        <ele>21</ele>
        <time>2021-09-19T09:53:02.000Z</time>
      </trkpt>
      <trkpt lat="47.2437" lon="-2.30561">
        <ele>20.60000038147</ele>
        <time>2021-09-19T09:53:03.000Z</time>
      </trkpt>
      <trkpt lat="47.24374" lon="-2.30565">
        <ele>19.60000038147</ele>
        <time>2021-09-19T09:53:04.000Z</time>
      </trkpt>
      <trkpt lat="47.24378" lon="-2.30568">
        <ele>19.200000762939</ele>
        <time>2021-09-19T09:53:05.000Z</time>
      </trkpt>
      <trkpt lat="47.24401" lon="-2.30577">
        <ele>19.200000762939</ele>
        <time>2021-09-19T09:53:10.000Z</time>
      </trkpt>
      <trkpt lat="47.24406" lon="-2.30576">
        <ele>19.200000762939</ele>
        <time>2021-09-19T09:53:11.000Z</time>
      </trkpt>
      <trkpt lat="47.24422" lon="-2.30572">
        <ele>19.200000762939</ele>
        <time>2021-09-19T09:53:14.000Z</time>
      </trkpt>
      <trkpt lat="47.24449" lon="-2.3056">
        <ele>19.60000038147</ele>
        <time>2021-09-19T09:53:20.000Z</time>
      </trkpt>
      <trkpt lat="47.24452" lon="-2.30557">
        <ele>20</ele>
        <time>2021-09-19T09:53:21.000Z</time>
      </trkpt>
      <trkpt lat="47.24456" lon="-2.30554">
        <ele>20.60000038147</ele>
        <time>2021-09-19T09:53:22.000Z</time>
      </trkpt>
      <trkpt lat="47.24458" lon="-2.3055">
        <ele>21</ele>
        <time>2021-09-19T09:53:23.000Z</time>
      </trkpt>
      <trkpt lat="47.2446" lon="-2.30547">
        <ele>21.39999961853</ele>
        <time>2021-09-19T09:53:24.000Z</time>
      </trkpt>
      <trkpt lat="47.24462" lon="-2.30544">
        <ele>21.39999961853</ele>
        <time>2021-09-19T09:53:25.000Z</time>
      </trkpt>
      <trkpt lat="47.24465" lon="-2.30538">
        <ele>21.39999961853</ele>
        <time>2021-09-19T09:53:27.000Z</time>
      </trkpt>
      <trkpt lat="47.24468" lon="-2.30524">
        <ele>21.39999961853</ele>
        <time>2021-09-19T09:53:30.000Z</time>
      </trkpt>
      <trkpt lat="47.24477" lon="-2.30494">
        <ele>21.39999961853</ele>
        <time>2021-09-19T09:53:35.000Z</time>
      </trkpt>
      <trkpt lat="47.24489" lon="-2.30487">
        <ele>21.39999961853</ele>
        <time>2021-09-19T09:53:38.000Z</time>
      </trkpt>
      <trkpt lat="47.24501" lon="-2.30491">
        <ele>21.39999961853</ele>
        <time>2021-09-19T09:53:41.000Z</time>
      </trkpt>
      <trkpt lat="47.24508" lon="-2.30493">
        <ele>21.39999961853</ele>
        <time>2021-09-19T09:53:43.000Z</time>
      </trkpt>
      <trkpt lat="47.24514" lon="-2.30498">
        <ele>21.799999237061</ele>
        <time>2021-09-19T09:53:45.000Z</time>
      </trkpt>
      <trkpt lat="47.24517" lon="-2.30501">
        <ele>22.200000762939</ele>
        <time>2021-09-19T09:53:46.000Z</time>
      </trkpt>
      <trkpt lat="47.2452" lon="-2.30504">
        <ele>22.799999237061</ele>
        <time>2021-09-19T09:53:47.000Z</time>
      </trkpt>
      <trkpt lat="47.24523" lon="-2.30506">
        <ele>23.200000762939</ele>
        <time>2021-09-19T09:53:48.000Z</time>
      </trkpt>
      <trkpt lat="47.24526" lon="-2.30509">
        <ele>23.60000038147</ele>
        <time>2021-09-19T09:53:49.000Z</time>
      </trkpt>
      <trkpt lat="47.24544" lon="-2.3053">
        <ele>24</ele>
        <time>2021-09-19T09:53:55.000Z</time>
      </trkpt>
      <trkpt lat="47.24547" lon="-2.30534">
        <ele>24.39999961853</ele>
        <time>2021-09-19T09:53:56.000Z</time>
      </trkpt>
      <trkpt lat="47.2455" lon="-2.30538">
        <ele>24.799999237061</ele>
        <time>2021-09-19T09:53:57.000Z</time>
      </trkpt>
      <trkpt lat="47.24552" lon="-2.30542">
        <ele>25.39999961853</ele>
        <time>2021-09-19T09:53:58.000Z</time>
      </trkpt>
      <trkpt lat="47.24555" lon="-2.30546">
        <ele>25.799999237061</ele>
        <time>2021-09-19T09:53:59.000Z</time>
      </trkpt>
      <trkpt lat="47.24564" lon="-2.30557">
        <ele>25.799999237061</ele>
        <time>2021-09-19T09:54:02.000Z</time>
      </trkpt>
      <trkpt lat="47.24567" lon="-2.30561">
        <ele>26.200000762939</ele>
        <time>2021-09-19T09:54:03.000Z</time>
      </trkpt>
      <trkpt lat="47.24569" lon="-2.30566">
        <ele>26.60000038147</ele>
        <time>2021-09-19T09:54:04.000Z</time>
      </trkpt>
      <trkpt lat="47.24571" lon="-2.3057">
        <ele>27</ele>
        <time>2021-09-19T09:54:05.000Z</time>
      </trkpt>
      <trkpt lat="47.24573" lon="-2.30574">
        <ele>27.39999961853</ele>
        <time>2021-09-19T09:54:06.000Z</time>
      </trkpt>
      <trkpt lat="47.24575" lon="-2.30579">
        <ele>27.799999237061</ele>
        <time>2021-09-19T09:54:07.000Z</time>
      </trkpt>
      <trkpt lat="47.2458" lon="-2.30586">
        <ele>27.799999237061</ele>
        <time>2021-09-19T09:54:09.000Z</time>
      </trkpt>
      <trkpt lat="47.24595" lon="-2.306">
        <ele>27.799999237061</ele>
        <time>2021-09-19T09:54:14.000Z</time>
      </trkpt>
      <trkpt lat="47.24619" lon="-2.30617">
        <ele>27.799999237061</ele>
        <time>2021-09-19T09:54:21.000Z</time>
      </trkpt>
      <trkpt lat="47.24634" lon="-2.3063">
        <ele>27.799999237061</ele>
        <time>2021-09-19T09:54:26.000Z</time>
      </trkpt>
      <trkpt lat="47.24655" lon="-2.30646">
        <ele>27.799999237061</ele>
        <time>2021-09-19T09:54:32.000Z</time>
      </trkpt>
      <trkpt lat="47.24662" lon="-2.30653">
        <ele>28.200000762939</ele>
        <time>2021-09-19T09:54:34.000Z</time>
      </trkpt>
      <trkpt lat="47.24666" lon="-2.30656">
        <ele>28.60000038147</ele>
        <time>2021-09-19T09:54:35.000Z</time>
      </trkpt>
      <trkpt lat="47.24669" lon="-2.3066">
        <ele>29</ele>
        <time>2021-09-19T09:54:36.000Z</time>
      </trkpt>
      <trkpt lat="47.24672" lon="-2.30663">
        <ele>29.39999961853</ele>
        <time>2021-09-19T09:54:37.000Z</time>
      </trkpt>
      <trkpt lat="47.24676" lon="-2.30666">
        <ele>29.799999237061</ele>
        <time>2021-09-19T09:54:38.000Z</time>
      </trkpt>
      <trkpt lat="47.24683" lon="-2.30671">
        <ele>29.799999237061</ele>
        <time>2021-09-19T09:54:40.000Z</time>
      </trkpt>
      <trkpt lat="47.24704" lon="-2.3069">
        <ele>29.799999237061</ele>
        <time>2021-09-19T09:54:47.000Z</time>
      </trkpt>
      <trkpt lat="47.24719" lon="-2.30703">
        <ele>29.799999237061</ele>
        <time>2021-09-19T09:54:53.000Z</time>
      </trkpt>
      <trkpt lat="47.24721" lon="-2.30709">
        <ele>29.799999237061</ele>
        <time>2021-09-19T09:54:55.000Z</time>
      </trkpt>
      <trkpt lat="47.24721" lon="-2.30717">
        <ele>29.799999237061</ele>
        <time>2021-09-19T09:54:57.000Z</time>
      </trkpt>
      <trkpt lat="47.24721" lon="-2.30735">
        <ele>29.799999237061</ele>
        <time>2021-09-19T09:55:01.000Z</time>
      </trkpt>
      <trkpt lat="47.2472" lon="-2.30746">
        <ele>29.799999237061</ele>
        <time>2021-09-19T09:55:04.000Z</time>
      </trkpt>
      <trkpt lat="47.24718" lon="-2.30748">
        <ele>29.799999237061</ele>
        <time>2021-09-19T09:55:05.000Z</time>
      </trkpt>
      <trkpt lat="47.24714" lon="-2.30751">
        <ele>29.39999961853</ele>
        <time>2021-09-19T09:55:07.000Z</time>
      </trkpt>
      <trkpt lat="47.24712" lon="-2.30753">
        <ele>28.60000038147</ele>
        <time>2021-09-19T09:55:08.000Z</time>
      </trkpt>
      <trkpt lat="47.2471" lon="-2.30754">
        <ele>28.200000762939</ele>
        <time>2021-09-19T09:55:09.000Z</time>
      </trkpt>
      <trkpt lat="47.24708" lon="-2.30755">
        <ele>27.799999237061</ele>
        <time>2021-09-19T09:55:10.000Z</time>
      </trkpt>
      <trkpt lat="47.24707" lon="-2.30755">
        <ele>27.799999237061</ele>
        <time>2021-09-19T09:55:13.000Z</time>
      </trkpt>
      <trkpt lat="47.24719" lon="-2.30733">
        <ele>27.799999237061</ele>
        <time>2021-09-19T11:24:21.000Z</time>
      </trkpt>
      <trkpt lat="47.24719" lon="-2.30727">
        <ele>27.799999237061</ele>
        <time>2021-09-19T11:24:24.000Z</time>
      </trkpt>
      <trkpt lat="47.24719" lon="-2.30712">
        <ele>27.799999237061</ele>
        <time>2021-09-19T11:24:30.000Z</time>
      </trkpt>
      <trkpt lat="47.24721" lon="-2.30701">
        <ele>27.799999237061</ele>
        <time>2021-09-19T11:24:36.000Z</time>
      </trkpt>
      <trkpt lat="47.24723" lon="-2.30702">
        <ele>27.799999237061</ele>
        <time>2021-09-19T11:24:37.000Z</time>
      </trkpt>
      <trkpt lat="47.24726" lon="-2.30707">
        <ele>27.799999237061</ele>
        <time>2021-09-19T11:24:40.000Z</time>
      </trkpt>
      <trkpt lat="47.24727" lon="-2.30708">
        <ele>27.799999237061</ele>
        <time>2021-09-19T11:24:41.000Z</time>
      </trkpt>
      <trkpt lat="47.24733" lon="-2.30713">
        <ele>27.799999237061</ele>
        <time>2021-09-19T11:24:46.000Z</time>
      </trkpt>
      <trkpt lat="47.24737" lon="-2.30713">
        <ele>27.799999237061</ele>
        <time>2021-09-19T11:24:48.000Z</time>
      </trkpt>
      <trkpt lat="47.24741" lon="-2.30714">
        <ele>27.799999237061</ele>
        <time>2021-09-19T11:24:50.000Z</time>
      </trkpt>
      <trkpt lat="47.24747" lon="-2.30719">
        <ele>27.799999237061</ele>
        <time>2021-09-19T11:24:53.000Z</time>
      </trkpt>
      <trkpt lat="47.24768" lon="-2.30736">
        <ele>27.799999237061</ele>
        <time>2021-09-19T11:25:00.000Z</time>
      </trkpt>
      <trkpt lat="47.24797" lon="-2.30753">
        <ele>27.799999237061</ele>
        <time>2021-09-19T11:25:08.000Z</time>
      </trkpt>
      <trkpt lat="47.2482" lon="-2.30762">
        <ele>27.799999237061</ele>
        <time>2021-09-19T11:25:15.000Z</time>
      </trkpt>
      <trkpt lat="47.24853" lon="-2.3077">
        <ele>27.799999237061</ele>
        <time>2021-09-19T11:25:25.000Z</time>
      </trkpt>
      <trkpt lat="47.24874" lon="-2.30769">
        <ele>28.200000762939</ele>
        <time>2021-09-19T11:25:31.000Z</time>
      </trkpt>
      <trkpt lat="47.24877" lon="-2.30769">
        <ele>28.60000038147</ele>
        <time>2021-09-19T11:25:32.000Z</time>
      </trkpt>
      <trkpt lat="47.2488" lon="-2.30769">
        <ele>29</ele>
        <time>2021-09-19T11:25:33.000Z</time>
      </trkpt>
      <trkpt lat="47.24883" lon="-2.30769">
        <ele>29.39999961853</ele>
        <time>2021-09-19T11:25:34.000Z</time>
      </trkpt>
      <trkpt lat="47.24886" lon="-2.30769">
        <ele>29.799999237061</ele>
        <time>2021-09-19T11:25:35.000Z</time>
      </trkpt>
      <trkpt lat="47.24905" lon="-2.30768">
        <ele>29.799999237061</ele>
        <time>2021-09-19T11:25:41.000Z</time>
      </trkpt>
      <trkpt lat="47.24908" lon="-2.30767">
        <ele>29.799999237061</ele>
        <time>2021-09-19T11:25:42.000Z</time>
      </trkpt>
      <trkpt lat="47.24916" lon="-2.30774">
        <ele>29.799999237061</ele>
        <time>2021-09-19T11:25:45.000Z</time>
      </trkpt>
      <trkpt lat="47.24919" lon="-2.30781">
        <ele>29.799999237061</ele>
        <time>2021-09-19T11:25:47.000Z</time>
      </trkpt>
      <trkpt lat="47.24927" lon="-2.308">
        <ele>29.799999237061</ele>
        <time>2021-09-19T11:25:51.000Z</time>
      </trkpt>
      <trkpt lat="47.24946" lon="-2.30835">
        <ele>29.799999237061</ele>
        <time>2021-09-19T11:25:58.000Z</time>
      </trkpt>
      <trkpt lat="47.24952" lon="-2.30845">
        <ele>29.799999237061</ele>
        <time>2021-09-19T11:26:00.000Z</time>
      </trkpt>
      <trkpt lat="47.24959" lon="-2.30864">
        <ele>29.799999237061</ele>
        <time>2021-09-19T11:26:03.000Z</time>
      </trkpt>
      <trkpt lat="47.2497" lon="-2.30905">
        <ele>29.799999237061</ele>
        <time>2021-09-19T11:26:09.000Z</time>
      </trkpt>
      <trkpt lat="47.24987" lon="-2.30976">
        <ele>29.799999237061</ele>
        <time>2021-09-19T11:26:19.000Z</time>
      </trkpt>
      <trkpt lat="47.25002" lon="-2.3103">
        <ele>29</ele>
        <time>2021-09-19T11:26:27.000Z</time>
      </trkpt>
      <trkpt lat="47.25004" lon="-2.31037">
        <ele>28.60000038147</ele>
        <time>2021-09-19T11:26:28.000Z</time>
      </trkpt>
      <trkpt lat="47.25005" lon="-2.31043">
        <ele>28.200000762939</ele>
        <time>2021-09-19T11:26:29.000Z</time>
      </trkpt>
      <trkpt lat="47.25007" lon="-2.3105">
        <ele>27.799999237061</ele>
        <time>2021-09-19T11:26:30.000Z</time>
      </trkpt>
      <trkpt lat="47.25012" lon="-2.31071">
        <ele>27.799999237061</ele>
        <time>2021-09-19T11:26:33.000Z</time>
      </trkpt>
      <trkpt lat="47.25015" lon="-2.31085">
        <ele>27.799999237061</ele>
        <time>2021-09-19T11:26:35.000Z</time>
      </trkpt>
      <trkpt lat="47.25016" lon="-2.31091">
        <ele>27.799999237061</ele>
        <time>2021-09-19T11:26:36.000Z</time>
      </trkpt>
      <trkpt lat="47.25023" lon="-2.31118">
        <ele>27.799999237061</ele>
        <time>2021-09-19T11:26:40.000Z</time>
      </trkpt>
      <trkpt lat="47.25028" lon="-2.31151">
        <ele>27.799999237061</ele>
        <time>2021-09-19T11:26:45.000Z</time>
      </trkpt>
      <trkpt lat="47.25029" lon="-2.31171">
        <ele>27.799999237061</ele>
        <time>2021-09-19T11:26:48.000Z</time>
      </trkpt>
      <trkpt lat="47.25028" lon="-2.31216">
        <ele>27.799999237061</ele>
        <time>2021-09-19T11:26:55.000Z</time>
      </trkpt>
      <trkpt lat="47.25022" lon="-2.31248">
        <ele>27.799999237061</ele>
        <time>2021-09-19T11:27:00.000Z</time>
      </trkpt>
      <trkpt lat="47.25019" lon="-2.31295">
        <ele>27.799999237061</ele>
        <time>2021-09-19T11:27:07.000Z</time>
      </trkpt>
      <trkpt lat="47.25023" lon="-2.31339">
        <ele>27.799999237061</ele>
        <time>2021-09-19T11:27:14.000Z</time>
      </trkpt>
      <trkpt lat="47.25024" lon="-2.31345">
        <ele>27.799999237061</ele>
        <time>2021-09-19T11:27:15.000Z</time>
      </trkpt>
      <trkpt lat="47.2504" lon="-2.31393">
        <ele>27.799999237061</ele>
        <time>2021-09-19T11:27:23.000Z</time>
      </trkpt>
      <trkpt lat="47.25055" lon="-2.31446">
        <ele>27.799999237061</ele>
        <time>2021-09-19T11:27:32.000Z</time>
      </trkpt>
      <trkpt lat="47.25068" lon="-2.31496">
        <ele>27.799999237061</ele>
        <time>2021-09-19T11:27:40.000Z</time>
      </trkpt>
      <trkpt lat="47.25084" lon="-2.31548">
        <ele>27.39999961853</ele>
        <time>2021-09-19T11:27:48.000Z</time>
      </trkpt>
      <trkpt lat="47.25086" lon="-2.31554">
        <ele>27</ele>
        <time>2021-09-19T11:27:49.000Z</time>
      </trkpt>
      <trkpt lat="47.25089" lon="-2.3156">
        <ele>26.60000038147</ele>
        <time>2021-09-19T11:27:50.000Z</time>
      </trkpt>
      <trkpt lat="47.25091" lon="-2.31566">
        <ele>26.200000762939</ele>
        <time>2021-09-19T11:27:51.000Z</time>
      </trkpt>
      <trkpt lat="47.25092" lon="-2.31572">
        <ele>25.799999237061</ele>
        <time>2021-09-19T11:27:52.000Z</time>
      </trkpt>
      <trkpt lat="47.25101" lon="-2.31601">
        <ele>25.799999237061</ele>
        <time>2021-09-19T11:27:57.000Z</time>
      </trkpt>
      <trkpt lat="47.25115" lon="-2.3164">
        <ele>25.799999237061</ele>
        <time>2021-09-19T11:28:03.000Z</time>
      </trkpt>
      <trkpt lat="47.25137" lon="-2.31684">
        <ele>25.799999237061</ele>
        <time>2021-09-19T11:28:10.000Z</time>
      </trkpt>
      <trkpt lat="47.25158" lon="-2.31723">
        <ele>25.39999961853</ele>
        <time>2021-09-19T11:28:17.000Z</time>
      </trkpt>
      <trkpt lat="47.2516" lon="-2.31727">
        <ele>25</ele>
        <time>2021-09-19T11:28:18.000Z</time>
      </trkpt>
      <trkpt lat="47.25162" lon="-2.3173">
        <ele>24.60000038147</ele>
        <time>2021-09-19T11:28:19.000Z</time>
      </trkpt>
      <trkpt lat="47.25164" lon="-2.31734">
        <ele>24</ele>
        <time>2021-09-19T11:28:20.000Z</time>
      </trkpt>
      <trkpt lat="47.25166" lon="-2.31738">
        <ele>23.60000038147</ele>
        <time>2021-09-19T11:28:21.000Z</time>
      </trkpt>
      <trkpt lat="47.25171" lon="-2.31748">
        <ele>23.60000038147</ele>
        <time>2021-09-19T11:28:23.000Z</time>
      </trkpt>
      <trkpt lat="47.25189" lon="-2.3178">
        <ele>23.60000038147</ele>
        <time>2021-09-19T11:28:29.000Z</time>
      </trkpt>
      <trkpt lat="47.25213" lon="-2.31822">
        <ele>23.60000038147</ele>
        <time>2021-09-19T11:28:36.000Z</time>
      </trkpt>
      <trkpt lat="47.25232" lon="-2.3186">
        <ele>23.60000038147</ele>
        <time>2021-09-19T11:28:42.000Z</time>
      </trkpt>
      <trkpt lat="47.25236" lon="-2.31866">
        <ele>23.60000038147</ele>
        <time>2021-09-19T11:28:43.000Z</time>
      </trkpt>
      <trkpt lat="47.2524" lon="-2.31873">
        <ele>23.200000762939</ele>
        <time>2021-09-19T11:28:44.000Z</time>
      </trkpt>
      <trkpt lat="47.25244" lon="-2.31879">
        <ele>22.799999237061</ele>
        <time>2021-09-19T11:28:45.000Z</time>
      </trkpt>
      <trkpt lat="47.25248" lon="-2.31886">
        <ele>22.39999961853</ele>
        <time>2021-09-19T11:28:46.000Z</time>
      </trkpt>
      <trkpt lat="47.25252" lon="-2.31892">
        <ele>22</ele>
        <time>2021-09-19T11:28:47.000Z</time>
      </trkpt>
      <trkpt lat="47.25255" lon="-2.319">
        <ele>21.60000038147</ele>
        <time>2021-09-19T11:28:48.000Z</time>
      </trkpt>
      <trkpt lat="47.25263" lon="-2.31914">
        <ele>21.60000038147</ele>
        <time>2021-09-19T11:28:50.000Z</time>
      </trkpt>
      <trkpt lat="47.25284" lon="-2.31956">
        <ele>21.200000762939</ele>
        <time>2021-09-19T11:28:56.000Z</time>
      </trkpt>
      <trkpt lat="47.25288" lon="-2.31964">
        <ele>20.60000038147</ele>
        <time>2021-09-19T11:28:57.000Z</time>
      </trkpt>
      <trkpt lat="47.25292" lon="-2.31971">
        <ele>20.200000762939</ele>
        <time>2021-09-19T11:28:58.000Z</time>
      </trkpt>
      <trkpt lat="47.25295" lon="-2.31978">
        <ele>19.799999237061</ele>
        <time>2021-09-19T11:28:59.000Z</time>
      </trkpt>
      <trkpt lat="47.25299" lon="-2.31985">
        <ele>19.39999961853</ele>
        <time>2021-09-19T11:29:00.000Z</time>
      </trkpt>
      <trkpt lat="47.2531" lon="-2.32007">
        <ele>18.799999237061</ele>
        <time>2021-09-19T11:29:03.000Z</time>
      </trkpt>
      <trkpt lat="47.25314" lon="-2.32014">
        <ele>18.39999961853</ele>
        <time>2021-09-19T11:29:04.000Z</time>
      </trkpt>
      <trkpt lat="47.25318" lon="-2.32021">
        <ele>18</ele>
        <time>2021-09-19T11:29:05.000Z</time>
      </trkpt>
      <trkpt lat="47.25323" lon="-2.32027">
        <ele>17.60000038147</ele>
        <time>2021-09-19T11:29:06.000Z</time>
      </trkpt>
      <trkpt lat="47.25327" lon="-2.32032">
        <ele>17.200000762939</ele>
        <time>2021-09-19T11:29:07.000Z</time>
      </trkpt>
      <trkpt lat="47.25331" lon="-2.32038">
        <ele>17.200000762939</ele>
        <time>2021-09-19T11:29:08.000Z</time>
      </trkpt>
      <trkpt lat="47.25345" lon="-2.32053">
        <ele>17.200000762939</ele>
        <time>2021-09-19T11:29:11.000Z</time>
      </trkpt>
      <trkpt lat="47.25355" lon="-2.32056">
        <ele>16.799999237061</ele>
        <time>2021-09-19T11:29:13.000Z</time>
      </trkpt>
      <trkpt lat="47.2536" lon="-2.32054">
        <ele>16.39999961853</ele>
        <time>2021-09-19T11:29:14.000Z</time>
      </trkpt>
      <trkpt lat="47.25364" lon="-2.3205">
        <ele>16</ele>
        <time>2021-09-19T11:29:15.000Z</time>
      </trkpt>
      <trkpt lat="47.25368" lon="-2.32045">
        <ele>15.60000038147</ele>
        <time>2021-09-19T11:29:16.000Z</time>
      </trkpt>
      <trkpt lat="47.25372" lon="-2.32039">
        <ele>15.199999809265</ele>
        <time>2021-09-19T11:29:17.000Z</time>
      </trkpt>
      <trkpt lat="47.25396" lon="-2.32005">
        <ele>15.199999809265</ele>
        <time>2021-09-19T11:29:23.000Z</time>
      </trkpt>
      <trkpt lat="47.25424" lon="-2.3197">
        <ele>15.199999809265</ele>
        <time>2021-09-19T11:29:30.000Z</time>
      </trkpt>
      <trkpt lat="47.25436" lon="-2.31954">
        <ele>15.60000038147</ele>
        <time>2021-09-19T11:29:33.000Z</time>
      </trkpt>
      <trkpt lat="47.25439" lon="-2.31948">
        <ele>16</ele>
        <time>2021-09-19T11:29:34.000Z</time>
      </trkpt>
      <trkpt lat="47.25442" lon="-2.31941">
        <ele>16.39999961853</ele>
        <time>2021-09-19T11:29:35.000Z</time>
      </trkpt>
      <trkpt lat="47.25446" lon="-2.31934">
        <ele>16.799999237061</ele>
        <time>2021-09-19T11:29:36.000Z</time>
      </trkpt>
      <trkpt lat="47.25448" lon="-2.31927">
        <ele>17.200000762939</ele>
        <time>2021-09-19T11:29:37.000Z</time>
      </trkpt>
      <trkpt lat="47.25454" lon="-2.31903">
        <ele>17.200000762939</ele>
        <time>2021-09-19T11:29:40.000Z</time>
      </trkpt>
      <trkpt lat="47.25455" lon="-2.31895">
        <ele>17.200000762939</ele>
        <time>2021-09-19T11:29:41.000Z</time>
      </trkpt>
      <trkpt lat="47.25457" lon="-2.31846">
        <ele>17.200000762939</ele>
        <time>2021-09-19T11:29:47.000Z</time>
      </trkpt>
      <trkpt lat="47.25457" lon="-2.31838">
        <ele>17.200000762939</ele>
        <time>2021-09-19T11:29:48.000Z</time>
      </trkpt>
      <trkpt lat="47.25463" lon="-2.31826">
        <ele>17.200000762939</ele>
        <time>2021-09-19T11:29:50.000Z</time>
      </trkpt>
      <trkpt lat="47.25478" lon="-2.31825">
        <ele>17.200000762939</ele>
        <time>2021-09-19T11:29:53.000Z</time>
      </trkpt>
      <trkpt lat="47.25487" lon="-2.31822">
        <ele>17.200000762939</ele>
        <time>2021-09-19T11:29:55.000Z</time>
      </trkpt>
      <trkpt lat="47.25507" lon="-2.31814">
        <ele>17.200000762939</ele>
        <time>2021-09-19T11:29:59.000Z</time>
      </trkpt>
      <trkpt lat="47.25547" lon="-2.318">
        <ele>17.200000762939</ele>
        <time>2021-09-19T11:30:07.000Z</time>
      </trkpt>
      <trkpt lat="47.25563" lon="-2.31792">
        <ele>17.200000762939</ele>
        <time>2021-09-19T11:30:11.000Z</time>
      </trkpt>
      <trkpt lat="47.25565" lon="-2.31787">
        <ele>17.200000762939</ele>
        <time>2021-09-19T11:30:12.000Z</time>
      </trkpt>
      <trkpt lat="47.25571" lon="-2.31777">
        <ele>16.799999237061</ele>
        <time>2021-09-19T11:30:14.000Z</time>
      </trkpt>
      <trkpt lat="47.25574" lon="-2.31772">
        <ele>16.39999961853</ele>
        <time>2021-09-19T11:30:15.000Z</time>
      </trkpt>
      <trkpt lat="47.25578" lon="-2.31767">
        <ele>16</ele>
        <time>2021-09-19T11:30:16.000Z</time>
      </trkpt>
      <trkpt lat="47.25582" lon="-2.3176">
        <ele>15.60000038147</ele>
        <time>2021-09-19T11:30:17.000Z</time>
      </trkpt>
      <trkpt lat="47.25586" lon="-2.31753">
        <ele>15</ele>
        <time>2021-09-19T11:30:18.000Z</time>
      </trkpt>
      <trkpt lat="47.25595" lon="-2.31729">
        <ele>15</ele>
        <time>2021-09-19T11:30:21.000Z</time>
      </trkpt>
      <trkpt lat="47.25605" lon="-2.31712">
        <ele>15</ele>
        <time>2021-09-19T11:30:24.000Z</time>
      </trkpt>
      <trkpt lat="47.25621" lon="-2.31707">
        <ele>15</ele>
        <time>2021-09-19T11:30:27.000Z</time>
      </trkpt>
      <trkpt lat="47.25627" lon="-2.31706">
        <ele>15</ele>
        <time>2021-09-19T11:30:28.000Z</time>
      </trkpt>
      <trkpt lat="47.25634" lon="-2.31704">
        <ele>15</ele>
        <time>2021-09-19T11:30:29.000Z</time>
      </trkpt>
      <trkpt lat="47.25645" lon="-2.31696">
        <ele>15</ele>
        <time>2021-09-19T11:30:31.000Z</time>
      </trkpt>
      <trkpt lat="47.25654" lon="-2.3168">
        <ele>14.60000038147</ele>
        <time>2021-09-19T11:30:33.000Z</time>
      </trkpt>
      <trkpt lat="47.25658" lon="-2.31672">
        <ele>14.199999809265</ele>
        <time>2021-09-19T11:30:34.000Z</time>
      </trkpt>
      <trkpt lat="47.25661" lon="-2.31665">
        <ele>13.39999961853</ele>
        <time>2021-09-19T11:30:35.000Z</time>
      </trkpt>
      <trkpt lat="47.25665" lon="-2.31662">
        <ele>13</ele>
        <time>2021-09-19T11:30:36.000Z</time>
      </trkpt>
      <trkpt lat="47.2567" lon="-2.31661">
        <ele>13</ele>
        <time>2021-09-19T11:30:37.000Z</time>
      </trkpt>
      <trkpt lat="47.25683" lon="-2.31672">
        <ele>13</ele>
        <time>2021-09-19T11:30:40.000Z</time>
      </trkpt>
      <trkpt lat="47.25688" lon="-2.31675">
        <ele>13</ele>
        <time>2021-09-19T11:30:41.000Z</time>
      </trkpt>
      <trkpt lat="47.257" lon="-2.31682">
        <ele>12.60000038147</ele>
        <time>2021-09-19T11:30:43.000Z</time>
      </trkpt>
      <trkpt lat="47.25706" lon="-2.31685">
        <ele>12.199999809265</ele>
        <time>2021-09-19T11:30:44.000Z</time>
      </trkpt>
      <trkpt lat="47.25711" lon="-2.31689">
        <ele>11.800000190735</ele>
        <time>2021-09-19T11:30:45.000Z</time>
      </trkpt>
      <trkpt lat="47.25717" lon="-2.31693">
        <ele>11.199999809265</ele>
        <time>2021-09-19T11:30:46.000Z</time>
      </trkpt>
      <trkpt lat="47.25723" lon="-2.31695">
        <ele>10.800000190735</ele>
        <time>2021-09-19T11:30:47.000Z</time>
      </trkpt>
      <trkpt lat="47.25734" lon="-2.31695">
        <ele>10.800000190735</ele>
        <time>2021-09-19T11:30:49.000Z</time>
      </trkpt>
      <trkpt lat="47.25745" lon="-2.31687">
        <ele>10.800000190735</ele>
        <time>2021-09-19T11:30:51.000Z</time>
      </trkpt>
      <trkpt lat="47.25755" lon="-2.31679">
        <ele>10.800000190735</ele>
        <time>2021-09-19T11:30:53.000Z</time>
      </trkpt>
      <trkpt lat="47.2579" lon="-2.31649">
        <ele>10.800000190735</ele>
        <time>2021-09-19T11:31:01.000Z</time>
      </trkpt>
      <trkpt lat="47.25824" lon="-2.31622">
        <ele>10.800000190735</ele>
        <time>2021-09-19T11:31:09.000Z</time>
      </trkpt>
      <trkpt lat="47.25855" lon="-2.31593">
        <ele>10.800000190735</ele>
        <time>2021-09-19T11:31:16.000Z</time>
      </trkpt>
      <trkpt lat="47.25881" lon="-2.31566">
        <ele>10.800000190735</ele>
        <time>2021-09-19T11:31:21.000Z</time>
      </trkpt>
      <trkpt lat="47.25886" lon="-2.31559">
        <ele>10.800000190735</ele>
        <time>2021-09-19T11:31:22.000Z</time>
      </trkpt>
      <trkpt lat="47.25895" lon="-2.31534">
        <ele>10.39999961853</ele>
        <time>2021-09-19T11:31:25.000Z</time>
      </trkpt>
      <trkpt lat="47.25898" lon="-2.31526">
        <ele>10</ele>
        <time>2021-09-19T11:31:26.000Z</time>
      </trkpt>
      <trkpt lat="47.25901" lon="-2.31521">
        <ele>9.3999996185303</ele>
        <time>2021-09-19T11:31:27.000Z</time>
      </trkpt>
      <trkpt lat="47.25905" lon="-2.31517">
        <ele>9</ele>
        <time>2021-09-19T11:31:28.000Z</time>
      </trkpt>
      <trkpt lat="47.25908" lon="-2.31514">
        <ele>8.6000003814697</ele>
        <time>2021-09-19T11:31:29.000Z</time>
      </trkpt>
      <trkpt lat="47.25912" lon="-2.31507">
        <ele>8.6000003814697</ele>
        <time>2021-09-19T11:31:32.000Z</time>
      </trkpt>
      <trkpt lat="47.25912" lon="-2.31502">
        <ele>8.6000003814697</ele>
        <time>2021-09-19T11:31:36.000Z</time>
      </trkpt>
      <trkpt lat="47.25916" lon="-2.31489">
        <ele>8.6000003814697</ele>
        <time>2021-09-19T11:31:39.000Z</time>
      </trkpt>
      <trkpt lat="47.25926" lon="-2.31463">
        <ele>8.1999998092651</ele>
        <time>2021-09-19T11:31:43.000Z</time>
      </trkpt>
      <trkpt lat="47.25929" lon="-2.31458">
        <ele>7.5999999046326</ele>
        <time>2021-09-19T11:31:44.000Z</time>
      </trkpt>
      <trkpt lat="47.25933" lon="-2.31457">
        <ele>7.1999998092651</ele>
        <time>2021-09-19T11:31:45.000Z</time>
      </trkpt>
      <trkpt lat="47.25937" lon="-2.31457">
        <ele>6.8000001907349</ele>
        <time>2021-09-19T11:31:46.000Z</time>
      </trkpt>
      <trkpt lat="47.25942" lon="-2.3146">
        <ele>6.4000000953674</ele>
        <time>2021-09-19T11:31:47.000Z</time>
      </trkpt>
      <trkpt lat="47.25947" lon="-2.31464">
        <ele>6.4000000953674</ele>
        <time>2021-09-19T11:31:48.000Z</time>
      </trkpt>
      <trkpt lat="47.25961" lon="-2.31479">
        <ele>6.4000000953674</ele>
        <time>2021-09-19T11:31:51.000Z</time>
      </trkpt>
      <trkpt lat="47.25965" lon="-2.31484">
        <ele>6.4000000953674</ele>
        <time>2021-09-19T11:31:52.000Z</time>
      </trkpt>
      <trkpt lat="47.25969" lon="-2.31491">
        <ele>6.4000000953674</ele>
        <time>2021-09-19T11:31:53.000Z</time>
      </trkpt>
      <trkpt lat="47.25984" lon="-2.31525">
        <ele>6.4000000953674</ele>
        <time>2021-09-19T11:31:58.000Z</time>
      </trkpt>
      <trkpt lat="47.25991" lon="-2.31537">
        <ele>6.4000000953674</ele>
        <time>2021-09-19T11:32:00.000Z</time>
      </trkpt>
      <trkpt lat="47.25994" lon="-2.31542">
        <ele>6.4000000953674</ele>
        <time>2021-09-19T11:32:01.000Z</time>
      </trkpt>
      <trkpt lat="47.26005" lon="-2.31557">
        <ele>6.4000000953674</ele>
        <time>2021-09-19T11:32:04.000Z</time>
      </trkpt>
      <trkpt lat="47.26009" lon="-2.31562">
        <ele>6.4000000953674</ele>
        <time>2021-09-19T11:32:05.000Z</time>
      </trkpt>
      <trkpt lat="47.26016" lon="-2.31564">
        <ele>6.4000000953674</ele>
        <time>2021-09-19T11:32:07.000Z</time>
      </trkpt>
      <trkpt lat="47.26025" lon="-2.3155">
        <ele>6.4000000953674</ele>
        <time>2021-09-19T11:32:10.000Z</time>
      </trkpt>
      <trkpt lat="47.26039" lon="-2.31537">
        <ele>6.4000000953674</ele>
        <time>2021-09-19T11:32:14.000Z</time>
      </trkpt>
      <trkpt lat="47.26056" lon="-2.31544">
        <ele>6.4000000953674</ele>
        <time>2021-09-19T11:32:18.000Z</time>
      </trkpt>
      <trkpt lat="47.26062" lon="-2.31554">
        <ele>6.4000000953674</ele>
        <time>2021-09-19T11:32:20.000Z</time>
      </trkpt>
      <trkpt lat="47.26068" lon="-2.31566">
        <ele>6.4000000953674</ele>
        <time>2021-09-19T11:32:22.000Z</time>
      </trkpt>
      <trkpt lat="47.26076" lon="-2.31579">
        <ele>6.4000000953674</ele>
        <time>2021-09-19T11:32:25.000Z</time>
      </trkpt>
      <trkpt lat="47.26079" lon="-2.31581">
        <ele>6.4000000953674</ele>
        <time>2021-09-19T11:32:26.000Z</time>
      </trkpt>
      <trkpt lat="47.26086" lon="-2.31586">
        <ele>6</ele>
        <time>2021-09-19T11:32:28.000Z</time>
      </trkpt>
      <trkpt lat="47.2609" lon="-2.3159">
        <ele>5.5999999046326</ele>
        <time>2021-09-19T11:32:29.000Z</time>
      </trkpt>
      <trkpt lat="47.26094" lon="-2.31595">
        <ele>5.1999998092651</ele>
        <time>2021-09-19T11:32:30.000Z</time>
      </trkpt>
      <trkpt lat="47.26098" lon="-2.316">
        <ele>4.8000001907349</ele>
        <time>2021-09-19T11:32:31.000Z</time>
      </trkpt>
      <trkpt lat="47.26101" lon="-2.31606">
        <ele>4.4000000953674</ele>
        <time>2021-09-19T11:32:32.000Z</time>
      </trkpt>
      <trkpt lat="47.26105" lon="-2.31611">
        <ele>4.4000000953674</ele>
        <time>2021-09-19T11:32:33.000Z</time>
      </trkpt>
      <trkpt lat="47.26114" lon="-2.31616">
        <ele>4.4000000953674</ele>
        <time>2021-09-19T11:32:35.000Z</time>
      </trkpt>
      <trkpt lat="47.26125" lon="-2.31616">
        <ele>4.4000000953674</ele>
        <time>2021-09-19T11:32:37.000Z</time>
      </trkpt>
      <trkpt lat="47.26135" lon="-2.31615">
        <ele>4.4000000953674</ele>
        <time>2021-09-19T11:32:39.000Z</time>
      </trkpt>
      <trkpt lat="47.26171" lon="-2.31601">
        <ele>4.4000000953674</ele>
        <time>2021-09-19T11:32:46.000Z</time>
      </trkpt>
      <trkpt lat="47.26206" lon="-2.31589">
        <ele>4.4000000953674</ele>
        <time>2021-09-19T11:32:53.000Z</time>
      </trkpt>
      <trkpt lat="47.26226" lon="-2.31595">
        <ele>4.4000000953674</ele>
        <time>2021-09-19T11:32:57.000Z</time>
      </trkpt>
      <trkpt lat="47.26247" lon="-2.31615">
        <ele>4.4000000953674</ele>
        <time>2021-09-19T11:33:02.000Z</time>
      </trkpt>
      <trkpt lat="47.26251" lon="-2.3162">
        <ele>4.4000000953674</ele>
        <time>2021-09-19T11:33:03.000Z</time>
      </trkpt>
      <trkpt lat="47.26274" lon="-2.31659">
        <ele>4.4000000953674</ele>
        <time>2021-09-19T11:33:10.000Z</time>
      </trkpt>
      <trkpt lat="47.26294" lon="-2.31699">
        <ele>4.4000000953674</ele>
        <time>2021-09-19T11:33:17.000Z</time>
      </trkpt>
      <trkpt lat="47.26309" lon="-2.31711">
        <ele>4.4000000953674</ele>
        <time>2021-09-19T11:33:21.000Z</time>
      </trkpt>
      <trkpt lat="47.26321" lon="-2.31706">
        <ele>4.4000000953674</ele>
        <time>2021-09-19T11:33:24.000Z</time>
      </trkpt>
      <trkpt lat="47.26324" lon="-2.31704">
        <ele>4.4000000953674</ele>
        <time>2021-09-19T11:33:25.000Z</time>
      </trkpt>
      <trkpt lat="47.2633" lon="-2.31698">
        <ele>4.4000000953674</ele>
        <time>2021-09-19T11:33:27.000Z</time>
      </trkpt>
      <trkpt lat="47.26334" lon="-2.31689">
        <ele>4.4000000953674</ele>
        <time>2021-09-19T11:33:29.000Z</time>
      </trkpt>
      <trkpt lat="47.26343" lon="-2.31682">
        <ele>4.4000000953674</ele>
        <time>2021-09-19T11:33:32.000Z</time>
      </trkpt>
      <trkpt lat="47.26346" lon="-2.3168">
        <ele>4.8000001907349</ele>
        <time>2021-09-19T11:33:33.000Z</time>
      </trkpt>
      <trkpt lat="47.2635" lon="-2.31679">
        <ele>5.1999998092651</ele>
        <time>2021-09-19T11:33:34.000Z</time>
      </trkpt>
      <trkpt lat="47.26353" lon="-2.31678">
        <ele>5.5999999046326</ele>
        <time>2021-09-19T11:33:35.000Z</time>
      </trkpt>
      <trkpt lat="47.26357" lon="-2.31676">
        <ele>6.1999998092651</ele>
        <time>2021-09-19T11:33:36.000Z</time>
      </trkpt>
      <trkpt lat="47.2636" lon="-2.31675">
        <ele>6.5999999046326</ele>
        <time>2021-09-19T11:33:37.000Z</time>
      </trkpt>
      <trkpt lat="47.26367" lon="-2.31673">
        <ele>6.5999999046326</ele>
        <time>2021-09-19T11:33:39.000Z</time>
      </trkpt>
      <trkpt lat="47.26387" lon="-2.31664">
        <ele>6.5999999046326</ele>
        <time>2021-09-19T11:33:45.000Z</time>
      </trkpt>
      <trkpt lat="47.26404" lon="-2.31656">
        <ele>6.5999999046326</ele>
        <time>2021-09-19T11:33:51.000Z</time>
      </trkpt>
      <trkpt lat="47.26408" lon="-2.31648">
        <ele>6.5999999046326</ele>
        <time>2021-09-19T11:33:53.000Z</time>
      </trkpt>
      <trkpt lat="47.26409" lon="-2.31644">
        <ele>6.5999999046326</ele>
        <time>2021-09-19T11:33:54.000Z</time>
      </trkpt>
      <trkpt lat="47.26409" lon="-2.31634">
        <ele>7</ele>
        <time>2021-09-19T11:33:56.000Z</time>
      </trkpt>
      <trkpt lat="47.26409" lon="-2.31628">
        <ele>7.4000000953674</ele>
        <time>2021-09-19T11:33:57.000Z</time>
      </trkpt>
      <trkpt lat="47.26409" lon="-2.31622">
        <ele>7.8000001907349</ele>
        <time>2021-09-19T11:33:58.000Z</time>
      </trkpt>
      <trkpt lat="47.26409" lon="-2.31616">
        <ele>8.1999998092651</ele>
        <time>2021-09-19T11:33:59.000Z</time>
      </trkpt>
      <trkpt lat="47.26409" lon="-2.3161">
        <ele>8.6000003814697</ele>
        <time>2021-09-19T11:34:00.000Z</time>
      </trkpt>
      <trkpt lat="47.2641" lon="-2.31578">
        <ele>8.6000003814697</ele>
        <time>2021-09-19T11:34:06.000Z</time>
      </trkpt>
      <trkpt lat="47.2641" lon="-2.31555">
        <ele>8.6000003814697</ele>
        <time>2021-09-19T11:34:11.000Z</time>
      </trkpt>
      <trkpt lat="47.26411" lon="-2.31552">
        <ele>8.6000003814697</ele>
        <time>2021-09-19T11:34:12.000Z</time>
      </trkpt>
      <trkpt lat="47.26415" lon="-2.31553">
        <ele>8.6000003814697</ele>
        <time>2021-09-19T11:34:15.000Z</time>
      </trkpt>
      <trkpt lat="47.26416" lon="-2.31553">
        <ele>8.6000003814697</ele>
        <time>2021-09-19T11:34:16.000Z</time>
      </trkpt>
    </trkseg>
  </trk>
</gpx>